<?xml version='1.0' encoding='UTF-8'?><gpx version="1.1" creator="JPX - https://github.com/jenetics/jpx" xmlns="http://www.topografix.com/GPX/1/1"><trk><trkseg><trkpt lat="45.055234381348434" lon="8.807932001245035"><ele>78.0</ele><time>2026-04-11T12:54:47Z</time></trkpt><trkpt lat="45.05511395269783" lon="8.807932217213928"><ele>78.0</ele><time>2026-04-11T12:54:49Z</time></trkpt><trkpt lat="45.05504700549626" lon="8.807930255295313"><ele>78.0</ele><time>2026-04-11T12:54:50Z</time></trkpt><trkpt lat="45.054973248117754" lon="8.807949319169"><ele>78.0</ele><time>2026-04-11T12:54:52Z</time></trkpt><trkpt lat="45.05490682766529" lon="8.807980947113757"><ele>78.0</ele><time>2026-04-11T12:54:55Z</time></trkpt><trkpt lat="45.05481856286649" lon="8.808082150260946"><ele>78.0</ele><time>2026-04-11T12:54:57Z</time></trkpt><trkpt lat="45.05477870020629" lon="8.808158177205703"><ele>78.0</ele><time>2026-04-11T12:54:58Z</time></trkpt><trkpt lat="45.05472886659739" lon="8.808282789285025"><ele>78.0</ele><time>2026-04-11T12:55:00Z</time></trkpt><trkpt lat="45.05471896918054" lon="8.80841053866944"><ele>78.0</ele><time>2026-04-11T12:55:30Z</time></trkpt><trkpt lat="45.05481603394933" lon="8.80850925134318"><ele>78.0</ele><time>2026-04-11T12:55:32Z</time></trkpt><trkpt lat="45.05488336252773" lon="8.808548067405559"><ele>78.0</ele><time>2026-04-11T12:55:33Z</time></trkpt><trkpt lat="45.0549595702711" lon="8.808561987157093"><ele>78.0</ele><time>2026-04-11T12:55:34Z</time></trkpt><trkpt lat="45.05502884831374" lon="8.808564851354403"><ele>78.0</ele><time>2026-04-11T12:55:35Z</time></trkpt><trkpt lat="45.05511159281686" lon="8.808576854325576"><ele>78.0</ele><time>2026-04-11T12:55:37Z</time></trkpt><trkpt lat="45.05516906982959" lon="8.8086594582289"><ele>78.0</ele><time>2026-04-11T12:55:39Z</time></trkpt><trkpt lat="45.05519343954154" lon="8.808787672821268"><ele>78.0</ele><time>2026-04-11T12:55:41Z</time></trkpt><trkpt lat="45.05520275882832" lon="8.808975627851455"><ele>78.0</ele><time>2026-04-11T12:55:43Z</time></trkpt><trkpt lat="45.05521792426217" lon="8.809068794321856"><ele>78.0</ele><time>2026-04-11T12:55:44Z</time></trkpt><trkpt lat="45.05524378358386" lon="8.809151579928903"><ele>78.0</ele><time>2026-04-11T12:55:45Z</time></trkpt><trkpt lat="45.05527182379889" lon="8.80925673368256"><ele>78.0</ele><time>2026-04-11T12:55:46Z</time></trkpt><trkpt lat="45.05530272108606" lon="8.809370598864188"><ele>78.0</ele><time>2026-04-11T12:55:47Z</time></trkpt><trkpt lat="45.05533929546579" lon="8.809506519607025"><ele>78.0</ele><time>2026-04-11T12:55:48Z</time></trkpt><trkpt lat="45.05538034151365" lon="8.809659762470618"><ele>77.75</ele><time>2026-04-11T12:55:49Z</time></trkpt><trkpt lat="45.055429346174385" lon="8.809825674277262"><ele>77.5</ele><time>2026-04-11T12:55:50Z</time></trkpt><trkpt lat="45.05549817380658" lon="8.809992513257582"><ele>77.25</ele><time>2026-04-11T12:55:51Z</time></trkpt><trkpt lat="45.055588370649815" lon="8.810160850903639"><ele>77.0</ele><time>2026-04-11T12:55:52Z</time></trkpt><trkpt lat="45.05569195017701" lon="8.810323869240301"><ele>77.33333333333334</ele><time>2026-04-11T12:55:53Z</time></trkpt><trkpt lat="45.05580223636981" lon="8.810486627500927"><ele>77.66666666666667</ele><time>2026-04-11T12:55:54Z</time></trkpt><trkpt lat="45.05591779919812" lon="8.810648048351982"><ele>78.0</ele><time>2026-04-11T12:55:55Z</time></trkpt><trkpt lat="45.05601869611814" lon="8.81083154153337"><ele>78.33333333333333</ele><time>2026-04-11T12:55:56Z</time></trkpt><trkpt lat="45.05613246265829" lon="8.811000829390071"><ele>78.66666666666666</ele><time>2026-04-11T12:55:57Z</time></trkpt><trkpt lat="45.05624553854283" lon="8.811169160821912"><ele>79.0</ele><time>2026-04-11T12:55:58Z</time></trkpt><trkpt lat="45.056374926462595" lon="8.811328893332869"><ele>79.0</ele><time>2026-04-11T12:55:58.999Z</time></trkpt><trkpt lat="45.05649331092199" lon="8.81151144094572"><ele>79.0</ele><time>2026-04-11T12:56:00Z</time></trkpt><trkpt lat="45.05662152772123" lon="8.811699496672865"><ele>79.0</ele><time>2026-04-11T12:56:01Z</time></trkpt><trkpt lat="45.05674977528653" lon="8.811893648615992"><ele>79.33333333333333</ele><time>2026-04-11T12:56:02Z</time></trkpt><trkpt lat="45.056882981409295" lon="8.812096367736626"><ele>79.66666666666667</ele><time>2026-04-11T12:56:03Z</time></trkpt><trkpt lat="45.057017309880585" lon="8.812295257297132"><ele>80.0</ele><time>2026-04-11T12:56:04Z</time></trkpt><trkpt lat="45.05715286457313" lon="8.812498424897253"><ele>80.0</ele><time>2026-04-11T12:56:05Z</time></trkpt><trkpt lat="45.057287821117825" lon="8.812703100268417"><ele>80.0</ele><time>2026-04-11T12:56:06Z</time></trkpt><trkpt lat="45.057425171566734" lon="8.812908846942069"><ele>80.0</ele><time>2026-04-11T12:56:07Z</time></trkpt><trkpt lat="45.057566375274874" lon="8.813117726913603"><ele>80.0</ele><time>2026-04-11T12:56:08Z</time></trkpt><trkpt lat="45.05770473246661" lon="8.813321974216553"><ele>80.0</ele><time>2026-04-11T12:56:09Z</time></trkpt><trkpt lat="45.05784145771805" lon="8.813527917541284"><ele>80.0</ele><time>2026-04-11T12:56:10Z</time></trkpt><trkpt lat="45.05798206513209" lon="8.813737721986653"><ele>80.66666666666667</ele><time>2026-04-11T12:56:11Z</time></trkpt><trkpt lat="45.058119785966014" lon="8.81396294706005"><ele>81.33333333333333</ele><time>2026-04-11T12:56:12Z</time></trkpt><trkpt lat="45.058269834091234" lon="8.814153864923508"><ele>82.0</ele><time>2026-04-11T12:56:13Z</time></trkpt><trkpt lat="45.058399145643065" lon="8.814379408594172"><ele>82.0</ele><time>2026-04-11T12:56:14Z</time></trkpt><trkpt lat="45.05854191168707" lon="8.814592005597031"><ele>82.0</ele><time>2026-04-11T12:56:15Z</time></trkpt><trkpt lat="45.05869750627522" lon="8.814791137806228"><ele>82.0</ele><time>2026-04-11T12:56:16Z</time></trkpt><trkpt lat="45.05883889765166" lon="8.815005044330032"><ele>82.0</ele><time>2026-04-11T12:56:17Z</time></trkpt><trkpt lat="45.05897882354634" lon="8.815218194356786"><ele>82.0</ele><time>2026-04-11T12:56:18Z</time></trkpt><trkpt lat="45.05912116625941" lon="8.815435222094811"><ele>82.0</ele><time>2026-04-11T12:56:19Z</time></trkpt><trkpt lat="45.05926191525817" lon="8.815643296167684"><ele>82.0</ele><time>2026-04-11T12:56:20Z</time></trkpt><trkpt lat="45.059405399440244" lon="8.815856100797879"><ele>82.0</ele><time>2026-04-11T12:56:21Z</time></trkpt><trkpt lat="45.059545829490595" lon="8.816063358477571"><ele>82.0</ele><time>2026-04-11T12:56:22Z</time></trkpt><trkpt lat="45.059688227479725" lon="8.816274044977503"><ele>82.0</ele><time>2026-04-11T12:56:23Z</time></trkpt><trkpt lat="45.05983331442995" lon="8.816480216652115"><ele>82.0</ele><time>2026-04-11T12:56:24Z</time></trkpt><trkpt lat="45.059980763914034" lon="8.816686313037515"><ele>82.0</ele><time>2026-04-11T12:56:25Z</time></trkpt><trkpt lat="45.060131046805814" lon="8.816890694105865"><ele>81.66666666666666</ele><time>2026-04-11T12:56:26Z</time></trkpt><trkpt lat="45.06028503528644" lon="8.81709312796266"><ele>81.33333333333333</ele><time>2026-04-11T12:56:27Z</time></trkpt><trkpt lat="45.06044528665717" lon="8.81729212046772"><ele>81.0</ele><time>2026-04-11T12:56:28Z</time></trkpt><trkpt lat="45.06060632004158" lon="8.817484425232989"><ele>81.0</ele><time>2026-04-11T12:56:29Z</time></trkpt><trkpt lat="45.060773779336" lon="8.817676723566723"><ele>81.0</ele><time>2026-04-11T12:56:30Z</time></trkpt><trkpt lat="45.060944520737316" lon="8.817870353987683"><ele>81.0</ele><time>2026-04-11T12:56:31Z</time></trkpt><trkpt lat="45.06112534269655" lon="8.81806314098512"><ele>81.0</ele><time>2026-04-11T12:56:32Z</time></trkpt><trkpt lat="45.061309883232255" lon="8.818243503516298"><ele>81.0</ele><time>2026-04-11T12:56:33Z</time></trkpt><trkpt lat="45.06149719517531" lon="8.818432786704163"><ele>81.5</ele><time>2026-04-11T12:56:34Z</time></trkpt><trkpt lat="45.06168546283787" lon="8.818623915479098"><ele>82.0</ele><time>2026-04-11T12:56:35Z</time></trkpt><trkpt lat="45.06186531848407" lon="8.818833449944991"><ele>82.0</ele><time>2026-04-11T12:56:36Z</time></trkpt><trkpt lat="45.06205280035463" lon="8.819023357739825"><ele>82.0</ele><time>2026-04-11T12:56:37Z</time></trkpt><trkpt lat="45.06224037872703" lon="8.81921336327272"><ele>82.0</ele><time>2026-04-11T12:56:38Z</time></trkpt><trkpt lat="45.06242911439118" lon="8.819406868060375"><ele>82.0</ele><time>2026-04-11T12:56:39Z</time></trkpt><trkpt lat="45.06261134398599" lon="8.81960092090979"><ele>82.0</ele><time>2026-04-11T12:56:40Z</time></trkpt><trkpt lat="45.06277915151513" lon="8.819812657066372"><ele>82.0</ele><time>2026-04-11T12:56:41Z</time></trkpt><trkpt lat="45.06293967503772" lon="8.820036929754279"><ele>81.5</ele><time>2026-04-11T12:56:42Z</time></trkpt><trkpt lat="45.06309627023432" lon="8.820269874940141"><ele>81.0</ele><time>2026-04-11T12:56:43Z</time></trkpt><trkpt lat="45.063244965928554" lon="8.82051270966432"><ele>81.5</ele><time>2026-04-11T12:56:44Z</time></trkpt><trkpt lat="45.063394502861584" lon="8.820763107955187"><ele>82.0</ele><time>2026-04-11T12:56:45Z</time></trkpt><trkpt lat="45.06355257350163" lon="8.820996921854645"><ele>82.5</ele><time>2026-04-11T12:56:46Z</time></trkpt><trkpt lat="45.063697357052966" lon="8.821248171031195"><ele>83.0</ele><time>2026-04-11T12:56:47Z</time></trkpt><trkpt lat="45.06384537524605" lon="8.821507365917231"><ele>83.0</ele><time>2026-04-11T12:56:48Z</time></trkpt><trkpt lat="45.06399588460969" lon="8.821759477584408"><ele>83.0</ele><time>2026-04-11T12:56:49Z</time></trkpt><trkpt lat="45.064137342223205" lon="8.82201511325426"><ele>82.0</ele><time>2026-04-11T12:56:50Z</time></trkpt><trkpt lat="45.06429261698277" lon="8.822269543933448"><ele>81.0</ele><time>2026-04-11T12:56:51Z</time></trkpt><trkpt lat="45.0644432792875" lon="8.822528253838685"><ele>81.0</ele><time>2026-04-11T12:56:52Z</time></trkpt><trkpt lat="45.06459091469502" lon="8.822786796173308"><ele>81.0</ele><time>2026-04-11T12:56:53Z</time></trkpt><trkpt lat="45.06474006541241" lon="8.823040539649854"><ele>81.0</ele><time>2026-04-11T12:56:54Z</time></trkpt><trkpt lat="45.064881118938466" lon="8.823280384122706"><ele>81.0</ele><time>2026-04-11T12:56:55Z</time></trkpt><trkpt lat="45.0650139819878" lon="8.823504433598849"><ele>81.0</ele><time>2026-04-11T12:56:56Z</time></trkpt><trkpt lat="45.06514154025818" lon="8.823726102573188"><ele>80.66666666666667</ele><time>2026-04-11T12:56:57Z</time></trkpt><trkpt lat="45.06526526767679" lon="8.823935264381825"><ele>80.33333333333334</ele><time>2026-04-11T12:56:58Z</time></trkpt><trkpt lat="45.06538924225923" lon="8.8241358673561"><ele>80.0</ele><time>2026-04-11T12:56:59Z</time></trkpt><trkpt lat="45.065501813817306" lon="8.82432227705828"><ele>80.33333333333334</ele><time>2026-04-11T12:57:00Z</time></trkpt><trkpt lat="45.06560868698419" lon="8.824501674348339"><ele>80.66666666666667</ele><time>2026-04-11T12:57:01Z</time></trkpt><trkpt lat="45.065706852039376" lon="8.824676221173926"><ele>81.0</ele><time>2026-04-11T12:57:02Z</time></trkpt><trkpt lat="45.06580218489164" lon="8.824836451599072"><ele>81.0</ele><time>2026-04-11T12:57:03Z</time></trkpt><trkpt lat="45.06588783350347" lon="8.824990829664534"><ele>81.0</ele><time>2026-04-11T12:57:04Z</time></trkpt><trkpt lat="45.06595136667745" lon="8.825152162049122"><ele>81.0</ele><time>2026-04-11T12:57:05Z</time></trkpt><trkpt lat="45.06601887534979" lon="8.825281618796117"><ele>81.0</ele><time>2026-04-11T12:57:06Z</time></trkpt><trkpt lat="45.066087675281906" lon="8.82538500584534"><ele>80.75</ele><time>2026-04-11T12:57:07Z</time></trkpt><trkpt lat="45.06613161464949" lon="8.825506397542485"><ele>80.5</ele><time>2026-04-11T12:57:08Z</time></trkpt><trkpt lat="45.066153409681355" lon="8.825613010051859"><ele>80.25</ele><time>2026-04-11T12:57:09Z</time></trkpt><trkpt lat="45.06618020296684" lon="8.825703059341992"><ele>80.0</ele><time>2026-04-11T12:57:10Z</time></trkpt><trkpt lat="45.0660601508778" lon="8.825958414940729"><ele>80.25</ele><time>2026-04-11T12:57:12Z</time></trkpt><trkpt lat="45.06597840951621" lon="8.826059085487833"><ele>80.5</ele><time>2026-04-11T12:57:13Z</time></trkpt><trkpt lat="45.06587951162501" lon="8.826158469116223"><ele>80.75</ele><time>2026-04-11T12:57:14Z</time></trkpt><trkpt lat="45.06577342040297" lon="8.826266199305342"><ele>81.0</ele><time>2026-04-11T12:57:15Z</time></trkpt><trkpt lat="45.065663111316354" lon="8.826384522805565"><ele>80.25</ele><time>2026-04-11T12:57:16Z</time></trkpt><trkpt lat="45.06555577154539" lon="8.826501019016373"><ele>79.5</ele><time>2026-04-11T12:57:17Z</time></trkpt><trkpt lat="45.06544697627167" lon="8.826620101162998"><ele>78.75</ele><time>2026-04-11T12:57:18Z</time></trkpt><trkpt lat="45.06533161811539" lon="8.826751288850275"><ele>78.0</ele><time>2026-04-11T12:57:19Z</time></trkpt><trkpt lat="45.06521586675528" lon="8.826904585860081"><ele>78.0</ele><time>2026-04-11T12:57:20Z</time></trkpt><trkpt lat="45.06510561564355" lon="8.827072459191822"><ele>78.0</ele><time>2026-04-11T12:57:21Z</time></trkpt><trkpt lat="45.06501121200529" lon="8.827241497659896"><ele>78.0</ele><time>2026-04-11T12:57:22Z</time></trkpt><trkpt lat="45.06494110423793" lon="8.827394514470328"><ele>78.0</ele><time>2026-04-11T12:57:23Z</time></trkpt><trkpt lat="45.0648816572692" lon="8.827529224820474"><ele>78.2</ele><time>2026-04-11T12:57:24Z</time></trkpt><trkpt lat="45.064824785601395" lon="8.827628892279154"><ele>78.4</ele><time>2026-04-11T12:57:25Z</time></trkpt><trkpt lat="45.06477366353816" lon="8.827747364455146"><ele>78.60000000000001</ele><time>2026-04-11T12:57:26Z</time></trkpt><trkpt lat="45.06473815767354" lon="8.827871586188726"><ele>78.8</ele><time>2026-04-11T12:57:27Z</time></trkpt><trkpt lat="45.06467538138547" lon="8.827978775891685"><ele>79.0</ele><time>2026-04-11T12:57:28Z</time></trkpt><trkpt lat="45.064619383195186" lon="8.828110404030557"><ele>78.0</ele><time>2026-04-11T12:57:29Z</time></trkpt><trkpt lat="45.064573625873685" lon="8.828261310126251"><ele>77.0</ele><time>2026-04-11T12:57:30Z</time></trkpt><trkpt lat="45.064505361841555" lon="8.828402315487583"><ele>76.0</ele><time>2026-04-11T12:57:31Z</time></trkpt><trkpt lat="45.06443785142451" lon="8.828554614242693"><ele>75.0</ele><time>2026-04-11T12:57:32Z</time></trkpt><trkpt lat="45.06436840851381" lon="8.828713043554782"><ele>74.5</ele><time>2026-04-11T12:57:33Z</time></trkpt><trkpt lat="45.064301882769314" lon="8.828875378891064"><ele>74.0</ele><time>2026-04-11T12:57:34Z</time></trkpt><trkpt lat="45.06423001511831" lon="8.829042272107385"><ele>73.5</ele><time>2026-04-11T12:57:35Z</time></trkpt><trkpt lat="45.064157315925094" lon="8.82921317687871"><ele>73.0</ele><time>2026-04-11T12:57:36Z</time></trkpt><trkpt lat="45.064079668026366" lon="8.829387018438583"><ele>73.0</ele><time>2026-04-11T12:57:37Z</time></trkpt><trkpt lat="45.06401063734955" lon="8.829551678975841"><ele>73.0</ele><time>2026-04-11T12:57:38Z</time></trkpt><trkpt lat="45.063940775991824" lon="8.829727326025925"><ele>73.0</ele><time>2026-04-11T12:57:39Z</time></trkpt><trkpt lat="45.06386519836241" lon="8.829908722571064"><ele>73.0</ele><time>2026-04-11T12:57:40Z</time></trkpt><trkpt lat="45.06378573090792" lon="8.8300970347537"><ele>73.33333333333333</ele><time>2026-04-11T12:57:41Z</time></trkpt><trkpt lat="45.06370348831256" lon="8.830288592666951"><ele>73.66666666666667</ele><time>2026-04-11T12:57:42Z</time></trkpt><trkpt lat="45.06362523843827" lon="8.8304788620948"><ele>74.0</ele><time>2026-04-11T12:57:43Z</time></trkpt><trkpt lat="45.06354757206416" lon="8.83063965045555"><ele>74.0</ele><time>2026-04-11T12:57:44Z</time></trkpt><trkpt lat="45.06348384271006" lon="8.830794438543203"><ele>74.0</ele><time>2026-04-11T12:57:45Z</time></trkpt><trkpt lat="45.06342601420531" lon="8.830937511949585"><ele>74.0</ele><time>2026-04-11T12:57:46Z</time></trkpt><trkpt lat="45.06337348788737" lon="8.831063830677785"><ele>74.0</ele><time>2026-04-11T12:57:47Z</time></trkpt><trkpt lat="45.063329761266175" lon="8.831167096480348"><ele>74.0</ele><time>2026-04-11T12:57:48Z</time></trkpt><trkpt lat="45.06330285929315" lon="8.83125000181867"><ele>74.2</ele><time>2026-04-11T12:57:49Z</time></trkpt><trkpt lat="45.063330716232244" lon="8.831365521565505"><ele>74.4</ele><time>2026-04-11T12:57:51Z</time></trkpt><trkpt lat="45.06326489146445" lon="8.831313563366432"><ele>74.6</ele><time>2026-04-11T12:57:52Z</time></trkpt><trkpt lat="45.06344561714897" lon="8.831384066577344"><ele>74.8</ele><time>2026-04-11T12:57:54Z</time></trkpt><trkpt lat="45.06349986082494" lon="8.831279590523533"><ele>75.0</ele><time>2026-04-11T12:57:56Z</time></trkpt><trkpt lat="45.063525653510766" lon="8.831114492610808"><ele>75.0</ele><time>2026-04-11T12:57:58Z</time></trkpt><trkpt lat="45.063592418208785" lon="8.831008398045018"><ele>75.0</ele><time>2026-04-11T12:58:00Z</time></trkpt><trkpt lat="45.06358332263383" lon="8.83086957636624"><ele>75.0</ele><time>2026-04-11T12:58:02Z</time></trkpt><trkpt lat="45.0635576810719" lon="8.830760926114866"><ele>75.0</ele><time>2026-04-11T12:58:08.999Z</time></trkpt><trkpt lat="45.06359527356165" lon="8.830596989208292"><ele>75.0</ele><time>2026-04-11T12:58:10.999Z</time></trkpt><trkpt lat="45.063647005522704" lon="8.83047602761928"><ele>74.75</ele><time>2026-04-11T12:58:11.999Z</time></trkpt><trkpt lat="45.063708712807816" lon="8.8303315905314"><ele>74.5</ele><time>2026-04-11T12:58:12.999Z</time></trkpt><trkpt lat="45.06378326418812" lon="8.830162341192738"><ele>74.25</ele><time>2026-04-11T12:58:13.999Z</time></trkpt><trkpt lat="45.06386044192011" lon="8.82997485005025"><ele>74.0</ele><time>2026-04-11T12:58:14.999Z</time></trkpt><trkpt lat="45.06394319330153" lon="8.829778731701824"><ele>73.66666666666667</ele><time>2026-04-11T12:58:15.999Z</time></trkpt><trkpt lat="45.06402606166977" lon="8.829579110460537"><ele>73.33333333333333</ele><time>2026-04-11T12:58:16.999Z</time></trkpt><trkpt lat="45.064102990673646" lon="8.829394212073218"><ele>73.0</ele><time>2026-04-11T12:58:17.999Z</time></trkpt><trkpt lat="45.06417498328257" lon="8.829220834415322"><ele>73.0</ele><time>2026-04-11T12:58:18.999Z</time></trkpt><trkpt lat="45.064247459759486" lon="8.829055620349253"><ele>73.0</ele><time>2026-04-11T12:58:19.999Z</time></trkpt><trkpt lat="45.06432080203875" lon="8.828881518574878"><ele>73.0</ele><time>2026-04-11T12:58:20.999Z</time></trkpt><trkpt lat="45.06439252010205" lon="8.828711715345612"><ele>73.0</ele><time>2026-04-11T12:58:21.999Z</time></trkpt><trkpt lat="45.0644616654462" lon="8.828561058392694"><ele>73.4</ele><time>2026-04-11T12:58:22.999Z</time></trkpt><trkpt lat="45.06452227683282" lon="8.828421895081048"><ele>73.8</ele><time>2026-04-11T12:58:23.999Z</time></trkpt><trkpt lat="45.06457105336421" lon="8.828311941803147"><ele>74.2</ele><time>2026-04-11T12:58:24.999Z</time></trkpt><trkpt lat="45.06461391443291" lon="8.828216549704873"><ele>74.6</ele><time>2026-04-11T12:58:25.999Z</time></trkpt><trkpt lat="45.06465296137901" lon="8.828133737097414"><ele>75.0</ele><time>2026-04-11T12:58:26.999Z</time></trkpt><trkpt lat="45.06470297394494" lon="8.82801360144444"><ele>75.0</ele><time>2026-04-11T12:58:28.999Z</time></trkpt><trkpt lat="45.064752533515176" lon="8.827952298315282"><ele>75.0</ele><time>2026-04-11T12:58:30.999Z</time></trkpt><trkpt lat="45.06495728597588" lon="8.828004228636413"><ele>75.0</ele><time>2026-04-11T12:58:36Z</time></trkpt><trkpt lat="45.06506149954447" lon="8.828041829062245"><ele>75.0</ele><time>2026-04-11T12:58:38Z</time></trkpt><trkpt lat="45.065124914161686" lon="8.828069627546254"><ele>75.0</ele><time>2026-04-11T12:58:39Z</time></trkpt><trkpt lat="45.06518945881265" lon="8.82810179944295"><ele>74.83333333333333</ele><time>2026-04-11T12:58:40Z</time></trkpt><trkpt lat="45.06525925460537" lon="8.828138822579827"><ele>74.66666666666667</ele><time>2026-04-11T12:58:41Z</time></trkpt><trkpt lat="45.06532818008728" lon="8.82819697063316"><ele>74.5</ele><time>2026-04-11T12:58:42Z</time></trkpt><trkpt lat="45.06539386269207" lon="8.82824015942747"><ele>74.33333333333334</ele><time>2026-04-11T12:58:43Z</time></trkpt><trkpt lat="45.06546639283995" lon="8.82830601833635"><ele>74.16666666666667</ele><time>2026-04-11T12:58:44Z</time></trkpt><trkpt lat="45.06553158583473" lon="8.828379331324726"><ele>74.0</ele><time>2026-04-11T12:58:45Z</time></trkpt><trkpt lat="45.06560582018778" lon="8.828431737516908"><ele>74.0</ele><time>2026-04-11T12:58:46Z</time></trkpt><trkpt lat="45.06567763622245" lon="8.828485772124813"><ele>74.0</ele><time>2026-04-11T12:58:47Z</time></trkpt><trkpt lat="45.06575124710016" lon="8.828558859882605"><ele>74.0</ele><time>2026-04-11T12:58:48Z</time></trkpt><trkpt lat="45.06582542473795" lon="8.828612630127244"><ele>74.0</ele><time>2026-04-11T12:58:49Z</time></trkpt><trkpt lat="45.065892294670036" lon="8.82866014635171"><ele>74.0</ele><time>2026-04-11T12:58:50Z</time></trkpt><trkpt lat="45.065963072611126" lon="8.828717886263078"><ele>74.0</ele><time>2026-04-11T12:58:51Z</time></trkpt><trkpt lat="45.06604646935645" lon="8.828772554355615"><ele>74.0</ele><time>2026-04-11T12:58:52Z</time></trkpt><trkpt lat="45.06612805723618" lon="8.828821568639606"><ele>74.0</ele><time>2026-04-11T12:58:53Z</time></trkpt><trkpt lat="45.066199568799526" lon="8.828886214178043"><ele>74.0</ele><time>2026-04-11T12:58:54Z</time></trkpt><trkpt lat="45.06627464884971" lon="8.828947648522368"><ele>74.0</ele><time>2026-04-11T12:58:55Z</time></trkpt><trkpt lat="45.06634143659564" lon="8.82901749049156"><ele>74.0</ele><time>2026-04-11T12:58:56Z</time></trkpt><trkpt lat="45.06640728638395" lon="8.829089868241523"><ele>74.0</ele><time>2026-04-11T12:58:57Z</time></trkpt><trkpt lat="45.06647634344771" lon="8.829162971649577"><ele>74.0</ele><time>2026-04-11T12:58:58Z</time></trkpt><trkpt lat="45.06654464663293" lon="8.829233501561287"><ele>74.0</ele><time>2026-04-11T12:58:59Z</time></trkpt><trkpt lat="45.066605078748715" lon="8.829310565643343"><ele>74.0</ele><time>2026-04-11T12:59:00Z</time></trkpt><trkpt lat="45.06666481431707" lon="8.829389760920579"><ele>74.0</ele><time>2026-04-11T12:59:01Z</time></trkpt><trkpt lat="45.06673703387052" lon="8.829459752121812"><ele>74.0</ele><time>2026-04-11T12:59:02Z</time></trkpt><trkpt lat="45.06681137301991" lon="8.82952830473017"><ele>74.0</ele><time>2026-04-11T12:59:03Z</time></trkpt><trkpt lat="45.066882609799414" lon="8.829601316596827"><ele>74.16666666666667</ele><time>2026-04-11T12:59:04Z</time></trkpt><trkpt lat="45.06694652892819" lon="8.829668681290503"><ele>74.33333333333334</ele><time>2026-04-11T12:59:05Z</time></trkpt><trkpt lat="45.06700480862853" lon="8.829736029623204"><ele>74.5</ele><time>2026-04-11T12:59:06Z</time></trkpt><trkpt lat="45.06705308425297" lon="8.829795093481748"><ele>74.66666666666667</ele><time>2026-04-11T12:59:07Z</time></trkpt><trkpt lat="45.06713130374199" lon="8.8298863771336"><ele>74.83333333333333</ele><time>2026-04-11T12:59:09Z</time></trkpt><trkpt lat="45.067207599904776" lon="8.82997399850872"><ele>75.0</ele><time>2026-04-11T12:59:11Z</time></trkpt><trkpt lat="45.067278605354204" lon="8.830008765633288"><ele>75.0</ele><time>2026-04-11T12:59:13Z</time></trkpt><trkpt lat="45.06734725518486" lon="8.829964739745046"><ele>75.0</ele><time>2026-04-11T12:59:15Z</time></trkpt><trkpt lat="45.06741865390002" lon="8.829852094162208"><ele>75.0</ele><time>2026-04-11T12:59:17Z</time></trkpt><trkpt lat="45.06749972619353" lon="8.829723895943797"><ele>75.0</ele><time>2026-04-11T12:59:19Z</time></trkpt><trkpt lat="45.067596677385325" lon="8.829635298374292"><ele>75.0</ele><time>2026-04-11T12:59:21Z</time></trkpt><trkpt lat="45.06765282595172" lon="8.829579293326322"><ele>76.16666666666667</ele><time>2026-04-11T12:59:22Z</time></trkpt><trkpt lat="45.06770437608681" lon="8.829497538173074"><ele>77.33333333333333</ele><time>2026-04-11T12:59:23Z</time></trkpt><trkpt lat="45.06776322379064" lon="8.82943986664425"><ele>78.5</ele><time>2026-04-11T12:59:24Z</time></trkpt><trkpt lat="45.0678566714288" lon="8.829369526278462"><ele>79.66666666666666</ele><time>2026-04-11T12:59:26Z</time></trkpt><trkpt lat="45.06791647853515" lon="8.829309353692476"><ele>80.83333333333333</ele><time>2026-04-11T12:59:28Z</time></trkpt><trkpt lat="45.067978842119636" lon="8.829264232514454"><ele>82.0</ele><time>2026-04-11T12:59:39Z</time></trkpt><trkpt lat="45.06805421842447" lon="8.829375905768627"><ele>82.0</ele><time>2026-04-11T12:59:41Z</time></trkpt><trkpt lat="45.06810475187483" lon="8.829492891500747"><ele>82.0</ele><time>2026-04-11T12:59:42Z</time></trkpt><trkpt lat="45.068164816101266" lon="8.829625347587923"><ele>82.0</ele><time>2026-04-11T12:59:43Z</time></trkpt><trkpt lat="45.068246031589716" lon="8.829770328979588"><ele>82.0</ele><time>2026-04-11T12:59:44Z</time></trkpt><trkpt lat="45.06833005089398" lon="8.829932749390792"><ele>83.0</ele><time>2026-04-11T12:59:45Z</time></trkpt><trkpt lat="45.06841904020538" lon="8.83009926328537"><ele>84.0</ele><time>2026-04-11T12:59:46Z</time></trkpt><trkpt lat="45.06851706003697" lon="8.830270895712943"><ele>85.0</ele><time>2026-04-11T12:59:47Z</time></trkpt><trkpt lat="45.06862705209787" lon="8.830451561077032"><ele>85.0</ele><time>2026-04-11T12:59:48Z</time></trkpt><trkpt lat="45.06873248696742" lon="8.83064494546611"><ele>85.0</ele><time>2026-04-11T12:59:49Z</time></trkpt><trkpt lat="45.0688565461175" lon="8.830820132292853"><ele>85.0</ele><time>2026-04-11T12:59:50Z</time></trkpt><trkpt lat="45.06898501333556" lon="8.830987527180758"><ele>85.0</ele><time>2026-04-11T12:59:51Z</time></trkpt><trkpt lat="45.06911772707106" lon="8.831149020557081"><ele>85.0</ele><time>2026-04-11T12:59:52Z</time></trkpt><trkpt lat="45.069269214195145" lon="8.831278999913806"><ele>85.0</ele><time>2026-04-11T12:59:53Z</time></trkpt><trkpt lat="45.069421794153925" lon="8.831410568855333"><ele>85.0</ele><time>2026-04-11T12:59:54Z</time></trkpt><trkpt lat="45.069576850645824" lon="8.831540996725677"><ele>85.0</ele><time>2026-04-11T12:59:55Z</time></trkpt><trkpt lat="45.069758078244476" lon="8.831641097527221"><ele>85.0</ele><time>2026-04-11T12:59:56Z</time></trkpt><trkpt lat="45.06994722678899" lon="8.831721571582472"><ele>85.0</ele><time>2026-04-11T12:59:57Z</time></trkpt><trkpt lat="45.070138091466134" lon="8.831783454768262"><ele>85.0</ele><time>2026-04-11T12:59:58Z</time></trkpt><trkpt lat="45.07033591130268" lon="8.831836496181966"><ele>85.0</ele><time>2026-04-11T12:59:59Z</time></trkpt><trkpt lat="45.070541081808805" lon="8.831868383369427"><ele>82.66666666666666</ele><time>2026-04-11T13:00:00Z</time></trkpt><trkpt lat="45.07074941439398" lon="8.831952802739085"><ele>80.33333333333333</ele><time>2026-04-11T13:00:01Z</time></trkpt><trkpt lat="45.07096592217584" lon="8.831993576377279"><ele>78.0</ele><time>2026-04-11T13:00:02Z</time></trkpt><trkpt lat="45.07117898615722" lon="8.832084760544959"><ele>78.0</ele><time>2026-04-11T13:00:03Z</time></trkpt><trkpt lat="45.07139022906529" lon="8.832168074488605"><ele>78.0</ele><time>2026-04-11T13:00:04Z</time></trkpt><trkpt lat="45.07160250349715" lon="8.832267510299756"><ele>78.0</ele><time>2026-04-11T13:00:05Z</time></trkpt><trkpt lat="45.07181881431669" lon="8.832378797531979"><ele>79.0</ele><time>2026-04-11T13:00:06Z</time></trkpt><trkpt lat="45.07203432510309" lon="8.832505300077589"><ele>80.0</ele><time>2026-04-11T13:00:07Z</time></trkpt><trkpt lat="45.07224263011117" lon="8.832647049148518"><ele>79.0</ele><time>2026-04-11T13:00:08Z</time></trkpt><trkpt lat="45.07245335724" lon="8.832799953386237"><ele>78.0</ele><time>2026-04-11T13:00:09Z</time></trkpt><trkpt lat="45.07267311292953" lon="8.832965452703428"><ele>78.0</ele><time>2026-04-11T13:00:10Z</time></trkpt><trkpt lat="45.072895168061414" lon="8.83310984910636"><ele>78.0</ele><time>2026-04-11T13:00:11Z</time></trkpt><trkpt lat="45.073112093960056" lon="8.833273804158235"><ele>77.5</ele><time>2026-04-11T13:00:11.999Z</time></trkpt><trkpt lat="45.073316334567856" lon="8.833464417274566"><ele>77.0</ele><time>2026-04-11T13:00:12.999Z</time></trkpt><trkpt lat="45.073517616129735" lon="8.833634884237435"><ele>77.0</ele><time>2026-04-11T13:00:13.999Z</time></trkpt><trkpt lat="45.07369469599019" lon="8.833799399972397"><ele>77.0</ele><time>2026-04-11T13:00:14.999Z</time></trkpt><trkpt lat="45.07386567491517" lon="8.833948075993485"><ele>77.0</ele><time>2026-04-11T13:00:15.999Z</time></trkpt><trkpt lat="45.07401768476868" lon="8.834110252943233"><ele>77.33333333333334</ele><time>2026-04-11T13:00:16.999Z</time></trkpt><trkpt lat="45.07416618242148" lon="8.834243362255396"><ele>77.66666666666667</ele><time>2026-04-11T13:00:17.999Z</time></trkpt><trkpt lat="45.07431813510291" lon="8.834358429662258"><ele>78.0</ele><time>2026-04-11T13:00:18.999Z</time></trkpt><trkpt lat="45.07448305923117" lon="8.83445968005532"><ele>78.0</ele><time>2026-04-11T13:00:19.999Z</time></trkpt><trkpt lat="45.07465522636472" lon="8.834548927287896"><ele>78.0</ele><time>2026-04-11T13:00:20.999Z</time></trkpt><trkpt lat="45.07483331655364" lon="8.834627750594807"><ele>78.0</ele><time>2026-04-11T13:00:21.999Z</time></trkpt><trkpt lat="45.07501975777539" lon="8.834708221072063"><ele>78.0</ele><time>2026-04-11T13:00:22.999Z</time></trkpt><trkpt lat="45.07520051912497" lon="8.834788760963402"><ele>78.0</ele><time>2026-04-11T13:00:23.999Z</time></trkpt><trkpt lat="45.07536589857692" lon="8.834855647383494"><ele>78.0</ele><time>2026-04-11T13:00:24.999Z</time></trkpt><trkpt lat="45.07552540939449" lon="8.834902891738446"><ele>78.0</ele><time>2026-04-11T13:00:25.999Z</time></trkpt><trkpt lat="45.07568844111734" lon="8.834936302885929"><ele>78.0</ele><time>2026-04-11T13:00:27Z</time></trkpt><trkpt lat="45.075861210431285" lon="8.834932180712588"><ele>78.0</ele><time>2026-04-11T13:00:28Z</time></trkpt><trkpt lat="45.07603211373398" lon="8.834912601507988"><ele>79.5</ele><time>2026-04-11T13:00:29Z</time></trkpt><trkpt lat="45.076177508237706" lon="8.834889351190387"><ele>81.0</ele><time>2026-04-11T13:00:30Z</time></trkpt><trkpt lat="45.07631436219878" lon="8.83488377981977"><ele>82.5</ele><time>2026-04-11T13:00:31Z</time></trkpt><trkpt lat="45.07643534858071" lon="8.834941027069267"><ele>84.0</ele><time>2026-04-11T13:00:32Z</time></trkpt><trkpt lat="45.076549650110046" lon="8.834997762935295"><ele>83.4</ele><time>2026-04-11T13:00:33Z</time></trkpt><trkpt lat="45.0766289010789" lon="8.8351440365947"><ele>82.80000000000001</ele><time>2026-04-11T13:00:34Z</time></trkpt><trkpt lat="45.07670219059266" lon="8.835274578521815"><ele>82.19999999999999</ele><time>2026-04-11T13:00:35Z</time></trkpt><trkpt lat="45.076770718778015" lon="8.83537717113053"><ele>81.6</ele><time>2026-04-11T13:00:36Z</time></trkpt><trkpt lat="45.07679927967595" lon="8.835475252044718"><ele>81.0</ele><time>2026-04-11T13:00:37Z</time></trkpt><trkpt lat="45.07696596569001" lon="8.835434571032145"><ele>81.0</ele><time>2026-04-11T13:00:40Z</time></trkpt><trkpt lat="45.077018703770385" lon="8.8353750181498"><ele>81.0</ele><time>2026-04-11T13:00:41Z</time></trkpt><trkpt lat="45.077073425548875" lon="8.83530911755969"><ele>81.0</ele><time>2026-04-11T13:00:42Z</time></trkpt><trkpt lat="45.07713392383566" lon="8.835247962300054"><ele>81.0</ele><time>2026-04-11T13:00:43Z</time></trkpt><trkpt lat="45.0771992199555" lon="8.835191517328445"><ele>81.0</ele><time>2026-04-11T13:00:44Z</time></trkpt><trkpt lat="45.07726130594516" lon="8.835128625577616"><ele>81.0</ele><time>2026-04-11T13:00:45Z</time></trkpt><trkpt lat="45.07732823320346" lon="8.835090561790611"><ele>81.0</ele><time>2026-04-11T13:00:46Z</time></trkpt><trkpt lat="45.07739138077739" lon="8.835031550299066"><ele>81.4</ele><time>2026-04-11T13:00:47Z</time></trkpt><trkpt lat="45.07745556550371" lon="8.834945900752288"><ele>81.8</ele><time>2026-04-11T13:00:48Z</time></trkpt><trkpt lat="45.077532234450075" lon="8.83490577046477"><ele>82.2</ele><time>2026-04-11T13:00:49Z</time></trkpt><trkpt lat="45.07761670744945" lon="8.834845723606401"><ele>82.60000000000001</ele><time>2026-04-11T13:00:50Z</time></trkpt><trkpt lat="45.07770212073911" lon="8.834755322053727"><ele>83.0</ele><time>2026-04-11T13:00:51Z</time></trkpt><trkpt lat="45.07779534206479" lon="8.83468858721465"><ele>83.0</ele><time>2026-04-11T13:00:52Z</time></trkpt><trkpt lat="45.07789091185457" lon="8.834603188063529"><ele>83.0</ele><time>2026-04-11T13:00:53Z</time></trkpt><trkpt lat="45.077985925698584" lon="8.834515190521293"><ele>83.0</ele><time>2026-04-11T13:00:54Z</time></trkpt><trkpt lat="45.07808376235386" lon="8.83443028357207"><ele>83.0</ele><time>2026-04-11T13:00:55Z</time></trkpt><trkpt lat="45.07817775484378" lon="8.834340026966709"><ele>83.0</ele><time>2026-04-11T13:00:56Z</time></trkpt><trkpt lat="45.07827678047434" lon="8.834268521840611"><ele>83.0</ele><time>2026-04-11T13:00:57Z</time></trkpt><trkpt lat="45.078363463075156" lon="8.834170709837624"><ele>83.0</ele><time>2026-04-11T13:00:58Z</time></trkpt><trkpt lat="45.078451868243356" lon="8.834074176785936"><ele>83.0</ele><time>2026-04-11T13:00:59Z</time></trkpt><trkpt lat="45.07854341949467" lon="8.833986329889157"><ele>83.0</ele><time>2026-04-11T13:01:00Z</time></trkpt><trkpt lat="45.07864340794668" lon="8.833889508586578"><ele>83.0</ele><time>2026-04-11T13:01:01Z</time></trkpt><trkpt lat="45.07874787301158" lon="8.83379618598499"><ele>83.0</ele><time>2026-04-11T13:01:02Z</time></trkpt><trkpt lat="45.07884184672193" lon="8.833692108484044"><ele>83.0</ele><time>2026-04-11T13:01:03Z</time></trkpt><trkpt lat="45.07894261101381" lon="8.833589203199955"><ele>83.0</ele><time>2026-04-11T13:01:04Z</time></trkpt><trkpt lat="45.07904940563323" lon="8.833476143109364"><ele>83.0</ele><time>2026-04-11T13:01:05Z</time></trkpt><trkpt lat="45.07915860110806" lon="8.833362104854826"><ele>83.0</ele><time>2026-04-11T13:01:06Z</time></trkpt><trkpt lat="45.07927277234625" lon="8.833251391221637"><ele>83.0</ele><time>2026-04-11T13:01:07Z</time></trkpt><trkpt lat="45.07937747504434" lon="8.833143049278378"><ele>83.0</ele><time>2026-04-11T13:01:08Z</time></trkpt><trkpt lat="45.07946993897326" lon="8.833040255072241"><ele>83.0</ele><time>2026-04-11T13:01:09Z</time></trkpt><trkpt lat="45.0795463540804" lon="8.832960119241877"><ele>83.0</ele><time>2026-04-11T13:01:10Z</time></trkpt><trkpt lat="45.07961979415448" lon="8.83289416413319"><ele>83.0</ele><time>2026-04-11T13:01:11Z</time></trkpt><trkpt lat="45.07968889962334" lon="8.832827166180143"><ele>83.0</ele><time>2026-04-11T13:01:12Z</time></trkpt><trkpt lat="45.07976646548884" lon="8.832754473348459"><ele>83.0</ele><time>2026-04-11T13:01:13Z</time></trkpt><trkpt lat="45.079845173202635" lon="8.832683540262662"><ele>83.0</ele><time>2026-04-11T13:01:14Z</time></trkpt><trkpt lat="45.079929909000725" lon="8.83261069505139"><ele>83.0</ele><time>2026-04-11T13:01:15Z</time></trkpt><trkpt lat="45.0800161142453" lon="8.83253201983888"><ele>83.0</ele><time>2026-04-11T13:01:16Z</time></trkpt><trkpt lat="45.08010628969488" lon="8.832451009294854"><ele>83.0</ele><time>2026-04-11T13:01:17Z</time></trkpt><trkpt lat="45.08019788055718" lon="8.832367695655924"><ele>83.0</ele><time>2026-04-11T13:01:18Z</time></trkpt><trkpt lat="45.08029321649369" lon="8.832281933799566"><ele>83.0</ele><time>2026-04-11T13:01:19Z</time></trkpt><trkpt lat="45.080390348034285" lon="8.83219339555481"><ele>83.0</ele><time>2026-04-11T13:01:20Z</time></trkpt><trkpt lat="45.08049494518525" lon="8.832106262294259"><ele>83.0</ele><time>2026-04-11T13:01:21Z</time></trkpt><trkpt lat="45.080608760498656" lon="8.832003186833674"><ele>83.0</ele><time>2026-04-11T13:01:22Z</time></trkpt><trkpt lat="45.0807323300385" lon="8.831902620733352"><ele>83.33333333333334</ele><time>2026-04-11T13:01:23Z</time></trkpt><trkpt lat="45.08085425789756" lon="8.831787614427347"><ele>83.66666666666667</ele><time>2026-04-11T13:01:24Z</time></trkpt><trkpt lat="45.080992161123625" lon="8.831671507321753"><ele>84.0</ele><time>2026-04-11T13:01:25Z</time></trkpt><trkpt lat="45.081133528532185" lon="8.831543329163871"><ele>84.0</ele><time>2026-04-11T13:01:26Z</time></trkpt><trkpt lat="45.08128899446594" lon="8.831413855906128"><ele>84.0</ele><time>2026-04-11T13:01:27Z</time></trkpt><trkpt lat="45.08144369718686" lon="8.83127492253531"><ele>84.0</ele><time>2026-04-11T13:01:28Z</time></trkpt><trkpt lat="45.08159977712614" lon="8.831132381251736"><ele>84.0</ele><time>2026-04-11T13:01:29Z</time></trkpt><trkpt lat="45.081762184795885" lon="8.83098676366102"><ele>84.0</ele><time>2026-04-11T13:01:30Z</time></trkpt><trkpt lat="45.08192656365063" lon="8.830842582729753"><ele>84.0</ele><time>2026-04-11T13:01:31Z</time></trkpt><trkpt lat="45.08209246376199" lon="8.830695241815915"><ele>84.0</ele><time>2026-04-11T13:01:32Z</time></trkpt><trkpt lat="45.08226208255482" lon="8.830544939724296"><ele>84.0</ele><time>2026-04-11T13:01:33Z</time></trkpt><trkpt lat="45.08243393569862" lon="8.83038959782483"><ele>84.0</ele><time>2026-04-11T13:01:34Z</time></trkpt><trkpt lat="45.08260943032068" lon="8.830232134856756"><ele>83.66666666666667</ele><time>2026-04-11T13:01:35Z</time></trkpt><trkpt lat="45.08278279304237" lon="8.830074610736434"><ele>83.33333333333334</ele><time>2026-04-11T13:01:36Z</time></trkpt><trkpt lat="45.08295777896655" lon="8.829914580798345"><ele>83.0</ele><time>2026-04-11T13:01:37Z</time></trkpt><trkpt lat="45.083134636542425" lon="8.82976012172"><ele>83.33333333333334</ele><time>2026-04-11T13:01:38Z</time></trkpt><trkpt lat="45.08330429050447" lon="8.829610554781349"><ele>83.66666666666667</ele><time>2026-04-11T13:01:39Z</time></trkpt><trkpt lat="45.08346007559771" lon="8.829467861748949"><ele>84.0</ele><time>2026-04-11T13:01:40Z</time></trkpt><trkpt lat="45.08360088179299" lon="8.82934250412314"><ele>83.66666666666667</ele><time>2026-04-11T13:01:41Z</time></trkpt><trkpt lat="45.083737349275935" lon="8.829221064895606"><ele>83.33333333333334</ele><time>2026-04-11T13:01:42Z</time></trkpt><trkpt lat="45.083865305985015" lon="8.829105587967348"><ele>83.0</ele><time>2026-04-11T13:01:43Z</time></trkpt><trkpt lat="45.08399475947782" lon="8.828990573814608"><ele>83.0</ele><time>2026-04-11T13:01:44Z</time></trkpt><trkpt lat="45.08412613876334" lon="8.828875939342673"><ele>83.0</ele><time>2026-04-11T13:01:45Z</time></trkpt><trkpt lat="45.084260415541294" lon="8.82876003309609"><ele>83.0</ele><time>2026-04-11T13:01:46Z</time></trkpt><trkpt lat="45.084398479484356" lon="8.828638255724066"><ele>83.0</ele><time>2026-04-11T13:01:47Z</time></trkpt><trkpt lat="45.0845451152098" lon="8.828537595481592"><ele>83.0</ele><time>2026-04-11T13:01:48Z</time></trkpt><trkpt lat="45.08469106089075" lon="8.828420276672434"><ele>83.0</ele><time>2026-04-11T13:01:49Z</time></trkpt><trkpt lat="45.0848331988488" lon="8.828283498547849"><ele>83.66666666666667</ele><time>2026-04-11T13:01:50Z</time></trkpt><trkpt lat="45.08498099076509" lon="8.828168352079347"><ele>84.33333333333333</ele><time>2026-04-11T13:01:51Z</time></trkpt><trkpt lat="45.08512606196273" lon="8.828045501551353"><ele>85.0</ele><time>2026-04-11T13:01:52Z</time></trkpt><trkpt lat="45.085271237865456" lon="8.827898483770246"><ele>85.0</ele><time>2026-04-11T13:01:53Z</time></trkpt><trkpt lat="45.085411627046376" lon="8.827741483559782"><ele>85.0</ele><time>2026-04-11T13:01:54Z</time></trkpt><trkpt lat="45.085550037885724" lon="8.827573974907065"><ele>85.0</ele><time>2026-04-11T13:01:55Z</time></trkpt><trkpt lat="45.08568777784161" lon="8.827405147374368"><ele>83.66666666666666</ele><time>2026-04-11T13:01:56Z</time></trkpt><trkpt lat="45.085844869764514" lon="8.827244072225165"><ele>82.33333333333333</ele><time>2026-04-11T13:01:57Z</time></trkpt><trkpt lat="45.08598178308362" lon="8.827053412762949"><ele>81.0</ele><time>2026-04-11T13:01:58Z</time></trkpt><trkpt lat="45.08613854089999" lon="8.826883566819161"><ele>80.66666666666667</ele><time>2026-04-11T13:01:59Z</time></trkpt><trkpt lat="45.08630768555805" lon="8.82674280471672"><ele>80.33333333333334</ele><time>2026-04-11T13:02:00Z</time></trkpt><trkpt lat="45.086467101857636" lon="8.826584979601714"><ele>80.0</ele><time>2026-04-11T13:02:01Z</time></trkpt><trkpt lat="45.08662855170186" lon="8.826428891221365"><ele>79.33333333333334</ele><time>2026-04-11T13:02:02Z</time></trkpt><trkpt lat="45.086785322168794" lon="8.826268840003964"><ele>78.66666666666667</ele><time>2026-04-11T13:02:03Z</time></trkpt><trkpt lat="45.08693681866526" lon="8.826111360995545"><ele>78.0</ele><time>2026-04-11T13:02:04Z</time></trkpt><trkpt lat="45.08707856014332" lon="8.825967987351602"><ele>79.33333333333333</ele><time>2026-04-11T13:02:05Z</time></trkpt><trkpt lat="45.08721370117421" lon="8.82584471272556"><ele>80.66666666666666</ele><time>2026-04-11T13:02:06Z</time></trkpt><trkpt lat="45.08735943218531" lon="8.82574949753422"><ele>82.0</ele><time>2026-04-11T13:02:07Z</time></trkpt><trkpt lat="45.08751765227438" lon="8.825642230090553"><ele>83.33333333333333</ele><time>2026-04-11T13:02:08Z</time></trkpt><trkpt lat="45.0876777080448" lon="8.825537957242505"><ele>84.66666666666667</ele><time>2026-04-11T13:02:09Z</time></trkpt><trkpt lat="45.08783936710454" lon="8.825431850033763"><ele>86.0</ele><time>2026-04-11T13:02:10Z</time></trkpt><trkpt lat="45.08800463432122" lon="8.82531692589852"><ele>86.0</ele><time>2026-04-11T13:02:11Z</time></trkpt><trkpt lat="45.08816686572966" lon="8.825175518515467"><ele>86.0</ele><time>2026-04-11T13:02:12Z</time></trkpt><trkpt lat="45.08832118778436" lon="8.825021593415215"><ele>86.0</ele><time>2026-04-11T13:02:13Z</time></trkpt><trkpt lat="45.08847935378671" lon="8.82485681746078"><ele>85.33333333333334</ele><time>2026-04-11T13:02:14Z</time></trkpt><trkpt lat="45.08863871751668" lon="8.824694553807031"><ele>84.66666666666667</ele><time>2026-04-11T13:02:15Z</time></trkpt><trkpt lat="45.08879748537578" lon="8.82453431925891"><ele>84.0</ele><time>2026-04-11T13:02:16Z</time></trkpt><trkpt lat="45.08893332865333" lon="8.824403873918943"><ele>83.66666666666667</ele><time>2026-04-11T13:02:17Z</time></trkpt><trkpt lat="45.089074039198564" lon="8.82429949896359"><ele>83.33333333333334</ele><time>2026-04-11T13:02:17.999Z</time></trkpt><trkpt lat="45.08923848721222" lon="8.824206980338454"><ele>83.0</ele><time>2026-04-11T13:02:18.999Z</time></trkpt><trkpt lat="45.089415602767" lon="8.824117724299716"><ele>83.0</ele><time>2026-04-11T13:02:19.999Z</time></trkpt><trkpt lat="45.089588312528114" lon="8.82400711661099"><ele>83.0</ele><time>2026-04-11T13:02:20.999Z</time></trkpt><trkpt lat="45.08977893138406" lon="8.823936309406571"><ele>83.0</ele><time>2026-04-11T13:02:21.999Z</time></trkpt><trkpt lat="45.08996720106054" lon="8.823839345711814"><ele>83.0</ele><time>2026-04-11T13:02:22.999Z</time></trkpt><trkpt lat="45.09015836903097" lon="8.823740889539637"><ele>83.0</ele><time>2026-04-11T13:02:23.999Z</time></trkpt><trkpt lat="45.09035191491273" lon="8.823648265905154"><ele>83.0</ele><time>2026-04-11T13:02:24.999Z</time></trkpt><trkpt lat="45.09055716606344" lon="8.823567738285227"><ele>83.0</ele><time>2026-04-11T13:02:25.999Z</time></trkpt><trkpt lat="45.09076284233912" lon="8.823508305408419"><ele>83.0</ele><time>2026-04-11T13:02:26.999Z</time></trkpt><trkpt lat="45.090961771333426" lon="8.823451030267265"><ele>83.0</ele><time>2026-04-11T13:02:27.999Z</time></trkpt><trkpt lat="45.09114525809248" lon="8.823398201279831"><ele>83.0</ele><time>2026-04-11T13:02:29Z</time></trkpt><trkpt lat="45.09131288023116" lon="8.82335270317763"><ele>83.0</ele><time>2026-04-11T13:02:30Z</time></trkpt><trkpt lat="45.09146158185483" lon="8.823313067874373"><ele>83.0</ele><time>2026-04-11T13:02:31Z</time></trkpt><trkpt lat="45.091583967505514" lon="8.823237037458997"><ele>83.5</ele><time>2026-04-11T13:02:32Z</time></trkpt><trkpt lat="45.09170036063845" lon="8.823211822494983"><ele>84.0</ele><time>2026-04-11T13:02:33Z</time></trkpt><trkpt lat="45.09179742855425" lon="8.82319255436376"><ele>84.5</ele><time>2026-04-11T13:02:34Z</time></trkpt><trkpt lat="45.09187959352494" lon="8.823175116556419"><ele>85.0</ele><time>2026-04-11T13:02:35Z</time></trkpt><trkpt lat="45.09194275843144" lon="8.823169535214678"><ele>85.5</ele><time>2026-04-11T13:02:36Z</time></trkpt><trkpt lat="45.0920105919503" lon="8.823223375913111"><ele>86.0</ele><time>2026-04-11T13:02:38Z</time></trkpt><trkpt lat="45.091984117826925" lon="8.823335946235924"><ele>86.0</ele><time>2026-04-11T13:02:39Z</time></trkpt><trkpt lat="45.092012521014304" lon="8.82344804385313"><ele>86.0</ele><time>2026-04-11T13:02:41Z</time></trkpt><trkpt lat="45.09202726447184" lon="8.823535202153947"><ele>86.0</ele><time>2026-04-11T13:02:42Z</time></trkpt><trkpt lat="45.09200085335708" lon="8.823708546029431"><ele>86.0</ele><time>2026-04-11T13:02:44Z</time></trkpt><trkpt lat="45.091993987180516" lon="8.823822679116205"><ele>86.0</ele><time>2026-04-11T13:02:45Z</time></trkpt><trkpt lat="45.09198313556472" lon="8.823910879128308"><ele>86.0</ele><time>2026-04-11T13:02:46Z</time></trkpt><trkpt lat="45.09197467208097" lon="8.824024722612311"><ele>85.0</ele><time>2026-04-11T13:02:48Z</time></trkpt><trkpt lat="45.092397225841644" lon="8.82430450407361"><ele>85.16666666666666</ele><time>2026-04-11T13:02:50Z</time></trkpt><trkpt lat="45.0924481037037" lon="8.824406853014302"><ele>85.33333333333333</ele><time>2026-04-11T13:02:51Z</time></trkpt><trkpt lat="45.092496335654744" lon="8.824501752356"><ele>85.5</ele><time>2026-04-11T13:02:52Z</time></trkpt><trkpt lat="45.092550077537474" lon="8.824606047781314"><ele>85.66666666666667</ele><time>2026-04-11T13:02:53Z</time></trkpt><trkpt lat="45.09260017930288" lon="8.824704760005448"><ele>85.83333333333334</ele><time>2026-04-11T13:02:54Z</time></trkpt><trkpt lat="45.09264413649743" lon="8.824802928244607"><ele>86.0</ele><time>2026-04-11T13:02:55Z</time></trkpt><trkpt lat="45.09269234794209" lon="8.824906735076452"><ele>86.0</ele><time>2026-04-11T13:02:56Z</time></trkpt><trkpt lat="45.092742300631635" lon="8.825015272302451"><ele>86.0</ele><time>2026-04-11T13:02:57Z</time></trkpt><trkpt lat="45.09279990594257" lon="8.825129647373977"><ele>86.0</ele><time>2026-04-11T13:02:58Z</time></trkpt><trkpt lat="45.092854742572776" lon="8.825249514049803"><ele>86.0</ele><time>2026-04-11T13:02:59Z</time></trkpt><trkpt lat="45.09290983961015" lon="8.825366700920215"><ele>86.0</ele><time>2026-04-11T13:03:00Z</time></trkpt><trkpt lat="45.09296602238581" lon="8.825487340505779"><ele>86.0</ele><time>2026-04-11T13:03:01Z</time></trkpt><trkpt lat="45.093028788696735" lon="8.82561288124242"><ele>86.0</ele><time>2026-04-11T13:03:02Z</time></trkpt><trkpt lat="45.0930862011893" lon="8.825737491856628"><ele>86.0</ele><time>2026-04-11T13:03:03Z</time></trkpt><trkpt lat="45.0931444583185" lon="8.82586062577231"><ele>86.0</ele><time>2026-04-11T13:03:04Z</time></trkpt><trkpt lat="45.09320335481099" lon="8.8259805293035"><ele>86.0</ele><time>2026-04-11T13:03:05Z</time></trkpt><trkpt lat="45.0932633367856" lon="8.82610458310673"><ele>86.16666666666667</ele><time>2026-04-11T13:03:06Z</time></trkpt><trkpt lat="45.09331842393458" lon="8.826218370947387"><ele>86.33333333333334</ele><time>2026-04-11T13:03:07Z</time></trkpt><trkpt lat="45.093363769243915" lon="8.826314838147189"><ele>86.5</ele><time>2026-04-11T13:03:08Z</time></trkpt><trkpt lat="45.09340371615806" lon="8.82640289593517"><ele>86.66666666666667</ele><time>2026-04-11T13:03:09Z</time></trkpt><trkpt lat="45.093441578218965" lon="8.826480057340525"><ele>86.83333333333333</ele><time>2026-04-11T13:03:10Z</time></trkpt><trkpt lat="45.093482799334986" lon="8.826551784215228"><ele>87.0</ele><time>2026-04-11T13:03:11Z</time></trkpt><trkpt lat="45.09357303294689" lon="8.826634332281783"><ele>87.0</ele><time>2026-04-11T13:03:13Z</time></trkpt><trkpt lat="45.093669123176745" lon="8.826586168454446"><ele>87.0</ele><time>2026-04-11T13:03:15Z</time></trkpt><trkpt lat="45.093739768284706" lon="8.826441176112299"><ele>87.0</ele><time>2026-04-11T13:03:17Z</time></trkpt><trkpt lat="45.09377848705836" lon="8.826344451965848"><ele>87.0</ele><time>2026-04-11T13:03:18Z</time></trkpt><trkpt lat="45.09383004371856" lon="8.82624209115791"><ele>87.0</ele><time>2026-04-11T13:03:19Z</time></trkpt><trkpt lat="45.0938929459135" lon="8.826144601160923"><ele>87.0</ele><time>2026-04-11T13:03:20Z</time></trkpt><trkpt lat="45.093982740638076" lon="8.826051797274003"><ele>87.0</ele><time>2026-04-11T13:03:21Z</time></trkpt><trkpt lat="45.094108181488004" lon="8.82593667542252"><ele>87.0</ele><time>2026-04-11T13:03:22Z</time></trkpt><trkpt lat="45.094265698507655" lon="8.825777391171687"><ele>87.0</ele><time>2026-04-11T13:03:23Z</time></trkpt><trkpt lat="45.09442185001379" lon="8.82562679876413"><ele>87.0</ele><time>2026-04-11T13:03:24Z</time></trkpt><trkpt lat="45.09454297602598" lon="8.825509244689945"><ele>87.0</ele><time>2026-04-11T13:03:25Z</time></trkpt><trkpt lat="45.0946449126073" lon="8.825408475996591"><ele>87.0</ele><time>2026-04-11T13:03:26Z</time></trkpt><trkpt lat="45.09473813509518" lon="8.825316701024823"><ele>87.0</ele><time>2026-04-11T13:03:27Z</time></trkpt><trkpt lat="45.09482173839024" lon="8.825238442039296"><ele>87.0</ele><time>2026-04-11T13:03:28Z</time></trkpt><trkpt lat="45.09489475658968" lon="8.825163718563534"><ele>87.0</ele><time>2026-04-11T13:03:29Z</time></trkpt><trkpt lat="45.09496756837173" lon="8.825094105477238"><ele>87.0</ele><time>2026-04-11T13:03:30Z</time></trkpt><trkpt lat="45.09503526816495" lon="8.825028742149307"><ele>86.8</ele><time>2026-04-11T13:03:31Z</time></trkpt><trkpt lat="45.09510206249273" lon="8.824965132557258"><ele>86.6</ele><time>2026-04-11T13:03:32Z</time></trkpt><trkpt lat="45.09517198590642" lon="8.824894497770337"><ele>86.39999999999999</ele><time>2026-04-11T13:03:33Z</time></trkpt><trkpt lat="45.095251513478" lon="8.82481423410297"><ele>86.19999999999999</ele><time>2026-04-11T13:03:34Z</time></trkpt><trkpt lat="45.09533212526593" lon="8.824739073847331"><ele>86.0</ele><time>2026-04-11T13:03:35Z</time></trkpt><trkpt lat="45.09540951974783" lon="8.824660989081234"><ele>86.0</ele><time>2026-04-11T13:03:36Z</time></trkpt><trkpt lat="45.09548802814373" lon="8.824582847088466"><ele>86.0</ele><time>2026-04-11T13:03:37Z</time></trkpt><trkpt lat="45.09556689356074" lon="8.824504597768327"><ele>86.0</ele><time>2026-04-11T13:03:38Z</time></trkpt><trkpt lat="45.095646651685776" lon="8.824424829473951"><ele>86.0</ele><time>2026-04-11T13:03:39Z</time></trkpt><trkpt lat="45.095733039134785" lon="8.824345592409491"><ele>86.0</ele><time>2026-04-11T13:03:40Z</time></trkpt><trkpt lat="45.095817875306594" lon="8.82426523132621"><ele>86.33333333333334</ele><time>2026-04-11T13:03:41Z</time></trkpt><trkpt lat="45.09589138985122" lon="8.82418991980429"><ele>86.66666666666667</ele><time>2026-04-11T13:03:42Z</time></trkpt><trkpt lat="45.09596897214364" lon="8.82411127143664"><ele>87.0</ele><time>2026-04-11T13:03:43Z</time></trkpt><trkpt lat="45.09604939886807" lon="8.824036548828673"><ele>87.33333333333333</ele><time>2026-04-11T13:03:44Z</time></trkpt><trkpt lat="45.09611830090048" lon="8.823968274075854"><ele>87.66666666666666</ele><time>2026-04-11T13:03:45Z</time></trkpt><trkpt lat="45.09617968798612" lon="8.823905636979811"><ele>88.0</ele><time>2026-04-11T13:03:46Z</time></trkpt><trkpt lat="45.09624485842895" lon="8.823843313064302"><ele>88.0</ele><time>2026-04-11T13:03:47Z</time></trkpt><trkpt lat="45.09631269156003" lon="8.823774187536136"><ele>88.0</ele><time>2026-04-11T13:03:48Z</time></trkpt><trkpt lat="45.09638975523753" lon="8.823701885932223"><ele>88.0</ele><time>2026-04-11T13:03:49Z</time></trkpt><trkpt lat="45.09646726070184" lon="8.823633570264576"><ele>88.0</ele><time>2026-04-11T13:03:50Z</time></trkpt><trkpt lat="45.096536178942664" lon="8.82356503650604"><ele>88.0</ele><time>2026-04-11T13:03:51Z</time></trkpt><trkpt lat="45.096611943684294" lon="8.823490459947095"><ele>88.0</ele><time>2026-04-11T13:03:52Z</time></trkpt><trkpt lat="45.096694366703716" lon="8.823417656800906"><ele>87.80000000000001</ele><time>2026-04-11T13:03:53Z</time></trkpt><trkpt lat="45.096781736210495" lon="8.823345277889986"><ele>87.6</ele><time>2026-04-11T13:03:54Z</time></trkpt><trkpt lat="45.096871430393364" lon="8.823260819368546"><ele>87.4</ele><time>2026-04-11T13:03:55Z</time></trkpt><trkpt lat="45.09695490631965" lon="8.823175809903141"><ele>87.19999999999999</ele><time>2026-04-11T13:03:56Z</time></trkpt><trkpt lat="45.09703940593701" lon="8.82308017500663"><ele>87.0</ele><time>2026-04-11T13:03:57Z</time></trkpt><trkpt lat="45.09712409281222" lon="8.8229833840592"><ele>87.0</ele><time>2026-04-11T13:03:58Z</time></trkpt><trkpt lat="45.097190734820344" lon="8.822898319036492"><ele>87.0</ele><time>2026-04-11T13:03:59Z</time></trkpt><trkpt lat="45.097254054808396" lon="8.82282655179185"><ele>87.0</ele><time>2026-04-11T13:04:00Z</time></trkpt><trkpt lat="45.09731682383072" lon="8.82277151491739"><ele>87.0</ele><time>2026-04-11T13:04:01Z</time></trkpt><trkpt lat="45.09738375841761" lon="8.82270179959099"><ele>87.0</ele><time>2026-04-11T13:04:02Z</time></trkpt><trkpt lat="45.09744768148373" lon="8.822635009318297"><ele>87.0</ele><time>2026-04-11T13:04:03Z</time></trkpt><trkpt lat="45.097517132493586" lon="8.822563361100837"><ele>87.75</ele><time>2026-04-11T13:04:04Z</time></trkpt><trkpt lat="45.097574382181804" lon="8.822500701684081"><ele>88.5</ele><time>2026-04-11T13:04:05Z</time></trkpt><trkpt lat="45.0976264308379" lon="8.82235133884308"><ele>89.25</ele><time>2026-04-11T13:04:07Z</time></trkpt><trkpt lat="45.09767088824198" lon="8.822286268425753"><ele>90.0</ele><time>2026-04-11T13:04:09Z</time></trkpt><trkpt lat="45.09780945915992" lon="8.822557697787387"><ele>89.66666666666667</ele><time>2026-04-11T13:04:11Z</time></trkpt><trkpt lat="45.097843412632905" lon="8.822654456718427"><ele>89.33333333333333</ele><time>2026-04-11T13:04:12Z</time></trkpt><trkpt lat="45.09787973625948" lon="8.822744290092539"><ele>89.0</ele><time>2026-04-11T13:04:13Z</time></trkpt><trkpt lat="45.0979201214971" lon="8.822828566275335"><ele>88.66666666666666</ele><time>2026-04-11T13:04:14Z</time></trkpt><trkpt lat="45.09796009086499" lon="8.822915500375215"><ele>88.33333333333333</ele><time>2026-04-11T13:04:15Z</time></trkpt><trkpt lat="45.09804043106142" lon="8.823055147960424"><ele>88.0</ele><time>2026-04-11T13:04:17Z</time></trkpt><trkpt lat="45.09807611365363" lon="8.823149312107367"><ele>88.0</ele><time>2026-04-11T13:04:18Z</time></trkpt><trkpt lat="45.09811840337056" lon="8.82325456801746"><ele>88.0</ele><time>2026-04-11T13:04:19Z</time></trkpt><trkpt lat="45.09817355091422" lon="8.82335399356011"><ele>88.0</ele><time>2026-04-11T13:04:20Z</time></trkpt><trkpt lat="45.09822130630757" lon="8.823468620322483"><ele>88.0</ele><time>2026-04-11T13:04:21Z</time></trkpt><trkpt lat="45.09827196535082" lon="8.823581524825004"><ele>88.0</ele><time>2026-04-11T13:04:22Z</time></trkpt><trkpt lat="45.09832784357053" lon="8.82369977912433"><ele>88.0</ele><time>2026-04-11T13:04:23Z</time></trkpt><trkpt lat="45.098383163507755" lon="8.823829947743944"><ele>88.0</ele><time>2026-04-11T13:04:23.999Z</time></trkpt><trkpt lat="45.09841308058195" lon="8.823976739438033"><ele>88.0</ele><time>2026-04-11T13:04:24.999Z</time></trkpt><trkpt lat="45.09847321453004" lon="8.824103474587234"><ele>88.0</ele><time>2026-04-11T13:04:25.999Z</time></trkpt><trkpt lat="45.098544640275094" lon="8.824215448817908"><ele>88.0</ele><time>2026-04-11T13:04:26.999Z</time></trkpt><trkpt lat="45.098607863979005" lon="8.824345703725115"><ele>88.2</ele><time>2026-04-11T13:04:27.999Z</time></trkpt><trkpt lat="45.09866842821727" lon="8.824470859541467"><ele>88.4</ele><time>2026-04-11T13:04:29Z</time></trkpt><trkpt lat="45.09872459386374" lon="8.824594467211712"><ele>88.60000000000001</ele><time>2026-04-11T13:04:30Z</time></trkpt><trkpt lat="45.098771007194074" lon="8.824726591067213"><ele>88.80000000000001</ele><time>2026-04-11T13:04:31Z</time></trkpt><trkpt lat="45.0988317422991" lon="8.82485325437807"><ele>89.0</ele><time>2026-04-11T13:04:32Z</time></trkpt><trkpt lat="45.098891072095974" lon="8.824976986456267"><ele>89.0</ele><time>2026-04-11T13:04:33Z</time></trkpt><trkpt lat="45.09896473164918" lon="8.82508923595712"><ele>89.0</ele><time>2026-04-11T13:04:34Z</time></trkpt><trkpt lat="45.099021592309455" lon="8.825218254851693"><ele>89.0</ele><time>2026-04-11T13:04:35Z</time></trkpt><trkpt lat="45.09908570410827" lon="8.825345307961936"><ele>89.0</ele><time>2026-04-11T13:04:36Z</time></trkpt><trkpt lat="45.099135135256404" lon="8.825490790170209"><ele>89.0</ele><time>2026-04-11T13:04:37Z</time></trkpt><trkpt lat="45.09919493044285" lon="8.825618658124082"><ele>88.80000000000001</ele><time>2026-04-11T13:04:38Z</time></trkpt><trkpt lat="45.09925278562557" lon="8.825742377560355"><ele>88.60000000000001</ele><time>2026-04-11T13:04:39Z</time></trkpt><trkpt lat="45.09931479852997" lon="8.825874989201138"><ele>88.4</ele><time>2026-04-11T13:04:40Z</time></trkpt><trkpt lat="45.09937692766004" lon="8.826007847945219"><ele>88.2</ele><time>2026-04-11T13:04:41Z</time></trkpt><trkpt lat="45.09943819179475" lon="8.82613885754082"><ele>88.0</ele><time>2026-04-11T13:04:42Z</time></trkpt><trkpt lat="45.099512784623904" lon="8.826255814183286"><ele>87.80000000000001</ele><time>2026-04-11T13:04:43Z</time></trkpt><trkpt lat="45.09956266298063" lon="8.826405030810912"><ele>87.6</ele><time>2026-04-11T13:04:44Z</time></trkpt><trkpt lat="45.099627022782926" lon="8.826542659916061"><ele>87.4</ele><time>2026-04-11T13:04:45Z</time></trkpt><trkpt lat="45.09968245750094" lon="8.826661203135775"><ele>87.19999999999999</ele><time>2026-04-11T13:04:46Z</time></trkpt><trkpt lat="45.09975446511309" lon="8.826778656140082"><ele>87.0</ele><time>2026-04-11T13:04:47Z</time></trkpt><trkpt lat="45.09980795566635" lon="8.826893767089675"><ele>87.0</ele><time>2026-04-11T13:04:48Z</time></trkpt><trkpt lat="45.099854581092494" lon="8.827027103662354"><ele>87.0</ele><time>2026-04-11T13:04:49Z</time></trkpt><trkpt lat="45.09990253462255" lon="8.827127486768358"><ele>87.0</ele><time>2026-04-11T13:04:50Z</time></trkpt><trkpt lat="45.099958211846165" lon="8.827205833642054"><ele>87.0</ele><time>2026-04-11T13:04:51Z</time></trkpt><trkpt lat="45.09998211544637" lon="8.827292235811958"><ele>87.0</ele><time>2026-04-11T13:04:52Z</time></trkpt><trkpt lat="45.10001798320332" lon="8.827365851210644"><ele>87.0</ele><time>2026-04-11T13:04:53Z</time></trkpt><trkpt lat="45.10006413214697" lon="8.827460568608279"><ele>86.8</ele><time>2026-04-11T13:04:55Z</time></trkpt><trkpt lat="45.100209174121794" lon="8.827340332665203"><ele>86.6</ele><time>2026-04-11T13:04:57Z</time></trkpt><trkpt lat="45.10030742258755" lon="8.82723240720992"><ele>86.39999999999999</ele><time>2026-04-11T13:04:59Z</time></trkpt><trkpt lat="45.100354468820484" lon="8.827160189666559"><ele>86.19999999999999</ele><time>2026-04-11T13:05:00Z</time></trkpt><trkpt lat="45.10041305383314" lon="8.82711238548446"><ele>86.0</ele><time>2026-04-11T13:05:01Z</time></trkpt><trkpt lat="45.100478288996634" lon="8.827055310595945"><ele>86.0</ele><time>2026-04-11T13:05:02Z</time></trkpt><trkpt lat="45.10055377255363" lon="8.827007065573724"><ele>86.0</ele><time>2026-04-11T13:05:03Z</time></trkpt><trkpt lat="45.10061360806113" lon="8.826933012080742"><ele>86.0</ele><time>2026-04-11T13:05:04Z</time></trkpt><trkpt lat="45.10067691213471" lon="8.826880211833831"><ele>86.0</ele><time>2026-04-11T13:05:05Z</time></trkpt><trkpt lat="45.10075064176286" lon="8.826833802382472"><ele>86.0</ele><time>2026-04-11T13:05:06Z</time></trkpt><trkpt lat="45.10082363341648" lon="8.826770095025688"><ele>86.0</ele><time>2026-04-11T13:05:07Z</time></trkpt><trkpt lat="45.10089689434781" lon="8.826688102120483"><ele>86.33333333333334</ele><time>2026-04-11T13:05:08Z</time></trkpt><trkpt lat="45.10096934601871" lon="8.826624575778682"><ele>86.66666666666667</ele><time>2026-04-11T13:05:09Z</time></trkpt><trkpt lat="45.10103632432964" lon="8.826564095016842"><ele>87.0</ele><time>2026-04-11T13:05:10Z</time></trkpt><trkpt lat="45.10111412824624" lon="8.826491669940657"><ele>87.33333333333333</ele><time>2026-04-11T13:05:11Z</time></trkpt><trkpt lat="45.10119623545939" lon="8.826428742500983"><ele>87.66666666666666</ele><time>2026-04-11T13:05:12Z</time></trkpt><trkpt lat="45.10126313816521" lon="8.826367515703875"><ele>88.0</ele><time>2026-04-11T13:05:13Z</time></trkpt><trkpt lat="45.101335624755905" lon="8.826323401095241"><ele>88.0</ele><time>2026-04-11T13:05:14Z</time></trkpt><trkpt lat="45.10139366348202" lon="8.826253556185627"><ele>88.0</ele><time>2026-04-11T13:05:15Z</time></trkpt><trkpt lat="45.10146281078436" lon="8.826186935973427"><ele>88.0</ele><time>2026-04-11T13:05:16Z</time></trkpt><trkpt lat="45.1015316436683" lon="8.826128521535754"><ele>88.0</ele><time>2026-04-11T13:05:17Z</time></trkpt><trkpt lat="45.10160999464861" lon="8.82606135096928"><ele>88.0</ele><time>2026-04-11T13:05:18Z</time></trkpt><trkpt lat="45.10169168929947" lon="8.825990122237762"><ele>88.0</ele><time>2026-04-11T13:05:19Z</time></trkpt><trkpt lat="45.101765490860195" lon="8.825924413827813"><ele>87.80000000000001</ele><time>2026-04-11T13:05:20Z</time></trkpt><trkpt lat="45.10184020069516" lon="8.825863275462144"><ele>87.6</ele><time>2026-04-11T13:05:21Z</time></trkpt><trkpt lat="45.101914222800346" lon="8.825801449312593"><ele>87.4</ele><time>2026-04-11T13:05:22Z</time></trkpt><trkpt lat="45.10199341597526" lon="8.825730260550475"><ele>87.19999999999999</ele><time>2026-04-11T13:05:23Z</time></trkpt><trkpt lat="45.102074195708255" lon="8.825660368550478"><ele>87.0</ele><time>2026-04-11T13:05:24Z</time></trkpt><trkpt lat="45.102155251941184" lon="8.825589409110908"><ele>87.0</ele><time>2026-04-11T13:05:25Z</time></trkpt><trkpt lat="45.102232509269804" lon="8.825520569297618"><ele>87.0</ele><time>2026-04-11T13:05:26Z</time></trkpt><trkpt lat="45.10231014620146" lon="8.82545002615202"><ele>87.0</ele><time>2026-04-11T13:05:27Z</time></trkpt><trkpt lat="45.102385593423115" lon="8.825389465564427"><ele>87.0</ele><time>2026-04-11T13:05:28Z</time></trkpt><trkpt lat="45.102465350374054" lon="8.82532076608349"><ele>87.0</ele><time>2026-04-11T13:05:29Z</time></trkpt><trkpt lat="45.10254445088357" lon="8.825251605661391"><ele>87.0</ele><time>2026-04-11T13:05:30Z</time></trkpt><trkpt lat="45.102627922122004" lon="8.82517960910198"><ele>87.0</ele><time>2026-04-11T13:05:31Z</time></trkpt><trkpt lat="45.10270173565918" lon="8.825114888682485"><ele>87.0</ele><time>2026-04-11T13:05:32Z</time></trkpt><trkpt lat="45.102788417475615" lon="8.825059888697643"><ele>87.0</ele><time>2026-04-11T13:05:33Z</time></trkpt><trkpt lat="45.10288160374453" lon="8.824955779097214"><ele>87.0</ele><time>2026-04-11T13:05:34Z</time></trkpt><trkpt lat="45.10298822650383" lon="8.824867993619694"><ele>87.0</ele><time>2026-04-11T13:05:35Z</time></trkpt><trkpt lat="45.10309466395792" lon="8.82477407649367"><ele>87.0</ele><time>2026-04-11T13:05:36Z</time></trkpt><trkpt lat="45.103187128533975" lon="8.824688025362306"><ele>87.0</ele><time>2026-04-11T13:05:37Z</time></trkpt><trkpt lat="45.103279367849055" lon="8.824616890234434"><ele>87.0</ele><time>2026-04-11T13:05:38Z</time></trkpt><trkpt lat="45.10337235964568" lon="8.824534332718676"><ele>87.5</ele><time>2026-04-11T13:05:39Z</time></trkpt><trkpt lat="45.10347344899062" lon="8.824446009101495"><ele>88.0</ele><time>2026-04-11T13:05:40Z</time></trkpt><trkpt lat="45.10357045073364" lon="8.824360073256639"><ele>88.5</ele><time>2026-04-11T13:05:41Z</time></trkpt><trkpt lat="45.103660421467936" lon="8.82428155770551"><ele>89.0</ele><time>2026-04-11T13:05:42Z</time></trkpt><trkpt lat="45.10375541519985" lon="8.824197344474236"><ele>89.0</ele><time>2026-04-11T13:05:43Z</time></trkpt><trkpt lat="45.10385044706486" lon="8.824115669594365"><ele>89.0</ele><time>2026-04-11T13:05:44Z</time></trkpt><trkpt lat="45.10394336598253" lon="8.824036717785047"><ele>89.0</ele><time>2026-04-11T13:05:45Z</time></trkpt><trkpt lat="45.104036050354125" lon="8.823952308339072"><ele>89.0</ele><time>2026-04-11T13:05:46Z</time></trkpt><trkpt lat="45.10412603456632" lon="8.823871968996551"><ele>89.0</ele><time>2026-04-11T13:05:47Z</time></trkpt><trkpt lat="45.10420019739532" lon="8.823807818482559"><ele>89.0</ele><time>2026-04-11T13:05:48Z</time></trkpt><trkpt lat="45.10426565763483" lon="8.823780679195393"><ele>89.0</ele><time>2026-04-11T13:05:49Z</time></trkpt><trkpt lat="45.104338751187804" lon="8.82367501029342"><ele>89.0</ele><time>2026-04-11T13:05:51Z</time></trkpt><trkpt lat="45.104430100903194" lon="8.823583937749651"><ele>89.0</ele><time>2026-04-11T13:05:53Z</time></trkpt><trkpt lat="45.1045483863397" lon="8.823485301110955"><ele>89.0</ele><time>2026-04-11T13:05:55Z</time></trkpt><trkpt lat="45.10460696039101" lon="8.823435615652313"><ele>89.16666666666667</ele><time>2026-04-11T13:05:56Z</time></trkpt><trkpt lat="45.10471115232607" lon="8.823338679237775"><ele>89.33333333333334</ele><time>2026-04-11T13:05:58Z</time></trkpt><trkpt lat="45.10477220733502" lon="8.82329164589225"><ele>89.5</ele><time>2026-04-11T13:05:59Z</time></trkpt><trkpt lat="45.10483442204666" lon="8.823241846558354"><ele>89.66666666666667</ele><time>2026-04-11T13:06:00Z</time></trkpt><trkpt lat="45.10489747516029" lon="8.823188301279144"><ele>89.83333333333333</ele><time>2026-04-11T13:06:01Z</time></trkpt><trkpt lat="45.104953474235074" lon="8.823135978298234"><ele>90.0</ele><time>2026-04-11T13:06:02Z</time></trkpt><trkpt lat="45.10501184512784" lon="8.823084192147837"><ele>90.33333333333333</ele><time>2026-04-11T13:06:03Z</time></trkpt><trkpt lat="45.10508113002243" lon="8.823050981253427"><ele>90.66666666666667</ele><time>2026-04-11T13:06:04Z</time></trkpt><trkpt lat="45.10513944781634" lon="8.822972842559874"><ele>91.0</ele><time>2026-04-11T13:06:05Z</time></trkpt><trkpt lat="45.10521254473962" lon="8.822914699533557"><ele>91.33333333333334</ele><time>2026-04-11T13:06:06Z</time></trkpt><trkpt lat="45.105285138191334" lon="8.822848367815496"><ele>91.66666666666667</ele><time>2026-04-11T13:06:07Z</time></trkpt><trkpt lat="45.10536017367502" lon="8.82277951607657"><ele>92.0</ele><time>2026-04-11T13:06:08Z</time></trkpt><trkpt lat="45.10542622294946" lon="8.822721684586329"><ele>92.0</ele><time>2026-04-11T13:06:09Z</time></trkpt><trkpt lat="45.10548686108668" lon="8.82265344269727"><ele>92.0</ele><time>2026-04-11T13:06:10Z</time></trkpt><trkpt lat="45.10555106983995" lon="8.822586807361713"><ele>92.0</ele><time>2026-04-11T13:06:11Z</time></trkpt><trkpt lat="45.10561744125873" lon="8.822516321565898"><ele>92.0</ele><time>2026-04-11T13:06:12Z</time></trkpt><trkpt lat="45.10568483251061" lon="8.82244026891004"><ele>92.0</ele><time>2026-04-11T13:06:13Z</time></trkpt><trkpt lat="45.105763312163745" lon="8.822377280689928"><ele>92.0</ele><time>2026-04-11T13:06:14Z</time></trkpt><trkpt lat="45.10582922042836" lon="8.822303250069806"><ele>91.33333333333334</ele><time>2026-04-11T13:06:15Z</time></trkpt><trkpt lat="45.105882458689436" lon="8.822223958994416"><ele>90.66666666666667</ele><time>2026-04-11T13:06:16Z</time></trkpt><trkpt lat="45.10593278379891" lon="8.822158511556164"><ele>90.0</ele><time>2026-04-11T13:06:17Z</time></trkpt><trkpt lat="45.10599044452194" lon="8.822098313105249"><ele>89.33333333333333</ele><time>2026-04-11T13:06:18Z</time></trkpt><trkpt lat="45.10608099351182" lon="8.82199883504603"><ele>88.66666666666666</ele><time>2026-04-11T13:06:20Z</time></trkpt><trkpt lat="45.10616267936116" lon="8.821910879929963"><ele>88.0</ele><time>2026-04-11T13:06:22Z</time></trkpt><trkpt lat="45.10623988822949" lon="8.821855391243924"><ele>87.80000000000001</ele><time>2026-04-11T13:06:24Z</time></trkpt><trkpt lat="45.10630125803476" lon="8.821800736073708"><ele>87.6</ele><time>2026-04-11T13:06:26Z</time></trkpt><trkpt lat="45.1063618960341" lon="8.821746732856104"><ele>87.4</ele><time>2026-04-11T13:06:28Z</time></trkpt><trkpt lat="45.10634824355044" lon="8.821494230267708"><ele>87.19999999999999</ele><time>2026-04-11T13:06:29.999Z</time></trkpt><trkpt lat="45.1063739378877" lon="8.82132258293557"><ele>87.0</ele><time>2026-04-11T13:06:32Z</time></trkpt><trkpt lat="45.106390381763276" lon="8.821159936035956"><ele>87.0</ele><time>2026-04-11T13:06:34Z</time></trkpt><trkpt lat="45.10641873050054" lon="8.821015126775036"><ele>87.0</ele><time>2026-04-11T13:06:36Z</time></trkpt><trkpt lat="45.10645623133369" lon="8.820867809148872"><ele>87.0</ele><time>2026-04-11T13:06:38Z</time></trkpt><trkpt lat="45.10648246655557" lon="8.820769521193963"><ele>87.0</ele><time>2026-04-11T13:06:39Z</time></trkpt><trkpt lat="45.10651034921988" lon="8.820680132780181"><ele>87.0</ele><time>2026-04-11T13:06:40Z</time></trkpt><trkpt lat="45.10655857006862" lon="8.820504917282463"><ele>87.0</ele><time>2026-04-11T13:06:42Z</time></trkpt><trkpt lat="45.106586505300996" lon="8.820404061922678"><ele>87.0</ele><time>2026-04-11T13:06:43Z</time></trkpt><trkpt lat="45.10661828685647" lon="8.82030697163992"><ele>87.0</ele><time>2026-04-11T13:06:44Z</time></trkpt><trkpt lat="45.10665355956166" lon="8.820193981737134"><ele>87.0</ele><time>2026-04-11T13:06:45Z</time></trkpt><trkpt lat="45.10668611274993" lon="8.82010202097904"><ele>87.0</ele><time>2026-04-11T13:06:46Z</time></trkpt><trkpt lat="45.10672045320703" lon="8.820021186982286"><ele>87.0</ele><time>2026-04-11T13:06:47Z</time></trkpt><trkpt lat="45.106754037667116" lon="8.81993558638018"><ele>87.0</ele><time>2026-04-11T13:06:48Z</time></trkpt><trkpt lat="45.10678505411264" lon="8.819844853391986"><ele>87.0</ele><time>2026-04-11T13:06:49Z</time></trkpt><trkpt lat="45.10681595687533" lon="8.819758946656394"><ele>87.0</ele><time>2026-04-11T13:06:50Z</time></trkpt><trkpt lat="45.10686502576217" lon="8.819680111939984"><ele>87.0</ele><time>2026-04-11T13:06:51Z</time></trkpt><trkpt lat="45.106918806680106" lon="8.81959671681036"><ele>87.0</ele><time>2026-04-11T13:06:52Z</time></trkpt><trkpt lat="45.10696579078076" lon="8.819529796748808"><ele>87.0</ele><time>2026-04-11T13:06:53Z</time></trkpt><trkpt lat="45.10700641556964" lon="8.819459836349683"><ele>87.0</ele><time>2026-04-11T13:06:54Z</time></trkpt><trkpt lat="45.107049041784435" lon="8.819390844708753"><ele>87.0</ele><time>2026-04-11T13:06:55Z</time></trkpt><trkpt lat="45.107090803262246" lon="8.819318397118973"><ele>87.0</ele><time>2026-04-11T13:06:56Z</time></trkpt><trkpt lat="45.107136091944646" lon="8.81924723422946"><ele>87.0</ele><time>2026-04-11T13:06:57Z</time></trkpt><trkpt lat="45.107185151773365" lon="8.819163288779148"><ele>87.0</ele><time>2026-04-11T13:06:58Z</time></trkpt><trkpt lat="45.107239169212164" lon="8.819083856560512"><ele>87.0</ele><time>2026-04-11T13:06:59Z</time></trkpt><trkpt lat="45.10729815231303" lon="8.819000840535253"><ele>87.0</ele><time>2026-04-11T13:07:00Z</time></trkpt><trkpt lat="45.10734694253095" lon="8.818938907619815"><ele>87.0</ele><time>2026-04-11T13:07:01Z</time></trkpt><trkpt lat="45.10739797466117" lon="8.818880227081621"><ele>87.0</ele><time>2026-04-11T13:07:02Z</time></trkpt><trkpt lat="45.107454380952696" lon="8.818825098784648"><ele>87.0</ele><time>2026-04-11T13:07:03Z</time></trkpt><trkpt lat="45.10750739467292" lon="8.818772068795791"><ele>87.0</ele><time>2026-04-11T13:07:04Z</time></trkpt><trkpt lat="45.107611166501854" lon="8.818678327135423"><ele>87.0</ele><time>2026-04-11T13:07:06Z</time></trkpt><trkpt lat="45.10771126933553" lon="8.818589565202652"><ele>87.0</ele><time>2026-04-11T13:07:08Z</time></trkpt><trkpt lat="45.107796173309794" lon="8.818527400275745"><ele>87.0</ele><time>2026-04-11T13:07:10Z</time></trkpt><trkpt lat="45.10785625400711" lon="8.818473239857367"><ele>87.16666666666667</ele><time>2026-04-11T13:07:12Z</time></trkpt><trkpt lat="45.107934554422904" lon="8.818411877807673"><ele>87.33333333333333</ele><time>2026-04-11T13:07:15Z</time></trkpt><trkpt lat="45.10800079061776" lon="8.818349888834145"><ele>87.5</ele><time>2026-04-11T13:07:18Z</time></trkpt><trkpt lat="45.108063608199885" lon="8.818304587883173"><ele>87.66666666666666</ele><time>2026-04-11T13:07:21Z</time></trkpt><trkpt lat="45.10815209249135" lon="8.818204570669781"><ele>87.83333333333333</ele><time>2026-04-11T13:07:24Z</time></trkpt><trkpt lat="45.108197028394734" lon="8.818136270008612"><ele>88.0</ele><time>2026-04-11T13:07:25Z</time></trkpt><trkpt lat="45.10823796371776" lon="8.81806394623981"><ele>87.83333333333333</ele><time>2026-04-11T13:07:26Z</time></trkpt><trkpt lat="45.108270188523235" lon="8.817983884613694"><ele>87.66666666666666</ele><time>2026-04-11T13:07:27Z</time></trkpt><trkpt lat="45.10831290959618" lon="8.817905158256567"><ele>87.5</ele><time>2026-04-11T13:07:28Z</time></trkpt><trkpt lat="45.1083488157716" lon="8.817819571319177"><ele>87.33333333333333</ele><time>2026-04-11T13:07:29Z</time></trkpt><trkpt lat="45.1083774011879" lon="8.817735342720448"><ele>87.16666666666667</ele><time>2026-04-11T13:07:30Z</time></trkpt><trkpt lat="45.108446303235134" lon="8.817578390497282"><ele>87.0</ele><time>2026-04-11T13:07:32Z</time></trkpt><trkpt lat="45.1084768406028" lon="8.817499908944693"><ele>87.0</ele><time>2026-04-11T13:07:33Z</time></trkpt><trkpt lat="45.108505846586105" lon="8.817419945842715"><ele>87.0</ele><time>2026-04-11T13:07:34Z</time></trkpt><trkpt lat="45.10854321111244" lon="8.817342133408102"><ele>87.0</ele><time>2026-04-11T13:07:35Z</time></trkpt><trkpt lat="45.108588420097625" lon="8.817260399279013"><ele>87.0</ele><time>2026-04-11T13:07:36Z</time></trkpt><trkpt lat="45.10863812432114" lon="8.817179332644626"><ele>87.0</ele><time>2026-04-11T13:07:37Z</time></trkpt><trkpt lat="45.108680813101394" lon="8.817108835788817"><ele>87.0</ele><time>2026-04-11T13:07:38Z</time></trkpt><trkpt lat="45.10876132543938" lon="8.81698229544626"><ele>87.0</ele><time>2026-04-11T13:07:40Z</time></trkpt><trkpt lat="45.10881004896686" lon="8.816918302399031"><ele>87.0</ele><time>2026-04-11T13:07:41Z</time></trkpt><trkpt lat="45.10886482788512" lon="8.81685875278332"><ele>87.0</ele><time>2026-04-11T13:07:42Z</time></trkpt><trkpt lat="45.108917916815045" lon="8.816801065382617"><ele>87.0</ele><time>2026-04-11T13:07:43Z</time></trkpt><trkpt lat="45.10897073122692" lon="8.816748154664104"><ele>87.0</ele><time>2026-04-11T13:07:44Z</time></trkpt><trkpt lat="45.109059408549534" lon="8.8166694432086"><ele>87.0</ele><time>2026-04-11T13:07:46Z</time></trkpt><trkpt lat="45.109146271481286" lon="8.816628205221454"><ele>86.39999999999999</ele><time>2026-04-11T13:07:48Z</time></trkpt><trkpt lat="45.10924921007634" lon="8.816558669501605"><ele>85.8</ele><time>2026-04-11T13:07:50Z</time></trkpt><trkpt lat="45.109302815734765" lon="8.816503173479386"><ele>85.2</ele><time>2026-04-11T13:07:51Z</time></trkpt><trkpt lat="45.10937535793046" lon="8.816413406743424"><ele>84.6</ele><time>2026-04-11T13:07:53Z</time></trkpt><trkpt lat="45.10943556274913" lon="8.816301919864541"><ele>84.0</ele><time>2026-04-11T13:07:55Z</time></trkpt><trkpt lat="45.109495340947554" lon="8.816152090777857"><ele>84.0</ele><time>2026-04-11T13:07:57Z</time></trkpt><trkpt lat="45.109525664034415" lon="8.816062438860891"><ele>84.0</ele><time>2026-04-11T13:07:58Z</time></trkpt><trkpt lat="45.1095556054054" lon="8.815971404496295"><ele>84.0</ele><time>2026-04-11T13:07:59Z</time></trkpt><trkpt lat="45.109587673669886" lon="8.815875716386646"><ele>84.0</ele><time>2026-04-11T13:08:00Z</time></trkpt><trkpt lat="45.10961866354384" lon="8.815775165413783"><ele>84.0</ele><time>2026-04-11T13:08:01Z</time></trkpt><trkpt lat="45.109642570582814" lon="8.815678355722962"><ele>84.0</ele><time>2026-04-11T13:08:02Z</time></trkpt><trkpt lat="45.109676093069226" lon="8.815582237571947"><ele>84.0</ele><time>2026-04-11T13:08:03Z</time></trkpt><trkpt lat="45.10972946694799" lon="8.815446755636"><ele>84.0</ele><time>2026-04-11T13:08:05Z</time></trkpt><trkpt lat="45.10977978083416" lon="8.815319897873442"><ele>84.0</ele><time>2026-04-11T13:08:07Z</time></trkpt><trkpt lat="45.10982434604683" lon="8.815193438072813"><ele>84.0</ele><time>2026-04-11T13:08:09Z</time></trkpt><trkpt lat="45.109846010882876" lon="8.815050355255742"><ele>84.0</ele><time>2026-04-11T13:08:11Z</time></trkpt><trkpt lat="45.10981924751441" lon="8.814919708448157"><ele>84.0</ele><time>2026-04-11T13:08:13Z</time></trkpt><trkpt lat="45.10979244758901" lon="8.814787608229965"><ele>84.0</ele><time>2026-04-11T13:08:15Z</time></trkpt><trkpt lat="45.109755328609786" lon="8.814677339597113"><ele>84.0</ele><time>2026-04-11T13:08:17Z</time></trkpt><trkpt lat="45.109761609626666" lon="8.81457669542486"><ele>84.0</ele><time>2026-04-11T13:08:19Z</time></trkpt><trkpt lat="45.10978313730793" lon="8.814485358138677"><ele>84.0</ele><time>2026-04-11T13:08:21Z</time></trkpt><trkpt lat="45.10984788292688" lon="8.814396004338839"><ele>84.0</ele><time>2026-04-11T13:08:23Z</time></trkpt><trkpt lat="45.10989089364695" lon="8.814298014613914"><ele>84.0</ele><time>2026-04-11T13:08:25Z</time></trkpt><trkpt lat="45.10995043987312" lon="8.814181711570127"><ele>83.80000000000001</ele><time>2026-04-11T13:08:27Z</time></trkpt><trkpt lat="45.10999812481326" lon="8.814092433908833"><ele>83.60000000000001</ele><time>2026-04-11T13:08:29Z</time></trkpt><trkpt lat="45.11004878736292" lon="8.814001308377167"><ele>83.4</ele><time>2026-04-11T13:08:31Z</time></trkpt><trkpt lat="45.11009796186452" lon="8.813875716591122"><ele>83.2</ele><time>2026-04-11T13:08:33Z</time></trkpt><trkpt lat="45.110126737565345" lon="8.813715516652636"><ele>83.0</ele><time>2026-04-11T13:08:35Z</time></trkpt><trkpt lat="45.110176624852905" lon="8.813595933662768"><ele>83.0</ele><time>2026-04-11T13:08:37Z</time></trkpt><trkpt lat="45.110265951583756" lon="8.8135224276433"><ele>83.0</ele><time>2026-04-11T13:08:39Z</time></trkpt><trkpt lat="45.11035363854701" lon="8.81341531055998"><ele>83.0</ele><time>2026-04-11T13:08:41Z</time></trkpt><trkpt lat="45.11039351547732" lon="8.8133400612971"><ele>83.0</ele><time>2026-04-11T13:08:42Z</time></trkpt><trkpt lat="45.11045607669309" lon="8.813207196270678"><ele>83.0</ele><time>2026-04-11T13:08:44Z</time></trkpt><trkpt lat="45.11050234817071" lon="8.813047199742252"><ele>83.5</ele><time>2026-04-11T13:08:46Z</time></trkpt><trkpt lat="45.11053152629303" lon="8.812877380776417"><ele>84.0</ele><time>2026-04-11T13:08:48Z</time></trkpt><trkpt lat="45.11057800785779" lon="8.812749695530783"><ele>84.5</ele><time>2026-04-11T13:08:50Z</time></trkpt><trkpt lat="45.11065922692487" lon="8.812650467572837"><ele>85.0</ele><time>2026-04-11T13:08:52Z</time></trkpt><trkpt lat="45.110765700283835" lon="8.812575073756038"><ele>84.2</ele><time>2026-04-11T13:08:54Z</time></trkpt><trkpt lat="45.11082720691937" lon="8.812531556980867"><ele>83.4</ele><time>2026-04-11T13:08:55Z</time></trkpt><trkpt lat="45.110926382861315" lon="8.81244779379058"><ele>82.6</ele><time>2026-04-11T13:08:57Z</time></trkpt><trkpt lat="45.11103510345029" lon="8.812381458237413"><ele>81.8</ele><time>2026-04-11T13:08:59Z</time></trkpt><trkpt lat="45.111157345350996" lon="8.812380376977265"><ele>81.0</ele><time>2026-04-11T13:09:01Z</time></trkpt><trkpt lat="45.11121992628461" lon="8.812395625751002"><ele>81.0</ele><time>2026-04-11T13:09:02Z</time></trkpt><trkpt lat="45.111335043709595" lon="8.81241258981534"><ele>81.0</ele><time>2026-04-11T13:09:04Z</time></trkpt><trkpt lat="45.11143471501481" lon="8.812393096057933"><ele>81.0</ele><time>2026-04-11T13:09:06Z</time></trkpt><trkpt lat="45.111540172651324" lon="8.812349173129565"><ele>81.0</ele><time>2026-04-11T13:09:08Z</time></trkpt><trkpt lat="45.11164994355104" lon="8.812290525133346"><ele>81.0</ele><time>2026-04-11T13:09:10Z</time></trkpt><trkpt lat="45.11175050040377" lon="8.812204265541517"><ele>81.25</ele><time>2026-04-11T13:09:12Z</time></trkpt><trkpt lat="45.1118392865874" lon="8.812083772563392"><ele>81.5</ele><time>2026-04-11T13:09:14Z</time></trkpt><trkpt lat="45.111905133679265" lon="8.811943905280193"><ele>81.75</ele><time>2026-04-11T13:09:16Z</time></trkpt><trkpt lat="45.111972881346844" lon="8.811807677920385"><ele>82.0</ele><time>2026-04-11T13:09:18Z</time></trkpt><trkpt lat="45.11205967093628" lon="8.811696209875226"><ele>82.19999999999999</ele><time>2026-04-11T13:09:20Z</time></trkpt><trkpt lat="45.112170551337286" lon="8.811634989592797"><ele>82.4</ele><time>2026-04-11T13:09:22Z</time></trkpt><trkpt lat="45.112277248378554" lon="8.811593166231402"><ele>82.6</ele><time>2026-04-11T13:09:24Z</time></trkpt><trkpt lat="45.112375966964834" lon="8.811499581048022"><ele>82.80000000000001</ele><time>2026-04-11T13:09:26Z</time></trkpt><trkpt lat="45.112414248282455" lon="8.811426243643332"><ele>83.0</ele><time>2026-04-11T13:09:27Z</time></trkpt><trkpt lat="45.11245646263806" lon="8.811351274440371"><ele>83.0</ele><time>2026-04-11T13:09:28Z</time></trkpt><trkpt lat="45.11255344443675" lon="8.811246078358698"><ele>83.0</ele><time>2026-04-11T13:09:30Z</time></trkpt><trkpt lat="45.11267677331306" lon="8.811208731175185"><ele>83.0</ele><time>2026-04-11T13:09:32Z</time></trkpt><trkpt lat="45.11274426176474" lon="8.811215562196681"><ele>83.0</ele><time>2026-04-11T13:09:33Z</time></trkpt><trkpt lat="45.112807517319034" lon="8.811241050973777"><ele>83.0</ele><time>2026-04-11T13:09:34Z</time></trkpt><trkpt lat="45.11287188866487" lon="8.811279666173947"><ele>83.0</ele><time>2026-04-11T13:09:35Z</time></trkpt><trkpt lat="45.112968702601165" lon="8.811362058828147"><ele>83.0</ele><time>2026-04-11T13:09:37Z</time></trkpt><trkpt lat="45.11307079301602" lon="8.811432491802286"><ele>83.0</ele><time>2026-04-11T13:09:39Z</time></trkpt><trkpt lat="45.113133769235006" lon="8.81146097575962"><ele>83.0</ele><time>2026-04-11T13:09:40Z</time></trkpt><trkpt lat="45.11325347402659" lon="8.811503880696524"><ele>83.0</ele><time>2026-04-11T13:09:42Z</time></trkpt><trkpt lat="45.11331642009302" lon="8.811518513554589"><ele>82.5</ele><time>2026-04-11T13:09:43Z</time></trkpt><trkpt lat="45.11344033451571" lon="8.811536729530967"><ele>82.0</ele><time>2026-04-11T13:09:45Z</time></trkpt><trkpt lat="45.113557066591" lon="8.811551992583984"><ele>81.5</ele><time>2026-04-11T13:09:47Z</time></trkpt><trkpt lat="45.113671963712264" lon="8.811589636061484"><ele>81.0</ele><time>2026-04-11T13:09:49Z</time></trkpt><trkpt lat="45.11378795556341" lon="8.811631342002126"><ele>81.0</ele><time>2026-04-11T13:09:51Z</time></trkpt><trkpt lat="45.113910744548605" lon="8.811649169835439"><ele>81.0</ele><time>2026-04-11T13:09:53Z</time></trkpt><trkpt lat="45.1140200974186" lon="8.811588267285732"><ele>81.0</ele><time>2026-04-11T13:09:55Z</time></trkpt><trkpt lat="45.114110063173236" lon="8.811465782038548"><ele>81.0</ele><time>2026-04-11T13:09:57Z</time></trkpt><trkpt lat="45.11419710400942" lon="8.811342741283429"><ele>81.4</ele><time>2026-04-11T13:09:59Z</time></trkpt><trkpt lat="45.1142790789997" lon="8.811211583351216"><ele>81.8</ele><time>2026-04-11T13:10:01Z</time></trkpt><trkpt lat="45.114325480186984" lon="8.811134589124771"><ele>82.2</ele><time>2026-04-11T13:10:02Z</time></trkpt><trkpt lat="45.114401441464395" lon="8.810995774937917"><ele>82.60000000000001</ele><time>2026-04-11T13:10:04Z</time></trkpt><trkpt lat="45.11447150183724" lon="8.810862598176062"><ele>83.0</ele><time>2026-04-11T13:10:06.001Z</time></trkpt><trkpt lat="45.11451405566254" lon="8.810789148235267"><ele>83.0</ele><time>2026-04-11T13:10:07.001Z</time></trkpt><trkpt lat="45.11455491457558" lon="8.810717163727952"><ele>83.0</ele><time>2026-04-11T13:10:08.001Z</time></trkpt><trkpt lat="45.11463407908991" lon="8.81056799913141"><ele>83.0</ele><time>2026-04-11T13:10:10.001Z</time></trkpt><trkpt lat="45.11467389128289" lon="8.810491867204123"><ele>83.0</ele><time>2026-04-11T13:10:11.001Z</time></trkpt><trkpt lat="45.114747726424106" lon="8.810351950363803"><ele>83.0</ele><time>2026-04-11T13:10:13.001Z</time></trkpt><trkpt lat="45.114818508378214" lon="8.810212765651087"><ele>83.2</ele><time>2026-04-11T13:10:15.001Z</time></trkpt><trkpt lat="45.114889350598816" lon="8.810070437139"><ele>83.4</ele><time>2026-04-11T13:10:17.001Z</time></trkpt><trkpt lat="45.11495699984807" lon="8.809916716938345"><ele>83.60000000000001</ele><time>2026-04-11T13:10:19.001Z</time></trkpt><trkpt lat="45.11501094912278" lon="8.809762457963409"><ele>83.80000000000001</ele><time>2026-04-11T13:10:21.001Z</time></trkpt><trkpt lat="45.11504109418423" lon="8.809669212538441"><ele>84.0</ele><time>2026-04-11T13:10:22.001Z</time></trkpt><trkpt lat="45.11506507591451" lon="8.809581348782254"><ele>84.33333333333333</ele><time>2026-04-11T13:10:23.001Z</time></trkpt><trkpt lat="45.11508784642097" lon="8.809488720849629"><ele>84.66666666666667</ele><time>2026-04-11T13:10:24.001Z</time></trkpt><trkpt lat="45.11511076463057" lon="8.809397222579447"><ele>85.0</ele><time>2026-04-11T13:10:25.001Z</time></trkpt><trkpt lat="45.11513655448109" lon="8.809300598274064"><ele>85.33333333333334</ele><time>2026-04-11T13:10:26.001Z</time></trkpt><trkpt lat="45.1151621566744" lon="8.80919949454262"><ele>85.66666666666667</ele><time>2026-04-11T13:10:27.001Z</time></trkpt><trkpt lat="45.11518903748188" lon="8.80909014878714"><ele>86.0</ele><time>2026-04-11T13:10:28.001Z</time></trkpt><trkpt lat="45.115217519144814" lon="8.80897905927466"><ele>86.8</ele><time>2026-04-11T13:10:29.001Z</time></trkpt><trkpt lat="45.115239200948224" lon="8.808850916069195"><ele>87.6</ele><time>2026-04-11T13:10:30.001Z</time></trkpt><trkpt lat="45.1152796253231" lon="8.808728272501831"><ele>88.4</ele><time>2026-04-11T13:10:31.001Z</time></trkpt><trkpt lat="45.1154009968208" lon="8.808634827559493"><ele>89.2</ele><time>2026-04-11T13:10:32.001Z</time></trkpt><trkpt lat="45.11542538319938" lon="8.808515932394675"><ele>90.0</ele><time>2026-04-11T13:10:33.001Z</time></trkpt><trkpt lat="45.11545310231701" lon="8.80839251631964"><ele>90.6</ele><time>2026-04-11T13:10:34.001Z</time></trkpt><trkpt lat="45.11548174820098" lon="8.808264973946626"><ele>91.2</ele><time>2026-04-11T13:10:35.001Z</time></trkpt><trkpt lat="45.11551969557458" lon="8.808157633219256"><ele>91.80000000000001</ele><time>2026-04-11T13:10:36.001Z</time></trkpt><trkpt lat="45.115568835479614" lon="8.808025822832155"><ele>92.4</ele><time>2026-04-11T13:10:37.001Z</time></trkpt><trkpt lat="45.1155882905721" lon="8.807847125694979"><ele>93.0</ele><time>2026-04-11T13:10:38.001Z</time></trkpt><trkpt lat="45.11559966461591" lon="8.80774663277195"><ele>93.0</ele><time>2026-04-11T13:10:39.001Z</time></trkpt><trkpt lat="45.11560950359405" lon="8.807619890113724"><ele>93.0</ele><time>2026-04-11T13:10:41.001Z</time></trkpt><trkpt lat="45.11561191378667" lon="8.8075286748661"><ele>93.0</ele><time>2026-04-11T13:10:43Z</time></trkpt><trkpt lat="45.11564552046695" lon="8.807412554433654"><ele>93.0</ele><time>2026-04-11T13:10:45Z</time></trkpt><trkpt lat="45.11566467598366" lon="8.807238264234412"><ele>93.0</ele><time>2026-04-11T13:10:47Z</time></trkpt><trkpt lat="45.115689504474176" lon="8.807136654125165"><ele>93.0</ele><time>2026-04-11T13:10:48Z</time></trkpt><trkpt lat="45.115713155719305" lon="8.807020309407367"><ele>93.0</ele><time>2026-04-11T13:10:49Z</time></trkpt><trkpt lat="45.11573407083377" lon="8.806903727621272"><ele>93.0</ele><time>2026-04-11T13:10:50Z</time></trkpt><trkpt lat="45.11575968245368" lon="8.806769073363494"><ele>93.0</ele><time>2026-04-11T13:10:51Z</time></trkpt><trkpt lat="45.11579242141518" lon="8.806632702803485"><ele>93.0</ele><time>2026-04-11T13:10:52Z</time></trkpt><trkpt lat="45.11583648542656" lon="8.806488398913487"><ele>93.0</ele><time>2026-04-11T13:10:53Z</time></trkpt><trkpt lat="45.11585828759102" lon="8.806324721685135"><ele>92.5</ele><time>2026-04-11T13:10:54Z</time></trkpt><trkpt lat="45.115891627126054" lon="8.80615991483007"><ele>92.0</ele><time>2026-04-11T13:10:55Z</time></trkpt><trkpt lat="45.11592430742724" lon="8.805984971461331"><ele>91.5</ele><time>2026-04-11T13:10:56Z</time></trkpt><trkpt lat="45.115966593616704" lon="8.805840793784466"><ele>91.0</ele><time>2026-04-11T13:10:57Z</time></trkpt><trkpt lat="45.11599195185802" lon="8.80571150002331"><ele>91.0</ele><time>2026-04-11T13:10:58Z</time></trkpt><trkpt lat="45.11601984719727" lon="8.805582469529172"><ele>91.0</ele><time>2026-04-11T13:10:59Z</time></trkpt><trkpt lat="45.116050291421445" lon="8.805447706249328"><ele>91.0</ele><time>2026-04-11T13:11:00Z</time></trkpt><trkpt lat="45.11608526067648" lon="8.805308713185346"><ele>91.0</ele><time>2026-04-11T13:11:01Z</time></trkpt><trkpt lat="45.11612296476044" lon="8.80517187977717"><ele>91.0</ele><time>2026-04-11T13:11:02Z</time></trkpt><trkpt lat="45.11616371301263" lon="8.805037438427124"><ele>90.8</ele><time>2026-04-11T13:11:03Z</time></trkpt><trkpt lat="45.116208327868776" lon="8.804896689159438"><ele>90.6</ele><time>2026-04-11T13:11:04Z</time></trkpt><trkpt lat="45.11625115774643" lon="8.804774242330028"><ele>90.4</ele><time>2026-04-11T13:11:05Z</time></trkpt><trkpt lat="45.116300773797086" lon="8.80465181992455"><ele>90.2</ele><time>2026-04-11T13:11:06Z</time></trkpt><trkpt lat="45.11633714376423" lon="8.80451055193005"><ele>90.0</ele><time>2026-04-11T13:11:07Z</time></trkpt><trkpt lat="45.116399587814875" lon="8.804389436071586"><ele>90.0</ele><time>2026-04-11T13:11:08Z</time></trkpt><trkpt lat="45.11644771216354" lon="8.804266557877863"><ele>90.0</ele><time>2026-04-11T13:11:09Z</time></trkpt><trkpt lat="45.116502911250485" lon="8.804125615443198"><ele>90.0</ele><time>2026-04-11T13:11:10Z</time></trkpt><trkpt lat="45.116550801593256" lon="8.804003334767154"><ele>90.0</ele><time>2026-04-11T13:11:11Z</time></trkpt><trkpt lat="45.11658112918439" lon="8.803876514333387"><ele>90.0</ele><time>2026-04-11T13:11:12Z</time></trkpt><trkpt lat="45.11662115229766" lon="8.803775643565313"><ele>90.0</ele><time>2026-04-11T13:11:13Z</time></trkpt><trkpt lat="45.116649547791475" lon="8.80368648623665"><ele>90.0</ele><time>2026-04-11T13:11:14Z</time></trkpt><trkpt lat="45.11669475632575" lon="8.8035329227822"><ele>90.0</ele><time>2026-04-11T13:11:16Z</time></trkpt><trkpt lat="45.116724019154596" lon="8.803422638077087"><ele>90.0</ele><time>2026-04-11T13:11:18Z</time></trkpt><trkpt lat="45.116750845947536" lon="8.803316565127144"><ele>90.0</ele><time>2026-04-11T13:11:21Z</time></trkpt><trkpt lat="45.11680902035896" lon="8.803181883103427"><ele>90.0</ele><time>2026-04-11T13:11:24Z</time></trkpt><trkpt lat="45.116845069044516" lon="8.803019766657986"><ele>90.0</ele><time>2026-04-11T13:11:26Z</time></trkpt><trkpt lat="45.11687630830098" lon="8.802936212448008"><ele>90.0</ele><time>2026-04-11T13:11:27Z</time></trkpt><trkpt lat="45.11690712847728" lon="8.802840632749511"><ele>90.0</ele><time>2026-04-11T13:11:28Z</time></trkpt><trkpt lat="45.11694841103792" lon="8.802740162781616"><ele>90.0</ele><time>2026-04-11T13:11:29Z</time></trkpt><trkpt lat="45.11698435892805" lon="8.80262709016736"><ele>90.0</ele><time>2026-04-11T13:11:30Z</time></trkpt><trkpt lat="45.11703869074573" lon="8.802528034188361"><ele>90.0</ele><time>2026-04-11T13:11:31Z</time></trkpt><trkpt lat="45.1170645645266" lon="8.802400804286934"><ele>90.0</ele><time>2026-04-11T13:11:32Z</time></trkpt><trkpt lat="45.117112879377" lon="8.802285025157653"><ele>90.0</ele><time>2026-04-11T13:11:33Z</time></trkpt><trkpt lat="45.11714989192949" lon="8.802178172649807"><ele>90.0</ele><time>2026-04-11T13:11:34Z</time></trkpt><trkpt lat="45.11718532656782" lon="8.802078484329865"><ele>90.0</ele><time>2026-04-11T13:11:35Z</time></trkpt><trkpt lat="45.11721848373385" lon="8.801986810979402"><ele>90.0</ele><time>2026-04-11T13:11:36Z</time></trkpt><trkpt lat="45.11724891666265" lon="8.801907611840857"><ele>89.8</ele><time>2026-04-11T13:11:37Z</time></trkpt><trkpt lat="45.11730436519854" lon="8.801767839645876"><ele>89.6</ele><time>2026-04-11T13:11:39Z</time></trkpt><trkpt lat="45.11733973906874" lon="8.801685578578207"><ele>89.4</ele><time>2026-04-11T13:11:41Z</time></trkpt><trkpt lat="45.11737141025803" lon="8.801592376150527"><ele>89.2</ele><time>2026-04-11T13:11:44Z</time></trkpt><trkpt lat="45.11741278359487" lon="8.801496223915406"><ele>89.0</ele><time>2026-04-11T13:11:46Z</time></trkpt><trkpt lat="45.11749233899993" lon="8.801364074054375"><ele>89.4</ele><time>2026-04-11T13:11:48Z</time></trkpt><trkpt lat="45.117547990234776" lon="8.801226006529168"><ele>89.80000000000001</ele><time>2026-04-11T13:11:50Z</time></trkpt><trkpt lat="45.117603468795544" lon="8.801110320396754"><ele>90.19999999999999</ele><time>2026-04-11T13:11:52Z</time></trkpt><trkpt lat="45.11764983863467" lon="8.801024043528084"><ele>90.6</ele><time>2026-04-11T13:11:54Z</time></trkpt><trkpt lat="45.11769179306761" lon="8.800925411031205"><ele>91.0</ele><time>2026-04-11T13:14:57.001Z</time></trkpt><trkpt lat="45.11775383596538" lon="8.80080694590739"><ele>91.0</ele><time>2026-04-11T13:14:59.001Z</time></trkpt><trkpt lat="45.117818364250745" lon="8.800660459780968"><ele>91.0</ele><time>2026-04-11T13:15:01.001Z</time></trkpt><trkpt lat="45.117870287907984" lon="8.800514410988812"><ele>91.0</ele><time>2026-04-11T13:15:03.001Z</time></trkpt><trkpt lat="45.117910480798265" lon="8.800423305221049"><ele>91.0</ele><time>2026-04-11T13:15:04.001Z</time></trkpt><trkpt lat="45.11795542134821" lon="8.80034797221559"><ele>91.0</ele><time>2026-04-11T13:15:05.001Z</time></trkpt><trkpt lat="45.118022443111606" lon="8.800207994476379"><ele>91.0</ele><time>2026-04-11T13:15:07.001Z</time></trkpt><trkpt lat="45.1180726025276" lon="8.800137816425982"><ele>91.0</ele><time>2026-04-11T13:15:08.001Z</time></trkpt><trkpt lat="45.118116741366585" lon="8.800046872996226"><ele>91.0</ele><time>2026-04-11T13:15:09.001Z</time></trkpt><trkpt lat="45.1181630278033" lon="8.799951819227266"><ele>91.0</ele><time>2026-04-11T13:15:10.001Z</time></trkpt><trkpt lat="45.11821530946965" lon="8.799844792313879"><ele>91.0</ele><time>2026-04-11T13:15:11.001Z</time></trkpt><trkpt lat="45.118268281057354" lon="8.799736450645675"><ele>91.0</ele><time>2026-04-11T13:15:12.001Z</time></trkpt><trkpt lat="45.11832675142016" lon="8.799616862455848"><ele>91.0</ele><time>2026-04-11T13:15:13.001Z</time></trkpt><trkpt lat="45.11839125702622" lon="8.799484930518021"><ele>91.0</ele><time>2026-04-11T13:15:14.001Z</time></trkpt><trkpt lat="45.11843495568812" lon="8.799354698954783"><ele>91.0</ele><time>2026-04-11T13:15:15.001Z</time></trkpt><trkpt lat="45.118496080587605" lon="8.799235041148705"><ele>91.0</ele><time>2026-04-11T13:15:16.001Z</time></trkpt><trkpt lat="45.11856955023423" lon="8.799120202325621"><ele>91.0</ele><time>2026-04-11T13:15:17.001Z</time></trkpt><trkpt lat="45.118631666190716" lon="8.79899224886895"><ele>91.0</ele><time>2026-04-11T13:15:18.001Z</time></trkpt><trkpt lat="45.11868475316361" lon="8.798853281948288"><ele>91.0</ele><time>2026-04-11T13:15:19.001Z</time></trkpt><trkpt lat="45.11874336469058" lon="8.798723155375733"><ele>91.0</ele><time>2026-04-11T13:15:20.001Z</time></trkpt><trkpt lat="45.11881278284485" lon="8.798597819940136"><ele>91.0</ele><time>2026-04-11T13:15:21.001Z</time></trkpt><trkpt lat="45.11886256938922" lon="8.79849146261019"><ele>91.0</ele><time>2026-04-11T13:15:22.001Z</time></trkpt><trkpt lat="45.11890998252425" lon="8.798383908485823"><ele>91.33333333333333</ele><time>2026-04-11T13:15:23Z</time></trkpt><trkpt lat="45.11895775254954" lon="8.79829235973756"><ele>91.66666666666666</ele><time>2026-04-11T13:15:24Z</time></trkpt><trkpt lat="45.11900173550477" lon="8.79819652491038"><ele>92.0</ele><time>2026-04-11T13:15:25Z</time></trkpt><trkpt lat="45.119044025036985" lon="8.798107456926816"><ele>92.33333333333333</ele><time>2026-04-11T13:15:26Z</time></trkpt><trkpt lat="45.119107156335254" lon="8.797975458683032"><ele>92.66666666666667</ele><time>2026-04-11T13:15:28Z</time></trkpt><trkpt lat="45.11915331345949" lon="8.797876298674383"><ele>93.0</ele><time>2026-04-11T13:15:30Z</time></trkpt><trkpt lat="45.11907990924486" lon="8.797753503937367"><ele>93.0</ele><time>2026-04-11T13:15:32Z</time></trkpt><trkpt lat="45.11900659612203" lon="8.797702605181007"><ele>93.0</ele><time>2026-04-11T13:15:33.001Z</time></trkpt><trkpt lat="45.11893505181238" lon="8.797662643834052"><ele>93.0</ele><time>2026-04-11T13:15:34.001Z</time></trkpt><trkpt lat="45.118867153495536" lon="8.797619750051657"><ele>93.0</ele><time>2026-04-11T13:15:35.001Z</time></trkpt><trkpt lat="45.11880657315193" lon="8.797547442907131"><ele>93.0</ele><time>2026-04-11T13:15:36.001Z</time></trkpt><trkpt lat="45.11873102267087" lon="8.797487216348827"><ele>93.0</ele><time>2026-04-11T13:15:37.001Z</time></trkpt><trkpt lat="45.118649283603546" lon="8.797425640131127"><ele>93.0</ele><time>2026-04-11T13:15:38.001Z</time></trkpt><trkpt lat="45.11855681513084" lon="8.797364491594253"><ele>93.0</ele><time>2026-04-11T13:15:39.001Z</time></trkpt><trkpt lat="45.118461215097085" lon="8.79729408821029"><ele>93.0</ele><time>2026-04-11T13:15:40.001Z</time></trkpt><trkpt lat="45.118358564075436" lon="8.797214729021007"><ele>93.0</ele><time>2026-04-11T13:15:41.001Z</time></trkpt><trkpt lat="45.11827976746666" lon="8.797151088021865"><ele>93.0</ele><time>2026-04-11T13:15:42.001Z</time></trkpt><trkpt lat="45.1182073774215" lon="8.797093032069668"><ele>92.83333333333333</ele><time>2026-04-11T13:15:43.001Z</time></trkpt><trkpt lat="45.118133061626565" lon="8.79703345201786"><ele>92.66666666666667</ele><time>2026-04-11T13:15:44.001Z</time></trkpt><trkpt lat="45.11805574094107" lon="8.796967256956158"><ele>92.5</ele><time>2026-04-11T13:15:45.001Z</time></trkpt><trkpt lat="45.11798633484283" lon="8.796920129480574"><ele>92.33333333333334</ele><time>2026-04-11T13:15:46.001Z</time></trkpt><trkpt lat="45.11791314902982" lon="8.796866330806568"><ele>92.16666666666667</ele><time>2026-04-11T13:15:47.001Z</time></trkpt><trkpt lat="45.11783839091665" lon="8.796802826608909"><ele>92.0</ele><time>2026-04-11T13:15:48.001Z</time></trkpt><trkpt lat="45.117771399922724" lon="8.796744525197942"><ele>92.0</ele><time>2026-04-11T13:15:49.001Z</time></trkpt><trkpt lat="45.117715249578644" lon="8.796702995645099"><ele>92.0</ele><time>2026-04-11T13:15:50.001Z</time></trkpt><trkpt lat="45.117621497448766" lon="8.796618627912512"><ele>92.0</ele><time>2026-04-11T13:15:52.001Z</time></trkpt><trkpt lat="45.11753256817686" lon="8.796542925381363"><ele>92.0</ele><time>2026-04-11T13:15:54.001Z</time></trkpt><trkpt lat="45.11748044023209" lon="8.796481497006763"><ele>92.0</ele><time>2026-04-11T13:15:56.001Z</time></trkpt><trkpt lat="45.117430090641086" lon="8.796420909497273"><ele>92.0</ele><time>2026-04-11T13:15:59.001Z</time></trkpt><trkpt lat="45.11749591843142" lon="8.796215657251826"><ele>92.0</ele><time>2026-04-11T13:16:01.001Z</time></trkpt><trkpt lat="45.117543197140975" lon="8.79604998716101"><ele>92.0</ele><time>2026-04-11T13:16:03.001Z</time></trkpt><trkpt lat="45.1175679317322" lon="8.795952510531869"><ele>92.0</ele><time>2026-04-11T13:16:04.001Z</time></trkpt><trkpt lat="45.117593544964954" lon="8.795845707055005"><ele>92.0</ele><time>2026-04-11T13:16:05.001Z</time></trkpt><trkpt lat="45.117632487216376" lon="8.795739197462048"><ele>92.0</ele><time>2026-04-11T13:16:06.001Z</time></trkpt><trkpt lat="45.117656845361545" lon="8.795635094006965"><ele>92.0</ele><time>2026-04-11T13:16:07.001Z</time></trkpt><trkpt lat="45.117686981574614" lon="8.795529769224704"><ele>92.0</ele><time>2026-04-11T13:16:08.001Z</time></trkpt><trkpt lat="45.11771756233297" lon="8.795422818987984"><ele>92.0</ele><time>2026-04-11T13:16:09.001Z</time></trkpt><trkpt lat="45.11774659966164" lon="8.795313773865367"><ele>92.0</ele><time>2026-04-11T13:16:10.001Z</time></trkpt><trkpt lat="45.11777592726835" lon="8.795196817399182"><ele>92.0</ele><time>2026-04-11T13:16:11.001Z</time></trkpt><trkpt lat="45.11780386641512" lon="8.795079166270725"><ele>92.0</ele><time>2026-04-11T13:16:12.001Z</time></trkpt><trkpt lat="45.11782672048427" lon="8.794954743352566"><ele>92.0</ele><time>2026-04-11T13:16:13.001Z</time></trkpt><trkpt lat="45.11784786347323" lon="8.794828978732868"><ele>92.0</ele><time>2026-04-11T13:16:14.001Z</time></trkpt><trkpt lat="45.1178528485194" lon="8.794698198565461"><ele>92.0</ele><time>2026-04-11T13:16:15.001Z</time></trkpt><trkpt lat="45.11785295760446" lon="8.794576867936737"><ele>92.0</ele><time>2026-04-11T13:16:16.001Z</time></trkpt><trkpt lat="45.11784612172265" lon="8.794465823369515"><ele>92.0</ele><time>2026-04-11T13:16:17.001Z</time></trkpt><trkpt lat="45.117833925453496" lon="8.794352824017803"><ele>92.0</ele><time>2026-04-11T13:16:18.001Z</time></trkpt><trkpt lat="45.11782555035425" lon="8.794239236229938"><ele>92.0</ele><time>2026-04-11T13:16:19.001Z</time></trkpt><trkpt lat="45.11781658124217" lon="8.794130062894869"><ele>91.71428571428572</ele><time>2026-04-11T13:16:20.001Z</time></trkpt><trkpt lat="45.117815029215706" lon="8.79403773036343"><ele>91.42857142857142</ele><time>2026-04-11T13:16:21.001Z</time></trkpt><trkpt lat="45.117828807636926" lon="8.793948335545524"><ele>91.14285714285714</ele><time>2026-04-11T13:16:22.001Z</time></trkpt><trkpt lat="45.11786293037982" lon="8.793864546264958"><ele>90.85714285714286</ele><time>2026-04-11T13:16:23.001Z</time></trkpt><trkpt lat="45.11791752500748" lon="8.793803366668621"><ele>90.57142857142858</ele><time>2026-04-11T13:16:24.001Z</time></trkpt><trkpt lat="45.117989937604904" lon="8.793787156085292"><ele>90.28571428571428</ele><time>2026-04-11T13:16:25.001Z</time></trkpt><trkpt lat="45.118068006327576" lon="8.793797024110358"><ele>90.0</ele><time>2026-04-11T13:16:26.001Z</time></trkpt><trkpt lat="45.118141475518755" lon="8.793856965859359"><ele>90.0</ele><time>2026-04-11T13:16:27.001Z</time></trkpt><trkpt lat="45.1182253412453" lon="8.793886220266316"><ele>90.0</ele><time>2026-04-11T13:16:28.001Z</time></trkpt><trkpt lat="45.11831630289337" lon="8.793920737000372"><ele>90.0</ele><time>2026-04-11T13:16:29.001Z</time></trkpt><trkpt lat="45.11840734146018" lon="8.793956343843538"><ele>90.0</ele><time>2026-04-11T13:16:30.001Z</time></trkpt><trkpt lat="45.11848558262332" lon="8.793986945389928"><ele>90.0</ele><time>2026-04-11T13:16:31.001Z</time></trkpt><trkpt lat="45.118553853008535" lon="8.794013647183752"><ele>90.0</ele><time>2026-04-11T13:16:32.001Z</time></trkpt><trkpt lat="45.11862171533326" lon="8.794040189375599"><ele>90.2</ele><time>2026-04-11T13:16:33.001Z</time></trkpt><trkpt lat="45.11869331241859" lon="8.794067662530876"><ele>90.4</ele><time>2026-04-11T13:16:34.001Z</time></trkpt><trkpt lat="45.11876770074924" lon="8.794073144977434"><ele>90.6</ele><time>2026-04-11T13:16:35.001Z</time></trkpt><trkpt lat="45.118873191390776" lon="8.794111257509593"><ele>90.8</ele><time>2026-04-11T13:16:37.001Z</time></trkpt><trkpt lat="45.118991965381035" lon="8.79415555015444"><ele>91.0</ele><time>2026-04-11T13:16:39.001Z</time></trkpt><trkpt lat="45.11906789505118" lon="8.79418022073307"><ele>91.0</ele><time>2026-04-11T13:16:40.001Z</time></trkpt><trkpt lat="45.119151927103964" lon="8.794200885698594"><ele>91.0</ele><time>2026-04-11T13:16:41.001Z</time></trkpt><trkpt lat="45.119243865204375" lon="8.794229603713571"><ele>91.0</ele><time>2026-04-11T13:16:42.001Z</time></trkpt><trkpt lat="45.119337183841836" lon="8.794262566697396"><ele>91.0</ele><time>2026-04-11T13:16:43.001Z</time></trkpt><trkpt lat="45.11942438065521" lon="8.794303468205975"><ele>91.0</ele><time>2026-04-11T13:16:44.001Z</time></trkpt><trkpt lat="45.11950800747114" lon="8.794374462591653"><ele>91.4</ele><time>2026-04-11T13:16:45.001Z</time></trkpt><trkpt lat="45.119587468009115" lon="8.7944388132299"><ele>91.8</ele><time>2026-04-11T13:16:46.001Z</time></trkpt><trkpt lat="45.11966424731431" lon="8.794510520089318"><ele>92.2</ele><time>2026-04-11T13:16:47.001Z</time></trkpt><trkpt lat="45.11973942131568" lon="8.79458105379614"><ele>92.60000000000001</ele><time>2026-04-11T13:16:48.001Z</time></trkpt><trkpt lat="45.11981304761996" lon="8.794652408778294"><ele>93.0</ele><time>2026-04-11T13:16:49.001Z</time></trkpt><trkpt lat="45.119888091302684" lon="8.794721699603482"><ele>93.0</ele><time>2026-04-11T13:16:50.001Z</time></trkpt><trkpt lat="45.11997001744627" lon="8.794789178604319"><ele>93.0</ele><time>2026-04-11T13:16:51.001Z</time></trkpt><trkpt lat="45.12005874217564" lon="8.794845723794301"><ele>93.0</ele><time>2026-04-11T13:16:52.001Z</time></trkpt><trkpt lat="45.12015221070455" lon="8.79488923632964"><ele>93.0</ele><time>2026-04-11T13:16:53.001Z</time></trkpt><trkpt lat="45.1202529512964" lon="8.79493108018798"><ele>93.0</ele><time>2026-04-11T13:16:54.001Z</time></trkpt><trkpt lat="45.12034785870591" lon="8.794974523203805"><ele>93.0</ele><time>2026-04-11T13:16:55.001Z</time></trkpt><trkpt lat="45.12042312333794" lon="8.795024437445552"><ele>93.0</ele><time>2026-04-11T13:16:56.001Z</time></trkpt><trkpt lat="45.120496114123284" lon="8.795072414453855"><ele>93.0</ele><time>2026-04-11T13:16:57.001Z</time></trkpt><trkpt lat="45.12055599827038" lon="8.795116401113402"><ele>93.0</ele><time>2026-04-11T13:16:58.001Z</time></trkpt><trkpt lat="45.12060019938147" lon="8.795208169429614"><ele>93.0</ele><time>2026-04-11T13:16:59.001Z</time></trkpt><trkpt lat="45.120649979721506" lon="8.79527924711693"><ele>93.0</ele><time>2026-04-11T13:17:00Z</time></trkpt><trkpt lat="45.12070432238699" lon="8.795355373024572"><ele>93.0</ele><time>2026-04-11T13:17:01Z</time></trkpt><trkpt lat="45.12076309661016" lon="8.795458469261595"><ele>93.0</ele><time>2026-04-11T13:17:02Z</time></trkpt><trkpt lat="45.12080789517671" lon="8.795573460219284"><ele>93.0</ele><time>2026-04-11T13:17:03Z</time></trkpt><trkpt lat="45.120872063973074" lon="8.795706750857413"><ele>93.0</ele><time>2026-04-11T13:17:04Z</time></trkpt><trkpt lat="45.120938479809105" lon="8.795854056009313"><ele>93.0</ele><time>2026-04-11T13:17:05Z</time></trkpt><trkpt lat="45.12101556670635" lon="8.79598906823162"><ele>92.80000000000001</ele><time>2026-04-11T13:17:06Z</time></trkpt><trkpt lat="45.121086333686726" lon="8.796108892985293"><ele>92.6</ele><time>2026-04-11T13:17:07Z</time></trkpt><trkpt lat="45.12114718319985" lon="8.7962198091458"><ele>92.4</ele><time>2026-04-11T13:17:08Z</time></trkpt><trkpt lat="45.121221603586164" lon="8.796328599636322"><ele>92.19999999999999</ele><time>2026-04-11T13:17:09Z</time></trkpt><trkpt lat="45.12129871449218" lon="8.796439483922088"><ele>92.0</ele><time>2026-04-11T13:17:10Z</time></trkpt><trkpt lat="45.12137647119125" lon="8.796550493271905"><ele>92.0</ele><time>2026-04-11T13:17:11Z</time></trkpt><trkpt lat="45.12145607484338" lon="8.796671305480535"><ele>92.0</ele><time>2026-04-11T13:17:12Z</time></trkpt><trkpt lat="45.12153765723111" lon="8.796798058488683"><ele>92.0</ele><time>2026-04-11T13:17:13Z</time></trkpt><trkpt lat="45.12161206377329" lon="8.796945145405052"><ele>92.0</ele><time>2026-04-11T13:17:14Z</time></trkpt><trkpt lat="45.12169369712272" lon="8.79708035273801"><ele>92.19999999999999</ele><time>2026-04-11T13:17:15Z</time></trkpt><trkpt lat="45.12177542344291" lon="8.797215696499812"><ele>92.4</ele><time>2026-04-11T13:17:16Z</time></trkpt><trkpt lat="45.12184598201574" lon="8.797332551596025"><ele>92.6</ele><time>2026-04-11T13:17:17Z</time></trkpt><trkpt lat="45.121913331929136" lon="8.797444092620886"><ele>92.80000000000001</ele><time>2026-04-11T13:17:18Z</time></trkpt><trkpt lat="45.12197936982236" lon="8.797553977532292"><ele>93.0</ele><time>2026-04-11T13:17:19Z</time></trkpt><trkpt lat="45.122059984708685" lon="8.797655094362586"><ele>92.75</ele><time>2026-04-11T13:17:20Z</time></trkpt><trkpt lat="45.12211989000101" lon="8.797789411519652"><ele>92.5</ele><time>2026-04-11T13:17:21Z</time></trkpt><trkpt lat="45.12220476718193" lon="8.797897724733406"><ele>92.25</ele><time>2026-04-11T13:17:22Z</time></trkpt><trkpt lat="45.122288450847655" lon="8.798036727836593"><ele>92.0</ele><time>2026-04-11T13:17:23Z</time></trkpt><trkpt lat="45.122368714471904" lon="8.79819025709879"><ele>91.25</ele><time>2026-04-11T13:17:24Z</time></trkpt><trkpt lat="45.12245700132374" lon="8.79833594772001"><ele>90.5</ele><time>2026-04-11T13:17:25Z</time></trkpt><trkpt lat="45.12255151558632" lon="8.798488405767516"><ele>89.75</ele><time>2026-04-11T13:17:26Z</time></trkpt><trkpt lat="45.122643026128166" lon="8.798643276702956"><ele>89.0</ele><time>2026-04-11T13:17:27Z</time></trkpt><trkpt lat="45.12275272169048" lon="8.798775730206675"><ele>88.75</ele><time>2026-04-11T13:17:28Z</time></trkpt><trkpt lat="45.12286867140105" lon="8.798896050826581"><ele>88.5</ele><time>2026-04-11T13:17:29Z</time></trkpt><trkpt lat="45.12300017533219" lon="8.799002182172675"><ele>88.25</ele><time>2026-04-11T13:17:30Z</time></trkpt><trkpt lat="45.123139737817226" lon="8.799086076066265"><ele>88.0</ele><time>2026-04-11T13:17:31Z</time></trkpt><trkpt lat="45.12328734530149" lon="8.799153660526093"><ele>88.0</ele><time>2026-04-11T13:17:32Z</time></trkpt><trkpt lat="45.12343435760126" lon="8.799222290418987"><ele>88.0</ele><time>2026-04-11T13:17:33Z</time></trkpt><trkpt lat="45.12357894718843" lon="8.79929567077748"><ele>88.0</ele><time>2026-04-11T13:17:34Z</time></trkpt><trkpt lat="45.123735061408915" lon="8.799377636105856"><ele>87.66666666666666</ele><time>2026-04-11T13:17:35Z</time></trkpt><trkpt lat="45.12388817245374" lon="8.799459511116417"><ele>87.33333333333333</ele><time>2026-04-11T13:17:36Z</time></trkpt><trkpt lat="45.12404315627501" lon="8.799540752430731"><ele>87.0</ele><time>2026-04-11T13:17:37Z</time></trkpt><trkpt lat="45.124198336107156" lon="8.799620239467783"><ele>86.33333333333333</ele><time>2026-04-11T13:17:38Z</time></trkpt><trkpt lat="45.12435815738428" lon="8.799708619063589"><ele>85.66666666666666</ele><time>2026-04-11T13:17:39Z</time></trkpt><trkpt lat="45.12451943467972" lon="8.799793398364253"><ele>85.0</ele><time>2026-04-11T13:17:40Z</time></trkpt><trkpt lat="45.12468449059322" lon="8.799878949695929"><ele>85.0</ele><time>2026-04-11T13:17:41Z</time></trkpt><trkpt lat="45.12484792686464" lon="8.799958023828493"><ele>85.0</ele><time>2026-04-11T13:17:42Z</time></trkpt><trkpt lat="45.12501481352101" lon="8.800029026414954"><ele>85.0</ele><time>2026-04-11T13:17:43Z</time></trkpt><trkpt lat="45.12519249813811" lon="8.800088097677296"><ele>85.0</ele><time>2026-04-11T13:17:44Z</time></trkpt><trkpt lat="45.12537256843443" lon="8.800124163770793"><ele>85.0</ele><time>2026-04-11T13:17:45Z</time></trkpt><trkpt lat="45.12555309325969" lon="8.80014779151628"><ele>85.0</ele><time>2026-04-11T13:17:46Z</time></trkpt><trkpt lat="45.12573169761469" lon="8.800159178060204"><ele>84.66666666666666</ele><time>2026-04-11T13:17:47Z</time></trkpt><trkpt lat="45.12591665664405" lon="8.800163831134295"><ele>84.33333333333333</ele><time>2026-04-11T13:17:48Z</time></trkpt><trkpt lat="45.1261045231458" lon="8.800191049204749"><ele>84.0</ele><time>2026-04-11T13:17:49Z</time></trkpt><trkpt lat="45.126293225320005" lon="8.800181575397708"><ele>84.0</ele><time>2026-04-11T13:17:50Z</time></trkpt><trkpt lat="45.12648095695222" lon="8.80014489987316"><ele>84.0</ele><time>2026-04-11T13:17:51Z</time></trkpt><trkpt lat="45.12666307292777" lon="8.800116604320502"><ele>84.0</ele><time>2026-04-11T13:17:52Z</time></trkpt><trkpt lat="45.12684587705498" lon="8.800070991322947"><ele>84.66666666666667</ele><time>2026-04-11T13:17:53Z</time></trkpt><trkpt lat="45.12703206793841" lon="8.800018265527635"><ele>85.33333333333334</ele><time>2026-04-11T13:17:54Z</time></trkpt><trkpt lat="45.12721395890767" lon="8.799996398074105"><ele>86.0</ele><time>2026-04-11T13:17:55Z</time></trkpt><trkpt lat="45.12739548599808" lon="8.799952915736355"><ele>86.0</ele><time>2026-04-11T13:17:56Z</time></trkpt><trkpt lat="45.12756623547725" lon="8.79991158196125"><ele>86.0</ele><time>2026-04-11T13:17:57Z</time></trkpt><trkpt lat="45.12772113109548" lon="8.799873621657966"><ele>86.0</ele><time>2026-04-11T13:17:58Z</time></trkpt><trkpt lat="45.12786303354705" lon="8.799838210466335"><ele>86.0</ele><time>2026-04-11T13:17:59Z</time></trkpt><trkpt lat="45.12799407607484" lon="8.799805601556297"><ele>86.0</ele><time>2026-04-11T13:18:00Z</time></trkpt><trkpt lat="45.12810960444138" lon="8.799779723526992"><ele>86.0</ele><time>2026-04-11T13:18:01Z</time></trkpt><trkpt lat="45.12821189463766" lon="8.79976048652017"><ele>86.0</ele><time>2026-04-11T13:18:02Z</time></trkpt><trkpt lat="45.12830253776681" lon="8.799747987281949"><ele>86.0</ele><time>2026-04-11T13:18:03Z</time></trkpt><trkpt lat="45.12837905040765" lon="8.79974371401376"><ele>86.33333333333334</ele><time>2026-04-11T13:18:04Z</time></trkpt><trkpt lat="45.128448811670786" lon="8.799740007390206"><ele>86.66666666666667</ele><time>2026-04-11T13:18:05Z</time></trkpt><trkpt lat="45.12849979964385" lon="8.799795473693484"><ele>87.0</ele><time>2026-04-11T13:18:06Z</time></trkpt><trkpt lat="45.128533953976074" lon="8.799886073299094"><ele>87.33333333333333</ele><time>2026-04-11T13:18:07Z</time></trkpt><trkpt lat="45.12856472084778" lon="8.800001913742376"><ele>87.66666666666666</ele><time>2026-04-11T13:18:08Z</time></trkpt><trkpt lat="45.12858440005899" lon="8.800129462020255"><ele>88.0</ele><time>2026-04-11T13:18:09Z</time></trkpt><trkpt lat="45.12859849883922" lon="8.800270300014187"><ele>88.0</ele><time>2026-04-11T13:18:10Z</time></trkpt><trkpt lat="45.128614318151385" lon="8.800432933689763"><ele>88.0</ele><time>2026-04-11T13:18:11Z</time></trkpt><trkpt lat="45.128638194481184" lon="8.800616345810747"><ele>88.0</ele><time>2026-04-11T13:18:12Z</time></trkpt><trkpt lat="45.12866733364155" lon="8.80081359387083"><ele>88.0</ele><time>2026-04-11T13:18:13Z</time></trkpt><trkpt lat="45.12870211778576" lon="8.801030380783839"><ele>88.0</ele><time>2026-04-11T13:18:14Z</time></trkpt><trkpt lat="45.12873613408908" lon="8.801254373356295"><ele>88.0</ele><time>2026-04-11T13:18:15Z</time></trkpt><trkpt lat="45.12877149575765" lon="8.80149093233254"><ele>88.0</ele><time>2026-04-11T13:18:16Z</time></trkpt><trkpt lat="45.1288097853898" lon="8.801730796302774"><ele>88.0</ele><time>2026-04-11T13:18:17Z</time></trkpt><trkpt lat="45.128844887840586" lon="8.802002122898926"><ele>88.0</ele><time>2026-04-11T13:18:18Z</time></trkpt><trkpt lat="45.12889497369008" lon="8.802296410212977"><ele>88.0</ele><time>2026-04-11T13:18:19Z</time></trkpt><trkpt lat="45.12894324348607" lon="8.802586346003116"><ele>88.33333333333333</ele><time>2026-04-11T13:18:20Z</time></trkpt><trkpt lat="45.128982897670404" lon="8.802855906056674"><ele>88.66666666666667</ele><time>2026-04-11T13:18:21Z</time></trkpt><trkpt lat="45.12902154781707" lon="8.80311765379162"><ele>89.0</ele><time>2026-04-11T13:18:22Z</time></trkpt><trkpt lat="45.1290633874343" lon="8.803383896005274"><ele>89.0</ele><time>2026-04-11T13:18:23Z</time></trkpt><trkpt lat="45.12910762556868" lon="8.803649659797546"><ele>89.0</ele><time>2026-04-11T13:18:24Z</time></trkpt><trkpt lat="45.12914699428518" lon="8.803914197625982"><ele>89.0</ele><time>2026-04-11T13:18:25Z</time></trkpt><trkpt lat="45.12918685031526" lon="8.80417118978054"><ele>89.66666666666667</ele><time>2026-04-11T13:18:26Z</time></trkpt><trkpt lat="45.12922853463848" lon="8.804442207453802"><ele>90.33333333333333</ele><time>2026-04-11T13:18:27Z</time></trkpt><trkpt lat="45.12926855683135" lon="8.804717396757548"><ele>91.0</ele><time>2026-04-11T13:18:28Z</time></trkpt><trkpt lat="45.12930810377233" lon="8.804992928607204"><ele>91.66666666666666</ele><time>2026-04-11T13:18:29Z</time></trkpt><trkpt lat="45.129347222656456" lon="8.805265053172173"><ele>92.33333333333333</ele><time>2026-04-11T13:18:30Z</time></trkpt><trkpt lat="45.12939087110328" lon="8.805539593445701"><ele>93.0</ele><time>2026-04-11T13:18:31Z</time></trkpt><trkpt lat="45.12943059080249" lon="8.80581941671312"><ele>93.0</ele><time>2026-04-11T13:18:32Z</time></trkpt><trkpt lat="45.12947528124609" lon="8.80610107716522"><ele>93.0</ele><time>2026-04-11T13:18:33Z</time></trkpt><trkpt lat="45.12951805783861" lon="8.80637971142924"><ele>93.0</ele><time>2026-04-11T13:18:34Z</time></trkpt><trkpt lat="45.12956170281788" lon="8.806663188575483"><ele>91.0</ele><time>2026-04-11T13:18:35Z</time></trkpt><trkpt lat="45.12960810591695" lon="8.806948302194655"><ele>89.0</ele><time>2026-04-11T13:18:36Z</time></trkpt><trkpt lat="45.12965077229567" lon="8.807233101540975"><ele>87.0</ele><time>2026-04-11T13:18:37Z</time></trkpt><trkpt lat="45.129692651359214" lon="8.807522000193282"><ele>87.33333333333333</ele><time>2026-04-11T13:18:38Z</time></trkpt><trkpt lat="45.1297337292345" lon="8.807811173009927"><ele>87.66666666666666</ele><time>2026-04-11T13:18:39Z</time></trkpt><trkpt lat="45.129779743403994" lon="8.80809934024662"><ele>88.0</ele><time>2026-04-11T13:18:40Z</time></trkpt><trkpt lat="45.12982455142262" lon="8.808383856054023"><ele>88.33333333333333</ele><time>2026-04-11T13:18:41Z</time></trkpt><trkpt lat="45.12987094809071" lon="8.808667371865385"><ele>88.66666666666667</ele><time>2026-04-11T13:18:42Z</time></trkpt><trkpt lat="45.12991160903168" lon="8.808950725173469"><ele>89.0</ele><time>2026-04-11T13:18:43Z</time></trkpt><trkpt lat="45.12995739294425" lon="8.809230012224155"><ele>89.66666666666667</ele><time>2026-04-11T13:18:44Z</time></trkpt><trkpt lat="45.12999669624964" lon="8.80948923118254"><ele>90.33333333333333</ele><time>2026-04-11T13:18:45Z</time></trkpt><trkpt lat="45.13003739288016" lon="8.809728881994527"><ele>91.0</ele><time>2026-04-11T13:18:46Z</time></trkpt><trkpt lat="45.13005308550853" lon="8.8099481962042"><ele>91.0</ele><time>2026-04-11T13:18:47Z</time></trkpt><trkpt lat="45.13007813187858" lon="8.81014777655605"><ele>91.0</ele><time>2026-04-11T13:18:48Z</time></trkpt><trkpt lat="45.13009360841279" lon="8.810326204350496"><ele>91.0</ele><time>2026-04-11T13:18:49Z</time></trkpt><trkpt lat="45.13009960800841" lon="8.810490368899567"><ele>91.0</ele><time>2026-04-11T13:18:50Z</time></trkpt><trkpt lat="45.130101553711306" lon="8.810638817282001"><ele>91.0</ele><time>2026-04-11T13:18:51Z</time></trkpt><trkpt lat="45.130101553711256" lon="8.810767946828033"><ele>91.0</ele><time>2026-04-11T13:18:52Z</time></trkpt><trkpt lat="45.130097102411014" lon="8.81087898524536"><ele>91.0</ele><time>2026-04-11T13:18:53Z</time></trkpt><trkpt lat="45.130091841646774" lon="8.810976525187035"><ele>91.0</ele><time>2026-04-11T13:18:54Z</time></trkpt><trkpt lat="45.130082246255135" lon="8.811122929718914"><ele>91.0</ele><time>2026-04-11T13:18:56Z</time></trkpt><trkpt lat="45.130320747480425" lon="8.811199191916849"><ele>91.19999999999999</ele><time>2026-04-11T13:18:58Z</time></trkpt><trkpt lat="45.13040179109359" lon="8.81120809453547"><ele>91.39999999999999</ele><time>2026-04-11T13:18:59Z</time></trkpt><trkpt lat="45.13049649761595" lon="8.811242600225032"><ele>91.6</ele><time>2026-04-11T13:19:00Z</time></trkpt><trkpt lat="45.13060207848297" lon="8.811304426746256"><ele>91.8</ele><time>2026-04-11T13:19:01Z</time></trkpt><trkpt lat="45.13072052015883" lon="8.811389605806795"><ele>92.0</ele><time>2026-04-11T13:19:02Z</time></trkpt><trkpt lat="45.130846369474696" lon="8.811502193022209"><ele>92.33333333333334</ele><time>2026-04-11T13:19:03Z</time></trkpt><trkpt lat="45.13099026680024" lon="8.811589288363091"><ele>92.66666666666667</ele><time>2026-04-11T13:19:04Z</time></trkpt><trkpt lat="45.13114058507504" lon="8.811703826355277"><ele>93.0</ele><time>2026-04-11T13:19:05Z</time></trkpt><trkpt lat="45.13129971331042" lon="8.811815248235952"><ele>93.0</ele><time>2026-04-11T13:19:05.999Z</time></trkpt><trkpt lat="45.13147096747291" lon="8.811940153803459"><ele>93.0</ele><time>2026-04-11T13:19:06.999Z</time></trkpt><trkpt lat="45.13164923910853" lon="8.812068040764409"><ele>93.0</ele><time>2026-04-11T13:19:07.999Z</time></trkpt><trkpt lat="45.13182987024355" lon="8.812198947834991"><ele>92.66666666666667</ele><time>2026-04-11T13:19:08.999Z</time></trkpt><trkpt lat="45.132014077476136" lon="8.812332157959524"><ele>92.33333333333334</ele><time>2026-04-11T13:19:09.999Z</time></trkpt><trkpt lat="45.13220066409544" lon="8.812470440588973"><ele>92.0</ele><time>2026-04-11T13:19:10.999Z</time></trkpt><trkpt lat="45.132395183801975" lon="8.812609593596969"><ele>92.0</ele><time>2026-04-11T13:19:11.999Z</time></trkpt><trkpt lat="45.132584355780004" lon="8.812746394980765"><ele>92.0</ele><time>2026-04-11T13:19:12.999Z</time></trkpt><trkpt lat="45.13277605316242" lon="8.812884513948868"><ele>92.0</ele><time>2026-04-11T13:19:13.999Z</time></trkpt><trkpt lat="45.132965485450775" lon="8.813022651077455"><ele>92.0</ele><time>2026-04-11T13:19:14.999Z</time></trkpt><trkpt lat="45.13315230958603" lon="8.81315747026491"><ele>92.0</ele><time>2026-04-11T13:19:15.999Z</time></trkpt><trkpt lat="45.13333732986704" lon="8.813291208687573"><ele>92.0</ele><time>2026-04-11T13:19:16.999Z</time></trkpt><trkpt lat="45.133524244108656" lon="8.813427829297115"><ele>92.33333333333334</ele><time>2026-04-11T13:19:17.999Z</time></trkpt><trkpt lat="45.13370846377082" lon="8.813560830079696"><ele>92.66666666666667</ele><time>2026-04-11T13:19:18.999Z</time></trkpt><trkpt lat="45.133892733155626" lon="8.813693565278284"><ele>93.0</ele><time>2026-04-11T13:19:19.999Z</time></trkpt><trkpt lat="45.13407665357089" lon="8.813827225681136"><ele>93.0</ele><time>2026-04-11T13:19:20.999Z</time></trkpt><trkpt lat="45.1342628925845" lon="8.813962908690533"><ele>93.0</ele><time>2026-04-11T13:19:21.999Z</time></trkpt><trkpt lat="45.13444630227131" lon="8.814094618739109"><ele>93.0</ele><time>2026-04-11T13:19:22.999Z</time></trkpt><trkpt lat="45.13462969455647" lon="8.814224614988744"><ele>92.66666666666667</ele><time>2026-04-11T13:19:23.999Z</time></trkpt><trkpt lat="45.13481658862881" lon="8.814355369248755"><ele>92.33333333333334</ele><time>2026-04-11T13:19:24.999Z</time></trkpt><trkpt lat="45.13499835973432" lon="8.814488288869658"><ele>92.0</ele><time>2026-04-11T13:19:26Z</time></trkpt><trkpt lat="45.13518018190259" lon="8.814643997879791"><ele>91.66666666666667</ele><time>2026-04-11T13:19:27Z</time></trkpt><trkpt lat="45.1353652277561" lon="8.814777726394935"><ele>91.33333333333333</ele><time>2026-04-11T13:19:28Z</time></trkpt><trkpt lat="45.135550837209635" lon="8.814911879553152"><ele>91.0</ele><time>2026-04-11T13:19:29Z</time></trkpt><trkpt lat="45.13573694449693" lon="8.815047370956323"><ele>91.0</ele><time>2026-04-11T13:19:30Z</time></trkpt><trkpt lat="45.13592028732069" lon="8.815180849763323"><ele>91.0</ele><time>2026-04-11T13:19:31Z</time></trkpt><trkpt lat="45.13610723101102" lon="8.81531695009207"><ele>91.0</ele><time>2026-04-11T13:19:32Z</time></trkpt><trkpt lat="45.136291393784084" lon="8.815451025839774"><ele>91.0</ele><time>2026-04-11T13:19:33Z</time></trkpt><trkpt lat="45.13648000061996" lon="8.815587729010655"><ele>91.0</ele><time>2026-04-11T13:19:34Z</time></trkpt><trkpt lat="45.136665658071465" lon="8.815721640861934"><ele>91.0</ele><time>2026-04-11T13:19:35Z</time></trkpt><trkpt lat="45.13685175448673" lon="8.815855869313024"><ele>91.0</ele><time>2026-04-11T13:19:36Z</time></trkpt><trkpt lat="45.137035159955715" lon="8.81598874389972"><ele>91.0</ele><time>2026-04-11T13:19:37Z</time></trkpt><trkpt lat="45.13721588089036" lon="8.81611973480191"><ele>91.0</ele><time>2026-04-11T13:19:38Z</time></trkpt><trkpt lat="45.13737738073504" lon="8.81623679373964"><ele>91.33333333333333</ele><time>2026-04-11T13:19:39Z</time></trkpt><trkpt lat="45.137528213361946" lon="8.81634612089237"><ele>91.66666666666667</ele><time>2026-04-11T13:19:40Z</time></trkpt><trkpt lat="45.137675831237964" lon="8.816453117923313"><ele>92.0</ele><time>2026-04-11T13:19:41Z</time></trkpt><trkpt lat="45.137812970039214" lon="8.816552519482725"><ele>92.0</ele><time>2026-04-11T13:19:42Z</time></trkpt><trkpt lat="45.13794889005172" lon="8.816651037509079"><ele>92.0</ele><time>2026-04-11T13:19:43Z</time></trkpt><trkpt lat="45.13807881650244" lon="8.816745211411144"><ele>92.0</ele><time>2026-04-11T13:19:44Z</time></trkpt><trkpt lat="45.13819144463616" lon="8.816826847084243"><ele>92.0</ele><time>2026-04-11T13:19:45Z</time></trkpt><trkpt lat="45.138295103877184" lon="8.816901981698894"><ele>92.39999999999999</ele><time>2026-04-11T13:19:46Z</time></trkpt><trkpt lat="45.13838910926716" lon="8.81697011894158"><ele>92.8</ele><time>2026-04-11T13:19:47Z</time></trkpt><trkpt lat="45.138473450065916" lon="8.817031251379387"><ele>93.2</ele><time>2026-04-11T13:19:48Z</time></trkpt><trkpt lat="45.13854358396834" lon="8.817082086113206"><ele>93.6</ele><time>2026-04-11T13:19:49Z</time></trkpt><trkpt lat="45.13862945939578" lon="8.817139285664314"><ele>94.0</ele><time>2026-04-11T13:19:51Z</time></trkpt><trkpt lat="45.138552174909286" lon="8.81730132163892"><ele>94.0</ele><time>2026-04-11T13:19:54Z</time></trkpt><trkpt lat="45.138520153865144" lon="8.817382420225405"><ele>94.0</ele><time>2026-04-11T13:19:55Z</time></trkpt><trkpt lat="45.138483988269805" lon="8.817474015440242"><ele>94.0</ele><time>2026-04-11T13:19:56Z</time></trkpt><trkpt lat="45.138456663888874" lon="8.817585367510034"><ele>94.0</ele><time>2026-04-11T13:19:57Z</time></trkpt><trkpt lat="45.138412301325545" lon="8.817703236404546"><ele>94.0</ele><time>2026-04-11T13:19:58Z</time></trkpt><trkpt lat="45.13837016807119" lon="8.817816303623626"><ele>94.0</ele><time>2026-04-11T13:19:59Z</time></trkpt><trkpt lat="45.138324409294675" lon="8.817936292637922"><ele>94.0</ele><time>2026-04-11T13:20:00Z</time></trkpt><trkpt lat="45.13827896261502" lon="8.818057518570434"><ele>94.0</ele><time>2026-04-11T13:20:01Z</time></trkpt><trkpt lat="45.13823291002165" lon="8.81818155020325"><ele>94.0</ele><time>2026-04-11T13:20:02Z</time></trkpt><trkpt lat="45.13818730777967" lon="8.818306296740964"><ele>94.0</ele><time>2026-04-11T13:20:03Z</time></trkpt><trkpt lat="45.13814087881561" lon="8.81842970162034"><ele>94.0</ele><time>2026-04-11T13:20:04Z</time></trkpt><trkpt lat="45.138093972289724" lon="8.818552786470947"><ele>94.4</ele><time>2026-04-11T13:20:05Z</time></trkpt><trkpt lat="45.13804785689762" lon="8.8186726776756"><ele>94.80000000000001</ele><time>2026-04-11T13:20:06Z</time></trkpt><trkpt lat="45.138007062628" lon="8.818792697846337"><ele>95.19999999999999</ele><time>2026-04-11T13:20:07Z</time></trkpt><trkpt lat="45.137964432285294" lon="8.818905641634101"><ele>95.6</ele><time>2026-04-11T13:20:08Z</time></trkpt><trkpt lat="45.13792456279303" lon="8.819012018112424"><ele>96.0</ele><time>2026-04-11T13:20:09Z</time></trkpt><trkpt lat="45.13788548402836" lon="8.819124067106241"><ele>96.0</ele><time>2026-04-11T13:20:10Z</time></trkpt><trkpt lat="45.13784358654067" lon="8.819235196764275"><ele>96.0</ele><time>2026-04-11T13:20:11Z</time></trkpt><trkpt lat="45.13779945465648" lon="8.819349022973013"><ele>96.0</ele><time>2026-04-11T13:20:12Z</time></trkpt><trkpt lat="45.13775688217325" lon="8.819462138102486"><ele>96.0</ele><time>2026-04-11T13:20:13Z</time></trkpt><trkpt lat="45.13771201925309" lon="8.819574627520462"><ele>96.0</ele><time>2026-04-11T13:20:14Z</time></trkpt><trkpt lat="45.13766925712329" lon="8.819688288347278"><ele>96.0</ele><time>2026-04-11T13:20:15Z</time></trkpt><trkpt lat="45.13762714114165" lon="8.819806576310564"><ele>96.0</ele><time>2026-04-11T13:20:16Z</time></trkpt><trkpt lat="45.137581700219854" lon="8.8199276085804"><ele>96.0</ele><time>2026-04-11T13:20:17Z</time></trkpt><trkpt lat="45.13753638397889" lon="8.820048769145725"><ele>96.0</ele><time>2026-04-11T13:20:18Z</time></trkpt><trkpt lat="45.137490106854" lon="8.820172900186504"><ele>96.0</ele><time>2026-04-11T13:20:19Z</time></trkpt><trkpt lat="45.137443799646576" lon="8.820294825710157"><ele>96.0</ele><time>2026-04-11T13:20:20Z</time></trkpt><trkpt lat="45.137386023170734" lon="8.820401266801946"><ele>96.0</ele><time>2026-04-11T13:20:21Z</time></trkpt><trkpt lat="45.137343784329225" lon="8.820512892986548"><ele>96.0</ele><time>2026-04-11T13:20:22Z</time></trkpt><trkpt lat="45.13730217976179" lon="8.820622849510043"><ele>96.0</ele><time>2026-04-11T13:20:23Z</time></trkpt><trkpt lat="45.13726143619565" lon="8.82073053045909"><ele>96.0</ele><time>2026-04-11T13:20:24Z</time></trkpt><trkpt lat="45.13722097819964" lon="8.820837456673619"><ele>96.0</ele><time>2026-04-11T13:20:25Z</time></trkpt><trkpt lat="45.13718095133954" lon="8.820940600758906"><ele>96.16666666666667</ele><time>2026-04-11T13:20:26Z</time></trkpt><trkpt lat="45.1371410891643" lon="8.821037800002477"><ele>96.33333333333334</ele><time>2026-04-11T13:20:27Z</time></trkpt><trkpt lat="45.13710039218525" lon="8.821136489963695"><ele>96.5</ele><time>2026-04-11T13:20:28Z</time></trkpt><trkpt lat="45.13706050357371" lon="8.82123321788819"><ele>96.66666666666667</ele><time>2026-04-11T13:20:29Z</time></trkpt><trkpt lat="45.13702398032529" lon="8.821321793899095"><ele>96.83333333333334</ele><time>2026-04-11T13:20:30Z</time></trkpt><trkpt lat="45.13700429532861" lon="8.821415768828652"><ele>97.0</ele><time>2026-04-11T13:20:31Z</time></trkpt><trkpt lat="45.13694062296037" lon="8.821553719459905"><ele>97.0</ele><time>2026-04-11T13:20:33Z</time></trkpt><trkpt lat="45.13687845754049" lon="8.821707730240828"><ele>97.0</ele><time>2026-04-11T13:20:35Z</time></trkpt><trkpt lat="45.13681525139185" lon="8.821844459021158"><ele>97.0</ele><time>2026-04-11T13:20:37Z</time></trkpt><trkpt lat="45.1367319606424" lon="8.821918001571362"><ele>97.0</ele><time>2026-04-11T13:20:39Z</time></trkpt><trkpt lat="45.136637260466394" lon="8.821896518167957"><ele>97.0</ele><time>2026-04-11T13:20:41Z</time></trkpt><trkpt lat="45.13654782659859" lon="8.82185296489473"><ele>96.6</ele><time>2026-04-11T13:20:43Z</time></trkpt><trkpt lat="45.13647137866068" lon="8.821890684245126"><ele>96.19999999999999</ele><time>2026-04-11T13:20:45Z</time></trkpt><trkpt lat="45.13640481432602" lon="8.821998760149045"><ele>95.8</ele><time>2026-04-11T13:20:47Z</time></trkpt><trkpt lat="45.13637043858129" lon="8.82213112527266"><ele>95.4</ele><time>2026-04-11T13:20:49Z</time></trkpt><trkpt lat="45.13632535996621" lon="8.822266216359132"><ele>95.0</ele><time>2026-04-11T13:20:51Z</time></trkpt><trkpt lat="45.13630732825989" lon="8.822389536313455"><ele>95.0</ele><time>2026-04-11T13:20:53Z</time></trkpt><trkpt lat="45.13626028749309" lon="8.822504366029758"><ele>95.0</ele><time>2026-04-11T13:20:55Z</time></trkpt><trkpt lat="45.13618995173008" lon="8.82259609940873"><ele>95.0</ele><time>2026-04-11T13:20:57Z</time></trkpt><trkpt lat="45.136105011553894" lon="8.822648864641435"><ele>95.0</ele><time>2026-04-11T13:20:59Z</time></trkpt><trkpt lat="45.136016903659986" lon="8.822692301978183"><ele>95.0</ele><time>2026-04-11T13:21:01Z</time></trkpt><trkpt lat="45.135935235896895" lon="8.82267957869031"><ele>95.0</ele><time>2026-04-11T13:21:03Z</time></trkpt><trkpt lat="45.13585653356963" lon="8.822643067043899"><ele>95.0</ele><time>2026-04-11T13:21:05Z</time></trkpt><trkpt lat="45.135792190449074" lon="8.82258838995797"><ele>95.0</ele><time>2026-04-11T13:21:07Z</time></trkpt><trkpt lat="45.13573353597825" lon="8.822523689311105"><ele>95.0</ele><time>2026-04-11T13:21:09Z</time></trkpt><trkpt lat="45.13567403045349" lon="8.822475417864242"><ele>95.0</ele><time>2026-04-11T13:21:11.001Z</time></trkpt><trkpt lat="45.13562607190191" lon="8.822375865247428"><ele>95.0</ele><time>2026-04-11T13:21:12.999Z</time></trkpt><trkpt lat="45.13547582367638" lon="8.822339889016522"><ele>94.66666666666667</ele><time>2026-04-11T13:21:14.999Z</time></trkpt><trkpt lat="45.13536237710609" lon="8.822294696973684"><ele>94.33333333333333</ele><time>2026-04-11T13:21:16.999Z</time></trkpt><trkpt lat="45.135367286263964" lon="8.82192575309983"><ele>94.0</ele><time>2026-04-11T13:21:18.999Z</time></trkpt><trkpt lat="45.135163787867754" lon="8.822487923873316"><ele>94.0</ele><time>2026-04-11T13:21:22Z</time></trkpt><trkpt lat="45.135131470663836" lon="8.822580951955914"><ele>94.0</ele><time>2026-04-11T13:21:23Z</time></trkpt><trkpt lat="45.13510055600478" lon="8.822680050041813"><ele>94.0</ele><time>2026-04-11T13:21:24Z</time></trkpt><trkpt lat="45.13506565642813" lon="8.82279235035892"><ele>94.0</ele><time>2026-04-11T13:21:25Z</time></trkpt><trkpt lat="45.13502134809195" lon="8.822911452770596"><ele>94.0</ele><time>2026-04-11T13:21:26Z</time></trkpt><trkpt lat="45.13497639173164" lon="8.823040506710713"><ele>94.0</ele><time>2026-04-11T13:21:27Z</time></trkpt><trkpt lat="45.13492234328678" lon="8.823179999656599"><ele>93.80000000000001</ele><time>2026-04-11T13:21:28Z</time></trkpt><trkpt lat="45.134883269825664" lon="8.823311000064995"><ele>93.60000000000001</ele><time>2026-04-11T13:21:29Z</time></trkpt><trkpt lat="45.13482865518902" lon="8.823443255095254"><ele>93.4</ele><time>2026-04-11T13:21:30Z</time></trkpt><trkpt lat="45.13478277102711" lon="8.823575909847394"><ele>93.2</ele><time>2026-04-11T13:21:31Z</time></trkpt><trkpt lat="45.13473603737269" lon="8.82370901784156"><ele>93.0</ele><time>2026-04-11T13:21:32Z</time></trkpt><trkpt lat="45.13468836473624" lon="8.823842649404302"><ele>93.0</ele><time>2026-04-11T13:21:33Z</time></trkpt><trkpt lat="45.13463913330913" lon="8.823975203966693"><ele>93.0</ele><time>2026-04-11T13:21:34Z</time></trkpt><trkpt lat="45.1345929589261" lon="8.824109019996627"><ele>93.0</ele><time>2026-04-11T13:21:35Z</time></trkpt><trkpt lat="45.13454122154618" lon="8.824244814797074"><ele>93.0</ele><time>2026-04-11T13:21:36Z</time></trkpt><trkpt lat="45.134497158811406" lon="8.824381308931295"><ele>93.0</ele><time>2026-04-11T13:21:37Z</time></trkpt><trkpt lat="45.13444590785467" lon="8.824519882678999"><ele>92.75</ele><time>2026-04-11T13:21:38Z</time></trkpt><trkpt lat="45.1343923106656" lon="8.824666968587406"><ele>92.5</ele><time>2026-04-11T13:21:39Z</time></trkpt><trkpt lat="45.134335164771834" lon="8.824810692359385"><ele>92.25</ele><time>2026-04-11T13:21:40Z</time></trkpt><trkpt lat="45.1342833989528" lon="8.824951403030122"><ele>92.0</ele><time>2026-04-11T13:21:41Z</time></trkpt><trkpt lat="45.13423368444499" lon="8.825091543038818"><ele>92.0</ele><time>2026-04-11T13:21:42Z</time></trkpt><trkpt lat="45.134181646310765" lon="8.825235638612986"><ele>92.0</ele><time>2026-04-11T13:21:43Z</time></trkpt><trkpt lat="45.13413304091826" lon="8.825374275319234"><ele>92.0</ele><time>2026-04-11T13:21:44Z</time></trkpt><trkpt lat="45.134085104718075" lon="8.825515836511011"><ele>92.0</ele><time>2026-04-11T13:21:45Z</time></trkpt><trkpt lat="45.134031956151865" lon="8.82566036678092"><ele>92.0</ele><time>2026-04-11T13:21:46Z</time></trkpt><trkpt lat="45.133979364865844" lon="8.825808649536981"><ele>92.0</ele><time>2026-04-11T13:21:47Z</time></trkpt><trkpt lat="45.13392947630391" lon="8.825954130621383"><ele>92.0</ele><time>2026-04-11T13:21:48Z</time></trkpt><trkpt lat="45.13387734835036" lon="8.826099757471699"><ele>92.0</ele><time>2026-04-11T13:21:49Z</time></trkpt><trkpt lat="45.13382862472382" lon="8.826243917186469"><ele>92.0</ele><time>2026-04-11T13:21:50Z</time></trkpt><trkpt lat="45.133779805363645" lon="8.826386431280854"><ele>92.0</ele><time>2026-04-11T13:21:51Z</time></trkpt><trkpt lat="45.13372714919853" lon="8.826526255257566"><ele>92.0</ele><time>2026-04-11T13:21:52Z</time></trkpt><trkpt lat="45.13367584218585" lon="8.826668918520136"><ele>92.0</ele><time>2026-04-11T13:21:53Z</time></trkpt><trkpt lat="45.13362852114732" lon="8.826807542536509"><ele>92.0</ele><time>2026-04-11T13:21:54Z</time></trkpt><trkpt lat="45.13357465824374" lon="8.826938251355188"><ele>92.0</ele><time>2026-04-11T13:21:55Z</time></trkpt><trkpt lat="45.13352864905681" lon="8.827069118307548"><ele>92.0</ele><time>2026-04-11T13:21:56Z</time></trkpt><trkpt lat="45.13347938329875" lon="8.827202590455013"><ele>92.0</ele><time>2026-04-11T13:21:57Z</time></trkpt><trkpt lat="45.13343407362816" lon="8.827321005166764"><ele>92.0</ele><time>2026-04-11T13:21:58Z</time></trkpt><trkpt lat="45.13339825336021" lon="8.827408812040082"><ele>92.0</ele><time>2026-04-11T13:21:59Z</time></trkpt><trkpt lat="45.13335429284723" lon="8.827544180172824"><ele>92.0</ele><time>2026-04-11T13:22:01Z</time></trkpt><trkpt lat="45.133352017073506" lon="8.827667686049034"><ele>92.0</ele><time>2026-04-11T13:22:03Z</time></trkpt><trkpt lat="45.133417742894174" lon="8.827752904979752"><ele>92.0</ele><time>2026-04-11T13:22:05Z</time></trkpt><trkpt lat="45.133522181524306" lon="8.827801924484701"><ele>92.0</ele><time>2026-04-11T13:22:07Z</time></trkpt><trkpt lat="45.133581343723456" lon="8.827845823312543"><ele>92.0</ele><time>2026-04-11T13:22:08Z</time></trkpt><trkpt lat="45.13364630455497" lon="8.82788923479844"><ele>92.0</ele><time>2026-04-11T13:22:09Z</time></trkpt><trkpt lat="45.133714245263086" lon="8.827933312441342"><ele>92.0</ele><time>2026-04-11T13:22:10Z</time></trkpt><trkpt lat="45.13378345316509" lon="8.827976986509505"><ele>92.0</ele><time>2026-04-11T13:22:11Z</time></trkpt><trkpt lat="45.133854732959676" lon="8.828021505994432"><ele>92.0</ele><time>2026-04-11T13:22:12Z</time></trkpt><trkpt lat="45.13392997259972" lon="8.828070628907554"><ele>92.0</ele><time>2026-04-11T13:22:13Z</time></trkpt><trkpt lat="45.134003804323186" lon="8.82811977451273"><ele>92.0</ele><time>2026-04-11T13:22:14Z</time></trkpt><trkpt lat="45.134075742088356" lon="8.828171029674202"><ele>92.0</ele><time>2026-04-11T13:22:15Z</time></trkpt><trkpt lat="45.13415481147059" lon="8.828225725624408"><ele>92.0</ele><time>2026-04-11T13:22:16Z</time></trkpt><trkpt lat="45.13423387663041" lon="8.828276699378817"><ele>91.8</ele><time>2026-04-11T13:22:17Z</time></trkpt><trkpt lat="45.134316973167216" lon="8.828335586970175"><ele>91.6</ele><time>2026-04-11T13:22:18Z</time></trkpt><trkpt lat="45.13440381583593" lon="8.828391156502656"><ele>91.39999999999999</ele><time>2026-04-11T13:22:19Z</time></trkpt><trkpt lat="45.13448905861344" lon="8.82844430131242"><ele>91.19999999999999</ele><time>2026-04-11T13:22:20Z</time></trkpt><trkpt lat="45.13457248977462" lon="8.828497945733298"><ele>91.0</ele><time>2026-04-11T13:22:21Z</time></trkpt><trkpt lat="45.13465220216931" lon="8.828549492028163"><ele>91.0</ele><time>2026-04-11T13:22:22Z</time></trkpt><trkpt lat="45.134729142496795" lon="8.82859604823984"><ele>91.0</ele><time>2026-04-11T13:22:23Z</time></trkpt><trkpt lat="45.13480374008843" lon="8.828650691774655"><ele>91.0</ele><time>2026-04-11T13:22:24Z</time></trkpt><trkpt lat="45.13487506786303" lon="8.828698110480845"><ele>91.0</ele><time>2026-04-11T13:22:25Z</time></trkpt><trkpt lat="45.13495214497816" lon="8.828749831625364"><ele>91.0</ele><time>2026-04-11T13:22:26Z</time></trkpt><trkpt lat="45.13502467619854" lon="8.828796362420954"><ele>91.0</ele><time>2026-04-11T13:22:27Z</time></trkpt><trkpt lat="45.135106962196915" lon="8.828845533071625"><ele>91.16666666666666</ele><time>2026-04-11T13:22:28Z</time></trkpt><trkpt lat="45.135181575641774" lon="8.828891147028193"><ele>91.33333333333333</ele><time>2026-04-11T13:22:29Z</time></trkpt><trkpt lat="45.135255635531095" lon="8.828938850234287"><ele>91.5</ele><time>2026-04-11T13:22:30Z</time></trkpt><trkpt lat="45.135326948583156" lon="8.828984831874111"><ele>91.66666666666667</ele><time>2026-04-11T13:22:31Z</time></trkpt><trkpt lat="45.135395759299875" lon="8.82903195630846"><ele>91.83333333333334</ele><time>2026-04-11T13:22:32Z</time></trkpt><trkpt lat="45.13546819283235" lon="8.829084585516224"><ele>92.0</ele><time>2026-04-11T13:22:33Z</time></trkpt><trkpt lat="45.135540044246504" lon="8.829139391099492"><ele>92.0</ele><time>2026-04-11T13:22:34Z</time></trkpt><trkpt lat="45.13561541758325" lon="8.82919879593737"><ele>92.0</ele><time>2026-04-11T13:22:35Z</time></trkpt><trkpt lat="45.1356870115675" lon="8.829255397034938"><ele>92.0</ele><time>2026-04-11T13:22:36Z</time></trkpt><trkpt lat="45.135765741394586" lon="8.829309815070594"><ele>92.0</ele><time>2026-04-11T13:22:37Z</time></trkpt><trkpt lat="45.1358331802476" lon="8.829352145715005"><ele>92.0</ele><time>2026-04-11T13:22:38Z</time></trkpt><trkpt lat="45.135952554334054" lon="8.829417475574825"><ele>92.14285714285715</ele><time>2026-04-11T13:22:40Z</time></trkpt><trkpt lat="45.136015998277934" lon="8.829455593576942"><ele>92.28571428571428</ele><time>2026-04-11T13:22:41Z</time></trkpt><trkpt lat="45.136080400561625" lon="8.829499770782137"><ele>92.42857142857143</ele><time>2026-04-11T13:22:42.001Z</time></trkpt><trkpt lat="45.1361346993974" lon="8.82955984080259"><ele>92.57142857142858</ele><time>2026-04-11T13:22:43.001Z</time></trkpt><trkpt lat="45.136190682311444" lon="8.829629020596299"><ele>92.71428571428572</ele><time>2026-04-11T13:22:44.001Z</time></trkpt><trkpt lat="45.1362458298369" lon="8.829702669600922"><ele>92.85714285714286</ele><time>2026-04-11T13:22:45.001Z</time></trkpt><trkpt lat="45.13630468060183" lon="8.829779544614176"><ele>93.0</ele><time>2026-04-11T13:22:46.001Z</time></trkpt><trkpt lat="45.13635565517229" lon="8.829865725965567"><ele>93.0</ele><time>2026-04-11T13:22:47.001Z</time></trkpt><trkpt lat="45.13640372702497" lon="8.829953675685871"><ele>93.0</ele><time>2026-04-11T13:22:48.001Z</time></trkpt><trkpt lat="45.136455176193806" lon="8.83003819627508"><ele>93.0</ele><time>2026-04-11T13:22:49.001Z</time></trkpt><trkpt lat="45.13650572454292" lon="8.830117035770488"><ele>93.0</ele><time>2026-04-11T13:22:50.001Z</time></trkpt><trkpt lat="45.13656249472013" lon="8.830199468218066"><ele>93.0</ele><time>2026-04-11T13:22:51.001Z</time></trkpt><trkpt lat="45.13662639901017" lon="8.830276232737692"><ele>93.0</ele><time>2026-04-11T13:22:52.001Z</time></trkpt><trkpt lat="45.136695750335306" lon="8.83034540313815"><ele>93.2</ele><time>2026-04-11T13:22:53.001Z</time></trkpt><trkpt lat="45.1367720171522" lon="8.830412219039083"><ele>93.4</ele><time>2026-04-11T13:22:54.001Z</time></trkpt><trkpt lat="45.136855110745735" lon="8.830470026226553"><ele>93.60000000000001</ele><time>2026-04-11T13:22:55.001Z</time></trkpt><trkpt lat="45.136941696797294" lon="8.830522174421699"><ele>93.80000000000001</ele><time>2026-04-11T13:22:56.001Z</time></trkpt><trkpt lat="45.13703172007555" lon="8.830567693462335"><ele>94.0</ele><time>2026-04-11T13:22:57.001Z</time></trkpt><trkpt lat="45.13713647735894" lon="8.830606822927045"><ele>94.0</ele><time>2026-04-11T13:22:58.001Z</time></trkpt><trkpt lat="45.137240921520316" lon="8.830634202771527"><ele>94.0</ele><time>2026-04-11T13:22:59.001Z</time></trkpt><trkpt lat="45.13734277848919" lon="8.83065551203484"><ele>94.0</ele><time>2026-04-11T13:23:00.001Z</time></trkpt><trkpt lat="45.137446586331116" lon="8.830681317557506"><ele>94.0</ele><time>2026-04-11T13:23:01.001Z</time></trkpt><trkpt lat="45.13754184299999" lon="8.83070167779987"><ele>94.0</ele><time>2026-04-11T13:23:02.001Z</time></trkpt><trkpt lat="45.13763325709096" lon="8.830721975664467"><ele>94.0</ele><time>2026-04-11T13:23:03.001Z</time></trkpt><trkpt lat="45.137719207668205" lon="8.830738748961117"><ele>94.0</ele><time>2026-04-11T13:23:04.001Z</time></trkpt><trkpt lat="45.137798518474554" lon="8.830756756638165"><ele>94.0</ele><time>2026-04-11T13:23:05.001Z</time></trkpt><trkpt lat="45.137873309167354" lon="8.83077096336009"><ele>94.0</ele><time>2026-04-11T13:23:06.001Z</time></trkpt><trkpt lat="45.13794634310777" lon="8.830791467097047"><ele>94.0</ele><time>2026-04-11T13:23:07.001Z</time></trkpt><trkpt lat="45.138024113914014" lon="8.830816784872312"><ele>94.0</ele><time>2026-04-11T13:23:08.001Z</time></trkpt><trkpt lat="45.138101229423356" lon="8.83085517022537"><ele>94.0</ele><time>2026-04-11T13:23:09.001Z</time></trkpt><trkpt lat="45.13817626864009" lon="8.830904045157565"><ele>94.0</ele><time>2026-04-11T13:23:10.001Z</time></trkpt><trkpt lat="45.13824872134908" lon="8.830950142971194"><ele>94.0</ele><time>2026-04-11T13:23:11.001Z</time></trkpt><trkpt lat="45.13832545201011" lon="8.830994662455709"><ele>94.0</ele><time>2026-04-11T13:23:12.001Z</time></trkpt><trkpt lat="45.13840741547587" lon="8.831043542989164"><ele>94.0</ele><time>2026-04-11T13:23:13.001Z</time></trkpt><trkpt lat="45.13848704423792" lon="8.831089970236475"><ele>94.0</ele><time>2026-04-11T13:23:14.001Z</time></trkpt><trkpt lat="45.13856901408992" lon="8.83114234818234"><ele>94.0</ele><time>2026-04-11T13:23:15.001Z</time></trkpt><trkpt lat="45.13865140624441" lon="8.831193216831776"><ele>94.0</ele><time>2026-04-11T13:23:16.001Z</time></trkpt><trkpt lat="45.13873579661695" lon="8.831242855165785"><ele>94.0</ele><time>2026-04-11T13:23:17.001Z</time></trkpt><trkpt lat="45.138818988369934" lon="8.831287045479169"><ele>94.0</ele><time>2026-04-11T13:23:18Z</time></trkpt><trkpt lat="45.13889935923771" lon="8.831323668396912"><ele>94.0</ele><time>2026-04-11T13:23:19Z</time></trkpt><trkpt lat="45.13898177746474" lon="8.831341336032214"><ele>94.0</ele><time>2026-04-11T13:23:20Z</time></trkpt><trkpt lat="45.13907234795536" lon="8.831353162116812"><ele>94.0</ele><time>2026-04-11T13:23:21Z</time></trkpt><trkpt lat="45.13915849156913" lon="8.831359201435882"><ele>94.0</ele><time>2026-04-11T13:23:22Z</time></trkpt><trkpt lat="45.13924393841382" lon="8.831364186183185"><ele>94.0</ele><time>2026-04-11T13:23:23Z</time></trkpt><trkpt lat="45.13932762934236" lon="8.831357597780755"><ele>94.0</ele><time>2026-04-11T13:23:24Z</time></trkpt><trkpt lat="45.139411605633335" lon="8.831345929652265"><ele>94.0</ele><time>2026-04-11T13:23:25Z</time></trkpt><trkpt lat="45.13948448510122" lon="8.831328296739239"><ele>94.0</ele><time>2026-04-11T13:23:26Z</time></trkpt><trkpt lat="45.139601322980546" lon="8.831313349381523"><ele>94.0</ele><time>2026-04-11T13:23:28Z</time></trkpt><trkpt lat="45.13968417172301" lon="8.831299985331777"><ele>94.0</ele><time>2026-04-11T13:23:30Z</time></trkpt><trkpt lat="45.139740647496204" lon="8.831219655224908"><ele>94.0</ele><time>2026-04-11T13:23:32Z</time></trkpt><trkpt lat="45.13979115293164" lon="8.831067218006616"><ele>94.0</ele><time>2026-04-11T13:23:34Z</time></trkpt><trkpt lat="45.13983784395887" lon="8.830976787214778"><ele>94.0</ele><time>2026-04-11T13:23:35Z</time></trkpt><trkpt lat="45.13988924996099" lon="8.830889148569662"><ele>94.0</ele><time>2026-04-11T13:23:36Z</time></trkpt><trkpt lat="45.13993525174837" lon="8.83081229853691"><ele>94.16666666666666</ele><time>2026-04-11T13:23:37Z</time></trkpt><trkpt lat="45.13998085519656" lon="8.830735398733518"><ele>94.33333333333333</ele><time>2026-04-11T13:23:38Z</time></trkpt><trkpt lat="45.14003126380625" lon="8.830650438108337"><ele>94.5</ele><time>2026-04-11T13:23:39Z</time></trkpt><trkpt lat="45.14007576745479" lon="8.830582263703082"><ele>94.66666666666667</ele><time>2026-04-11T13:23:40Z</time></trkpt><trkpt lat="45.140142577500775" lon="8.83045217879669"><ele>94.83333333333334</ele><time>2026-04-11T13:23:42Z</time></trkpt><trkpt lat="45.14018471439452" lon="8.830379269812177"><ele>95.0</ele><time>2026-04-11T13:23:43Z</time></trkpt><trkpt lat="45.14023191065299" lon="8.83030807649407"><ele>95.0</ele><time>2026-04-11T13:23:44Z</time></trkpt><trkpt lat="45.140283565889014" lon="8.830236033206301"><ele>95.0</ele><time>2026-04-11T13:23:45Z</time></trkpt><trkpt lat="45.140340693209815" lon="8.830163598439691"><ele>95.0</ele><time>2026-04-11T13:23:46Z</time></trkpt><trkpt lat="45.140403066679404" lon="8.830091117972353"><ele>95.0</ele><time>2026-04-11T13:23:47Z</time></trkpt><trkpt lat="45.14046423233255" lon="8.830023717269247"><ele>95.0</ele><time>2026-04-11T13:23:48Z</time></trkpt><trkpt lat="45.140558084444756" lon="8.829919046020443"><ele>95.0</ele><time>2026-04-11T13:23:50Z</time></trkpt><trkpt lat="45.14066554527577" lon="8.829825610881091"><ele>94.83333333333334</ele><time>2026-04-11T13:23:52Z</time></trkpt><trkpt lat="45.14072485977216" lon="8.829783551454897"><ele>94.66666666666667</ele><time>2026-04-11T13:23:53Z</time></trkpt><trkpt lat="45.14078662253657" lon="8.829744995228916"><ele>94.5</ele><time>2026-04-11T13:23:54Z</time></trkpt><trkpt lat="45.140854593051536" lon="8.829706553003124"><ele>94.33333333333333</ele><time>2026-04-11T13:23:55Z</time></trkpt><trkpt lat="45.140962367516366" lon="8.829654087606608"><ele>94.16666666666666</ele><time>2026-04-11T13:23:57Z</time></trkpt><trkpt lat="45.14105149280712" lon="8.829613589537397"><ele>94.0</ele><time>2026-04-11T13:23:59Z</time></trkpt><trkpt lat="45.141140240034744" lon="8.82959290643091"><ele>94.0</ele><time>2026-04-11T13:26:31.001Z</time></trkpt><trkpt lat="45.1412506558255" lon="8.82954040660324"><ele>94.0</ele><time>2026-04-11T13:26:33.001Z</time></trkpt><trkpt lat="45.1413694975741" lon="8.829491851125168"><ele>94.0</ele><time>2026-04-11T13:26:35.001Z</time></trkpt><trkpt lat="45.14143905652055" lon="8.829457046850864"><ele>94.0</ele><time>2026-04-11T13:26:36.001Z</time></trkpt><trkpt lat="45.141511374032326" lon="8.829427985346321"><ele>94.0</ele><time>2026-04-11T13:26:37.001Z</time></trkpt><trkpt lat="45.14158832281616" lon="8.829396352523913"><ele>94.0</ele><time>2026-04-11T13:26:38.001Z</time></trkpt><trkpt lat="45.14167103003568" lon="8.829366056933619"><ele>94.0</ele><time>2026-04-11T13:26:39.001Z</time></trkpt><trkpt lat="45.14176237984324" lon="8.829329533248448"><ele>94.0</ele><time>2026-04-11T13:26:40.001Z</time></trkpt><trkpt lat="45.14184721728064" lon="8.829294191419944"><ele>94.0</ele><time>2026-04-11T13:26:41.001Z</time></trkpt><trkpt lat="45.14193927469182" lon="8.829261336622578"><ele>94.0</ele><time>2026-04-11T13:26:42.001Z</time></trkpt><trkpt lat="45.14202648852699" lon="8.82923716934796"><ele>94.0</ele><time>2026-04-11T13:26:43.001Z</time></trkpt><trkpt lat="45.142114233758136" lon="8.829221698803682"><ele>94.0</ele><time>2026-04-11T13:26:44.001Z</time></trkpt><trkpt lat="45.14220238388872" lon="8.829204919251453"><ele>94.0</ele><time>2026-04-11T13:26:45.001Z</time></trkpt><trkpt lat="45.142298607932446" lon="8.829199834770902"><ele>94.0</ele><time>2026-04-11T13:26:46.001Z</time></trkpt><trkpt lat="45.14237812698351" lon="8.829179660919056"><ele>94.0</ele><time>2026-04-11T13:26:47.001Z</time></trkpt><trkpt lat="45.14246296053237" lon="8.829164142183918"><ele>94.0</ele><time>2026-04-11T13:26:48.001Z</time></trkpt><trkpt lat="45.14254488626686" lon="8.829149715345407"><ele>94.0</ele><time>2026-04-11T13:26:49.001Z</time></trkpt><trkpt lat="45.14262749476258" lon="8.829124174116357"><ele>94.0</ele><time>2026-04-11T13:26:50.001Z</time></trkpt><trkpt lat="45.14270506502548" lon="8.829088511076902"><ele>94.0</ele><time>2026-04-11T13:26:51.001Z</time></trkpt><trkpt lat="45.142779190926426" lon="8.829046539173547"><ele>94.0</ele><time>2026-04-11T13:26:52.001Z</time></trkpt><trkpt lat="45.1428430596792" lon="8.829001320710267"><ele>94.0</ele><time>2026-04-11T13:26:53.001Z</time></trkpt><trkpt lat="45.14290726305215" lon="8.828949216840297"><ele>94.0</ele><time>2026-04-11T13:26:54.001Z</time></trkpt><trkpt lat="45.14296986299272" lon="8.828885758639595"><ele>94.0</ele><time>2026-04-11T13:26:55.001Z</time></trkpt><trkpt lat="45.143042050787614" lon="8.828826416191761"><ele>94.0</ele><time>2026-04-11T13:26:56.001Z</time></trkpt><trkpt lat="45.14311424938099" lon="8.828771075967264"><ele>94.0</ele><time>2026-04-11T13:26:57.001Z</time></trkpt><trkpt lat="45.14318919395117" lon="8.82871272199181"><ele>94.0</ele><time>2026-04-11T13:26:58.001Z</time></trkpt><trkpt lat="45.143265046651806" lon="8.828645821044057"><ele>94.0</ele><time>2026-04-11T13:26:59.001Z</time></trkpt><trkpt lat="45.14334076698926" lon="8.828582226361453"><ele>94.0</ele><time>2026-04-11T13:27:00.001Z</time></trkpt><trkpt lat="45.14341624796905" lon="8.828521032775328"><ele>94.16666666666666</ele><time>2026-04-11T13:27:01.001Z</time></trkpt><trkpt lat="45.14349102829835" lon="8.828456456323973"><ele>94.33333333333333</ele><time>2026-04-11T13:27:02.001Z</time></trkpt><trkpt lat="45.14356535410146" lon="8.828386471836392"><ele>94.5</ele><time>2026-04-11T13:27:03.001Z</time></trkpt><trkpt lat="45.14364437269977" lon="8.828321913524464"><ele>94.66666666666667</ele><time>2026-04-11T13:27:04.001Z</time></trkpt><trkpt lat="45.143722512123745" lon="8.828255202549357"><ele>94.83333333333334</ele><time>2026-04-11T13:27:05.001Z</time></trkpt><trkpt lat="45.14380009499155" lon="8.828190351135419"><ele>95.0</ele><time>2026-04-11T13:27:06.001Z</time></trkpt><trkpt lat="45.14387762021236" lon="8.828127725963745"><ele>95.0</ele><time>2026-04-11T13:27:07.001Z</time></trkpt><trkpt lat="45.14395670739048" lon="8.828065574998144"><ele>95.0</ele><time>2026-04-11T13:27:08.001Z</time></trkpt><trkpt lat="45.14403749175991" lon="8.82800602579191"><ele>95.0</ele><time>2026-04-11T13:27:09.001Z</time></trkpt><trkpt lat="45.14412097364206" lon="8.82793819326267"><ele>95.0</ele><time>2026-04-11T13:27:10.001Z</time></trkpt><trkpt lat="45.14420123738196" lon="8.827875150991543"><ele>95.0</ele><time>2026-04-11T13:27:11.001Z</time></trkpt><trkpt lat="45.14428505378423" lon="8.827812043942663"><ele>94.4</ele><time>2026-04-11T13:27:12.001Z</time></trkpt><trkpt lat="45.14436827637769" lon="8.827746204928484"><ele>93.8</ele><time>2026-04-11T13:27:13.001Z</time></trkpt><trkpt lat="45.14445735909997" lon="8.827689205956737"><ele>93.19999999999999</ele><time>2026-04-11T13:27:14.001Z</time></trkpt><trkpt lat="45.14454654665749" lon="8.827624865915814"><ele>92.6</ele><time>2026-04-11T13:27:15.001Z</time></trkpt><trkpt lat="45.144634047455256" lon="8.827554012278929"><ele>92.0</ele><time>2026-04-11T13:27:16.001Z</time></trkpt><trkpt lat="45.144717954299104" lon="8.827479690838702"><ele>92.0</ele><time>2026-04-11T13:27:17.001Z</time></trkpt><trkpt lat="45.14478459120985" lon="8.827414701747932"><ele>92.0</ele><time>2026-04-11T13:27:18.001Z</time></trkpt><trkpt lat="45.144846066719495" lon="8.827359916284134"><ele>92.0</ele><time>2026-04-11T13:27:19.001Z</time></trkpt><trkpt lat="45.14490694849575" lon="8.827305324867146"><ele>92.0</ele><time>2026-04-11T13:27:20.001Z</time></trkpt><trkpt lat="45.14496339420386" lon="8.827256180726884"><ele>92.0</ele><time>2026-04-11T13:27:21.001Z</time></trkpt><trkpt lat="45.14508226766137" lon="8.827195076004275"><ele>92.0</ele><time>2026-04-11T13:27:23.001Z</time></trkpt><trkpt lat="45.1451524213668" lon="8.827182632725266"><ele>92.16666666666667</ele><time>2026-04-11T13:27:24.001Z</time></trkpt><trkpt lat="45.14523379293004" lon="8.827174948116722"><ele>92.33333333333334</ele><time>2026-04-11T13:27:25.001Z</time></trkpt><trkpt lat="45.14532459039087" lon="8.827166081995992"><ele>92.5</ele><time>2026-04-11T13:27:26.001Z</time></trkpt><trkpt lat="45.145416474308895" lon="8.827147316836262"><ele>92.66666666666667</ele><time>2026-04-11T13:27:27.001Z</time></trkpt><trkpt lat="45.145508064452756" lon="8.827126699569135"><ele>92.83333333333333</ele><time>2026-04-11T13:27:28.001Z</time></trkpt><trkpt lat="45.145593094540786" lon="8.827110122427012"><ele>93.0</ele><time>2026-04-11T13:27:29.001Z</time></trkpt><trkpt lat="45.14566731620012" lon="8.827097231110505"><ele>92.83333333333333</ele><time>2026-04-11T13:27:30.001Z</time></trkpt><trkpt lat="45.14574549181574" lon="8.82710249838658"><ele>92.66666666666667</ele><time>2026-04-11T13:27:31.001Z</time></trkpt><trkpt lat="45.14582436025228" lon="8.827119638227025"><ele>92.5</ele><time>2026-04-11T13:27:32.001Z</time></trkpt><trkpt lat="45.14590056175486" lon="8.827150288381045"><ele>92.33333333333334</ele><time>2026-04-11T13:27:33.001Z</time></trkpt><trkpt lat="45.14598029090462" lon="8.827191478099472"><ele>92.16666666666667</ele><time>2026-04-11T13:27:34.001Z</time></trkpt><trkpt lat="45.14604885974471" lon="8.827237495765196"><ele>92.0</ele><time>2026-04-11T13:27:35.001Z</time></trkpt><trkpt lat="45.146105999859884" lon="8.827279320868266"><ele>92.0</ele><time>2026-04-11T13:27:36.001Z</time></trkpt><trkpt lat="45.146139584823274" lon="8.827357835507703"><ele>92.0</ele><time>2026-04-11T13:27:37.001Z</time></trkpt><trkpt lat="45.14619065024319" lon="8.827412499319411"><ele>92.0</ele><time>2026-04-11T13:27:38.001Z</time></trkpt><trkpt lat="45.14624766785293" lon="8.82747830542126"><ele>92.0</ele><time>2026-04-11T13:27:39.001Z</time></trkpt><trkpt lat="45.14630938839217" lon="8.827550886194128"><ele>92.0</ele><time>2026-04-11T13:27:40.001Z</time></trkpt><trkpt lat="45.14637922478928" lon="8.827633260400301"><ele>92.0</ele><time>2026-04-11T13:27:41.001Z</time></trkpt><trkpt lat="45.14644912029134" lon="8.827718939955522"><ele>92.0</ele><time>2026-04-11T13:27:42.001Z</time></trkpt><trkpt lat="45.14651967260836" lon="8.82780542465079"><ele>92.0</ele><time>2026-04-11T13:27:43.001Z</time></trkpt><trkpt lat="45.14659033353194" lon="8.827893521494985"><ele>92.0</ele><time>2026-04-11T13:27:44.001Z</time></trkpt><trkpt lat="45.14666392502033" lon="8.827987595145329"><ele>92.0</ele><time>2026-04-11T13:27:45.001Z</time></trkpt><trkpt lat="45.146739430184475" lon="8.828084115091107"><ele>92.0</ele><time>2026-04-11T13:27:46.001Z</time></trkpt><trkpt lat="45.1468198570794" lon="8.828184379204155"><ele>92.0</ele><time>2026-04-11T13:27:47.001Z</time></trkpt><trkpt lat="45.14690662088583" lon="8.828289637886149"><ele>92.0</ele><time>2026-04-11T13:27:48.001Z</time></trkpt><trkpt lat="45.14698908638576" lon="8.828389682017175"><ele>92.0</ele><time>2026-04-11T13:27:49.001Z</time></trkpt><trkpt lat="45.147071826307155" lon="8.828489463021228"><ele>92.0</ele><time>2026-04-11T13:27:50.001Z</time></trkpt><trkpt lat="45.14714327809366" lon="8.828571095399168"><ele>92.0</ele><time>2026-04-11T13:27:51.001Z</time></trkpt><trkpt lat="45.14721314402114" lon="8.828616968117059"><ele>91.83333333333334</ele><time>2026-04-11T13:27:52.001Z</time></trkpt><trkpt lat="45.14726227171057" lon="8.82867470143347"><ele>91.66666666666667</ele><time>2026-04-11T13:27:53.001Z</time></trkpt><trkpt lat="45.147310117350706" lon="8.828736712172802"><ele>91.5</ele><time>2026-04-11T13:27:54.001Z</time></trkpt><trkpt lat="45.1473826775295" lon="8.82877416365085"><ele>91.33333333333333</ele><time>2026-04-11T13:27:55.001Z</time></trkpt><trkpt lat="45.1474551963782" lon="8.828831528523168"><ele>91.16666666666666</ele><time>2026-04-11T13:27:56.001Z</time></trkpt><trkpt lat="45.147535575947934" lon="8.828892358294029"><ele>91.0</ele><time>2026-04-11T13:27:57.001Z</time></trkpt><trkpt lat="45.147621092867695" lon="8.82894451993817"><ele>91.4</ele><time>2026-04-11T13:27:58.001Z</time></trkpt><trkpt lat="45.14770879182779" lon="8.829001325883912"><ele>91.8</ele><time>2026-04-11T13:27:59.001Z</time></trkpt><trkpt lat="45.14779645549419" lon="8.829045629086078"><ele>92.2</ele><time>2026-04-11T13:28:00.001Z</time></trkpt><trkpt lat="45.14788733663354" lon="8.829097251412788"><ele>92.60000000000001</ele><time>2026-04-11T13:28:01.001Z</time></trkpt><trkpt lat="45.14797139046067" lon="8.829147866382234"><ele>93.0</ele><time>2026-04-11T13:28:02.001Z</time></trkpt><trkpt lat="45.14805760071587" lon="8.82920917186759"><ele>93.0</ele><time>2026-04-11T13:28:03.001Z</time></trkpt><trkpt lat="45.14813500195857" lon="8.82927042135674"><ele>93.0</ele><time>2026-04-11T13:28:04.001Z</time></trkpt><trkpt lat="45.1482109999026" lon="8.829333629583378"><ele>93.0</ele><time>2026-04-11T13:28:05.001Z</time></trkpt><trkpt lat="45.14828195384523" lon="8.829406787117346"><ele>93.0</ele><time>2026-04-11T13:28:06.001Z</time></trkpt><trkpt lat="45.148346777284104" lon="8.829481694913774"><ele>93.0</ele><time>2026-04-11T13:28:07.001Z</time></trkpt><trkpt lat="45.14840422857831" lon="8.829556852164641"><ele>93.0</ele><time>2026-04-11T13:28:08.001Z</time></trkpt><trkpt lat="45.148448449425956" lon="8.829654032041487"><ele>93.0</ele><time>2026-04-11T13:28:09.001Z</time></trkpt><trkpt lat="45.14851094520799" lon="8.829726311774627"><ele>93.0</ele><time>2026-04-11T13:28:10.001Z</time></trkpt><trkpt lat="45.148561872112765" lon="8.829817246043074"><ele>93.0</ele><time>2026-04-11T13:28:11.001Z</time></trkpt><trkpt lat="45.14860675676393" lon="8.829908575493784"><ele>93.0</ele><time>2026-04-11T13:28:12.001Z</time></trkpt><trkpt lat="45.14864870502284" lon="8.830001181748038"><ele>93.0</ele><time>2026-04-11T13:28:13.001Z</time></trkpt><trkpt lat="45.148696283015745" lon="8.830097416215803"><ele>93.0</ele><time>2026-04-11T13:28:14.001Z</time></trkpt><trkpt lat="45.14874851323211" lon="8.83019793078891"><ele>93.0</ele><time>2026-04-11T13:28:15.001Z</time></trkpt><trkpt lat="45.14880367804458" lon="8.83030180222213"><ele>93.0</ele><time>2026-04-11T13:28:16.001Z</time></trkpt><trkpt lat="45.148864128150976" lon="8.830407382484557"><ele>93.0</ele><time>2026-04-11T13:28:17.001Z</time></trkpt><trkpt lat="45.148922467787216" lon="8.830503699795022"><ele>93.0</ele><time>2026-04-11T13:28:18.001Z</time></trkpt><trkpt lat="45.14898982553893" lon="8.830609163407841"><ele>93.0</ele><time>2026-04-11T13:28:19.001Z</time></trkpt><trkpt lat="45.14904147863157" lon="8.830729139105458"><ele>93.16666666666667</ele><time>2026-04-11T13:28:20.001Z</time></trkpt><trkpt lat="45.14910388410389" lon="8.830837009073246"><ele>93.33333333333333</ele><time>2026-04-11T13:28:21.001Z</time></trkpt><trkpt lat="45.149170313942655" lon="8.830930986414574"><ele>93.5</ele><time>2026-04-11T13:28:22.001Z</time></trkpt><trkpt lat="45.14922947088385" lon="8.831006412289389"><ele>93.66666666666666</ele><time>2026-04-11T13:28:23.001Z</time></trkpt><trkpt lat="45.14926719775138" lon="8.831082719589322"><ele>93.83333333333333</ele><time>2026-04-11T13:28:24.001Z</time></trkpt><trkpt lat="45.14931612106737" lon="8.831141864641701"><ele>94.0</ele><time>2026-04-11T13:28:25.001Z</time></trkpt><trkpt lat="45.14936279010911" lon="8.831206935082635"><ele>94.0</ele><time>2026-04-11T13:28:26.001Z</time></trkpt><trkpt lat="45.149445588012654" lon="8.831329310942738"><ele>94.0</ele><time>2026-04-11T13:28:28.001Z</time></trkpt><trkpt lat="45.14953621273209" lon="8.831434559043107"><ele>94.0</ele><time>2026-04-11T13:28:30.001Z</time></trkpt><trkpt lat="45.149639087333824" lon="8.831529648340794"><ele>94.0</ele><time>2026-04-11T13:28:32.001Z</time></trkpt><trkpt lat="45.14969325438366" lon="8.831586050776941"><ele>94.0</ele><time>2026-04-11T13:28:33.001Z</time></trkpt><trkpt lat="45.14974907324128" lon="8.83165235078334"><ele>94.0</ele><time>2026-04-11T13:28:34.001Z</time></trkpt><trkpt lat="45.14980471983594" lon="8.831723307478354"><ele>94.0</ele><time>2026-04-11T13:28:35.001Z</time></trkpt><trkpt lat="45.149862938602105" lon="8.831793020604188"><ele>94.0</ele><time>2026-04-11T13:28:36.001Z</time></trkpt><trkpt lat="45.14991497984606" lon="8.831854077363971"><ele>94.0</ele><time>2026-04-11T13:28:37.001Z</time></trkpt><trkpt lat="45.14999700614523" lon="8.83194040928591"><ele>94.0</ele><time>2026-04-11T13:28:39.001Z</time></trkpt><trkpt lat="45.15005001198633" lon="8.831993205995007"><ele>94.0</ele><time>2026-04-11T13:28:41.001Z</time></trkpt><trkpt lat="45.15012587701701" lon="8.832070544530906"><ele>94.2</ele><time>2026-04-11T13:28:45.001Z</time></trkpt><trkpt lat="45.150220055385454" lon="8.832135344327028"><ele>94.4</ele><time>2026-04-11T13:28:47.001Z</time></trkpt><trkpt lat="45.15033726120184" lon="8.832228726986864"><ele>94.6</ele><time>2026-04-11T13:28:49.001Z</time></trkpt><trkpt lat="45.15040486691827" lon="8.83226829703667"><ele>94.8</ele><time>2026-04-11T13:28:50.001Z</time></trkpt><trkpt lat="45.1504788618141" lon="8.832311191644614"><ele>95.0</ele><time>2026-04-11T13:28:51.001Z</time></trkpt><trkpt lat="45.150562042084275" lon="8.832353448233512"><ele>95.0</ele><time>2026-04-11T13:28:52.001Z</time></trkpt><trkpt lat="45.150647296253354" lon="8.83238532284709"><ele>95.0</ele><time>2026-04-11T13:28:53.001Z</time></trkpt><trkpt lat="45.150743563550314" lon="8.832407449882014"><ele>95.0</ele><time>2026-04-11T13:28:54.001Z</time></trkpt><trkpt lat="45.15084080756243" lon="8.832428737330922"><ele>95.0</ele><time>2026-04-11T13:28:55.001Z</time></trkpt><trkpt lat="45.150938969666534" lon="8.832448828430449"><ele>95.0</ele><time>2026-04-11T13:28:56.001Z</time></trkpt><trkpt lat="45.15104071461901" lon="8.832469066401485"><ele>95.0</ele><time>2026-04-11T13:28:57.001Z</time></trkpt><trkpt lat="45.15113818177189" lon="8.832484424613439"><ele>95.0</ele><time>2026-04-11T13:28:58.001Z</time></trkpt><trkpt lat="45.15123117952538" lon="8.832500878240774"><ele>95.0</ele><time>2026-04-11T13:28:59.001Z</time></trkpt><trkpt lat="45.15131480028251" lon="8.832512118765905"><ele>95.0</ele><time>2026-04-11T13:29:00.001Z</time></trkpt><trkpt lat="45.15138560099859" lon="8.832517380804031"><ele>95.0</ele><time>2026-04-11T13:29:01.001Z</time></trkpt><trkpt lat="45.1514549085275" lon="8.832524905115092"><ele>95.0</ele><time>2026-04-11T13:29:02.001Z</time></trkpt><trkpt lat="45.15156563683056" lon="8.832556557908955"><ele>95.25</ele><time>2026-04-11T13:29:04.001Z</time></trkpt><trkpt lat="45.15165153037829" lon="8.832617241314866"><ele>95.5</ele><time>2026-04-11T13:29:06.001Z</time></trkpt><trkpt lat="45.1516642971492" lon="8.832853253120417"><ele>95.75</ele><time>2026-04-11T13:29:12.001Z</time></trkpt><trkpt lat="45.15163572425332" lon="8.833028323408941"><ele>96.0</ele><time>2026-04-11T13:29:14.001Z</time></trkpt><trkpt lat="45.15163119417869" lon="8.833130044847552"><ele>96.0</ele><time>2026-04-11T13:29:15.001Z</time></trkpt><trkpt lat="45.15162194243546" lon="8.833248510235308"><ele>96.0</ele><time>2026-04-11T13:29:16.001Z</time></trkpt><trkpt lat="45.15162162951687" lon="8.83338732238802"><ele>96.0</ele><time>2026-04-11T13:29:17.001Z</time></trkpt><trkpt lat="45.15162377814675" lon="8.833523830921784"><ele>96.0</ele><time>2026-04-11T13:29:18.001Z</time></trkpt><trkpt lat="45.15162880505848" lon="8.833664321864202"><ele>96.0</ele><time>2026-04-11T13:29:19.001Z</time></trkpt><trkpt lat="45.15163440863674" lon="8.833814266891189"><ele>95.75</ele><time>2026-04-11T13:29:20.001Z</time></trkpt><trkpt lat="45.151633720344634" lon="8.833961921195424"><ele>95.5</ele><time>2026-04-11T13:29:21.001Z</time></trkpt><trkpt lat="45.15164663464436" lon="8.834126022467947"><ele>95.25</ele><time>2026-04-11T13:29:22.001Z</time></trkpt><trkpt lat="45.15165322575518" lon="8.834295259431922"><ele>95.0</ele><time>2026-04-11T13:29:23.001Z</time></trkpt><trkpt lat="45.15167654825601" lon="8.834466820542426"><ele>94.75</ele><time>2026-04-11T13:29:24.001Z</time></trkpt><trkpt lat="45.15169351626615" lon="8.83464461966721"><ele>94.5</ele><time>2026-04-11T13:29:25.001Z</time></trkpt><trkpt lat="45.15171647236538" lon="8.834820474903479"><ele>94.25</ele><time>2026-04-11T13:29:26.001Z</time></trkpt><trkpt lat="45.15173295670749" lon="8.835002583912544"><ele>94.0</ele><time>2026-04-11T13:29:27.001Z</time></trkpt><trkpt lat="45.15174770412742" lon="8.83518826093577"><ele>93.75</ele><time>2026-04-11T13:29:28.001Z</time></trkpt><trkpt lat="45.15176807743071" lon="8.835375287660401"><ele>93.5</ele><time>2026-04-11T13:29:29.001Z</time></trkpt><trkpt lat="45.151768181275656" lon="8.835563479561545"><ele>93.25</ele><time>2026-04-11T13:29:30.001Z</time></trkpt><trkpt lat="45.15178484450792" lon="8.835759105914008"><ele>93.0</ele><time>2026-04-11T13:29:31.001Z</time></trkpt><trkpt lat="45.15180155548206" lon="8.83595529273883"><ele>93.25</ele><time>2026-04-11T13:29:32.001Z</time></trkpt><trkpt lat="45.151818406022" lon="8.836153118070037"><ele>93.5</ele><time>2026-04-11T13:29:33.001Z</time></trkpt><trkpt lat="45.15183530032645" lon="8.836351457193974"><ele>93.75</ele><time>2026-04-11T13:29:34.001Z</time></trkpt><trkpt lat="45.15185253666701" lon="8.836553811836927"><ele>94.0</ele><time>2026-04-11T13:29:35.001Z</time></trkpt><trkpt lat="45.15186951361024" lon="8.836753120823436"><ele>94.5</ele><time>2026-04-11T13:29:36Z</time></trkpt><trkpt lat="45.15190382600442" lon="8.836957032577583"><ele>95.0</ele><time>2026-04-11T13:29:37Z</time></trkpt><trkpt lat="45.151921677508675" lon="8.837167702843235"><ele>95.5</ele><time>2026-04-11T13:29:38Z</time></trkpt><trkpt lat="45.15194186639744" lon="8.837378734603464"><ele>96.0</ele><time>2026-04-11T13:29:39Z</time></trkpt><trkpt lat="45.151962785562965" lon="8.837587066752192"><ele>95.66666666666667</ele><time>2026-04-11T13:29:40Z</time></trkpt><trkpt lat="45.15197982213305" lon="8.837801512870989"><ele>95.33333333333334</ele><time>2026-04-11T13:29:41Z</time></trkpt><trkpt lat="45.151998214944356" lon="8.838016549656688"><ele>95.0</ele><time>2026-04-11T13:29:42Z</time></trkpt><trkpt lat="45.152018644896344" lon="8.838236773636018"><ele>95.0</ele><time>2026-04-11T13:29:43Z</time></trkpt><trkpt lat="45.15201288527666" lon="8.83845807901953"><ele>95.0</ele><time>2026-04-11T13:29:44Z</time></trkpt><trkpt lat="45.15203177351442" lon="8.838682945006843"><ele>95.0</ele><time>2026-04-11T13:29:45Z</time></trkpt><trkpt lat="45.15204996029856" lon="8.838899206596812"><ele>94.33333333333334</ele><time>2026-04-11T13:29:46Z</time></trkpt><trkpt lat="45.15206843308746" lon="8.839116885285106"><ele>93.66666666666667</ele><time>2026-04-11T13:29:47Z</time></trkpt><trkpt lat="45.152086721566086" lon="8.839332392114068"><ele>93.0</ele><time>2026-04-11T13:29:48Z</time></trkpt><trkpt lat="45.15210525936166" lon="8.83955083682913"><ele>93.0</ele><time>2026-04-11T13:29:49Z</time></trkpt><trkpt lat="45.15212357422094" lon="8.839766654527217"><ele>93.0</ele><time>2026-04-11T13:29:50Z</time></trkpt><trkpt lat="45.15214244319679" lon="8.839989001812267"><ele>93.0</ele><time>2026-04-11T13:29:51Z</time></trkpt><trkpt lat="45.15216100678094" lon="8.840207750404153"><ele>92.66666666666667</ele><time>2026-04-11T13:29:52Z</time></trkpt><trkpt lat="45.152179833809036" lon="8.840429603369245"><ele>92.33333333333334</ele><time>2026-04-11T13:29:53Z</time></trkpt><trkpt lat="45.152199091982894" lon="8.840656536840209"><ele>92.0</ele><time>2026-04-11T13:29:54Z</time></trkpt><trkpt lat="45.15221884787087" lon="8.840889335232797"><ele>92.33333333333334</ele><time>2026-04-11T13:29:55Z</time></trkpt><trkpt lat="45.15223896311448" lon="8.841126368198536"><ele>92.66666666666667</ele><time>2026-04-11T13:29:56Z</time></trkpt><trkpt lat="45.1522597378718" lon="8.841371172737183"><ele>93.0</ele><time>2026-04-11T13:29:57Z</time></trkpt><trkpt lat="45.15228049626632" lon="8.841617147027682"><ele>93.0</ele><time>2026-04-11T13:29:58Z</time></trkpt><trkpt lat="45.15230088600284" lon="8.841864868016135"><ele>93.0</ele><time>2026-04-11T13:29:59Z</time></trkpt><trkpt lat="45.152322017099166" lon="8.842121596015014"><ele>93.0</ele><time>2026-04-11T13:30:00Z</time></trkpt><trkpt lat="45.1523431629784" lon="8.842378503614919"><ele>93.0</ele><time>2026-04-11T13:30:01Z</time></trkpt><trkpt lat="45.15236356028608" lon="8.842626316596961"><ele>93.0</ele><time>2026-04-11T13:30:02Z</time></trkpt><trkpt lat="45.152384714419604" lon="8.842883324490801"><ele>93.0</ele><time>2026-04-11T13:30:03Z</time></trkpt><trkpt lat="45.15240566357617" lon="8.843137842057386"><ele>94.0</ele><time>2026-04-11T13:30:04Z</time></trkpt><trkpt lat="45.15242651955577" lon="8.843391227589702"><ele>95.0</ele><time>2026-04-11T13:30:05Z</time></trkpt><trkpt lat="45.15244770623788" lon="8.843648630878262"><ele>96.0</ele><time>2026-04-11T13:30:06Z</time></trkpt><trkpt lat="45.15246884360839" lon="8.843905435138016"><ele>96.0</ele><time>2026-04-11T13:30:07Z</time></trkpt><trkpt lat="45.15249065891269" lon="8.844163272162637"><ele>96.0</ele><time>2026-04-11T13:30:08Z</time></trkpt><trkpt lat="45.152512529612956" lon="8.844418529760464"><ele>96.0</ele><time>2026-04-11T13:30:09Z</time></trkpt><trkpt lat="45.152533970490595" lon="8.844674149080102"><ele>96.33333333333334</ele><time>2026-04-11T13:30:10Z</time></trkpt><trkpt lat="45.15255503936446" lon="8.844925333383186"><ele>96.66666666666667</ele><time>2026-04-11T13:30:11Z</time></trkpt><trkpt lat="45.152576290191874" lon="8.845178686927328"><ele>97.0</ele><time>2026-04-11T13:30:12Z</time></trkpt><trkpt lat="45.152597760582275" lon="8.845434658203432"><ele>96.33333333333334</ele><time>2026-04-11T13:30:13Z</time></trkpt><trkpt lat="45.15261916378" lon="8.845689828328398"><ele>95.66666666666667</ele><time>2026-04-11T13:30:14Z</time></trkpt><trkpt lat="45.1526407137563" lon="8.845946748322195"><ele>95.0</ele><time>2026-04-11T13:30:15Z</time></trkpt><trkpt lat="45.152662012538464" lon="8.846200673617112"><ele>94.66666666666667</ele><time>2026-04-11T13:30:16Z</time></trkpt><trkpt lat="45.15268274805585" lon="8.846447883662151"><ele>94.33333333333333</ele><time>2026-04-11T13:30:17Z</time></trkpt><trkpt lat="45.15270311397283" lon="8.846690687227198"><ele>94.0</ele><time>2026-04-11T13:30:18Z</time></trkpt><trkpt lat="45.152724254968184" lon="8.846942731357009"><ele>93.33333333333333</ele><time>2026-04-11T13:30:19Z</time></trkpt><trkpt lat="45.152744452547246" lon="8.8471835280685"><ele>92.66666666666667</ele><time>2026-04-11T13:30:20Z</time></trkpt><trkpt lat="45.15276534153738" lon="8.84742680556612"><ele>92.0</ele><time>2026-04-11T13:30:21Z</time></trkpt><trkpt lat="45.152786586918715" lon="8.847671137574514"><ele>92.0</ele><time>2026-04-11T13:30:22Z</time></trkpt><trkpt lat="45.152807180482235" lon="8.847907973273292"><ele>92.0</ele><time>2026-04-11T13:30:23Z</time></trkpt><trkpt lat="45.152827952204916" lon="8.848146857862654"><ele>92.0</ele><time>2026-04-11T13:30:24Z</time></trkpt><trkpt lat="45.15284863632611" lon="8.848384735074177"><ele>91.66666666666667</ele><time>2026-04-11T13:30:25Z</time></trkpt><trkpt lat="45.152868330215405" lon="8.84861493546638"><ele>91.33333333333333</ele><time>2026-04-11T13:30:26Z</time></trkpt><trkpt lat="45.15288821758184" lon="8.848850511781631"><ele>91.0</ele><time>2026-04-11T13:30:27Z</time></trkpt><trkpt lat="45.15290807819588" lon="8.849085771250083"><ele>91.0</ele><time>2026-04-11T13:30:28Z</time></trkpt><trkpt lat="45.15292779774155" lon="8.849319359718738"><ele>91.0</ele><time>2026-04-11T13:30:29Z</time></trkpt><trkpt lat="45.1529474179056" lon="8.849551770936904"><ele>91.0</ele><time>2026-04-11T13:30:30Z</time></trkpt><trkpt lat="45.15296764534518" lon="8.849787877022825"><ele>91.0</ele><time>2026-04-11T13:30:31Z</time></trkpt><trkpt lat="45.152988083551726" lon="8.850023852037648"><ele>91.0</ele><time>2026-04-11T13:30:32Z</time></trkpt><trkpt lat="45.1530080624962" lon="8.850254524421837"><ele>91.0</ele><time>2026-04-11T13:30:33Z</time></trkpt><trkpt lat="45.15302754526935" lon="8.850489995950792"><ele>90.66666666666666</ele><time>2026-04-11T13:30:34Z</time></trkpt><trkpt lat="45.15304639135796" lon="8.85072101698744"><ele>90.33333333333333</ele><time>2026-04-11T13:30:35Z</time></trkpt><trkpt lat="45.15306549723627" lon="8.850955222583279"><ele>90.0</ele><time>2026-04-11T13:30:36Z</time></trkpt><trkpt lat="45.15308429630194" lon="8.851185667255908"><ele>90.66666666666667</ele><time>2026-04-11T13:30:37Z</time></trkpt><trkpt lat="45.153103690557714" lon="8.851419479247449"><ele>91.33333333333334</ele><time>2026-04-11T13:30:38Z</time></trkpt><trkpt lat="45.153122967695445" lon="8.851647914640777"><ele>92.0</ele><time>2026-04-11T13:30:39Z</time></trkpt><trkpt lat="45.153142019249536" lon="8.851873676837549"><ele>92.0</ele><time>2026-04-11T13:30:40Z</time></trkpt><trkpt lat="45.153160573354654" lon="8.85209354419925"><ele>92.0</ele><time>2026-04-11T13:30:41Z</time></trkpt><trkpt lat="45.1531786748484" lon="8.852319682238877"><ele>92.0</ele><time>2026-04-11T13:30:42Z</time></trkpt><trkpt lat="45.15319645328831" lon="8.852544858909198"><ele>91.66666666666667</ele><time>2026-04-11T13:30:43Z</time></trkpt><trkpt lat="45.153214347559604" lon="8.85276726465121"><ele>91.33333333333333</ele><time>2026-04-11T13:30:44Z</time></trkpt><trkpt lat="45.15323200233826" lon="8.852986693747301"><ele>91.0</ele><time>2026-04-11T13:30:45Z</time></trkpt><trkpt lat="45.153250236947216" lon="8.853203925291018"><ele>91.0</ele><time>2026-04-11T13:30:46Z</time></trkpt><trkpt lat="45.153268367609314" lon="8.853419834374126"><ele>91.0</ele><time>2026-04-11T13:30:47Z</time></trkpt><trkpt lat="45.153285957298905" lon="8.853629301290123"><ele>91.0</ele><time>2026-04-11T13:30:48Z</time></trkpt><trkpt lat="45.153303450589114" lon="8.85383762023056"><ele>92.25</ele><time>2026-04-11T13:30:49Z</time></trkpt><trkpt lat="45.15332022106246" lon="8.85404296335728"><ele>93.5</ele><time>2026-04-11T13:30:50Z</time></trkpt><trkpt lat="45.15333532789156" lon="8.854230999800425"><ele>94.75</ele><time>2026-04-11T13:30:51Z</time></trkpt><trkpt lat="45.15334903658954" lon="8.854401633576728"><ele>96.0</ele><time>2026-04-11T13:30:52Z</time></trkpt><trkpt lat="45.1533619952881" lon="8.854564853191942"><ele>96.0</ele><time>2026-04-11T13:30:53Z</time></trkpt><trkpt lat="45.15337375563942" lon="8.854713359821572"><ele>96.0</ele><time>2026-04-11T13:30:54Z</time></trkpt><trkpt lat="45.15338578137569" lon="8.854857151709572"><ele>96.0</ele><time>2026-04-11T13:30:55Z</time></trkpt><trkpt lat="45.1533993076463" lon="8.85501037915141"><ele>96.0</ele><time>2026-04-11T13:30:56Z</time></trkpt><trkpt lat="45.15342897469717" lon="8.85516834443818"><ele>96.0</ele><time>2026-04-11T13:30:57Z</time></trkpt><trkpt lat="45.15344213313186" lon="8.855335025678416"><ele>95.75</ele><time>2026-04-11T13:30:58Z</time></trkpt><trkpt lat="45.15345689650553" lon="8.855502819739852"><ele>95.5</ele><time>2026-04-11T13:30:59Z</time></trkpt><trkpt lat="45.15346887235212" lon="8.855675920927096"><ele>95.25</ele><time>2026-04-11T13:31:00Z</time></trkpt><trkpt lat="45.15348005299438" lon="8.855845512765331"><ele>95.0</ele><time>2026-04-11T13:31:01Z</time></trkpt><trkpt lat="45.15349260803035" lon="8.856002185759865"><ele>94.66666666666667</ele><time>2026-04-11T13:31:02Z</time></trkpt><trkpt lat="45.15350767717483" lon="8.856136912041366"><ele>94.33333333333334</ele><time>2026-04-11T13:31:03Z</time></trkpt><trkpt lat="45.15351512944957" lon="8.856254342504403"><ele>94.0</ele><time>2026-04-11T13:31:04Z</time></trkpt><trkpt lat="45.15351442138118" lon="8.856378399221626"><ele>93.66666666666667</ele><time>2026-04-11T13:31:05Z</time></trkpt><trkpt lat="45.15349765544648" lon="8.856491715961353"><ele>93.33333333333333</ele><time>2026-04-11T13:31:06Z</time></trkpt><trkpt lat="45.15346635499848" lon="8.85660803765879"><ele>93.0</ele><time>2026-04-11T13:31:07Z</time></trkpt><trkpt lat="45.153419730964785" lon="8.856722139303589"><ele>92.80000000000001</ele><time>2026-04-11T13:31:08Z</time></trkpt><trkpt lat="45.15336426249334" lon="8.856825427069127"><ele>92.6</ele><time>2026-04-11T13:31:09Z</time></trkpt><trkpt lat="45.153292038774545" lon="8.856923985008736"><ele>92.4</ele><time>2026-04-11T13:31:10Z</time></trkpt><trkpt lat="45.153216606925106" lon="8.85701735104151"><ele>92.19999999999999</ele><time>2026-04-11T13:31:11Z</time></trkpt><trkpt lat="45.1531381510308" lon="8.857119387409975"><ele>92.0</ele><time>2026-04-11T13:31:12Z</time></trkpt><trkpt lat="45.153062192431804" lon="8.857221633984219"><ele>92.0</ele><time>2026-04-11T13:31:13Z</time></trkpt><trkpt lat="45.15297651278684" lon="8.857334397674418"><ele>92.0</ele><time>2026-04-11T13:31:14Z</time></trkpt><trkpt lat="45.15289448594331" lon="8.857447057195907"><ele>92.0</ele><time>2026-04-11T13:31:15Z</time></trkpt><trkpt lat="45.15280696302449" lon="8.857562869717704"><ele>92.0</ele><time>2026-04-11T13:31:16Z</time></trkpt><trkpt lat="45.152719300404726" lon="8.85767859269293"><ele>92.0</ele><time>2026-04-11T13:31:17Z</time></trkpt><trkpt lat="45.15263288402754" lon="8.85779586987491"><ele>92.0</ele><time>2026-04-11T13:31:18Z</time></trkpt><trkpt lat="45.15254329212884" lon="8.857923614608637"><ele>92.0</ele><time>2026-04-11T13:31:19Z</time></trkpt><trkpt lat="45.152460340672405" lon="8.85804542630089"><ele>92.0</ele><time>2026-04-11T13:31:20Z</time></trkpt><trkpt lat="45.15238710980829" lon="8.858156934290928"><ele>92.0</ele><time>2026-04-11T13:31:21Z</time></trkpt><trkpt lat="45.152310280429454" lon="8.858230938996181"><ele>92.0</ele><time>2026-04-11T13:31:22Z</time></trkpt><trkpt lat="45.15224799969045" lon="8.858312490296328"><ele>92.0</ele><time>2026-04-11T13:31:23Z</time></trkpt><trkpt lat="45.152187914379745" lon="8.858391166888628"><ele>92.0</ele><time>2026-04-11T13:31:24Z</time></trkpt><trkpt lat="45.15212196469397" lon="8.858477522371903"><ele>92.0</ele><time>2026-04-11T13:31:25Z</time></trkpt><trkpt lat="45.15205517919528" lon="8.858564972268805"><ele>92.0</ele><time>2026-04-11T13:31:26Z</time></trkpt><trkpt lat="45.151989831049896" lon="8.858650540099134"><ele>91.8</ele><time>2026-04-11T13:31:27Z</time></trkpt><trkpt lat="45.151922870073435" lon="8.85874296277235"><ele>91.6</ele><time>2026-04-11T13:31:28Z</time></trkpt><trkpt lat="45.151851839958404" lon="8.858830158476726"><ele>91.39999999999999</ele><time>2026-04-11T13:31:29Z</time></trkpt><trkpt lat="45.15177886473806" lon="8.858924267649867"><ele>91.19999999999999</ele><time>2026-04-11T13:31:30Z</time></trkpt><trkpt lat="45.151704735641175" lon="8.859024712017684"><ele>91.0</ele><time>2026-04-11T13:31:31Z</time></trkpt><trkpt lat="45.151632030446486" lon="8.859135737352066"><ele>91.0</ele><time>2026-04-11T13:31:32Z</time></trkpt><trkpt lat="45.151555070121255" lon="8.859243806777245"><ele>91.0</ele><time>2026-04-11T13:31:33Z</time></trkpt><trkpt lat="45.151463260735284" lon="8.859348039755188"><ele>91.0</ele><time>2026-04-11T13:31:34Z</time></trkpt><trkpt lat="45.15138633024492" lon="8.859469058553321"><ele>91.0</ele><time>2026-04-11T13:31:35Z</time></trkpt><trkpt lat="45.15130013116165" lon="8.859586059879145"><ele>91.0</ele><time>2026-04-11T13:31:36Z</time></trkpt><trkpt lat="45.15121334097436" lon="8.859700814887987"><ele>91.0</ele><time>2026-04-11T13:31:37Z</time></trkpt><trkpt lat="45.1511214665067" lon="8.859818141091647"><ele>91.0</ele><time>2026-04-11T13:31:38.001Z</time></trkpt><trkpt lat="45.151026521054476" lon="8.859937038669695"><ele>91.0</ele><time>2026-04-11T13:31:39.001Z</time></trkpt><trkpt lat="45.150934348266446" lon="8.860054309030344"><ele>91.19999999999999</ele><time>2026-04-11T13:31:40.001Z</time></trkpt><trkpt lat="45.15083902304066" lon="8.860139314462991"><ele>91.39999999999999</ele><time>2026-04-11T13:31:41.001Z</time></trkpt><trkpt lat="45.150780267264516" lon="8.860231200613729"><ele>91.6</ele><time>2026-04-11T13:31:41.999Z</time></trkpt><trkpt lat="45.150722361190205" lon="8.860316390625215"><ele>91.8</ele><time>2026-04-11T13:31:42.999Z</time></trkpt><trkpt lat="45.15067012031197" lon="8.860458489995697"><ele>92.0</ele><time>2026-04-11T13:31:44.999Z</time></trkpt><trkpt lat="45.15072886465524" lon="8.86065870087753"><ele>92.0</ele><time>2026-04-11T13:31:46.999Z</time></trkpt><trkpt lat="45.15074512485523" lon="8.860777731457501"><ele>92.0</ele><time>2026-04-11T13:31:47.999Z</time></trkpt><trkpt lat="45.150767537148816" lon="8.860908221666072"><ele>92.0</ele><time>2026-04-11T13:31:48.999Z</time></trkpt><trkpt lat="45.15079301865461" lon="8.861050264387865"><ele>92.0</ele><time>2026-04-11T13:31:49.999Z</time></trkpt><trkpt lat="45.150815804642" lon="8.861197828480716"><ele>92.0</ele><time>2026-04-11T13:31:50.999Z</time></trkpt><trkpt lat="45.15083997404472" lon="8.861338199228479"><ele>92.16666666666667</ele><time>2026-04-11T13:31:51.999Z</time></trkpt><trkpt lat="45.15085970104311" lon="8.861450179885995"><ele>92.33333333333334</ele><time>2026-04-11T13:31:53Z</time></trkpt><trkpt lat="45.15087456719583" lon="8.861549299285986"><ele>92.5</ele><time>2026-04-11T13:31:54Z</time></trkpt><trkpt lat="45.15090080360336" lon="8.86170889426026"><ele>92.66666666666667</ele><time>2026-04-11T13:31:56Z</time></trkpt><trkpt lat="45.15091715917657" lon="8.86179729717245"><ele>92.83333333333333</ele><time>2026-04-11T13:31:58Z</time></trkpt><trkpt lat="45.150933487303135" lon="8.861918993826185"><ele>93.0</ele><time>2026-04-11T13:32:02Z</time></trkpt><trkpt lat="45.151062570675585" lon="8.86189003948783"><ele>93.0</ele><time>2026-04-11T13:32:03Z</time></trkpt><trkpt lat="45.151149384234934" lon="8.861888510277808"><ele>93.0</ele><time>2026-04-11T13:32:04Z</time></trkpt><trkpt lat="45.15121134136487" lon="8.86186897773711"><ele>93.0</ele><time>2026-04-11T13:32:05Z</time></trkpt><trkpt lat="45.15127824104913" lon="8.861843130923397"><ele>93.0</ele><time>2026-04-11T13:32:06Z</time></trkpt><trkpt lat="45.15135263672895" lon="8.861813486129146"><ele>93.0</ele><time>2026-04-11T13:32:07Z</time></trkpt><trkpt lat="45.15143817824082" lon="8.861779399969704"><ele>93.0</ele><time>2026-04-11T13:32:08Z</time></trkpt><trkpt lat="45.151528045312695" lon="8.861743590231278"><ele>92.80000000000001</ele><time>2026-04-11T13:32:09Z</time></trkpt><trkpt lat="45.15162237833851" lon="8.861693037462985"><ele>92.6</ele><time>2026-04-11T13:32:10Z</time></trkpt><trkpt lat="45.15172991118808" lon="8.861649253134496"><ele>92.4</ele><time>2026-04-11T13:32:11Z</time></trkpt><trkpt lat="45.15183011803479" lon="8.861607252534695"><ele>92.19999999999999</ele><time>2026-04-11T13:32:12Z</time></trkpt><trkpt lat="45.151920081011795" lon="8.861567716591482"><ele>92.0</ele><time>2026-04-11T13:32:13Z</time></trkpt><trkpt lat="45.152002753507354" lon="8.86153056938856"><ele>92.0</ele><time>2026-04-11T13:32:14Z</time></trkpt><trkpt lat="45.15208107229285" lon="8.861494149828463"><ele>92.0</ele><time>2026-04-11T13:32:15Z</time></trkpt><trkpt lat="45.15215550345887" lon="8.861467656584002"><ele>92.0</ele><time>2026-04-11T13:32:16Z</time></trkpt><trkpt lat="45.152228288023046" lon="8.861434113997749"><ele>92.0</ele><time>2026-04-11T13:32:17Z</time></trkpt><trkpt lat="45.15230608203008" lon="8.861399433003262"><ele>92.0</ele><time>2026-04-11T13:32:18Z</time></trkpt><trkpt lat="45.15237526871376" lon="8.861368646493611"><ele>92.0</ele><time>2026-04-11T13:32:19Z</time></trkpt><trkpt lat="45.1524377896878" lon="8.861336299037701"><ele>92.0</ele><time>2026-04-11T13:32:20Z</time></trkpt><trkpt lat="45.15253877550103" lon="8.861302569188574"><ele>92.0</ele><time>2026-04-11T13:32:22Z</time></trkpt><trkpt lat="45.15258893941499" lon="8.86148575104131"><ele>92.0</ele><time>2026-04-11T13:32:25Z</time></trkpt><trkpt lat="45.15260862637509" lon="8.861581886034186"><ele>92.0</ele><time>2026-04-11T13:32:26Z</time></trkpt><trkpt lat="45.152632276039306" lon="8.861691632080735"><ele>92.0</ele><time>2026-04-11T13:32:27Z</time></trkpt><trkpt lat="45.1526589722669" lon="8.861815515332637"><ele>92.0</ele><time>2026-04-11T13:32:28Z</time></trkpt><trkpt lat="45.15268886914688" lon="8.861952398879726"><ele>92.0</ele><time>2026-04-11T13:32:29Z</time></trkpt><trkpt lat="45.15271951177627" lon="8.862091438182075"><ele>92.0</ele><time>2026-04-11T13:32:30Z</time></trkpt><trkpt lat="45.15274876493625" lon="8.862224172635436"><ele>92.0</ele><time>2026-04-11T13:32:31Z</time></trkpt><trkpt lat="45.152780359261435" lon="8.862367530321109"><ele>92.0</ele><time>2026-04-11T13:32:32Z</time></trkpt><trkpt lat="45.152810489005205" lon="8.862512893326146"><ele>91.83333333333334</ele><time>2026-04-11T13:32:33Z</time></trkpt><trkpt lat="45.152838738604636" lon="8.862650360697627"><ele>91.66666666666667</ele><time>2026-04-11T13:32:34Z</time></trkpt><trkpt lat="45.152864486998105" lon="8.862771490255787"><ele>91.5</ele><time>2026-04-11T13:32:35Z</time></trkpt><trkpt lat="45.1528875084796" lon="8.86287979115472"><ele>91.33333333333333</ele><time>2026-04-11T13:32:36Z</time></trkpt><trkpt lat="45.15291134962171" lon="8.86299105829678"><ele>91.16666666666666</ele><time>2026-04-11T13:32:37Z</time></trkpt><trkpt lat="45.15293687903541" lon="8.863105418962142"><ele>91.0</ele><time>2026-04-11T13:32:38Z</time></trkpt><trkpt lat="45.15296164267372" lon="8.863216349114975"><ele>91.0</ele><time>2026-04-11T13:32:39Z</time></trkpt><trkpt lat="45.15298544888187" lon="8.863322990547864"><ele>91.0</ele><time>2026-04-11T13:32:40Z</time></trkpt><trkpt lat="45.15301053889297" lon="8.863435040223676"><ele>91.0</ele><time>2026-04-11T13:32:41Z</time></trkpt><trkpt lat="45.153037296554835" lon="8.863551621860623"><ele>91.0</ele><time>2026-04-11T13:32:42Z</time></trkpt><trkpt lat="45.15306556380161" lon="8.863674780665606"><ele>91.0</ele><time>2026-04-11T13:32:43Z</time></trkpt><trkpt lat="45.153093182378335" lon="8.863795113193047"><ele>91.0</ele><time>2026-04-11T13:32:44Z</time></trkpt><trkpt lat="45.153122291217315" lon="8.863921938768117"><ele>90.8</ele><time>2026-04-11T13:32:45Z</time></trkpt><trkpt lat="45.153151528232016" lon="8.864049322844227"><ele>90.6</ele><time>2026-04-11T13:32:46Z</time></trkpt><trkpt lat="45.153181374888675" lon="8.864179363049384"><ele>90.4</ele><time>2026-04-11T13:32:47Z</time></trkpt><trkpt lat="45.153211012042306" lon="8.864308490449595"><ele>90.2</ele><time>2026-04-11T13:32:48Z</time></trkpt><trkpt lat="45.15324125236101" lon="8.86444024580825"><ele>90.0</ele><time>2026-04-11T13:32:49Z</time></trkpt><trkpt lat="45.153273811755895" lon="8.864582105295785"><ele>90.0</ele><time>2026-04-11T13:32:50Z</time></trkpt><trkpt lat="45.15330547885469" lon="8.864721554068804"><ele>90.0</ele><time>2026-04-11T13:32:51Z</time></trkpt><trkpt lat="45.1533358451927" lon="8.864857886472745"><ele>90.0</ele><time>2026-04-11T13:32:52Z</time></trkpt><trkpt lat="45.15336652945429" lon="8.864995646327733"><ele>90.0</ele><time>2026-04-11T13:32:53Z</time></trkpt><trkpt lat="45.15339935189583" lon="8.865143005724372"><ele>90.0</ele><time>2026-04-11T13:32:54Z</time></trkpt><trkpt lat="45.15342933676824" lon="8.86527762551483"><ele>89.83333333333333</ele><time>2026-04-11T13:32:55Z</time></trkpt><trkpt lat="45.153457836587805" lon="8.86540557812792"><ele>89.66666666666667</ele><time>2026-04-11T13:32:56Z</time></trkpt><trkpt lat="45.15348331839249" lon="8.865519981202814"><ele>89.5</ele><time>2026-04-11T13:32:57Z</time></trkpt><trkpt lat="45.15350592668551" lon="8.8656214831445"><ele>89.33333333333334</ele><time>2026-04-11T13:32:58Z</time></trkpt><trkpt lat="45.1535384407499" lon="8.8657674587843"><ele>89.16666666666667</ele><time>2026-04-11T13:33:00Z</time></trkpt><trkpt lat="45.153555885400955" lon="8.865867027352117"><ele>89.0</ele><time>2026-04-11T13:33:02Z</time></trkpt><trkpt lat="45.153634352150014" lon="8.86608144864446"><ele>89.0</ele><time>2026-04-11T13:33:03Z</time></trkpt><trkpt lat="45.153708702104375" lon="8.866106465651969"><ele>89.0</ele><time>2026-04-11T13:33:04Z</time></trkpt><trkpt lat="45.153800423231104" lon="8.866114903651383"><ele>89.0</ele><time>2026-04-11T13:33:05Z</time></trkpt><trkpt lat="45.15387600762692" lon="8.866120360160732"><ele>89.0</ele><time>2026-04-11T13:33:06Z</time></trkpt><trkpt lat="45.15394661066043" lon="8.866123380303216"><ele>89.0</ele><time>2026-04-11T13:33:07Z</time></trkpt><trkpt lat="45.15402380677289" lon="8.866125750125157"><ele>89.0</ele><time>2026-04-11T13:33:08Z</time></trkpt><trkpt lat="45.1540982568041" lon="8.866127622837679"><ele>89.33333333333334</ele><time>2026-04-11T13:33:09Z</time></trkpt><trkpt lat="45.15417557748215" lon="8.866129567746876"><ele>89.66666666666667</ele><time>2026-04-11T13:33:10Z</time></trkpt><trkpt lat="45.15425291123193" lon="8.866131512988234"><ele>90.0</ele><time>2026-04-11T13:33:11Z</time></trkpt><trkpt lat="45.15433384413144" lon="8.866133548762624"><ele>90.33333333333333</ele><time>2026-04-11T13:33:12Z</time></trkpt><trkpt lat="45.15441407538026" lon="8.866136378029163"><ele>90.66666666666666</ele><time>2026-04-11T13:33:13Z</time></trkpt><trkpt lat="45.15450158200973" lon="8.866139633002788"><ele>91.0</ele><time>2026-04-11T13:33:14Z</time></trkpt><trkpt lat="45.15458853359346" lon="8.866143099864583"><ele>91.0</ele><time>2026-04-11T13:33:15Z</time></trkpt><trkpt lat="45.1546738269362" lon="8.86614650062325"><ele>91.0</ele><time>2026-04-11T13:33:16Z</time></trkpt><trkpt lat="45.15476524662822" lon="8.866150145634878"><ele>91.0</ele><time>2026-04-11T13:33:17Z</time></trkpt><trkpt lat="45.15485647868845" lon="8.866153783175989"><ele>91.0</ele><time>2026-04-11T13:33:18Z</time></trkpt><trkpt lat="45.15494010764952" lon="8.866157723449394"><ele>91.0</ele><time>2026-04-11T13:33:19Z</time></trkpt><trkpt lat="45.15502807035744" lon="8.86616240825963"><ele>91.0</ele><time>2026-04-11T13:33:20Z</time></trkpt><trkpt lat="45.15511948331259" lon="8.866167276836224"><ele>91.0</ele><time>2026-04-11T13:33:21Z</time></trkpt><trkpt lat="45.15520917708625" lon="8.866173427341149"><ele>91.0</ele><time>2026-04-11T13:33:22Z</time></trkpt><trkpt lat="45.15530504324647" lon="8.866180625372406"><ele>91.0</ele><time>2026-04-11T13:33:23Z</time></trkpt><trkpt lat="45.15538625577244" lon="8.866186723121245"><ele>91.0</ele><time>2026-04-11T13:33:24Z</time></trkpt><trkpt lat="45.155477798069164" lon="8.86619454119361"><ele>91.0</ele><time>2026-04-11T13:33:25Z</time></trkpt><trkpt lat="45.15556393321365" lon="8.86620227870007"><ele>91.0</ele><time>2026-04-11T13:33:26Z</time></trkpt><trkpt lat="45.15565554671404" lon="8.866210508259256"><ele>91.0</ele><time>2026-04-11T13:33:27Z</time></trkpt><trkpt lat="45.1557403562996" lon="8.866218126684492"><ele>91.0</ele><time>2026-04-11T13:33:28Z</time></trkpt><trkpt lat="45.15582541170742" lon="8.866225767168013"><ele>91.0</ele><time>2026-04-11T13:33:29Z</time></trkpt><trkpt lat="45.15590881803477" lon="8.86623325949824"><ele>91.0</ele><time>2026-04-11T13:33:30Z</time></trkpt><trkpt lat="45.155997041263305" lon="8.866240852710545"><ele>91.0</ele><time>2026-04-11T13:33:31Z</time></trkpt><trkpt lat="45.1560863561088" lon="8.866248392040488"><ele>91.0</ele><time>2026-04-11T13:33:32Z</time></trkpt><trkpt lat="45.15617694495499" lon="8.866256018111686"><ele>91.0</ele><time>2026-04-11T13:33:33Z</time></trkpt><trkpt lat="45.15626071151297" lon="8.866262104480606"><ele>91.0</ele><time>2026-04-11T13:33:34Z</time></trkpt><trkpt lat="45.15635310329281" lon="8.866268817545334"><ele>91.0</ele><time>2026-04-11T13:33:35Z</time></trkpt><trkpt lat="45.15644218723777" lon="8.866275290258963"><ele>91.0</ele><time>2026-04-11T13:33:36Z</time></trkpt><trkpt lat="45.15653134568306" lon="8.86628176839954"><ele>91.0</ele><time>2026-04-11T13:33:37Z</time></trkpt><trkpt lat="45.15662668152434" lon="8.866288695360906"><ele>91.6</ele><time>2026-04-11T13:33:38Z</time></trkpt><trkpt lat="45.15671853090863" lon="8.866295369024481"><ele>92.19999999999999</ele><time>2026-04-11T13:33:39Z</time></trkpt><trkpt lat="45.15682619897805" lon="8.866303192042606"><ele>92.80000000000001</ele><time>2026-04-11T13:33:40Z</time></trkpt><trkpt lat="45.15692279444406" lon="8.866310210538245"><ele>93.4</ele><time>2026-04-11T13:33:41Z</time></trkpt><trkpt lat="45.15702083582403" lon="8.866317334088773"><ele>94.0</ele><time>2026-04-11T13:33:42Z</time></trkpt><trkpt lat="45.15712144396293" lon="8.866324644143376"><ele>94.0</ele><time>2026-04-11T13:33:43Z</time></trkpt><trkpt lat="45.15722307904153" lon="8.866332028820393"><ele>94.0</ele><time>2026-04-11T13:33:44.001Z</time></trkpt><trkpt lat="45.15731775715457" lon="8.866338907994255"><ele>94.0</ele><time>2026-04-11T13:33:45.001Z</time></trkpt><trkpt lat="45.157415802903714" lon="8.866346031878576"><ele>94.0</ele><time>2026-04-11T13:33:46.001Z</time></trkpt><trkpt lat="45.15750834085798" lon="8.866352755547002"><ele>94.0</ele><time>2026-04-11T13:33:47.001Z</time></trkpt><trkpt lat="45.15761752123215" lon="8.866360688461732"><ele>94.0</ele><time>2026-04-11T13:33:48Z</time></trkpt><trkpt lat="45.157697728996595" lon="8.866366827549317"><ele>94.0</ele><time>2026-04-11T13:33:49Z</time></trkpt><trkpt lat="45.157783592713756" lon="8.866373479429587"><ele>94.0</ele><time>2026-04-11T13:33:50Z</time></trkpt><trkpt lat="45.15786776765639" lon="8.866379998536685"><ele>94.0</ele><time>2026-04-11T13:33:51Z</time></trkpt><trkpt lat="45.15795359361924" lon="8.866386645506683"><ele>94.0</ele><time>2026-04-11T13:33:52Z</time></trkpt><trkpt lat="45.15804244348706" lon="8.866393526666203"><ele>94.0</ele><time>2026-04-11T13:33:53Z</time></trkpt><trkpt lat="45.15813297452112" lon="8.866400538029835"><ele>94.0</ele><time>2026-04-11T13:33:54Z</time></trkpt><trkpt lat="45.15821718297462" lon="8.866407059722158"><ele>94.0</ele><time>2026-04-11T13:33:55Z</time></trkpt><trkpt lat="45.15830028364382" lon="8.866413495627013"><ele>94.0</ele><time>2026-04-11T13:33:56Z</time></trkpt><trkpt lat="45.15837720284271" lon="8.86641980388721"><ele>94.0</ele><time>2026-04-11T13:33:57Z</time></trkpt><trkpt lat="45.15844565015731" lon="8.866425451993678"><ele>94.0</ele><time>2026-04-11T13:33:58Z</time></trkpt><trkpt lat="45.15855356136027" lon="8.866434356542712"><ele>94.0</ele><time>2026-04-11T13:34:00Z</time></trkpt><trkpt lat="45.158632583798685" lon="8.866440877271042"><ele>94.0</ele><time>2026-04-11T13:34:02Z</time></trkpt><trkpt lat="45.1587139715369" lon="8.866449415049935"><ele>94.0</ele><time>2026-04-11T13:34:05Z</time></trkpt><trkpt lat="45.15877721493912" lon="8.866088442394034"><ele>94.0</ele><time>2026-04-11T13:34:08Z</time></trkpt><trkpt lat="45.1587802340138" lon="8.865982055460254"><ele>94.0</ele><time>2026-04-11T13:34:10Z</time></trkpt><trkpt lat="45.15879548339448" lon="8.865883989152808"><ele>94.0</ele><time>2026-04-11T13:34:13Z</time></trkpt><trkpt lat="45.15874403769893" lon="8.865996749054506"><ele>94.0</ele><time>2026-04-11T13:34:38Z</time></trkpt><trkpt lat="45.1587390327661" lon="8.866106710424331"><ele>94.0</ele><time>2026-04-11T13:34:40Z</time></trkpt><trkpt lat="45.15869259687549" lon="8.866232437051249"><ele>94.0</ele><time>2026-04-11T13:34:42Z</time></trkpt><trkpt lat="45.15860166063092" lon="8.866261814806863"><ele>94.0</ele><time>2026-04-11T13:34:44Z</time></trkpt><trkpt lat="45.15853575055941" lon="8.866362183726077"><ele>94.0</ele><time>2026-04-11T13:34:45Z</time></trkpt><trkpt lat="45.15847095219568" lon="8.866356836713166"><ele>94.0</ele><time>2026-04-11T13:34:46Z</time></trkpt><trkpt lat="45.15840292214391" lon="8.866351223058409"><ele>94.0</ele><time>2026-04-11T13:34:47Z</time></trkpt><trkpt lat="45.15827638635939" lon="8.866340956030816"><ele>94.0</ele><time>2026-04-11T13:34:49Z</time></trkpt><trkpt lat="45.15820402701828" lon="8.866335352019595"><ele>94.0</ele><time>2026-04-11T13:34:50Z</time></trkpt><trkpt lat="45.1581247547644" lon="8.866329212619966"><ele>94.0</ele><time>2026-04-11T13:34:51Z</time></trkpt><trkpt lat="45.158040372998634" lon="8.866322677482732"><ele>94.0</ele><time>2026-04-11T13:34:52Z</time></trkpt><trkpt lat="45.15795235449047" lon="8.866315860722644"><ele>94.0</ele><time>2026-04-11T13:34:53Z</time></trkpt><trkpt lat="45.15786233874569" lon="8.866308889266"><ele>94.0</ele><time>2026-04-11T13:34:54Z</time></trkpt><trkpt lat="45.15776656687491" lon="8.866301472013044"><ele>94.0</ele><time>2026-04-11T13:34:55Z</time></trkpt><trkpt lat="45.157677768498964" lon="8.866294594841603"><ele>94.0</ele><time>2026-04-11T13:34:56Z</time></trkpt><trkpt lat="45.15759326717261" lon="8.866288252043818"><ele>94.0</ele><time>2026-04-11T13:34:57Z</time></trkpt><trkpt lat="45.157507493853345" lon="8.86628201986848"><ele>94.0</ele><time>2026-04-11T13:34:58Z</time></trkpt><trkpt lat="45.15742229429914" lon="8.866275829385339"><ele>94.0</ele><time>2026-04-11T13:34:59Z</time></trkpt><trkpt lat="45.15735050806301" lon="8.866270613496056"><ele>94.0</ele><time>2026-04-11T13:35:00Z</time></trkpt><trkpt lat="45.1572751306555" lon="8.86626513667105"><ele>94.0</ele><time>2026-04-11T13:35:01Z</time></trkpt><trkpt lat="45.15719919980774" lon="8.8662596196432"><ele>94.0</ele><time>2026-04-11T13:35:02Z</time></trkpt><trkpt lat="45.15711825859204" lon="8.866253738559198"><ele>94.0</ele><time>2026-04-11T13:35:03Z</time></trkpt><trkpt lat="45.15702966360963" lon="8.866247301363785"><ele>94.0</ele><time>2026-04-11T13:35:04Z</time></trkpt><trkpt lat="45.156941256673655" lon="8.866240877832215"><ele>94.0</ele><time>2026-04-11T13:35:05Z</time></trkpt><trkpt lat="45.156848013810375" lon="8.866234102938174"><ele>94.0</ele><time>2026-04-11T13:35:06Z</time></trkpt><trkpt lat="45.15675382467892" lon="8.866227259280453"><ele>94.0</ele><time>2026-04-11T13:35:07Z</time></trkpt><trkpt lat="45.156659818934045" lon="8.866220428931749"><ele>94.0</ele><time>2026-04-11T13:35:08Z</time></trkpt><trkpt lat="45.156564955635616" lon="8.866213536306088"><ele>93.4</ele><time>2026-04-11T13:35:09Z</time></trkpt><trkpt lat="45.156467508104456" lon="8.866206455877965"><ele>92.80000000000001</ele><time>2026-04-11T13:35:10Z</time></trkpt><trkpt lat="45.15637241102497" lon="8.86619954626975"><ele>92.19999999999999</ele><time>2026-04-11T13:35:11Z</time></trkpt><trkpt lat="45.1562792727864" lon="8.866192778965164"><ele>91.6</ele><time>2026-04-11T13:35:12Z</time></trkpt><trkpt lat="45.15617909783974" lon="8.866185500392469"><ele>91.0</ele><time>2026-04-11T13:35:13Z</time></trkpt><trkpt lat="45.15607272965216" lon="8.866176535069382"><ele>91.0</ele><time>2026-04-11T13:35:14Z</time></trkpt><trkpt lat="45.155967510060925" lon="8.866167653193251"><ele>91.0</ele><time>2026-04-11T13:35:15Z</time></trkpt><trkpt lat="45.155856086146215" lon="8.866157799278144"><ele>91.0</ele><time>2026-04-11T13:35:16Z</time></trkpt><trkpt lat="45.1557421723608" lon="8.866147566467903"><ele>91.0</ele><time>2026-04-11T13:35:17Z</time></trkpt><trkpt lat="45.1556278430295" lon="8.866137296303679"><ele>91.0</ele><time>2026-04-11T13:35:18.001Z</time></trkpt><trkpt lat="45.155516215728575" lon="8.866127268864938"><ele>91.0</ele><time>2026-04-11T13:35:19.001Z</time></trkpt><trkpt lat="45.155407905863484" lon="8.866117668222026"><ele>91.0</ele><time>2026-04-11T13:35:20.001Z</time></trkpt><trkpt lat="45.15529692673833" lon="8.866109335467149"><ele>91.0</ele><time>2026-04-11T13:35:21.001Z</time></trkpt><trkpt lat="45.155185258462524" lon="8.866100950959042"><ele>91.0</ele><time>2026-04-11T13:35:22.001Z</time></trkpt><trkpt lat="45.15507510603294" lon="8.86609428230049"><ele>91.0</ele><time>2026-04-11T13:35:23.001Z</time></trkpt><trkpt lat="45.15496003572119" lon="8.86608815375428"><ele>91.0</ele><time>2026-04-11T13:35:24.001Z</time></trkpt><trkpt lat="45.15484213027692" lon="8.866082602051753"><ele>91.0</ele><time>2026-04-11T13:35:25.001Z</time></trkpt><trkpt lat="45.15472302691736" lon="8.866077853262631"><ele>91.0</ele><time>2026-04-11T13:35:26.001Z</time></trkpt><trkpt lat="45.15460483678062" lon="8.866073140886108"><ele>91.0</ele><time>2026-04-11T13:35:27.001Z</time></trkpt><trkpt lat="45.15448732683244" lon="8.866068471321723"><ele>91.0</ele><time>2026-04-11T13:35:28.001Z</time></trkpt><trkpt lat="45.15436455214496" lon="8.866063948932872"><ele>91.0</ele><time>2026-04-11T13:35:29.001Z</time></trkpt><trkpt lat="45.154256299008544" lon="8.866061006086358"><ele>91.0</ele><time>2026-04-11T13:35:30.001Z</time></trkpt><trkpt lat="45.15416059452154" lon="8.866058598748998"><ele>91.0</ele><time>2026-04-11T13:35:31.001Z</time></trkpt><trkpt lat="45.15405547525973" lon="8.866055954589786"><ele>91.0</ele><time>2026-04-11T13:35:32.001Z</time></trkpt><trkpt lat="45.153956267718826" lon="8.866053180133596"><ele>90.66666666666666</ele><time>2026-04-11T13:35:33.001Z</time></trkpt><trkpt lat="45.15387922468588" lon="8.866049884509739"><ele>90.33333333333333</ele><time>2026-04-11T13:35:34.001Z</time></trkpt><trkpt lat="45.153815981410204" lon="8.866045591240777"><ele>90.0</ele><time>2026-04-11T13:35:35.001Z</time></trkpt><trkpt lat="45.15371318101534" lon="8.86603249192415"><ele>89.66666666666667</ele><time>2026-04-11T13:35:37.001Z</time></trkpt><trkpt lat="45.15362252027008" lon="8.866001646006703"><ele>89.33333333333334</ele><time>2026-04-11T13:35:39.001Z</time></trkpt><trkpt lat="45.15369394450403" lon="8.866057459024052"><ele>89.0</ele><time>2026-04-11T13:35:48.001Z</time></trkpt><trkpt lat="45.153778912589225" lon="8.866053721246406"><ele>89.0</ele><time>2026-04-11T13:35:50.001Z</time></trkpt><trkpt lat="45.15386376799665" lon="8.866037367372922"><ele>89.0</ele><time>2026-04-11T13:35:52.001Z</time></trkpt><trkpt lat="45.15397848092966" lon="8.866043332055316"><ele>89.0</ele><time>2026-04-11T13:35:54Z</time></trkpt><trkpt lat="45.154042233785276" lon="8.866046987789197"><ele>89.0</ele><time>2026-04-11T13:35:55Z</time></trkpt><trkpt lat="45.15410808250941" lon="8.866049300068484"><ele>89.0</ele><time>2026-04-11T13:35:56Z</time></trkpt><trkpt lat="45.15417369347826" lon="8.866053610657458"><ele>89.0</ele><time>2026-04-11T13:35:57Z</time></trkpt><trkpt lat="45.15423665964199" lon="8.866056094949053"><ele>89.33333333333334</ele><time>2026-04-11T13:35:58Z</time></trkpt><trkpt lat="45.15430373392418" lon="8.866058876692112"><ele>89.66666666666667</ele><time>2026-04-11T13:35:59Z</time></trkpt><trkpt lat="45.15437578011532" lon="8.866062028219693"><ele>90.0</ele><time>2026-04-11T13:36:00Z</time></trkpt><trkpt lat="45.154451041105304" lon="8.86606501186377"><ele>90.33333333333333</ele><time>2026-04-11T13:36:01Z</time></trkpt><trkpt lat="45.154529760215006" lon="8.866069184211412"><ele>90.66666666666666</ele><time>2026-04-11T13:36:02Z</time></trkpt><trkpt lat="45.1546131408471" lon="8.866075224135233"><ele>91.0</ele><time>2026-04-11T13:36:03Z</time></trkpt><trkpt lat="45.154706472336684" lon="8.866080697019367"><ele>91.0</ele><time>2026-04-11T13:36:04Z</time></trkpt><trkpt lat="45.15479804341342" lon="8.866089540118956"><ele>91.0</ele><time>2026-04-11T13:36:05Z</time></trkpt><trkpt lat="45.154879209878516" lon="8.866154691478691"><ele>91.0</ele><time>2026-04-11T13:36:06Z</time></trkpt><trkpt lat="45.15496502793748" lon="8.866159052664779"><ele>91.0</ele><time>2026-04-11T13:36:07Z</time></trkpt><trkpt lat="45.1550511105101" lon="8.86616363734747"><ele>91.0</ele><time>2026-04-11T13:36:08Z</time></trkpt><trkpt lat="45.15514235112013" lon="8.866168496743533"><ele>91.0</ele><time>2026-04-11T13:36:09Z</time></trkpt><trkpt lat="45.155236868479065" lon="8.86617550851366"><ele>91.0</ele><time>2026-04-11T13:36:10Z</time></trkpt><trkpt lat="45.15532683479008" lon="8.866182263533554"><ele>91.0</ele><time>2026-04-11T13:36:11Z</time></trkpt><trkpt lat="45.15540491192369" lon="8.866188125888721"><ele>91.0</ele><time>2026-04-11T13:36:12Z</time></trkpt><trkpt lat="45.15548599307109" lon="8.86619527933999"><ele>91.0</ele><time>2026-04-11T13:36:13Z</time></trkpt><trkpt lat="45.155576095894304" lon="8.866203373227568"><ele>91.0</ele><time>2026-04-11T13:36:14Z</time></trkpt><trkpt lat="45.15566937760745" lon="8.866211752682716"><ele>91.0</ele><time>2026-04-11T13:36:15Z</time></trkpt><trkpt lat="45.15576334516607" lon="8.866220193745638"><ele>91.0</ele><time>2026-04-11T13:36:16Z</time></trkpt><trkpt lat="45.15586052883138" lon="8.866228923719133"><ele>91.0</ele><time>2026-04-11T13:36:17Z</time></trkpt><trkpt lat="45.15595666475071" lon="8.866237446409658"><ele>91.0</ele><time>2026-04-11T13:36:18Z</time></trkpt><trkpt lat="45.15605408566036" lon="8.866245669987249"><ele>91.0</ele><time>2026-04-11T13:36:19Z</time></trkpt><trkpt lat="45.156152469158165" lon="8.86625397482532"><ele>91.0</ele><time>2026-04-11T13:36:20Z</time></trkpt><trkpt lat="45.15624859825047" lon="8.866261226335421"><ele>91.0</ele><time>2026-04-11T13:36:21Z</time></trkpt><trkpt lat="45.156342753919134" lon="8.866268067550491"><ele>91.0</ele><time>2026-04-11T13:36:22Z</time></trkpt><trkpt lat="45.15643735193149" lon="8.866274940929827"><ele>91.0</ele><time>2026-04-11T13:36:23Z</time></trkpt><trkpt lat="45.15653587916673" lon="8.866282099778468"><ele>91.0</ele><time>2026-04-11T13:36:24Z</time></trkpt><trkpt lat="45.15663310270031" lon="8.866289163916807"><ele>91.0</ele><time>2026-04-11T13:36:25Z</time></trkpt><trkpt lat="45.15673266229418" lon="8.866296397777843"><ele>91.6</ele><time>2026-04-11T13:36:26Z</time></trkpt><trkpt lat="45.15683547406844" lon="8.866303867951096"><ele>92.19999999999999</ele><time>2026-04-11T13:36:27Z</time></trkpt><trkpt lat="45.15694429811765" lon="8.86631177495151"><ele>92.80000000000001</ele><time>2026-04-11T13:36:28Z</time></trkpt><trkpt lat="45.15706100868241" lon="8.866296805503564"><ele>93.4</ele><time>2026-04-11T13:36:29Z</time></trkpt><trkpt lat="45.15716931762928" lon="8.866328124574789"><ele>94.0</ele><time>2026-04-11T13:36:30Z</time></trkpt><trkpt lat="45.157278096660605" lon="8.866336028313105"><ele>94.0</ele><time>2026-04-11T13:36:31Z</time></trkpt><trkpt lat="45.15738886578608" lon="8.866344076648494"><ele>94.0</ele><time>2026-04-11T13:36:32Z</time></trkpt><trkpt lat="45.157500466854565" lon="8.86635218543855"><ele>94.0</ele><time>2026-04-11T13:36:33Z</time></trkpt><trkpt lat="45.15761572295149" lon="8.866337579770596"><ele>94.0</ele><time>2026-04-11T13:36:34Z</time></trkpt><trkpt lat="45.15772150904383" lon="8.866368671234126"><ele>94.0</ele><time>2026-04-11T13:36:35Z</time></trkpt><trkpt lat="45.15783341462527" lon="8.866377337993795"><ele>94.0</ele><time>2026-04-11T13:36:36Z</time></trkpt><trkpt lat="45.15794429323809" lon="8.866385925212104"><ele>94.0</ele><time>2026-04-11T13:36:37Z</time></trkpt><trkpt lat="45.158054509637765" lon="8.866394461138503"><ele>94.0</ele><time>2026-04-11T13:36:38Z</time></trkpt><trkpt lat="45.15815742029297" lon="8.866402431281166"><ele>94.0</ele><time>2026-04-11T13:36:39Z</time></trkpt><trkpt lat="45.15825801172585" lon="8.866410221785806"><ele>94.0</ele><time>2026-04-11T13:36:40Z</time></trkpt><trkpt lat="45.15835572977194" lon="8.866418031992547"><ele>94.0</ele><time>2026-04-11T13:36:41Z</time></trkpt><trkpt lat="45.15846095098303" lon="8.866426714565469"><ele>94.0</ele><time>2026-04-11T13:36:42Z</time></trkpt><trkpt lat="45.158567292411185" lon="8.86641440249971"><ele>94.0</ele><time>2026-04-11T13:36:43Z</time></trkpt><trkpt lat="45.158677093595976" lon="8.866421997007315"><ele>94.0</ele><time>2026-04-11T13:36:44Z</time></trkpt><trkpt lat="45.158782237926665" lon="8.866434097240026"><ele>94.0</ele><time>2026-04-11T13:36:45Z</time></trkpt><trkpt lat="45.1588908129352" lon="8.866475455336476"><ele>94.0</ele><time>2026-04-11T13:36:46Z</time></trkpt><trkpt lat="45.15900653839631" lon="8.86646755156851"><ele>94.0</ele><time>2026-04-11T13:36:47Z</time></trkpt><trkpt lat="45.15912464138336" lon="8.866487596944207"><ele>94.0</ele><time>2026-04-11T13:36:48Z</time></trkpt><trkpt lat="45.15924477560102" lon="8.866505039346515"><ele>94.0</ele><time>2026-04-11T13:36:49Z</time></trkpt><trkpt lat="45.1593681616585" lon="8.866512064481938"><ele>93.6</ele><time>2026-04-11T13:36:50Z</time></trkpt><trkpt lat="45.15949625227883" lon="8.86653217818582"><ele>93.2</ele><time>2026-04-11T13:36:51Z</time></trkpt><trkpt lat="45.159618109604914" lon="8.866554201059698"><ele>92.8</ele><time>2026-04-11T13:36:52Z</time></trkpt><trkpt lat="45.1597193303747" lon="8.866545556549058"><ele>92.39999999999999</ele><time>2026-04-11T13:36:53Z</time></trkpt><trkpt lat="45.15980611658001" lon="8.866561218803602"><ele>92.0</ele><time>2026-04-11T13:36:54Z</time></trkpt><trkpt lat="45.15988210774927" lon="8.866561722371019"><ele>92.0</ele><time>2026-04-11T13:36:55Z</time></trkpt><trkpt lat="45.15994549906706" lon="8.866558588454774"><ele>92.0</ele><time>2026-04-11T13:36:56Z</time></trkpt><trkpt lat="45.16004697779818" lon="8.866561915921393"><ele>92.0</ele><time>2026-04-11T13:36:58Z</time></trkpt><trkpt lat="45.16011426628131" lon="8.866581262401663"><ele>92.0</ele><time>2026-04-11T13:37:00Z</time></trkpt><trkpt lat="45.160198845212165" lon="8.866584234127474"><ele>92.0</ele><time>2026-04-11T13:37:37.001Z</time></trkpt><trkpt lat="45.16026210704019" lon="8.866586445701543"><ele>92.0</ele><time>2026-04-11T13:37:38.001Z</time></trkpt><trkpt lat="45.160327529334104" lon="8.866588732804844"><ele>92.0</ele><time>2026-04-11T13:37:39.001Z</time></trkpt><trkpt lat="45.160396250082044" lon="8.866591135204494"><ele>92.0</ele><time>2026-04-11T13:37:40.001Z</time></trkpt><trkpt lat="45.160465784862396" lon="8.866594397114373"><ele>92.0</ele><time>2026-04-11T13:37:41.001Z</time></trkpt><trkpt lat="45.160538658669616" lon="8.866597846322799"><ele>92.0</ele><time>2026-04-11T13:37:42.001Z</time></trkpt><trkpt lat="45.1606169384042" lon="8.866601862980735"><ele>92.0</ele><time>2026-04-11T13:37:43.001Z</time></trkpt><trkpt lat="45.16070293200586" lon="8.866607280389696"><ele>92.0</ele><time>2026-04-11T13:37:44.001Z</time></trkpt><trkpt lat="45.16079032856531" lon="8.866612786177328"><ele>92.0</ele><time>2026-04-11T13:37:45.001Z</time></trkpt><trkpt lat="45.16088179265728" lon="8.866618614175126"><ele>91.39999999999999</ele><time>2026-04-11T13:37:46.001Z</time></trkpt><trkpt lat="45.16097399261395" lon="8.866625123310929"><ele>90.8</ele><time>2026-04-11T13:37:47.001Z</time></trkpt><trkpt lat="45.16106462620658" lon="8.866631521850474"><ele>90.2</ele><time>2026-04-11T13:37:48.001Z</time></trkpt><trkpt lat="45.16115054312027" lon="8.866637587436495"><ele>89.6</ele><time>2026-04-11T13:37:49.001Z</time></trkpt><trkpt lat="45.161244902320185" lon="8.866644290892415"><ele>89.0</ele><time>2026-04-11T13:37:50.001Z</time></trkpt><trkpt lat="45.161338780662334" lon="8.866651287668528"><ele>89.0</ele><time>2026-04-11T13:37:51.001Z</time></trkpt><trkpt lat="45.161431822166456" lon="8.866658222064586"><ele>89.0</ele><time>2026-04-11T13:37:52.001Z</time></trkpt><trkpt lat="45.16152483011212" lon="8.86666515395855"><ele>89.0</ele><time>2026-04-11T13:37:53.001Z</time></trkpt><trkpt lat="45.161621618660746" lon="8.86667236762191"><ele>89.0</ele><time>2026-04-11T13:37:54.001Z</time></trkpt><trkpt lat="45.1617190262103" lon="8.866679627401721"><ele>89.0</ele><time>2026-04-11T13:37:55.001Z</time></trkpt><trkpt lat="45.16181577691787" lon="8.866686838276616"><ele>89.66666666666667</ele><time>2026-04-11T13:37:56.001Z</time></trkpt><trkpt lat="45.161913022565045" lon="8.866694085989119"><ele>90.33333333333334</ele><time>2026-04-11T13:37:57.001Z</time></trkpt><trkpt lat="45.16200825546972" lon="8.866701183708345"><ele>91.0</ele><time>2026-04-11T13:37:58.001Z</time></trkpt><trkpt lat="45.16208757856649" lon="8.86670709567267"><ele>91.66666666666667</ele><time>2026-04-11T13:37:59.001Z</time></trkpt><trkpt lat="45.162165721329075" lon="8.866712919658955"><ele>92.33333333333333</ele><time>2026-04-11T13:37:59.999Z</time></trkpt><trkpt lat="45.16225216923066" lon="8.866719362629624"><ele>93.0</ele><time>2026-04-11T13:38:00.999Z</time></trkpt><trkpt lat="45.16233470007236" lon="8.866725609481245"><ele>93.0</ele><time>2026-04-11T13:38:01.999Z</time></trkpt><trkpt lat="45.16241130795325" lon="8.866731678844863"><ele>93.0</ele><time>2026-04-11T13:38:02.999Z</time></trkpt><trkpt lat="45.162479787638986" lon="8.866737106201564"><ele>93.0</ele><time>2026-04-11T13:38:03.999Z</time></trkpt><trkpt lat="45.16258182196961" lon="8.866745190003469"><ele>93.0</ele><time>2026-04-11T13:38:05.999Z</time></trkpt><trkpt lat="45.162655954568514" lon="8.866751063242964"><ele>93.0</ele><time>2026-04-11T13:38:08.999Z</time></trkpt><trkpt lat="45.16276260153871" lon="8.86675951247826"><ele>93.0</ele><time>2026-04-11T13:38:50Z</time></trkpt><trkpt lat="45.16283803240451" lon="8.86676548858258"><ele>93.0</ele><time>2026-04-11T13:38:51Z</time></trkpt><trkpt lat="45.16293524384679" lon="8.866773190277181"><ele>93.0</ele><time>2026-04-11T13:38:52Z</time></trkpt><trkpt lat="45.163046395833334" lon="8.866781996429072"><ele>93.0</ele><time>2026-04-11T13:38:53Z</time></trkpt><trkpt lat="45.16313874519013" lon="8.86678931291977"><ele>93.0</ele><time>2026-04-11T13:38:54Z</time></trkpt><trkpt lat="45.163227069708334" lon="8.866796310534367"><ele>93.0</ele><time>2026-04-11T13:38:55Z</time></trkpt><trkpt lat="45.16333192274476" lon="8.866804617648583"><ele>92.80000000000001</ele><time>2026-04-11T13:38:56Z</time></trkpt><trkpt lat="45.16344350960408" lon="8.866813458256713"><ele>92.6</ele><time>2026-04-11T13:38:57Z</time></trkpt><trkpt lat="45.16353582965595" lon="8.866820772423553"><ele>92.4</ele><time>2026-04-11T13:38:58Z</time></trkpt><trkpt lat="45.16362976603575" lon="8.866828214647969"><ele>92.19999999999999</ele><time>2026-04-11T13:38:59Z</time></trkpt><trkpt lat="45.16373644546682" lon="8.866836666452617"><ele>92.0</ele><time>2026-04-11T13:39:00Z</time></trkpt><trkpt lat="45.16385119122916" lon="8.86684575733003"><ele>92.0</ele><time>2026-04-11T13:39:01Z</time></trkpt><trkpt lat="45.16395597999299" lon="8.866854059349764"><ele>92.0</ele><time>2026-04-11T13:39:02Z</time></trkpt><trkpt lat="45.164051221054585" lon="8.866861604954751"><ele>92.0</ele><time>2026-04-11T13:39:03Z</time></trkpt><trkpt lat="45.16414931889069" lon="8.866869376852147"><ele>92.0</ele><time>2026-04-11T13:39:04Z</time></trkpt><trkpt lat="45.164254446506476" lon="8.86687770571991"><ele>92.0</ele><time>2026-04-11T13:39:05Z</time></trkpt><trkpt lat="45.164346346983436" lon="8.866884986647971"><ele>92.0</ele><time>2026-04-11T13:39:06Z</time></trkpt><trkpt lat="45.164433481164664" lon="8.8668918899633"><ele>92.0</ele><time>2026-04-11T13:39:07Z</time></trkpt><trkpt lat="45.164510048401986" lon="8.866897956097883"><ele>92.0</ele><time>2026-04-11T13:39:08Z</time></trkpt><trkpt lat="45.16458851113681" lon="8.866902870903045"><ele>92.0</ele><time>2026-04-11T13:39:09Z</time></trkpt><trkpt lat="45.16467237393671" lon="8.866907580038552"><ele>92.0</ele><time>2026-04-11T13:39:10Z</time></trkpt><trkpt lat="45.164765250350726" lon="8.866905029611877"><ele>92.0</ele><time>2026-04-11T13:39:11Z</time></trkpt><trkpt lat="45.16484206652958" lon="8.866907029768829"><ele>92.0</ele><time>2026-04-11T13:39:12Z</time></trkpt><trkpt lat="45.16492499969531" lon="8.866912441719998"><ele>92.0</ele><time>2026-04-11T13:39:13Z</time></trkpt><trkpt lat="45.16501015613122" lon="8.86691869942591"><ele>92.0</ele><time>2026-04-11T13:39:14Z</time></trkpt><trkpt lat="45.165096883462205" lon="8.866926159709138"><ele>92.0</ele><time>2026-04-11T13:39:15Z</time></trkpt><trkpt lat="45.16518206022647" lon="8.86693348659464"><ele>92.0</ele><time>2026-04-11T13:39:16Z</time></trkpt><trkpt lat="45.16526934903486" lon="8.866940995155508"><ele>92.0</ele><time>2026-04-11T13:39:17Z</time></trkpt><trkpt lat="45.16536532765434" lon="8.866949251224822"><ele>92.0</ele><time>2026-04-11T13:39:18Z</time></trkpt><trkpt lat="45.165469546522736" lon="8.866958216110975"><ele>92.0</ele><time>2026-04-11T13:39:19Z</time></trkpt><trkpt lat="45.16557331391291" lon="8.866967142175346"><ele>92.0</ele><time>2026-04-11T13:39:20Z</time></trkpt><trkpt lat="45.16568139685457" lon="8.86697675799092"><ele>92.0</ele><time>2026-04-11T13:39:21Z</time></trkpt><trkpt lat="45.16578226690189" lon="8.866986069263953"><ele>92.0</ele><time>2026-04-11T13:39:22Z</time></trkpt><trkpt lat="45.16588339672395" lon="8.866995404486318"><ele>92.0</ele><time>2026-04-11T13:39:23Z</time></trkpt><trkpt lat="45.16598728221988" lon="8.867004994058021"><ele>92.0</ele><time>2026-04-11T13:39:24Z</time></trkpt><trkpt lat="45.16609334929608" lon="8.867014785083825"><ele>92.0</ele><time>2026-04-11T13:39:25Z</time></trkpt><trkpt lat="45.16620191681682" lon="8.867002848995199"><ele>92.0</ele><time>2026-04-11T13:39:26Z</time></trkpt><trkpt lat="45.16630606991406" lon="8.867014207885695"><ele>92.0</ele><time>2026-04-11T13:39:27Z</time></trkpt><trkpt lat="45.16641244579072" lon="8.867023470602227"><ele>92.0</ele><time>2026-04-11T13:39:28Z</time></trkpt><trkpt lat="45.166523627142695" lon="8.867036220024671"><ele>92.0</ele><time>2026-04-11T13:39:29Z</time></trkpt><trkpt lat="45.16662473348032" lon="8.867045822036507"><ele>92.0</ele><time>2026-04-11T13:39:30Z</time></trkpt><trkpt lat="45.16672339087651" lon="8.86704408864755"><ele>92.0</ele><time>2026-04-11T13:39:31Z</time></trkpt><trkpt lat="45.16682532887668" lon="8.86705576791115"><ele>92.0</ele><time>2026-04-11T13:39:32Z</time></trkpt><trkpt lat="45.16692846802277" lon="8.867064944517107"><ele>92.0</ele><time>2026-04-11T13:39:33Z</time></trkpt><trkpt lat="45.16703392772217" lon="8.867069525147924"><ele>92.0</ele><time>2026-04-11T13:39:34Z</time></trkpt><trkpt lat="45.167134685129795" lon="8.867071817757767"><ele>92.0</ele><time>2026-04-11T13:39:35Z</time></trkpt><trkpt lat="45.167230156195885" lon="8.8670762954091"><ele>92.0</ele><time>2026-04-11T13:39:36Z</time></trkpt><trkpt lat="45.16732840690625" lon="8.86709112586727"><ele>92.0</ele><time>2026-04-11T13:39:37Z</time></trkpt><trkpt lat="45.16743120194343" lon="8.867090442157759"><ele>92.19999999999999</ele><time>2026-04-11T13:39:38Z</time></trkpt><trkpt lat="45.16753643769698" lon="8.867094033469057"><ele>92.4</ele><time>2026-04-11T13:39:39Z</time></trkpt><trkpt lat="45.167640022329756" lon="8.867098814233225"><ele>92.6</ele><time>2026-04-11T13:39:40Z</time></trkpt><trkpt lat="45.16774352492656" lon="8.867107574135122"><ele>92.80000000000001</ele><time>2026-04-11T13:39:41Z</time></trkpt><trkpt lat="45.16785861260677" lon="8.867118333510064"><ele>93.0</ele><time>2026-04-11T13:39:42Z</time></trkpt><trkpt lat="45.16796909987869" lon="8.867131811633568"><ele>93.0</ele><time>2026-04-11T13:39:43Z</time></trkpt><trkpt lat="45.16808348227063" lon="8.867140249119657"><ele>93.0</ele><time>2026-04-11T13:39:44Z</time></trkpt><trkpt lat="45.16819750132378" lon="8.867150044208817"><ele>93.0</ele><time>2026-04-11T13:39:45Z</time></trkpt><trkpt lat="45.16830975126227" lon="8.867154341164124"><ele>93.0</ele><time>2026-04-11T13:39:46Z</time></trkpt><trkpt lat="45.16841992477672" lon="8.867167149201718"><ele>93.16666666666667</ele><time>2026-04-11T13:39:47Z</time></trkpt><trkpt lat="45.168511350659784" lon="8.867178417894731"><ele>93.33333333333333</ele><time>2026-04-11T13:39:48Z</time></trkpt><trkpt lat="45.16859062406182" lon="8.867176641049554"><ele>93.5</ele><time>2026-04-11T13:39:49.001Z</time></trkpt><trkpt lat="45.16866911338547" lon="8.867190172866474"><ele>93.66666666666666</ele><time>2026-04-11T13:39:50.001Z</time></trkpt><trkpt lat="45.16875489457737" lon="8.867194359151357"><ele>93.83333333333333</ele><time>2026-04-11T13:39:51.001Z</time></trkpt><trkpt lat="45.168844359676584" lon="8.867192043314464"><ele>94.0</ele><time>2026-04-11T13:39:52.001Z</time></trkpt><trkpt lat="45.168936551632406" lon="8.867199171726922"><ele>93.83333333333333</ele><time>2026-04-11T13:39:53.001Z</time></trkpt><trkpt lat="45.16902794966263" lon="8.867252199982337"><ele>93.66666666666666</ele><time>2026-04-11T13:39:54.001Z</time></trkpt><trkpt lat="45.16912862280764" lon="8.867222320608002"><ele>93.5</ele><time>2026-04-11T13:39:55.001Z</time></trkpt><trkpt lat="45.16921337053787" lon="8.867230472671455"><ele>93.33333333333333</ele><time>2026-04-11T13:39:56.001Z</time></trkpt><trkpt lat="45.16929078043794" lon="8.867232268846413"><ele>93.16666666666667</ele><time>2026-04-11T13:39:57.001Z</time></trkpt><trkpt lat="45.16936955244114" lon="8.867234092441146"><ele>93.0</ele><time>2026-04-11T13:39:58.001Z</time></trkpt><trkpt lat="45.16945401202162" lon="8.867242053771454"><ele>93.0</ele><time>2026-04-11T13:39:59.001Z</time></trkpt><trkpt lat="45.16955036281661" lon="8.867248222368483"><ele>93.0</ele><time>2026-04-11T13:40:00.001Z</time></trkpt><trkpt lat="45.16964564887089" lon="8.867255801145015"><ele>93.0</ele><time>2026-04-11T13:40:01.001Z</time></trkpt><trkpt lat="45.16973731071585" lon="8.867261951748272"><ele>93.0</ele><time>2026-04-11T13:40:02.001Z</time></trkpt><trkpt lat="45.169827831166586" lon="8.867268009046168"><ele>93.0</ele><time>2026-04-11T13:40:03.001Z</time></trkpt><trkpt lat="45.169925230748824" lon="8.86726876258876"><ele>92.60000000000001</ele><time>2026-04-11T13:40:04.001Z</time></trkpt><trkpt lat="45.17001853577623" lon="8.867278172982362"><ele>92.2</ele><time>2026-04-11T13:40:05.001Z</time></trkpt><trkpt lat="45.17011714875992" lon="8.867285768490085"><ele>91.8</ele><time>2026-04-11T13:40:05.999Z</time></trkpt><trkpt lat="45.17021117912275" lon="8.867295321527179"><ele>91.4</ele><time>2026-04-11T13:40:06.999Z</time></trkpt><trkpt lat="45.1703181754344" lon="8.86730319427473"><ele>91.0</ele><time>2026-04-11T13:40:07.999Z</time></trkpt><trkpt lat="45.17041952516585" lon="8.867308769363248"><ele>91.0</ele><time>2026-04-11T13:40:08.999Z</time></trkpt><trkpt lat="45.17052637997635" lon="8.867318192279278"><ele>91.0</ele><time>2026-04-11T13:40:09.999Z</time></trkpt><trkpt lat="45.17063050330587" lon="8.86732105992115"><ele>91.0</ele><time>2026-04-11T13:40:10.999Z</time></trkpt><trkpt lat="45.17073638597844" lon="8.867321973042916"><ele>91.0</ele><time>2026-04-11T13:40:11.999Z</time></trkpt><trkpt lat="45.1708365237576" lon="8.867329017930517"><ele>91.0</ele><time>2026-04-11T13:40:12.999Z</time></trkpt><trkpt lat="45.170945110192335" lon="8.867338450054891"><ele>91.19999999999999</ele><time>2026-04-11T13:40:13.999Z</time></trkpt><trkpt lat="45.171051212262896" lon="8.867346979707442"><ele>91.39999999999999</ele><time>2026-04-11T13:40:14.999Z</time></trkpt><trkpt lat="45.171158240304074" lon="8.86735499949848"><ele>91.6</ele><time>2026-04-11T13:40:15.999Z</time></trkpt><trkpt lat="45.171258447647354" lon="8.867363109202058"><ele>91.8</ele><time>2026-04-11T13:40:16.999Z</time></trkpt><trkpt lat="45.1713559062177" lon="8.867372426902648"><ele>92.0</ele><time>2026-04-11T13:40:17.999Z</time></trkpt><trkpt lat="45.171465430615875" lon="8.867375649098083"><ele>92.0</ele><time>2026-04-11T13:40:18.999Z</time></trkpt><trkpt lat="45.171583620902" lon="8.867384513416026"><ele>92.0</ele><time>2026-04-11T13:40:19.999Z</time></trkpt><trkpt lat="45.17171128924897" lon="8.86739478469975"><ele>92.0</ele><time>2026-04-11T13:40:20.999Z</time></trkpt><trkpt lat="45.171831451803094" lon="8.867405114206127"><ele>92.0</ele><time>2026-04-11T13:40:21.999Z</time></trkpt><trkpt lat="45.17194749103186" lon="8.867407351807948"><ele>92.0</ele><time>2026-04-11T13:40:22.999Z</time></trkpt><trkpt lat="45.17206599520284" lon="8.867414775642953"><ele>92.0</ele><time>2026-04-11T13:40:23.999Z</time></trkpt><trkpt lat="45.172192947655695" lon="8.867415952821396"><ele>92.0</ele><time>2026-04-11T13:40:24.999Z</time></trkpt><trkpt lat="45.17231081976476" lon="8.86742618007315"><ele>92.0</ele><time>2026-04-11T13:40:25.999Z</time></trkpt><trkpt lat="45.172432706263514" lon="8.867434772124069"><ele>92.0</ele><time>2026-04-11T13:40:26.999Z</time></trkpt><trkpt lat="45.172562980434094" lon="8.867445350745697"><ele>92.0</ele><time>2026-04-11T13:40:28Z</time></trkpt><trkpt lat="45.17270294925707" lon="8.867453551352213"><ele>92.0</ele><time>2026-04-11T13:40:29Z</time></trkpt><trkpt lat="45.17283909750059" lon="8.867470393741293"><ele>92.0</ele><time>2026-04-11T13:40:30Z</time></trkpt><trkpt lat="45.17295650306902" lon="8.867480899369099"><ele>92.0</ele><time>2026-04-11T13:40:31Z</time></trkpt><trkpt lat="45.17305443417778" lon="8.86747668631456"><ele>92.0</ele><time>2026-04-11T13:40:32Z</time></trkpt><trkpt lat="45.17315424463446" lon="8.86748277400973"><ele>92.0</ele><time>2026-04-11T13:40:33Z</time></trkpt><trkpt lat="45.17325551565891" lon="8.867506508658753"><ele>92.0</ele><time>2026-04-11T13:40:34Z</time></trkpt><trkpt lat="45.17334449520494" lon="8.867531329086354"><ele>92.0</ele><time>2026-04-11T13:40:35Z</time></trkpt><trkpt lat="45.1734329109651" lon="8.867542770925224"><ele>92.16666666666667</ele><time>2026-04-11T13:40:36Z</time></trkpt><trkpt lat="45.17351145448657" lon="8.867549626727122"><ele>92.33333333333334</ele><time>2026-04-11T13:40:37Z</time></trkpt><trkpt lat="45.17359189899672" lon="8.867558539564573"><ele>92.5</ele><time>2026-04-11T13:40:38Z</time></trkpt><trkpt lat="45.173675412631" lon="8.86755689276252"><ele>92.66666666666667</ele><time>2026-04-11T13:40:39Z</time></trkpt><trkpt lat="45.173749706637196" lon="8.867545006943335"><ele>92.83333333333333</ele><time>2026-04-11T13:40:40Z</time></trkpt><trkpt lat="45.173819648772394" lon="8.867541891661208"><ele>93.0</ele><time>2026-04-11T13:40:41Z</time></trkpt><trkpt lat="45.17390293857769" lon="8.867541954144961"><ele>93.0</ele><time>2026-04-11T13:40:42Z</time></trkpt><trkpt lat="45.17399178845694" lon="8.867537347641743"><ele>93.0</ele><time>2026-04-11T13:40:43Z</time></trkpt><trkpt lat="45.174079361700365" lon="8.867515638525886"><ele>93.0</ele><time>2026-04-11T13:40:44Z</time></trkpt><trkpt lat="45.17415431848014" lon="8.867476276621924"><ele>93.0</ele><time>2026-04-11T13:40:45Z</time></trkpt><trkpt lat="45.17421922078017" lon="8.867444637666159"><ele>93.0</ele><time>2026-04-11T13:40:46Z</time></trkpt><trkpt lat="45.174298830382554" lon="8.867415203225033"><ele>93.0</ele><time>2026-04-11T13:40:47Z</time></trkpt><trkpt lat="45.17438670926645" lon="8.867388996603117"><ele>92.60000000000001</ele><time>2026-04-11T13:40:48Z</time></trkpt><trkpt lat="45.17447933347116" lon="8.867360441680983"><ele>92.2</ele><time>2026-04-11T13:40:49Z</time></trkpt><trkpt lat="45.174575175837134" lon="8.867340771007797"><ele>91.8</ele><time>2026-04-11T13:40:50Z</time></trkpt><trkpt lat="45.17467024379687" lon="8.867328055684451"><ele>91.4</ele><time>2026-04-11T13:40:51Z</time></trkpt><trkpt lat="45.17475249520412" lon="8.867316446598576"><ele>91.0</ele><time>2026-04-11T13:40:52Z</time></trkpt><trkpt lat="45.17484267943764" lon="8.867303707615694"><ele>91.0</ele><time>2026-04-11T13:40:53Z</time></trkpt><trkpt lat="45.17493576785409" lon="8.867299784010777"><ele>91.0</ele><time>2026-04-11T13:40:54Z</time></trkpt><trkpt lat="45.17502662756717" lon="8.86730155657193"><ele>91.0</ele><time>2026-04-11T13:40:55Z</time></trkpt><trkpt lat="45.175111882464144" lon="8.867293036906059"><ele>91.0</ele><time>2026-04-11T13:40:56Z</time></trkpt><trkpt lat="45.175201398365594" lon="8.867287845960986"><ele>91.0</ele><time>2026-04-11T13:40:57Z</time></trkpt><trkpt lat="45.17529728670384" lon="8.867288489176522"><ele>91.0</ele><time>2026-04-11T13:40:58Z</time></trkpt><trkpt lat="45.175384687874" lon="8.867303381266485"><ele>91.0</ele><time>2026-04-11T13:40:59Z</time></trkpt><trkpt lat="45.17546858378571" lon="8.867316537055366"><ele>91.0</ele><time>2026-04-11T13:41:00Z</time></trkpt><trkpt lat="45.17554506427748" lon="8.867332886373426"><ele>91.0</ele><time>2026-04-11T13:41:01Z</time></trkpt><trkpt lat="45.17562083313038" lon="8.86734551799948"><ele>91.0</ele><time>2026-04-11T13:41:02Z</time></trkpt><trkpt lat="45.17570331066591" lon="8.867352701023544"><ele>91.0</ele><time>2026-04-11T13:41:03Z</time></trkpt><trkpt lat="45.17577054533972" lon="8.867366036970557"><ele>91.25</ele><time>2026-04-11T13:41:04Z</time></trkpt><trkpt lat="45.175887489521614" lon="8.867397738345693"><ele>91.5</ele><time>2026-04-11T13:41:06Z</time></trkpt><trkpt lat="45.17600019624831" lon="8.867410841501021"><ele>91.75</ele><time>2026-04-11T13:41:08Z</time></trkpt><trkpt lat="45.1761170081691" lon="8.867427366766803"><ele>92.0</ele><time>2026-04-11T13:41:10Z</time></trkpt><trkpt lat="45.176239336338725" lon="8.86742837912306"><ele>92.0</ele><time>2026-04-11T13:41:12Z</time></trkpt><trkpt lat="45.176375707126326" lon="8.867450621647983"><ele>92.0</ele><time>2026-04-11T13:41:14Z</time></trkpt><trkpt lat="45.176444714892305" lon="8.867463687365765"><ele>92.0</ele><time>2026-04-11T13:41:15Z</time></trkpt><trkpt lat="45.176549291502475" lon="8.86748002614859"><ele>92.0</ele><time>2026-04-11T13:41:17Z</time></trkpt><trkpt lat="45.17663945301746" lon="8.867491483162905"><ele>92.0</ele><time>2026-04-11T13:41:19Z</time></trkpt><trkpt lat="45.176734703352665" lon="8.867492172743976"><ele>92.19999999999999</ele><time>2026-04-11T13:41:21.001Z</time></trkpt><trkpt lat="45.17684096518048" lon="8.867519935822179"><ele>92.4</ele><time>2026-04-11T13:41:23.001Z</time></trkpt><trkpt lat="45.17693347907387" lon="8.867543786082507"><ele>92.6</ele><time>2026-04-11T13:41:25.001Z</time></trkpt><trkpt lat="45.177026801310156" lon="8.867555387054244"><ele>92.80000000000001</ele><time>2026-04-11T13:41:27.001Z</time></trkpt><trkpt lat="45.17713770000437" lon="8.867588373492758"><ele>93.0</ele><time>2026-04-11T13:41:29.001Z</time></trkpt><trkpt lat="45.177256522764615" lon="8.867617035795538"><ele>92.71428571428572</ele><time>2026-04-11T13:41:31.001Z</time></trkpt><trkpt lat="45.17731883288522" lon="8.867640114222196"><ele>92.42857142857143</ele><time>2026-04-11T13:41:32.001Z</time></trkpt><trkpt lat="45.17738507006209" lon="8.867663841597567"><ele>92.14285714285714</ele><time>2026-04-11T13:41:33.001Z</time></trkpt><trkpt lat="45.17745426470784" lon="8.867678757447617"><ele>91.85714285714286</ele><time>2026-04-11T13:41:34.001Z</time></trkpt><trkpt lat="45.17752217907363" lon="8.867702725200841"><ele>91.57142857142857</ele><time>2026-04-11T13:41:35.001Z</time></trkpt><trkpt lat="45.177589761209674" lon="8.867723014675807"><ele>91.28571428571429</ele><time>2026-04-11T13:41:36.001Z</time></trkpt><trkpt lat="45.177658070525084" lon="8.86774270756614"><ele>91.0</ele><time>2026-04-11T13:41:37.001Z</time></trkpt><trkpt lat="45.17772476710968" lon="8.867765531804645"><ele>91.0</ele><time>2026-04-11T13:41:38.001Z</time></trkpt><trkpt lat="45.1777994616416" lon="8.867787482057816"><ele>91.0</ele><time>2026-04-11T13:41:39.001Z</time></trkpt><trkpt lat="45.17787321507119" lon="8.86781855546065"><ele>91.0</ele><time>2026-04-11T13:41:40.001Z</time></trkpt><trkpt lat="45.17794885421369" lon="8.867847085237031"><ele>91.0</ele><time>2026-04-11T13:41:41.001Z</time></trkpt><trkpt lat="45.17802789984685" lon="8.86787633498761"><ele>91.0</ele><time>2026-04-11T13:41:42.001Z</time></trkpt><trkpt lat="45.17811028453828" lon="8.867906309931858"><ele>91.0</ele><time>2026-04-11T13:41:43.001Z</time></trkpt><trkpt lat="45.178178709642786" lon="8.867933443260133"><ele>91.16666666666666</ele><time>2026-04-11T13:41:44.001Z</time></trkpt><trkpt lat="45.17824556332242" lon="8.867959654461638"><ele>91.33333333333333</ele><time>2026-04-11T13:41:45.001Z</time></trkpt><trkpt lat="45.17831650027811" lon="8.867980637712185"><ele>91.5</ele><time>2026-04-11T13:41:46.001Z</time></trkpt><trkpt lat="45.17839272904617" lon="8.868006613772339"><ele>91.66666666666667</ele><time>2026-04-11T13:41:47.001Z</time></trkpt><trkpt lat="45.17847610133603" lon="8.868028918771913"><ele>91.83333333333334</ele><time>2026-04-11T13:41:48.001Z</time></trkpt><trkpt lat="45.17856544080932" lon="8.868062048988751"><ele>92.0</ele><time>2026-04-11T13:41:49.001Z</time></trkpt><trkpt lat="45.178650222305976" lon="8.86809288080562"><ele>92.0</ele><time>2026-04-11T13:41:50.001Z</time></trkpt><trkpt lat="45.17871359730943" lon="8.868105588291863"><ele>92.0</ele><time>2026-04-11T13:41:51.001Z</time></trkpt><trkpt lat="45.178814290414856" lon="8.868149316063562"><ele>92.0</ele><time>2026-04-11T13:41:53.001Z</time></trkpt><trkpt lat="45.17892576497197" lon="8.868186446042179"><ele>92.0</ele><time>2026-04-11T13:41:55.001Z</time></trkpt><trkpt lat="45.17898787143963" lon="8.86821126804631"><ele>92.0</ele><time>2026-04-11T13:41:56.001Z</time></trkpt><trkpt lat="45.179054499376214" lon="8.868233344048058"><ele>92.0</ele><time>2026-04-11T13:41:57.001Z</time></trkpt><trkpt lat="45.179127133846826" lon="8.86825304242422"><ele>92.66666666666667</ele><time>2026-04-11T13:41:58.001Z</time></trkpt><trkpt lat="45.17919675964661" lon="8.868280083454785"><ele>93.33333333333334</ele><time>2026-04-11T13:41:59.001Z</time></trkpt><trkpt lat="45.17926308327589" lon="8.868308314868365"><ele>94.0</ele><time>2026-04-11T13:42:00.001Z</time></trkpt><trkpt lat="45.17938628399499" lon="8.868354045670229"><ele>94.66666666666667</ele><time>2026-04-11T13:42:02.001Z</time></trkpt><trkpt lat="45.17944962247396" lon="8.868378682676354"><ele>95.33333333333333</ele><time>2026-04-11T13:42:03.001Z</time></trkpt><trkpt lat="45.179510512493636" lon="8.868405615295242"><ele>96.0</ele><time>2026-04-11T13:42:04.001Z</time></trkpt><trkpt lat="45.179575519842395" lon="8.86843301711914"><ele>95.33333333333333</ele><time>2026-04-11T13:42:05.001Z</time></trkpt><trkpt lat="45.17964397173796" lon="8.868455764165295"><ele>94.66666666666667</ele><time>2026-04-11T13:42:06.001Z</time></trkpt><trkpt lat="45.17971278770068" lon="8.86847211780564"><ele>94.0</ele><time>2026-04-11T13:42:07.001Z</time></trkpt><trkpt lat="45.179787967457855" lon="8.86849898876165"><ele>93.33333333333334</ele><time>2026-04-11T13:42:08.001Z</time></trkpt><trkpt lat="45.17986594893933" lon="8.868526490878516"><ele>92.66666666666667</ele><time>2026-04-11T13:42:09.001Z</time></trkpt><trkpt lat="45.179948994648" lon="8.86854793477057"><ele>92.0</ele><time>2026-04-11T13:42:10.001Z</time></trkpt><trkpt lat="45.18003258827942" lon="8.868572565751398"><ele>91.85714285714286</ele><time>2026-04-11T13:42:11.001Z</time></trkpt><trkpt lat="45.180095391765306" lon="8.868580034818587"><ele>91.71428571428571</ele><time>2026-04-11T13:42:12Z</time></trkpt><trkpt lat="45.18016307384984" lon="8.868611460208012"><ele>91.57142857142857</ele><time>2026-04-11T13:42:13Z</time></trkpt><trkpt lat="45.18024149348812" lon="8.868630239089171"><ele>91.42857142857143</ele><time>2026-04-11T13:42:14Z</time></trkpt><trkpt lat="45.1803225322955" lon="8.868647621727277"><ele>91.28571428571428</ele><time>2026-04-11T13:42:15Z</time></trkpt><trkpt lat="45.18040146771094" lon="8.868657875420286"><ele>91.14285714285714</ele><time>2026-04-11T13:42:16Z</time></trkpt><trkpt lat="45.18047095314585" lon="8.868685824592047"><ele>91.0</ele><time>2026-04-11T13:42:17Z</time></trkpt><trkpt lat="45.18055035693965" lon="8.868703867674421"><ele>91.0</ele><time>2026-04-11T13:42:18Z</time></trkpt><trkpt lat="45.18063365575109" lon="8.868718727884728"><ele>91.0</ele><time>2026-04-11T13:42:19Z</time></trkpt><trkpt lat="45.18071218115545" lon="8.868736158920669"><ele>91.0</ele><time>2026-04-11T13:42:20Z</time></trkpt><trkpt lat="45.18079467165299" lon="8.868751295754544"><ele>91.0</ele><time>2026-04-11T13:42:21Z</time></trkpt><trkpt lat="45.180880469693754" lon="8.868764145682178"><ele>91.0</ele><time>2026-04-11T13:42:22Z</time></trkpt><trkpt lat="45.18095643044705" lon="8.868772276548452"><ele>91.0</ele><time>2026-04-11T13:42:23Z</time></trkpt><trkpt lat="45.18103992483361" lon="8.868787119287353"><ele>91.33333333333333</ele><time>2026-04-11T13:42:24Z</time></trkpt><trkpt lat="45.1811191989556" lon="8.868803613164808"><ele>91.66666666666666</ele><time>2026-04-11T13:42:25Z</time></trkpt><trkpt lat="45.181203041426585" lon="8.868813383101784"><ele>92.0</ele><time>2026-04-11T13:42:26Z</time></trkpt><trkpt lat="45.18128585073465" lon="8.868824493100973"><ele>92.33333333333333</ele><time>2026-04-11T13:42:27Z</time></trkpt><trkpt lat="45.18136410110123" lon="8.86883609858745"><ele>92.66666666666667</ele><time>2026-04-11T13:42:28Z</time></trkpt><trkpt lat="45.181429019811105" lon="8.868854837226845"><ele>93.0</ele><time>2026-04-11T13:42:29Z</time></trkpt><trkpt lat="45.18155172151747" lon="8.868885581781614"><ele>93.2</ele><time>2026-04-11T13:42:31Z</time></trkpt><trkpt lat="45.181673064413225" lon="8.868915721391149"><ele>93.4</ele><time>2026-04-11T13:42:33Z</time></trkpt><trkpt lat="45.18179491248676" lon="8.868976213037293"><ele>93.60000000000001</ele><time>2026-04-11T13:42:35Z</time></trkpt><trkpt lat="45.18186537330705" lon="8.868996632219666"><ele>93.80000000000001</ele><time>2026-04-11T13:42:36Z</time></trkpt><trkpt lat="45.18194068703628" lon="8.869006352301838"><ele>94.0</ele><time>2026-04-11T13:42:37Z</time></trkpt><trkpt lat="45.182017869847556" lon="8.869018070467765"><ele>94.0</ele><time>2026-04-11T13:42:38Z</time></trkpt><trkpt lat="45.18212453269815" lon="8.869019656227657"><ele>94.0</ele><time>2026-04-11T13:42:40Z</time></trkpt><trkpt lat="45.18222161714843" lon="8.86902982368682"><ele>94.0</ele><time>2026-04-11T13:42:42Z</time></trkpt><trkpt lat="45.182337586158305" lon="8.86905254731046"><ele>94.0</ele><time>2026-04-11T13:42:44Z</time></trkpt><trkpt lat="45.18245500911257" lon="8.869066696800443"><ele>94.0</ele><time>2026-04-11T13:42:46Z</time></trkpt><trkpt lat="45.182593957111074" lon="8.869100570681962"><ele>94.14285714285714</ele><time>2026-04-11T13:42:48Z</time></trkpt><trkpt lat="45.182666580959776" lon="8.86910434707884"><ele>94.28571428571428</ele><time>2026-04-11T13:42:49.001Z</time></trkpt><trkpt lat="45.18273263288262" lon="8.869114340418658"><ele>94.42857142857143</ele><time>2026-04-11T13:42:50.001Z</time></trkpt><trkpt lat="45.18280907404413" lon="8.86911447004079"><ele>94.57142857142857</ele><time>2026-04-11T13:42:51.001Z</time></trkpt><trkpt lat="45.18287310578756" lon="8.86912194414303"><ele>94.71428571428572</ele><time>2026-04-11T13:42:52.001Z</time></trkpt><trkpt lat="45.18294381871356" lon="8.869126885609068"><ele>94.85714285714286</ele><time>2026-04-11T13:42:53.001Z</time></trkpt><trkpt lat="45.18300873784397" lon="8.869130639576007"><ele>95.0</ele><time>2026-04-11T13:42:54.001Z</time></trkpt><trkpt lat="45.18307168995215" lon="8.869139531701046"><ele>95.0</ele><time>2026-04-11T13:42:55.001Z</time></trkpt><trkpt lat="45.18320204470592" lon="8.869144089550826"><ele>95.0</ele><time>2026-04-11T13:42:57.001Z</time></trkpt><trkpt lat="45.18326774420372" lon="8.869150168876525"><ele>95.0</ele><time>2026-04-11T13:42:58.001Z</time></trkpt><trkpt lat="45.18337839958625" lon="8.869159272229261"><ele>95.0</ele><time>2026-04-11T13:43:00.001Z</time></trkpt><trkpt lat="45.183499602585535" lon="8.869149379518646"><ele>95.0</ele><time>2026-04-11T13:43:02.001Z</time></trkpt><trkpt lat="45.18356478446069" lon="8.86914827815466"><ele>95.0</ele><time>2026-04-11T13:43:03.001Z</time></trkpt><trkpt lat="45.18363134001883" lon="8.869150543260432"><ele>95.0</ele><time>2026-04-11T13:43:04.001Z</time></trkpt><trkpt lat="45.1837009055437" lon="8.869154141815836"><ele>95.0</ele><time>2026-04-11T13:43:05.001Z</time></trkpt><trkpt lat="45.18376917217695" lon="8.869155589057742"><ele>95.0</ele><time>2026-04-11T13:43:06.001Z</time></trkpt><trkpt lat="45.1838357003385" lon="8.869161630264426"><ele>95.0</ele><time>2026-04-11T13:43:07.001Z</time></trkpt><trkpt lat="45.18395560619152" lon="8.869182763225012"><ele>95.0</ele><time>2026-04-11T13:43:09.001Z</time></trkpt><trkpt lat="45.18407388464538" lon="8.869213900948479"><ele>94.83333333333334</ele><time>2026-04-11T13:43:11.001Z</time></trkpt><trkpt lat="45.1842019688132" lon="8.86919833056771"><ele>94.66666666666667</ele><time>2026-04-11T13:43:13.001Z</time></trkpt><trkpt lat="45.18427936570945" lon="8.869194880457107"><ele>94.5</ele><time>2026-04-11T13:43:14.001Z</time></trkpt><trkpt lat="45.184347703902176" lon="8.869192775553945"><ele>94.33333333333333</ele><time>2026-04-11T13:43:15.001Z</time></trkpt><trkpt lat="45.18442210872659" lon="8.869195697206447"><ele>94.16666666666666</ele><time>2026-04-11T13:43:16.001Z</time></trkpt><trkpt lat="45.18449257082403" lon="8.869197353548254"><ele>94.0</ele><time>2026-04-11T13:43:17.001Z</time></trkpt><trkpt lat="45.184567316461205" lon="8.869197285492751"><ele>94.0</ele><time>2026-04-11T13:43:18.001Z</time></trkpt><trkpt lat="45.18465110351018" lon="8.8692027245744"><ele>94.0</ele><time>2026-04-11T13:43:19.001Z</time></trkpt><trkpt lat="45.184738455883604" lon="8.869203675037285"><ele>94.0</ele><time>2026-04-11T13:43:20.001Z</time></trkpt><trkpt lat="45.18481901649693" lon="8.869207416213682"><ele>94.0</ele><time>2026-04-11T13:43:21.001Z</time></trkpt><trkpt lat="45.18490033052181" lon="8.869207465471737"><ele>94.0</ele><time>2026-04-11T13:43:22.001Z</time></trkpt><trkpt lat="45.18498665726361" lon="8.869210277163688"><ele>94.0</ele><time>2026-04-11T13:43:23.001Z</time></trkpt><trkpt lat="45.1850722923227" lon="8.86921399855917"><ele>94.0</ele><time>2026-04-11T13:43:24.001Z</time></trkpt><trkpt lat="45.18515255601698" lon="8.869216847378787"><ele>94.0</ele><time>2026-04-11T13:43:25.001Z</time></trkpt><trkpt lat="45.18523511028645" lon="8.869217743683143"><ele>94.0</ele><time>2026-04-11T13:43:26.001Z</time></trkpt><trkpt lat="45.18531643117849" lon="8.869218548739967"><ele>94.0</ele><time>2026-04-11T13:43:27.001Z</time></trkpt><trkpt lat="45.185398189058915" lon="8.869224559004646"><ele>94.0</ele><time>2026-04-11T13:43:28.001Z</time></trkpt><trkpt lat="45.18547555919793" lon="8.869231475986616"><ele>94.0</ele><time>2026-04-11T13:43:29.001Z</time></trkpt><trkpt lat="45.18555141636419" lon="8.86923682380538"><ele>94.0</ele><time>2026-04-11T13:43:30.001Z</time></trkpt><trkpt lat="45.18562899563938" lon="8.869244081644096"><ele>94.0</ele><time>2026-04-11T13:43:31.001Z</time></trkpt><trkpt lat="45.18571630269118" lon="8.869251623346202"><ele>94.0</ele><time>2026-04-11T13:43:32.001Z</time></trkpt><trkpt lat="45.18579912107909" lon="8.869260903451998"><ele>94.0</ele><time>2026-04-11T13:43:33.001Z</time></trkpt><trkpt lat="45.18587129029762" lon="8.869270211565226"><ele>94.0</ele><time>2026-04-11T13:43:34.001Z</time></trkpt><trkpt lat="45.18595184823772" lon="8.869284688956506"><ele>94.0</ele><time>2026-04-11T13:43:35.001Z</time></trkpt><trkpt lat="45.186016758110576" lon="8.869299249688202"><ele>94.0</ele><time>2026-04-11T13:43:36.001Z</time></trkpt><trkpt lat="45.186084086969174" lon="8.869315857436566"><ele>94.0</ele><time>2026-04-11T13:43:37.001Z</time></trkpt><trkpt lat="45.18615587946661" lon="8.869330997361777"><ele>94.0</ele><time>2026-04-11T13:43:38.001Z</time></trkpt><trkpt lat="45.18622541092436" lon="8.869346666712309"><ele>94.0</ele><time>2026-04-11T13:43:39.001Z</time></trkpt><trkpt lat="45.186291895902244" lon="8.869363837898437"><ele>94.0</ele><time>2026-04-11T13:43:40.001Z</time></trkpt><trkpt lat="45.186413033955745" lon="8.869387869564118"><ele>94.0</ele><time>2026-04-11T13:43:42.001Z</time></trkpt><trkpt lat="45.186543935746094" lon="8.869406838864421"><ele>94.0</ele><time>2026-04-11T13:43:44.001Z</time></trkpt><trkpt lat="45.1866125564736" lon="8.86942416740455"><ele>94.0</ele><time>2026-04-11T13:43:45.001Z</time></trkpt><trkpt lat="45.18668730327056" lon="8.869459282427298"><ele>94.0</ele><time>2026-04-11T13:43:46.001Z</time></trkpt><trkpt lat="45.186756772504715" lon="8.869487913880915"><ele>94.0</ele><time>2026-04-11T13:43:47.001Z</time></trkpt><trkpt lat="45.18683816991258" lon="8.869528413214285"><ele>94.0</ele><time>2026-04-11T13:43:48.001Z</time></trkpt><trkpt lat="45.186911026713666" lon="8.8695667327293"><ele>94.0</ele><time>2026-04-11T13:43:49.001Z</time></trkpt><trkpt lat="45.18699392981213" lon="8.869611976722036"><ele>94.0</ele><time>2026-04-11T13:43:50.001Z</time></trkpt><trkpt lat="45.18706261245657" lon="8.869651293982312"><ele>94.0</ele><time>2026-04-11T13:43:51.001Z</time></trkpt><trkpt lat="45.187139589233276" lon="8.869684164780784"><ele>94.0</ele><time>2026-04-11T13:43:52.001Z</time></trkpt><trkpt lat="45.1872121214274" lon="8.869748397844024"><ele>94.0</ele><time>2026-04-11T13:43:53.001Z</time></trkpt><trkpt lat="45.18730240945127" lon="8.86979067269522"><ele>94.0</ele><time>2026-04-11T13:43:54.001Z</time></trkpt><trkpt lat="45.187374539282985" lon="8.869833221919778"><ele>94.0</ele><time>2026-04-11T13:43:55.001Z</time></trkpt><trkpt lat="45.18744579482888" lon="8.869890677919809"><ele>94.33333333333333</ele><time>2026-04-11T13:43:56.001Z</time></trkpt><trkpt lat="45.18752517686998" lon="8.869934393374058"><ele>94.66666666666666</ele><time>2026-04-11T13:43:57.001Z</time></trkpt><trkpt lat="45.187597438971096" lon="8.869991281678324"><ele>95.0</ele><time>2026-04-11T13:43:58.001Z</time></trkpt><trkpt lat="45.18766889760125" lon="8.87004469767168"><ele>95.33333333333333</ele><time>2026-04-11T13:43:59.001Z</time></trkpt><trkpt lat="45.18773236271008" lon="8.870066890891362"><ele>95.66666666666667</ele><time>2026-04-11T13:44:00.001Z</time></trkpt><trkpt lat="45.18780454811252" lon="8.870093427439198"><ele>96.0</ele><time>2026-04-11T13:44:01.001Z</time></trkpt><trkpt lat="45.187877501207325" lon="8.870094741829591"><ele>95.8</ele><time>2026-04-11T13:44:02.001Z</time></trkpt><trkpt lat="45.18796605239027" lon="8.870134661670226"><ele>95.6</ele><time>2026-04-11T13:44:03.001Z</time></trkpt><trkpt lat="45.18806692631934" lon="8.870180666977587"><ele>95.4</ele><time>2026-04-11T13:44:04.001Z</time></trkpt><trkpt lat="45.18814003320547" lon="8.870220698755926"><ele>95.2</ele><time>2026-04-11T13:44:05.001Z</time></trkpt><trkpt lat="45.188272483573336" lon="8.870249614368944"><ele>95.0</ele><time>2026-04-11T13:44:07.001Z</time></trkpt><trkpt lat="45.18835637463168" lon="8.870268643333294"><ele>95.33333333333334</ele><time>2026-04-11T13:44:08.001Z</time></trkpt><trkpt lat="45.18845191142584" lon="8.870286838784267"><ele>95.66666666666667</ele><time>2026-04-11T13:44:09.001Z</time></trkpt><trkpt lat="45.188544109817464" lon="8.870310141008316"><ele>96.0</ele><time>2026-04-11T13:44:10.001Z</time></trkpt><trkpt lat="45.18862993374501" lon="8.870326321776604"><ele>96.33333333333334</ele><time>2026-04-11T13:44:11.002Z</time></trkpt><trkpt lat="45.18871682978639" lon="8.870354245283476"><ele>96.66666666666667</ele><time>2026-04-11T13:44:12.002Z</time></trkpt><trkpt lat="45.18879841121282" lon="8.870373832048823"><ele>97.0</ele><time>2026-04-11T13:44:13.002Z</time></trkpt><trkpt lat="45.18887471813933" lon="8.870386042709882"><ele>97.00000000000001</ele><time>2026-04-11T13:44:14.002Z</time></trkpt><trkpt lat="45.188954543991294" lon="8.870416669963078"><ele>97.0</ele><time>2026-04-11T13:44:15.002Z</time></trkpt><trkpt lat="45.18903262928133" lon="8.870466246136996"><ele>97.0</ele><time>2026-04-11T13:44:16.002Z</time></trkpt><trkpt lat="45.189116680946704" lon="8.870496115798801"><ele>97.0</ele><time>2026-04-11T13:44:17.002Z</time></trkpt><trkpt lat="45.18920020486092" lon="8.870522947296877"><ele>97.00000000000001</ele><time>2026-04-11T13:44:18.001Z</time></trkpt><trkpt lat="45.1892783730224" lon="8.870556608022435"><ele>97.0</ele><time>2026-04-11T13:44:19.001Z</time></trkpt><trkpt lat="45.18936130105548" lon="8.87059280619976"><ele>96.6</ele><time>2026-04-11T13:44:20.001Z</time></trkpt><trkpt lat="45.18945237373284" lon="8.870632559512353"><ele>96.19999999999999</ele><time>2026-04-11T13:44:21.001Z</time></trkpt><trkpt lat="45.18954802718235" lon="8.870674312336359"><ele>95.8</ele><time>2026-04-11T13:44:22.001Z</time></trkpt><trkpt lat="45.18964745635239" lon="8.870724877420022"><ele>95.4</ele><time>2026-04-11T13:44:23.001Z</time></trkpt><trkpt lat="45.189749658645965" lon="8.870782159911286"><ele>95.0</ele><time>2026-04-11T13:44:24.001Z</time></trkpt><trkpt lat="45.18986269963332" lon="8.870820138723623"><ele>95.0</ele><time>2026-04-11T13:44:25.001Z</time></trkpt><trkpt lat="45.18996416117583" lon="8.870900696900447"><ele>95.0</ele><time>2026-04-11T13:44:26.001Z</time></trkpt><trkpt lat="45.19007477325429" lon="8.870964710037965"><ele>95.0</ele><time>2026-04-11T13:44:27.001Z</time></trkpt><trkpt lat="45.190183705282664" lon="8.871012603369053"><ele>95.0</ele><time>2026-04-11T13:44:28.001Z</time></trkpt><trkpt lat="45.19029591706052" lon="8.871083355269041"><ele>95.2</ele><time>2026-04-11T13:44:29.001Z</time></trkpt><trkpt lat="45.19037697007093" lon="8.871163303296324"><ele>95.4</ele><time>2026-04-11T13:44:30.001Z</time></trkpt><trkpt lat="45.19047059925655" lon="8.87119338811373"><ele>95.6</ele><time>2026-04-11T13:44:31.001Z</time></trkpt><trkpt lat="45.19057491586655" lon="8.8712322962801"><ele>95.8</ele><time>2026-04-11T13:44:32.001Z</time></trkpt><trkpt lat="45.19067367243217" lon="8.87124326344726"><ele>96.0</ele><time>2026-04-11T13:44:33.001Z</time></trkpt><trkpt lat="45.19075530648392" lon="8.871253683907222"><ele>96.0</ele><time>2026-04-11T13:44:34.001Z</time></trkpt><trkpt lat="45.190832386292264" lon="8.87128751771776"><ele>96.0</ele><time>2026-04-11T13:44:35.001Z</time></trkpt><trkpt lat="45.19092666958435" lon="8.871279262470848"><ele>96.0</ele><time>2026-04-11T13:44:36.001Z</time></trkpt><trkpt lat="45.19102667784182" lon="8.871296765170163"><ele>96.0</ele><time>2026-04-11T13:44:37.001Z</time></trkpt><trkpt lat="45.19113644606477" lon="8.871299429815855"><ele>96.0</ele><time>2026-04-11T13:44:38.001Z</time></trkpt><trkpt lat="45.191249096327695" lon="8.871286891800027"><ele>96.0</ele><time>2026-04-11T13:44:39.001Z</time></trkpt><trkpt lat="45.19135903412527" lon="8.871274519339662"><ele>96.0</ele><time>2026-04-11T13:44:40.001Z</time></trkpt><trkpt lat="45.191468012686144" lon="8.871268805775907"><ele>96.0</ele><time>2026-04-11T13:44:41.001Z</time></trkpt><trkpt lat="45.191580842943765" lon="8.871269279101096"><ele>96.0</ele><time>2026-04-11T13:44:42.001Z</time></trkpt><trkpt lat="45.191689648131074" lon="8.87126292030426"><ele>96.0</ele><time>2026-04-11T13:44:43.001Z</time></trkpt><trkpt lat="45.19179412426268" lon="8.871257373500418"><ele>95.0</ele><time>2026-04-11T13:44:44.001Z</time></trkpt><trkpt lat="45.191905511123615" lon="8.871247952873803"><ele>94.0</ele><time>2026-04-11T13:44:45.001Z</time></trkpt><trkpt lat="45.192016651182854" lon="8.871231656730687"><ele>93.0</ele><time>2026-04-11T13:44:46.001Z</time></trkpt><trkpt lat="45.192135061444176" lon="8.871234532630865"><ele>92.0</ele><time>2026-04-11T13:44:47.001Z</time></trkpt><trkpt lat="45.192245147372645" lon="8.871192047877638"><ele>92.5</ele><time>2026-04-11T13:44:48.001Z</time></trkpt><trkpt lat="45.19235941767269" lon="8.871170230363518"><ele>93.0</ele><time>2026-04-11T13:44:49.001Z</time></trkpt><trkpt lat="45.19247280308848" lon="8.871142511965504"><ele>93.5</ele><time>2026-04-11T13:44:50.001Z</time></trkpt><trkpt lat="45.19258648631606" lon="8.871149476437079"><ele>94.0</ele><time>2026-04-11T13:44:51.001Z</time></trkpt><trkpt lat="45.1926958399013" lon="8.87113306164339"><ele>94.0</ele><time>2026-04-11T13:44:52.001Z</time></trkpt><trkpt lat="45.19280139451629" lon="8.871093582823399"><ele>94.0</ele><time>2026-04-11T13:44:53.001Z</time></trkpt><trkpt lat="45.192902650148156" lon="8.871071566338399"><ele>94.0</ele><time>2026-04-11T13:44:54.001Z</time></trkpt><trkpt lat="45.19300981911172" lon="8.87107373933113"><ele>94.0</ele><time>2026-04-11T13:44:55.001Z</time></trkpt><trkpt lat="45.193108155149794" lon="8.871052929477985"><ele>94.0</ele><time>2026-04-11T13:44:56.001Z</time></trkpt><trkpt lat="45.19320792358058" lon="8.871031818447152"><ele>94.0</ele><time>2026-04-11T13:44:57.001Z</time></trkpt><trkpt lat="45.19330632237389" lon="8.871015087218307"><ele>94.0</ele><time>2026-04-11T13:44:58.001Z</time></trkpt><trkpt lat="45.19340905055007" lon="8.87097587642337"><ele>94.0</ele><time>2026-04-11T13:44:59.001Z</time></trkpt><trkpt lat="45.193512201821015" lon="8.87096226179429"><ele>94.0</ele><time>2026-04-11T13:45:00.001Z</time></trkpt><trkpt lat="45.19361477711408" lon="8.870966874043624"><ele>94.0</ele><time>2026-04-11T13:45:01.001Z</time></trkpt><trkpt lat="45.19371768639864" lon="8.870950788758204"><ele>94.0</ele><time>2026-04-11T13:45:02.001Z</time></trkpt><trkpt lat="45.19382179602745" lon="8.87094122056324"><ele>94.0</ele><time>2026-04-11T13:45:03.001Z</time></trkpt><trkpt lat="45.193923661260676" lon="8.870940242905188"><ele>94.0</ele><time>2026-04-11T13:45:04.001Z</time></trkpt><trkpt lat="45.19401389437552" lon="8.870941341388708"><ele>94.0</ele><time>2026-04-11T13:45:05.001Z</time></trkpt><trkpt lat="45.1941088962969" lon="8.87092593844587"><ele>94.0</ele><time>2026-04-11T13:45:06.001Z</time></trkpt><trkpt lat="45.19419862930594" lon="8.87095082367078"><ele>94.2</ele><time>2026-04-11T13:45:07.001Z</time></trkpt><trkpt lat="45.19427245477143" lon="8.870959772012336"><ele>94.4</ele><time>2026-04-11T13:45:08.001Z</time></trkpt><trkpt lat="45.19438115460665" lon="8.871028572585164"><ele>94.6</ele><time>2026-04-11T13:45:10.001Z</time></trkpt><trkpt lat="45.194472158895145" lon="8.871097247474484"><ele>94.8</ele><time>2026-04-11T13:45:12.001Z</time></trkpt><trkpt lat="45.19455864036488" lon="8.871181635792217"><ele>95.0</ele><time>2026-04-11T13:45:14.001Z</time></trkpt><trkpt lat="45.19463914703378" lon="8.871261433038239"><ele>95.0</ele><time>2026-04-11T13:45:16.001Z</time></trkpt><trkpt lat="45.194719358067985" lon="8.871354901842867"><ele>95.0</ele><time>2026-04-11T13:45:18.001Z</time></trkpt><trkpt lat="45.19481857988051" lon="8.871468921241071"><ele>95.0</ele><time>2026-04-11T13:45:20.001Z</time></trkpt><trkpt lat="45.19486375894551" lon="8.871547842504894"><ele>95.0</ele><time>2026-04-11T13:45:21.001Z</time></trkpt><trkpt lat="45.194920980637825" lon="8.871590868359517"><ele>95.0</ele><time>2026-04-11T13:45:22.001Z</time></trkpt><trkpt lat="45.19496882685772" lon="8.871656528268186"><ele>95.0</ele><time>2026-04-11T13:45:23.001Z</time></trkpt><trkpt lat="45.19500651405737" lon="8.871733260652753"><ele>94.8</ele><time>2026-04-11T13:45:24.001Z</time></trkpt><trkpt lat="45.19508674790908" lon="8.871839554766295"><ele>94.6</ele><time>2026-04-11T13:45:26.001Z</time></trkpt><trkpt lat="45.1951826614718" lon="8.871938996097805"><ele>94.4</ele><time>2026-04-11T13:45:28.001Z</time></trkpt><trkpt lat="45.19522124850082" lon="8.872015188745209"><ele>94.2</ele><time>2026-04-11T13:45:29.001Z</time></trkpt><trkpt lat="45.1953177403657" lon="8.872106170663523"><ele>94.0</ele><time>2026-04-11T13:45:31.001Z</time></trkpt><trkpt lat="45.19541570256855" lon="8.87222987680518"><ele>94.0</ele><time>2026-04-11T13:45:33.001Z</time></trkpt><trkpt lat="45.19547282922464" lon="8.872294872511326"><ele>94.0</ele><time>2026-04-11T13:45:34.001Z</time></trkpt><trkpt lat="45.195521823194134" lon="8.872357415219732"><ele>94.0</ele><time>2026-04-11T13:45:35.001Z</time></trkpt><trkpt lat="45.19560182652116" lon="8.872463329172742"><ele>94.0</ele><time>2026-04-11T13:45:37.001Z</time></trkpt><trkpt lat="45.19563666699017" lon="8.872625262352651"><ele>94.0</ele><time>2026-04-11T13:45:39.001Z</time></trkpt><trkpt lat="45.195659186839364" lon="8.87271059657601"><ele>94.0</ele><time>2026-04-11T13:45:40.001Z</time></trkpt><trkpt lat="45.19566605585717" lon="8.872804240195405"><ele>94.0</ele><time>2026-04-11T13:45:41.001Z</time></trkpt><trkpt lat="45.19568275911028" lon="8.872908867593626"><ele>94.0</ele><time>2026-04-11T13:45:42.001Z</time></trkpt><trkpt lat="45.195698773871776" lon="8.8730328163764"><ele>94.0</ele><time>2026-04-11T13:45:43.001Z</time></trkpt><trkpt lat="45.19572147050771" lon="8.873159922050496"><ele>94.0</ele><time>2026-04-11T13:45:44.001Z</time></trkpt><trkpt lat="45.195744596052535" lon="8.87328484745571"><ele>94.0</ele><time>2026-04-11T13:45:45.001Z</time></trkpt><trkpt lat="45.19576557771386" lon="8.873397232686607"><ele>94.0</ele><time>2026-04-11T13:45:46.001Z</time></trkpt><trkpt lat="45.19577824086538" lon="8.873539310957687"><ele>94.0</ele><time>2026-04-11T13:45:47.001Z</time></trkpt><trkpt lat="45.195823182385354" lon="8.873718319559975"><ele>94.0</ele><time>2026-04-11T13:45:48.001Z</time></trkpt><trkpt lat="45.19584776780557" lon="8.873877060505713"><ele>94.0</ele><time>2026-04-11T13:45:49.001Z</time></trkpt><trkpt lat="45.19586896032222" lon="8.87399503957263"><ele>94.0</ele><time>2026-04-11T13:45:50.001Z</time></trkpt><trkpt lat="45.195886765489504" lon="8.874149025909311"><ele>94.0</ele><time>2026-04-11T13:45:52.001Z</time></trkpt><trkpt lat="45.19591305674262" lon="8.874277051956554"><ele>94.0</ele><time>2026-04-11T13:45:54.001Z</time></trkpt><trkpt lat="45.195923314853616" lon="8.874384810057524"><ele>94.0</ele><time>2026-04-11T13:45:57.001Z</time></trkpt><trkpt lat="45.1960848545456" lon="8.874364986358012"><ele>94.0</ele><time>2026-04-11T13:46:01.001Z</time></trkpt><trkpt lat="45.19618187686608" lon="8.874292993622346"><ele>94.0</ele><time>2026-04-11T13:46:03.001Z</time></trkpt><trkpt lat="45.19625362876648" lon="8.874255032665681"><ele>94.0</ele><time>2026-04-11T13:46:04.001Z</time></trkpt><trkpt lat="45.19632909750846" lon="8.8742096532818"><ele>94.0</ele><time>2026-04-11T13:46:05.001Z</time></trkpt><trkpt lat="45.19639398026294" lon="8.8741713970734"><ele>94.0</ele><time>2026-04-11T13:46:06.001Z</time></trkpt><trkpt lat="45.196509094673644" lon="8.874111656498515"><ele>94.0</ele><time>2026-04-11T13:46:08.001Z</time></trkpt><trkpt lat="45.19658152376016" lon="8.874069718203458"><ele>94.0</ele><time>2026-04-11T13:46:09.001Z</time></trkpt><trkpt lat="45.196662160360006" lon="8.874025598363794"><ele>94.0</ele><time>2026-04-11T13:46:10.001Z</time></trkpt><trkpt lat="45.196746249931046" lon="8.873973090117131"><ele>94.0</ele><time>2026-04-11T13:46:11.001Z</time></trkpt><trkpt lat="45.196833526778335" lon="8.873919566478909"><ele>93.80000000000001</ele><time>2026-04-11T13:46:12.001Z</time></trkpt><trkpt lat="45.196919733590704" lon="8.873873884195154"><ele>93.60000000000001</ele><time>2026-04-11T13:46:13.001Z</time></trkpt><trkpt lat="45.1970088517787" lon="8.873825608832"><ele>93.4</ele><time>2026-04-11T13:46:14.001Z</time></trkpt><trkpt lat="45.19709931963788" lon="8.873778177796169"><ele>93.2</ele><time>2026-04-11T13:46:15.001Z</time></trkpt><trkpt lat="45.19718403083796" lon="8.873732360319766"><ele>93.0</ele><time>2026-04-11T13:46:16.001Z</time></trkpt><trkpt lat="45.1972751905999" lon="8.873691878434691"><ele>92.80000000000001</ele><time>2026-04-11T13:46:17.001Z</time></trkpt><trkpt lat="45.19735951245312" lon="8.873667432161096"><ele>92.6</ele><time>2026-04-11T13:46:18.001Z</time></trkpt><trkpt lat="45.197458716203734" lon="8.873652950692636"><ele>92.4</ele><time>2026-04-11T13:46:19.001Z</time></trkpt><trkpt lat="45.19757598782841" lon="8.873656434910783"><ele>92.19999999999999</ele><time>2026-04-11T13:46:20.001Z</time></trkpt><trkpt lat="45.1977142401177" lon="8.873665563778554"><ele>92.0</ele><time>2026-04-11T13:46:21.001Z</time></trkpt><trkpt lat="45.19783466484907" lon="8.873666785075661"><ele>92.0</ele><time>2026-04-11T13:46:22.001Z</time></trkpt><trkpt lat="45.19794749839372" lon="8.87366900253514"><ele>92.0</ele><time>2026-04-11T13:46:23.001Z</time></trkpt><trkpt lat="45.19806431437542" lon="8.873667289887438"><ele>92.0</ele><time>2026-04-11T13:46:24.001Z</time></trkpt><trkpt lat="45.19818623031441" lon="8.873669054467513"><ele>92.0</ele><time>2026-04-11T13:46:25.001Z</time></trkpt><trkpt lat="45.19831129935412" lon="8.873671533541934"><ele>92.0</ele><time>2026-04-11T13:46:26.001Z</time></trkpt><trkpt lat="45.19843382409219" lon="8.873672302512153"><ele>92.0</ele><time>2026-04-11T13:46:27.001Z</time></trkpt><trkpt lat="45.19855837648282" lon="8.87367173039895"><ele>92.0</ele><time>2026-04-11T13:46:28.001Z</time></trkpt><trkpt lat="45.19868525800357" lon="8.873673156682944"><ele>92.0</ele><time>2026-04-11T13:46:29.001Z</time></trkpt><trkpt lat="45.19881296553584" lon="8.873669684878516"><ele>92.0</ele><time>2026-04-11T13:46:30.001Z</time></trkpt><trkpt lat="45.1989448465119" lon="8.873665737297268"><ele>92.0</ele><time>2026-04-11T13:46:31.001Z</time></trkpt><trkpt lat="45.199088298551224" lon="8.873661643474854"><ele>92.0</ele><time>2026-04-11T13:46:32.001Z</time></trkpt><trkpt lat="45.199216617601195" lon="8.873659630614133"><ele>92.0</ele><time>2026-04-11T13:46:33.001Z</time></trkpt><trkpt lat="45.1993487922505" lon="8.873655976550554"><ele>92.0</ele><time>2026-04-11T13:46:34.001Z</time></trkpt><trkpt lat="45.19948527567751" lon="8.873651614849459"><ele>92.0</ele><time>2026-04-11T13:46:35.001Z</time></trkpt><trkpt lat="45.1996223570749" lon="8.873646959421212"><ele>92.0</ele><time>2026-04-11T13:46:36.001Z</time></trkpt><trkpt lat="45.1997618934355" lon="8.873639997329043"><ele>92.0</ele><time>2026-04-11T13:46:37.001Z</time></trkpt><trkpt lat="45.19989373809849" lon="8.873634587219513"><ele>92.0</ele><time>2026-04-11T13:46:38.001Z</time></trkpt><trkpt lat="45.200003469390644" lon="8.873630280412307"><ele>92.0</ele><time>2026-04-11T13:46:39.001Z</time></trkpt><trkpt lat="45.200114552396734" lon="8.873624996185473"><ele>92.0</ele><time>2026-04-11T13:46:40.001Z</time></trkpt><trkpt lat="45.20022622984118" lon="8.873621317955259"><ele>92.0</ele><time>2026-04-11T13:46:41.001Z</time></trkpt><trkpt lat="45.20034810361122" lon="8.873615215836205"><ele>92.0</ele><time>2026-04-11T13:46:42.001Z</time></trkpt><trkpt lat="45.20047280694945" lon="8.873618285197683"><ele>92.0</ele><time>2026-04-11T13:46:43.001Z</time></trkpt><trkpt lat="45.20059786370665" lon="8.873634836568392"><ele>92.0</ele><time>2026-04-11T13:46:44Z</time></trkpt><trkpt lat="45.20074205301626" lon="8.873667148755336"><ele>92.0</ele><time>2026-04-11T13:46:45Z</time></trkpt><trkpt lat="45.20088372182425" lon="8.873701383387514"><ele>91.8</ele><time>2026-04-11T13:46:46Z</time></trkpt><trkpt lat="45.20101208274973" lon="8.873734083526076"><ele>91.6</ele><time>2026-04-11T13:46:47Z</time></trkpt><trkpt lat="45.20112309413748" lon="8.873754477084457"><ele>91.39999999999999</ele><time>2026-04-11T13:46:48Z</time></trkpt><trkpt lat="45.201227048921346" lon="8.8737701699047"><ele>91.19999999999999</ele><time>2026-04-11T13:46:49Z</time></trkpt><trkpt lat="45.2013288409959" lon="8.873775398514775"><ele>91.0</ele><time>2026-04-11T13:46:50Z</time></trkpt><trkpt lat="45.20144075265722" lon="8.87377375687933"><ele>91.0</ele><time>2026-04-11T13:46:51Z</time></trkpt><trkpt lat="45.20155861034985" lon="8.87375469077669"><ele>91.0</ele><time>2026-04-11T13:46:52Z</time></trkpt><trkpt lat="45.20166468760725" lon="8.873731921645186"><ele>91.0</ele><time>2026-04-11T13:46:53Z</time></trkpt><trkpt lat="45.20174717134915" lon="8.87371198790537"><ele>91.0</ele><time>2026-04-11T13:46:54Z</time></trkpt><trkpt lat="45.20183695357995" lon="8.87371648972733"><ele>91.0</ele><time>2026-04-11T13:46:56.001Z</time></trkpt><trkpt lat="45.20187827220673" lon="8.873804214834493"><ele>91.0</ele><time>2026-04-11T13:46:58.001Z</time></trkpt><trkpt lat="45.20186159406883" lon="8.873892383454084"><ele>91.0</ele><time>2026-04-11T13:47:00.001Z</time></trkpt><trkpt lat="45.20182657500023" lon="8.873977105752491"><ele>91.0</ele><time>2026-04-11T13:47:29.001Z</time></trkpt><trkpt lat="45.20177394516581" lon="8.874121140740378"><ele>91.0</ele><time>2026-04-11T13:47:31.001Z</time></trkpt><trkpt lat="45.20173266291473" lon="8.874217819529983"><ele>91.0</ele><time>2026-04-11T13:47:32.001Z</time></trkpt><trkpt lat="45.201683873170715" lon="8.874306795199256"><ele>91.0</ele><time>2026-04-11T13:47:33.001Z</time></trkpt><trkpt lat="45.20163622954055" lon="8.874376995900835"><ele>91.19999999999999</ele><time>2026-04-11T13:47:34.001Z</time></trkpt><trkpt lat="45.20156010440933" lon="8.87448113683898"><ele>91.39999999999999</ele><time>2026-04-11T13:47:36.001Z</time></trkpt><trkpt lat="45.20149865956439" lon="8.874568834005032"><ele>91.6</ele><time>2026-04-11T13:47:38.001Z</time></trkpt><trkpt lat="45.20146306573155" lon="8.8746971783967"><ele>91.8</ele><time>2026-04-11T13:47:40.001Z</time></trkpt><trkpt lat="45.201470428009486" lon="8.874853177979963"><ele>92.0</ele><time>2026-04-11T13:47:42.001Z</time></trkpt><trkpt lat="45.20149103829929" lon="8.875025086397624"><ele>91.83333333333334</ele><time>2026-04-11T13:47:44.001Z</time></trkpt><trkpt lat="45.20150135142697" lon="8.875123690707346"><ele>91.66666666666667</ele><time>2026-04-11T13:47:45.001Z</time></trkpt><trkpt lat="45.20151072111709" lon="8.875233911879578"><ele>91.5</ele><time>2026-04-11T13:47:46.001Z</time></trkpt><trkpt lat="45.20152057078806" lon="8.875355461576278"><ele>91.33333333333333</ele><time>2026-04-11T13:47:47.001Z</time></trkpt><trkpt lat="45.20153121917542" lon="8.875480329689854"><ele>91.16666666666666</ele><time>2026-04-11T13:47:48.001Z</time></trkpt><trkpt lat="45.20154502552286" lon="8.875601545981588"><ele>91.0</ele><time>2026-04-11T13:47:49.001Z</time></trkpt><trkpt lat="45.20155439648584" lon="8.875705787562401"><ele>91.0</ele><time>2026-04-11T13:47:50.001Z</time></trkpt><trkpt lat="45.2015779062224" lon="8.875869097551954"><ele>91.0</ele><time>2026-04-11T13:47:52.001Z</time></trkpt><trkpt lat="45.20161554420378" lon="8.875988367923824"><ele>91.0</ele><time>2026-04-11T13:47:54.001Z</time></trkpt><trkpt lat="45.20166196284334" lon="8.876063380665553"><ele>91.0</ele><time>2026-04-11T13:47:56.001Z</time></trkpt><trkpt lat="45.201736357014966" lon="8.87608934169932"><ele>91.0</ele><time>2026-04-11T13:48:00.001Z</time></trkpt><trkpt lat="45.20183613594983" lon="8.875999070151698"><ele>91.0</ele><time>2026-04-11T13:48:02.001Z</time></trkpt><trkpt lat="45.20190708243101" lon="8.87591446593741"><ele>91.0</ele><time>2026-04-11T13:48:03.001Z</time></trkpt><trkpt lat="45.2020026261386" lon="8.875818899947546"><ele>91.0</ele><time>2026-04-11T13:48:04.001Z</time></trkpt><trkpt lat="45.202134269846916" lon="8.87573763032404"><ele>91.0</ele><time>2026-04-11T13:48:05.001Z</time></trkpt><trkpt lat="45.20227308480416" lon="8.875600758179004"><ele>91.0</ele><time>2026-04-11T13:48:06.001Z</time></trkpt><trkpt lat="45.202412332276964" lon="8.875464216833759"><ele>91.0</ele><time>2026-04-11T13:48:07.001Z</time></trkpt><trkpt lat="45.202528731763806" lon="8.87534647485495"><ele>91.0</ele><time>2026-04-11T13:48:08.001Z</time></trkpt><trkpt lat="45.20262916159474" lon="8.875238156624578"><ele>91.0</ele><time>2026-04-11T13:48:09.001Z</time></trkpt><trkpt lat="45.202715406047396" lon="8.875132477473791"><ele>91.0</ele><time>2026-04-11T13:48:10.001Z</time></trkpt><trkpt lat="45.20280823414641" lon="8.875079334703852"><ele>91.0</ele><time>2026-04-11T13:48:11.001Z</time></trkpt><trkpt lat="45.20289430884739" lon="8.875059549222556"><ele>91.0</ele><time>2026-04-11T13:48:12.001Z</time></trkpt><trkpt lat="45.20296763440069" lon="8.875060891729591"><ele>91.0</ele><time>2026-04-11T13:48:13.001Z</time></trkpt><trkpt lat="45.20303577261738" lon="8.875084570892524"><ele>91.0</ele><time>2026-04-11T13:48:14.001Z</time></trkpt><trkpt lat="45.203096010795804" lon="8.875145591138432"><ele>91.0</ele><time>2026-04-11T13:48:15.001Z</time></trkpt><trkpt lat="45.203164985196636" lon="8.875167599804323"><ele>91.5</ele><time>2026-04-11T13:48:16.001Z</time></trkpt><trkpt lat="45.203183272610005" lon="8.875355414238784"><ele>92.0</ele><time>2026-04-11T13:48:17.001Z</time></trkpt><trkpt lat="45.20322272466445" lon="8.875493969936757"><ele>92.5</ele><time>2026-04-11T13:48:18.001Z</time></trkpt><trkpt lat="45.20327602244324" lon="8.87565882284907"><ele>93.0</ele><time>2026-04-11T13:48:19.001Z</time></trkpt><trkpt lat="45.20334042642291" lon="8.875839421134664"><ele>92.66666666666667</ele><time>2026-04-11T13:48:20.001Z</time></trkpt><trkpt lat="45.20341197177453" lon="8.876036222340899"><ele>92.33333333333334</ele><time>2026-04-11T13:48:21.001Z</time></trkpt><trkpt lat="45.20348506049012" lon="8.876245949461747"><ele>92.0</ele><time>2026-04-11T13:48:22.001Z</time></trkpt><trkpt lat="45.20355297319364" lon="8.87646760311327"><ele>92.0</ele><time>2026-04-11T13:48:23.001Z</time></trkpt><trkpt lat="45.203615897961605" lon="8.876713805744902"><ele>92.0</ele><time>2026-04-11T13:48:24.001Z</time></trkpt><trkpt lat="45.203672500672674" lon="8.876974419198204"><ele>92.0</ele><time>2026-04-11T13:48:25.001Z</time></trkpt><trkpt lat="45.20372471804392" lon="8.877246630308353"><ele>92.0</ele><time>2026-04-11T13:48:26.001Z</time></trkpt><trkpt lat="45.203776873042365" lon="8.877529857226062"><ele>92.0</ele><time>2026-04-11T13:48:27.001Z</time></trkpt><trkpt lat="45.20383006498452" lon="8.877828124356594"><ele>92.0</ele><time>2026-04-11T13:48:28.001Z</time></trkpt><trkpt lat="45.203888243279586" lon="8.878134599631318"><ele>91.5</ele><time>2026-04-11T13:48:29.001Z</time></trkpt><trkpt lat="45.20394646022065" lon="8.878447124473999"><ele>91.0</ele><time>2026-04-11T13:48:30Z</time></trkpt><trkpt lat="45.204006024649665" lon="8.878763268210585"><ele>90.5</ele><time>2026-04-11T13:48:31Z</time></trkpt><trkpt lat="45.20406876961292" lon="8.879086944374718"><ele>90.0</ele><time>2026-04-11T13:48:32Z</time></trkpt><trkpt lat="45.20413134214144" lon="8.879409306030901"><ele>91.0</ele><time>2026-04-11T13:48:33Z</time></trkpt><trkpt lat="45.20419420991138" lon="8.879740864955997"><ele>92.0</ele><time>2026-04-11T13:48:34Z</time></trkpt><trkpt lat="45.20425717894947" lon="8.880065130315671"><ele>93.5</ele><time>2026-04-11T13:48:35Z</time></trkpt><trkpt lat="45.20432057431925" lon="8.880390327550451"><ele>95.0</ele><time>2026-04-11T13:48:36Z</time></trkpt><trkpt lat="45.204385594162524" lon="8.880717891113196"><ele>95.5</ele><time>2026-04-11T13:48:37Z</time></trkpt><trkpt lat="45.20444777471479" lon="8.881044592723027"><ele>96.0</ele><time>2026-04-11T13:48:38Z</time></trkpt><trkpt lat="45.204509983032096" lon="8.881373431267512"><ele>96.0</ele><time>2026-04-11T13:48:39Z</time></trkpt><trkpt lat="45.20457157825101" lon="8.88168903058358"><ele>96.0</ele><time>2026-04-11T13:48:40Z</time></trkpt><trkpt lat="45.20462712057918" lon="8.881978930036247"><ele>96.0</ele><time>2026-04-11T13:48:41Z</time></trkpt><trkpt lat="45.204678241530594" lon="8.882253542962518"><ele>96.0</ele><time>2026-04-11T13:48:42Z</time></trkpt><trkpt lat="45.20473208490617" lon="8.882535489936485"><ele>96.0</ele><time>2026-04-11T13:48:43Z</time></trkpt><trkpt lat="45.20478171626036" lon="8.882813371700244"><ele>96.0</ele><time>2026-04-11T13:48:44Z</time></trkpt><trkpt lat="45.2048335873321" lon="8.883088950567926"><ele>96.0</ele><time>2026-04-11T13:48:45Z</time></trkpt><trkpt lat="45.20489031464096" lon="8.883373557027905"><ele>96.0</ele><time>2026-04-11T13:48:46Z</time></trkpt><trkpt lat="45.204944243415966" lon="8.883654680644698"><ele>96.0</ele><time>2026-04-11T13:48:47Z</time></trkpt><trkpt lat="45.20499475092751" lon="8.883939639251185"><ele>94.66666666666667</ele><time>2026-04-11T13:48:48Z</time></trkpt><trkpt lat="45.205049835941416" lon="8.884223291365986"><ele>93.33333333333334</ele><time>2026-04-11T13:48:49Z</time></trkpt><trkpt lat="45.20510407860235" lon="8.884505227507473"><ele>92.0</ele><time>2026-04-11T13:48:50Z</time></trkpt><trkpt lat="45.205153705213235" lon="8.88478515240068"><ele>91.33333333333334</ele><time>2026-04-11T13:48:51Z</time></trkpt><trkpt lat="45.20520400413016" lon="8.885069218104915"><ele>90.66666666666667</ele><time>2026-04-11T13:48:52Z</time></trkpt><trkpt lat="45.20524784586204" lon="8.885348224232892"><ele>90.0</ele><time>2026-04-11T13:48:53Z</time></trkpt><trkpt lat="45.20528691993241" lon="8.885628353329171"><ele>90.0</ele><time>2026-04-11T13:48:54Z</time></trkpt><trkpt lat="45.20532732725979" lon="8.885913892832505"><ele>90.0</ele><time>2026-04-11T13:48:55Z</time></trkpt><trkpt lat="45.20535888003975" lon="8.88618465990437"><ele>90.0</ele><time>2026-04-11T13:48:56Z</time></trkpt><trkpt lat="45.205383982475084" lon="8.886453542952129"><ele>90.33333333333333</ele><time>2026-04-11T13:48:57Z</time></trkpt><trkpt lat="45.20539553553575" lon="8.886721627939442"><ele>90.66666666666666</ele><time>2026-04-11T13:48:58Z</time></trkpt><trkpt lat="45.205402827218656" lon="8.886984792085096"><ele>91.0</ele><time>2026-04-11T13:48:59Z</time></trkpt><trkpt lat="45.20540308597804" lon="8.887249132023427"><ele>91.66666666666666</ele><time>2026-04-11T13:49:00Z</time></trkpt><trkpt lat="45.20540055237547" lon="8.887495607693623"><ele>92.33333333333333</ele><time>2026-04-11T13:49:01Z</time></trkpt><trkpt lat="45.20539093257748" lon="8.887729651585339"><ele>93.0</ele><time>2026-04-11T13:49:02Z</time></trkpt><trkpt lat="45.20537293542063" lon="8.887963756956115"><ele>93.0</ele><time>2026-04-11T13:49:03Z</time></trkpt><trkpt lat="45.205350112951876" lon="8.888208355926842"><ele>93.0</ele><time>2026-04-11T13:49:04Z</time></trkpt><trkpt lat="45.2053239597742" lon="8.888439186790755"><ele>93.0</ele><time>2026-04-11T13:49:05Z</time></trkpt><trkpt lat="45.205297895840104" lon="8.888660663475699"><ele>93.0</ele><time>2026-04-11T13:49:06Z</time></trkpt><trkpt lat="45.20527148904171" lon="8.888864997279178"><ele>93.0</ele><time>2026-04-11T13:49:07Z</time></trkpt><trkpt lat="45.20524228959884" lon="8.889073033502939"><ele>93.0</ele><time>2026-04-11T13:49:08Z</time></trkpt><trkpt lat="45.205203161241414" lon="8.889277885280661"><ele>93.0</ele><time>2026-04-11T13:49:09Z</time></trkpt><trkpt lat="45.205159190049635" lon="8.88948784383883"><ele>93.0</ele><time>2026-04-11T13:49:10Z</time></trkpt><trkpt lat="45.205113767598206" lon="8.88968282382383"><ele>93.0</ele><time>2026-04-11T13:49:11Z</time></trkpt><trkpt lat="45.205068547867164" lon="8.889863416701296"><ele>93.0</ele><time>2026-04-11T13:49:12Z</time></trkpt><trkpt lat="45.20501809512953" lon="8.890046753558954"><ele>93.0</ele><time>2026-04-11T13:49:13Z</time></trkpt><trkpt lat="45.2049627094802" lon="8.890233397239198"><ele>93.0</ele><time>2026-04-11T13:49:14Z</time></trkpt><trkpt lat="45.204905268354004" lon="8.89041692953101"><ele>93.0</ele><time>2026-04-11T13:49:15Z</time></trkpt><trkpt lat="45.20484606044089" lon="8.890605610578259"><ele>93.0</ele><time>2026-04-11T13:49:16Z</time></trkpt><trkpt lat="45.20478625704827" lon="8.890805007602621"><ele>93.0</ele><time>2026-04-11T13:49:17Z</time></trkpt><trkpt lat="45.204729674456445" lon="8.891003150165062"><ele>92.75</ele><time>2026-04-11T13:49:18Z</time></trkpt><trkpt lat="45.20467559058313" lon="8.89118482732634"><ele>92.5</ele><time>2026-04-11T13:49:19Z</time></trkpt><trkpt lat="45.204624242603984" lon="8.891356598737072"><ele>92.25</ele><time>2026-04-11T13:49:20Z</time></trkpt><trkpt lat="45.20457186929427" lon="8.891528045406229"><ele>92.0</ele><time>2026-04-11T13:49:21Z</time></trkpt><trkpt lat="45.20451812485548" lon="8.891707125856298"><ele>92.25</ele><time>2026-04-11T13:49:22Z</time></trkpt><trkpt lat="45.20446333983828" lon="8.891888303251497"><ele>92.5</ele><time>2026-04-11T13:49:23Z</time></trkpt><trkpt lat="45.20441010801326" lon="8.892068899835358"><ele>92.75</ele><time>2026-04-11T13:49:24Z</time></trkpt><trkpt lat="45.20435509863893" lon="8.892251033145522"><ele>93.0</ele><time>2026-04-11T13:49:25.001Z</time></trkpt><trkpt lat="45.20430020229575" lon="8.892432984816931"><ele>93.0</ele><time>2026-04-11T13:49:26.001Z</time></trkpt><trkpt lat="45.204244655139256" lon="8.892616867265483"><ele>93.0</ele><time>2026-04-11T13:49:27.001Z</time></trkpt><trkpt lat="45.20418919356241" lon="8.892794549135324"><ele>93.0</ele><time>2026-04-11T13:49:28.001Z</time></trkpt><trkpt lat="45.20413448576665" lon="8.892978369123538"><ele>93.0</ele><time>2026-04-11T13:49:29.001Z</time></trkpt><trkpt lat="45.20408204599715" lon="8.893164111259297"><ele>93.0</ele><time>2026-04-11T13:49:30.001Z</time></trkpt><trkpt lat="45.20402565090654" lon="8.89334850827711"><ele>93.0</ele><time>2026-04-11T13:49:31.001Z</time></trkpt><trkpt lat="45.20397394110905" lon="8.89352709585998"><ele>93.0</ele><time>2026-04-11T13:49:32.001Z</time></trkpt><trkpt lat="45.20391986137203" lon="8.893707166941613"><ele>93.0</ele><time>2026-04-11T13:49:33.001Z</time></trkpt><trkpt lat="45.20386809754269" lon="8.893882970655573"><ele>93.0</ele><time>2026-04-11T13:49:34.001Z</time></trkpt><trkpt lat="45.20381488304849" lon="8.89406251178479"><ele>93.0</ele><time>2026-04-11T13:49:35.001Z</time></trkpt><trkpt lat="45.20375984567329" lon="8.89424295490287"><ele>93.0</ele><time>2026-04-11T13:49:36.001Z</time></trkpt><trkpt lat="45.203703228272644" lon="8.894425967434879"><ele>93.0</ele><time>2026-04-11T13:49:37.001Z</time></trkpt><trkpt lat="45.2036476865854" lon="8.894606283681876"><ele>93.0</ele><time>2026-04-11T13:49:38.001Z</time></trkpt><trkpt lat="45.203590444522355" lon="8.894790811410967"><ele>93.0</ele><time>2026-04-11T13:49:39.001Z</time></trkpt><trkpt lat="45.20353466119226" lon="8.89497828577531"><ele>93.0</ele><time>2026-04-11T13:49:40.001Z</time></trkpt><trkpt lat="45.2034784482475" lon="8.895168710703263"><ele>93.0</ele><time>2026-04-11T13:49:41.001Z</time></trkpt><trkpt lat="45.20342283383888" lon="8.895360797858052"><ele>93.33333333333333</ele><time>2026-04-11T13:49:42.001Z</time></trkpt><trkpt lat="45.203364979642586" lon="8.89555840223367"><ele>93.66666666666666</ele><time>2026-04-11T13:49:43.001Z</time></trkpt><trkpt lat="45.20330515433528" lon="8.895758544831937"><ele>94.0</ele><time>2026-04-11T13:49:44.001Z</time></trkpt><trkpt lat="45.20324461249981" lon="8.895963404795639"><ele>94.0</ele><time>2026-04-11T13:49:45.001Z</time></trkpt><trkpt lat="45.20318296441768" lon="8.896169544899061"><ele>94.0</ele><time>2026-04-11T13:49:46.001Z</time></trkpt><trkpt lat="45.20312078958653" lon="8.896380856096442"><ele>94.0</ele><time>2026-04-11T13:49:47.001Z</time></trkpt><trkpt lat="45.20305379553779" lon="8.896599159798434"><ele>94.66666666666666</ele><time>2026-04-11T13:49:48.001Z</time></trkpt><trkpt lat="45.20298912530821" lon="8.896817955946311"><ele>95.33333333333333</ele><time>2026-04-11T13:49:49.001Z</time></trkpt><trkpt lat="45.202923381912186" lon="8.897040259995716"><ele>96.0</ele><time>2026-04-11T13:49:50.001Z</time></trkpt><trkpt lat="45.2028546739391" lon="8.8972678904055"><ele>96.0</ele><time>2026-04-11T13:49:51.001Z</time></trkpt><trkpt lat="45.202783870217516" lon="8.89750112681397"><ele>96.0</ele><time>2026-04-11T13:49:52.001Z</time></trkpt><trkpt lat="45.20271478396923" lon="8.897734759128056"><ele>96.0</ele><time>2026-04-11T13:49:53.001Z</time></trkpt><trkpt lat="45.20264408431215" lon="8.897973872801055"><ele>96.33333333333334</ele><time>2026-04-11T13:49:54.001Z</time></trkpt><trkpt lat="45.202572971127736" lon="8.898215377643364"><ele>96.66666666666667</ele><time>2026-04-11T13:49:55.001Z</time></trkpt><trkpt lat="45.2024996735286" lon="8.898459954502046"><ele>97.0</ele><time>2026-04-11T13:49:56.001Z</time></trkpt><trkpt lat="45.20243059523346" lon="8.898695952565134"><ele>96.8</ele><time>2026-04-11T13:49:57.001Z</time></trkpt><trkpt lat="45.20237264673232" lon="8.898899542194354"><ele>96.6</ele><time>2026-04-11T13:49:58.001Z</time></trkpt><trkpt lat="45.20231921674494" lon="8.899065487208718"><ele>96.39999999999999</ele><time>2026-04-11T13:49:59.001Z</time></trkpt><trkpt lat="45.202284870909885" lon="8.89919092265076"><ele>96.19999999999999</ele><time>2026-04-11T13:50:00.001Z</time></trkpt><trkpt lat="45.20226300284601" lon="8.89928234899266"><ele>96.0</ele><time>2026-04-11T13:50:01.001Z</time></trkpt><trkpt lat="45.20223119357358" lon="8.89937531757539"><ele>96.0</ele><time>2026-04-11T13:50:03.001Z</time></trkpt><trkpt lat="45.20225063128757" lon="8.899484100376883"><ele>96.0</ele><time>2026-04-11T13:50:07.001Z</time></trkpt><trkpt lat="45.202315911180264" lon="8.899482138821778"><ele>96.0</ele><time>2026-04-11T13:50:09.001Z</time></trkpt><trkpt lat="45.202368752460934" lon="8.899395342161695"><ele>96.0</ele><time>2026-04-11T13:50:12.001Z</time></trkpt><trkpt lat="45.202298566230176" lon="8.899368257832002"><ele>96.0</ele><time>2026-04-11T13:51:06Z</time></trkpt><trkpt lat="45.20222446032098" lon="8.899420265526512"><ele>96.0</ele><time>2026-04-11T13:51:17Z</time></trkpt><trkpt lat="45.20218559636288" lon="8.899524432406027"><ele>96.0</ele><time>2026-04-11T13:51:18Z</time></trkpt><trkpt lat="45.20215552811242" lon="8.8996406435769"><ele>96.0</ele><time>2026-04-11T13:51:19Z</time></trkpt><trkpt lat="45.20213049758407" lon="8.899734158040312"><ele>96.0</ele><time>2026-04-11T13:51:20Z</time></trkpt><trkpt lat="45.202100189623835" lon="8.899839143899584"><ele>96.0</ele><time>2026-04-11T13:51:21Z</time></trkpt><trkpt lat="45.2020626163216" lon="8.899961396168568"><ele>96.0</ele><time>2026-04-11T13:51:22Z</time></trkpt><trkpt lat="45.20201679194216" lon="8.900105847559296"><ele>96.0</ele><time>2026-04-11T13:51:23Z</time></trkpt><trkpt lat="45.201963130916425" lon="8.90026804687338"><ele>95.75</ele><time>2026-04-11T13:51:24Z</time></trkpt><trkpt lat="45.201911685763356" lon="8.900440795500176"><ele>95.5</ele><time>2026-04-11T13:51:25Z</time></trkpt><trkpt lat="45.20185462468851" lon="8.900628408800959"><ele>95.25</ele><time>2026-04-11T13:51:26Z</time></trkpt><trkpt lat="45.20179048656509" lon="8.900824395780118"><ele>95.0</ele><time>2026-04-11T13:51:27Z</time></trkpt><trkpt lat="45.201735041967005" lon="8.90102248063765"><ele>95.0</ele><time>2026-04-11T13:51:28Z</time></trkpt><trkpt lat="45.20167661682782" lon="8.901202660744605"><ele>95.0</ele><time>2026-04-11T13:51:29Z</time></trkpt><trkpt lat="45.20162711621041" lon="8.901353363446002"><ele>95.0</ele><time>2026-04-11T13:51:30Z</time></trkpt><trkpt lat="45.20158183186265" lon="8.901497521518875"><ele>95.0</ele><time>2026-04-11T13:51:31Z</time></trkpt><trkpt lat="45.20153754579579" lon="8.901653216015092"><ele>94.5</ele><time>2026-04-11T13:51:32Z</time></trkpt><trkpt lat="45.20149232324924" lon="8.901808386427906"><ele>94.0</ele><time>2026-04-11T13:51:33Z</time></trkpt><trkpt lat="45.20144643248156" lon="8.901968310261754"><ele>93.5</ele><time>2026-04-11T13:51:34Z</time></trkpt><trkpt lat="45.201398895562235" lon="8.90212658649649"><ele>93.0</ele><time>2026-04-11T13:51:35Z</time></trkpt><trkpt lat="45.20135167703412" lon="8.902284548977326"><ele>93.0</ele><time>2026-04-11T13:51:36Z</time></trkpt><trkpt lat="45.20130389317549" lon="8.90244051594004"><ele>93.0</ele><time>2026-04-11T13:51:37Z</time></trkpt><trkpt lat="45.20125945464301" lon="8.902599453509579"><ele>93.0</ele><time>2026-04-11T13:51:38Z</time></trkpt><trkpt lat="45.20121408326022" lon="8.902753849667114"><ele>93.0</ele><time>2026-04-11T13:51:39Z</time></trkpt><trkpt lat="45.201167071737935" lon="8.902907057839581"><ele>92.80000000000001</ele><time>2026-04-11T13:51:40Z</time></trkpt><trkpt lat="45.201123234059395" lon="8.903045316958602"><ele>92.6</ele><time>2026-04-11T13:51:41Z</time></trkpt><trkpt lat="45.20108555226877" lon="8.903167861467784"><ele>92.4</ele><time>2026-04-11T13:51:42Z</time></trkpt><trkpt lat="45.201047948735315" lon="8.90329951074716"><ele>92.19999999999999</ele><time>2026-04-11T13:51:43Z</time></trkpt><trkpt lat="45.20100661017303" lon="8.90342726942935"><ele>92.0</ele><time>2026-04-11T13:51:44Z</time></trkpt><trkpt lat="45.200967406779895" lon="8.903556568922625"><ele>91.8</ele><time>2026-04-11T13:51:45Z</time></trkpt><trkpt lat="45.20092988075614" lon="8.903684587288176"><ele>91.6</ele><time>2026-04-11T13:51:46Z</time></trkpt><trkpt lat="45.20088955823273" lon="8.903809176923568"><ele>91.39999999999999</ele><time>2026-04-11T13:51:47.001Z</time></trkpt><trkpt lat="45.20085165452881" lon="8.90393906049112"><ele>91.19999999999999</ele><time>2026-04-11T13:51:48.001Z</time></trkpt><trkpt lat="45.200808189068034" lon="8.9040802586476"><ele>91.0</ele><time>2026-04-11T13:51:49.001Z</time></trkpt><trkpt lat="45.20076219740147" lon="8.904232740573146"><ele>91.25</ele><time>2026-04-11T13:51:50.001Z</time></trkpt><trkpt lat="45.20071306084046" lon="8.904393861258738"><ele>91.5</ele><time>2026-04-11T13:51:51.001Z</time></trkpt><trkpt lat="45.200660524696495" lon="8.904568432665192"><ele>91.75</ele><time>2026-04-11T13:51:52.001Z</time></trkpt><trkpt lat="45.20060881615908" lon="8.904750743013047"><ele>92.0</ele><time>2026-04-11T13:51:53.001Z</time></trkpt><trkpt lat="45.20055394670923" lon="8.90494146249705"><ele>92.5</ele><time>2026-04-11T13:51:54.001Z</time></trkpt><trkpt lat="45.200494812375894" lon="8.90513769409075"><ele>93.0</ele><time>2026-04-11T13:51:55.001Z</time></trkpt><trkpt lat="45.20043968158225" lon="8.905323603239964"><ele>93.5</ele><time>2026-04-11T13:51:56.001Z</time></trkpt><trkpt lat="45.200388276151415" lon="8.90549077729034"><ele>94.0</ele><time>2026-04-11T13:51:57.001Z</time></trkpt><trkpt lat="45.20033750152551" lon="8.90565645097168"><ele>94.0</ele><time>2026-04-11T13:51:58.001Z</time></trkpt><trkpt lat="45.20028787385333" lon="8.905821132205"><ele>94.0</ele><time>2026-04-11T13:51:59.001Z</time></trkpt><trkpt lat="45.20024289680182" lon="8.905975540991829"><ele>94.0</ele><time>2026-04-11T13:52:00.001Z</time></trkpt><trkpt lat="45.20019527164536" lon="8.906133785072818"><ele>94.0</ele><time>2026-04-11T13:52:01.001Z</time></trkpt><trkpt lat="45.200148651062136" lon="8.906292806129875"><ele>94.5</ele><time>2026-04-11T13:52:02.001Z</time></trkpt><trkpt lat="45.20010026973481" lon="8.906455010555602"><ele>95.0</ele><time>2026-04-11T13:52:03.001Z</time></trkpt><trkpt lat="45.200052268983626" lon="8.90661737386496"><ele>95.5</ele><time>2026-04-11T13:52:04.001Z</time></trkpt><trkpt lat="45.200002777818604" lon="8.906778649353702"><ele>96.0</ele><time>2026-04-11T13:52:05.001Z</time></trkpt><trkpt lat="45.19995713101162" lon="8.906931511072717"><ele>96.0</ele><time>2026-04-11T13:52:06.001Z</time></trkpt><trkpt lat="45.19991656062175" lon="8.907067691528132"><ele>96.0</ele><time>2026-04-11T13:52:07.001Z</time></trkpt><trkpt lat="45.19987618889827" lon="8.907209799490596"><ele>96.0</ele><time>2026-04-11T13:52:08.001Z</time></trkpt><trkpt lat="45.19982995006714" lon="8.907356259966015"><ele>96.0</ele><time>2026-04-11T13:52:09.001Z</time></trkpt><trkpt lat="45.199784014707745" lon="8.907505796948376"><ele>96.0</ele><time>2026-04-11T13:52:10.001Z</time></trkpt><trkpt lat="45.19973851802403" lon="8.907661705028552"><ele>95.75</ele><time>2026-04-11T13:52:11.001Z</time></trkpt><trkpt lat="45.19969143094675" lon="8.907819390398107"><ele>95.5</ele><time>2026-04-11T13:52:12.001Z</time></trkpt><trkpt lat="45.19964184993745" lon="8.907982021532742"><ele>95.25</ele><time>2026-04-11T13:52:13.001Z</time></trkpt><trkpt lat="45.19959844164085" lon="8.908127620809536"><ele>95.0</ele><time>2026-04-11T13:52:14.001Z</time></trkpt><trkpt lat="45.19955611242157" lon="8.908270473333877"><ele>94.75</ele><time>2026-04-11T13:52:15.001Z</time></trkpt><trkpt lat="45.19951067854282" lon="8.908422313249241"><ele>94.5</ele><time>2026-04-11T13:52:16.001Z</time></trkpt><trkpt lat="45.19946415237633" lon="8.908576034033821"><ele>94.25</ele><time>2026-04-11T13:52:17.001Z</time></trkpt><trkpt lat="45.19942274459995" lon="8.908716513419028"><ele>94.0</ele><time>2026-04-11T13:52:18.001Z</time></trkpt><trkpt lat="45.19937988584774" lon="8.908860238064008"><ele>94.0</ele><time>2026-04-11T13:52:19.001Z</time></trkpt><trkpt lat="45.19933803373447" lon="8.90899518019336"><ele>94.0</ele><time>2026-04-11T13:52:20.001Z</time></trkpt><trkpt lat="45.19929875649618" lon="8.909118013909849"><ele>94.0</ele><time>2026-04-11T13:52:21.001Z</time></trkpt><trkpt lat="45.199258783623755" lon="8.909244266565205"><ele>94.0</ele><time>2026-04-11T13:52:22.001Z</time></trkpt><trkpt lat="45.199218450951534" lon="8.909387255619896"><ele>94.0</ele><time>2026-04-11T13:52:23.001Z</time></trkpt><trkpt lat="45.19917503687512" lon="8.90953598782275"><ele>93.80000000000001</ele><time>2026-04-11T13:52:24.001Z</time></trkpt><trkpt lat="45.19913052945014" lon="8.909688464468108"><ele>93.60000000000001</ele><time>2026-04-11T13:52:25.001Z</time></trkpt><trkpt lat="45.19908991223001" lon="8.909823882546918"><ele>93.4</ele><time>2026-04-11T13:52:26.001Z</time></trkpt><trkpt lat="45.199050478969895" lon="8.909955503672316"><ele>93.2</ele><time>2026-04-11T13:52:27.001Z</time></trkpt><trkpt lat="45.19901061926737" lon="8.910086445486389"><ele>93.0</ele><time>2026-04-11T13:52:28.001Z</time></trkpt><trkpt lat="45.198975688101015" lon="8.910207144334398"><ele>93.0</ele><time>2026-04-11T13:52:29.001Z</time></trkpt><trkpt lat="45.1989424474889" lon="8.910316770401604"><ele>93.0</ele><time>2026-04-11T13:52:30.001Z</time></trkpt><trkpt lat="45.19891302536034" lon="8.910419441230792"><ele>93.0</ele><time>2026-04-11T13:52:31.001Z</time></trkpt><trkpt lat="45.19888903039295" lon="8.91050618708901"><ele>93.0</ele><time>2026-04-11T13:52:32.001Z</time></trkpt><trkpt lat="45.19885714125346" lon="8.910610858209463"><ele>93.0</ele><time>2026-04-11T13:52:34.001Z</time></trkpt><trkpt lat="45.19882001372089" lon="8.910729923318424"><ele>93.0</ele><time>2026-04-11T13:52:37.001Z</time></trkpt><trkpt lat="45.198779028078796" lon="8.910851965213324"><ele>92.83333333333333</ele><time>2026-04-11T13:52:39.001Z</time></trkpt><trkpt lat="45.19871483377967" lon="8.911003329931656"><ele>92.66666666666667</ele><time>2026-04-11T13:52:41.001Z</time></trkpt><trkpt lat="45.19867338080155" lon="8.911080658368085"><ele>92.5</ele><time>2026-04-11T13:52:42Z</time></trkpt><trkpt lat="45.198631698781625" lon="8.911154325792504"><ele>92.33333333333334</ele><time>2026-04-11T13:52:43Z</time></trkpt><trkpt lat="45.19858338999497" lon="8.911212270779275"><ele>92.16666666666667</ele><time>2026-04-11T13:52:44Z</time></trkpt><trkpt lat="45.19849807726258" lon="8.911314544061659"><ele>92.0</ele><time>2026-04-11T13:52:46Z</time></trkpt><trkpt lat="45.198480432162235" lon="8.911461057582525"><ele>92.0</ele><time>2026-04-11T13:52:48Z</time></trkpt><trkpt lat="45.19853407295958" lon="8.91157919106266"><ele>92.0</ele><time>2026-04-11T13:52:50Z</time></trkpt><trkpt lat="45.19861413055773" lon="8.911569727854642"><ele>92.0</ele><time>2026-04-11T13:52:51Z</time></trkpt><trkpt lat="45.19867574287706" lon="8.911503450283982"><ele>92.0</ele><time>2026-04-11T13:52:52Z</time></trkpt><trkpt lat="45.19869315925283" lon="8.911390002713805"><ele>92.0</ele><time>2026-04-11T13:52:53Z</time></trkpt><trkpt lat="45.1987129894783" lon="8.911265034312457"><ele>92.0</ele><time>2026-04-11T13:52:54Z</time></trkpt><trkpt lat="45.19874800148775" lon="8.911113298035"><ele>92.0</ele><time>2026-04-11T13:52:55Z</time></trkpt><trkpt lat="45.198798295159364" lon="8.910924902110683"><ele>92.0</ele><time>2026-04-11T13:52:56Z</time></trkpt><trkpt lat="45.198864982928285" lon="8.910690243516818"><ele>92.0</ele><time>2026-04-11T13:52:57Z</time></trkpt><trkpt lat="45.19896691581435" lon="8.910404230702294"><ele>92.5</ele><time>2026-04-11T13:52:58Z</time></trkpt><trkpt lat="45.19905263584293" lon="8.910059964769545"><ele>93.0</ele><time>2026-04-11T13:52:59Z</time></trkpt><trkpt lat="45.19917626251506" lon="8.909706915750514"><ele>93.0</ele><time>2026-04-11T13:53:00Z</time></trkpt><trkpt lat="45.19927792901481" lon="8.909370420012946"><ele>93.0</ele><time>2026-04-11T13:53:01Z</time></trkpt><trkpt lat="45.19936783621172" lon="8.909072335045275"><ele>93.33333333333333</ele><time>2026-04-11T13:53:02Z</time></trkpt><trkpt lat="45.19944910628001" lon="8.908802317728187"><ele>93.66666666666666</ele><time>2026-04-11T13:53:03Z</time></trkpt><trkpt lat="45.199525006706054" lon="8.908550140898788"><ele>94.0</ele><time>2026-04-11T13:53:04Z</time></trkpt><trkpt lat="45.199597041204285" lon="8.908310901719044"><ele>94.33333333333333</ele><time>2026-04-11T13:53:05Z</time></trkpt><trkpt lat="45.19966414117425" lon="8.908088099168337"><ele>94.66666666666667</ele><time>2026-04-11T13:53:06Z</time></trkpt><trkpt lat="45.1997317378905" lon="8.907863647184397"><ele>95.0</ele><time>2026-04-11T13:53:07Z</time></trkpt><trkpt lat="45.1998003934238" lon="8.90763567945108"><ele>95.33333333333334</ele><time>2026-04-11T13:53:08Z</time></trkpt><trkpt lat="45.1998698483087" lon="8.90740505752974"><ele>95.66666666666667</ele><time>2026-04-11T13:53:09Z</time></trkpt><trkpt lat="45.199940488070204" lon="8.907168172347463"><ele>96.0</ele><time>2026-04-11T13:53:10Z</time></trkpt><trkpt lat="45.20001211835687" lon="8.906928515123894"><ele>96.0</ele><time>2026-04-11T13:53:11Z</time></trkpt><trkpt lat="45.200086353971244" lon="8.906680141113736"><ele>96.0</ele><time>2026-04-11T13:53:12Z</time></trkpt><trkpt lat="45.200160848713544" lon="8.906430900118352"><ele>96.0</ele><time>2026-04-11T13:53:13Z</time></trkpt><trkpt lat="45.20023547610234" lon="8.90618121532737"><ele>96.0</ele><time>2026-04-11T13:53:14Z</time></trkpt><trkpt lat="45.20031112711761" lon="8.90592810573448"><ele>96.0</ele><time>2026-04-11T13:53:15Z</time></trkpt><trkpt lat="45.20038716046687" lon="8.905673716939758"><ele>96.0</ele><time>2026-04-11T13:53:16Z</time></trkpt><trkpt lat="45.20046389438991" lon="8.905416984204312"><ele>95.33333333333333</ele><time>2026-04-11T13:53:17Z</time></trkpt><trkpt lat="45.200541677155904" lon="8.905156742299264"><ele>94.66666666666666</ele><time>2026-04-11T13:53:18Z</time></trkpt><trkpt lat="45.20062184199738" lon="8.90488853055953"><ele>94.0</ele><time>2026-04-11T13:53:19Z</time></trkpt><trkpt lat="45.20070356713573" lon="8.904615079433992"><ele>93.33333333333333</ele><time>2026-04-11T13:53:20Z</time></trkpt><trkpt lat="45.200784242147506" lon="8.904344220372952"><ele>92.66666666666667</ele><time>2026-04-11T13:53:21Z</time></trkpt><trkpt lat="45.200856565120034" lon="8.904101402522704"><ele>92.0</ele><time>2026-04-11T13:53:22Z</time></trkpt><trkpt lat="45.20092255839945" lon="8.903880518579705"><ele>92.0</ele><time>2026-04-11T13:53:23Z</time></trkpt><trkpt lat="45.200988198591666" lon="8.903660883979569"><ele>92.0</ele><time>2026-04-11T13:53:24Z</time></trkpt><trkpt lat="45.201060200221974" lon="8.903419963761023"><ele>92.0</ele><time>2026-04-11T13:53:25Z</time></trkpt><trkpt lat="45.201136913849474" lon="8.903163277019836"><ele>92.0</ele><time>2026-04-11T13:53:26Z</time></trkpt><trkpt lat="45.20121783490858" lon="8.902892512051597"><ele>92.0</ele><time>2026-04-11T13:53:27Z</time></trkpt><trkpt lat="45.20130155200538" lon="8.90261241587756"><ele>92.0</ele><time>2026-04-11T13:53:28Z</time></trkpt><trkpt lat="45.201374099507916" lon="8.902310913726843"><ele>92.5</ele><time>2026-04-11T13:53:29Z</time></trkpt><trkpt lat="45.20146459095621" lon="8.902009165545728"><ele>93.0</ele><time>2026-04-11T13:53:30Z</time></trkpt><trkpt lat="45.20156736370995" lon="8.901724061304678"><ele>93.66666666666667</ele><time>2026-04-11T13:53:31Z</time></trkpt><trkpt lat="45.2016468349526" lon="8.901458464873327"><ele>94.33333333333334</ele><time>2026-04-11T13:53:32Z</time></trkpt><trkpt lat="45.20171994298186" lon="8.901214134580771"><ele>95.0</ele><time>2026-04-11T13:53:33Z</time></trkpt><trkpt lat="45.20178754652596" lon="8.900988200521214"><ele>95.0</ele><time>2026-04-11T13:53:34Z</time></trkpt><trkpt lat="45.201852344619645" lon="8.900771642416009"><ele>95.0</ele><time>2026-04-11T13:53:35Z</time></trkpt><trkpt lat="45.201908746472625" lon="8.900583144903102"><ele>95.0</ele><time>2026-04-11T13:53:36Z</time></trkpt><trkpt lat="45.20196099721839" lon="8.900408520585255"><ele>95.0</ele><time>2026-04-11T13:53:37Z</time></trkpt><trkpt lat="45.20200890228711" lon="8.900248419707248"><ele>95.0</ele><time>2026-04-11T13:53:38Z</time></trkpt><trkpt lat="45.20205084802581" lon="8.90010823517564"><ele>95.0</ele><time>2026-04-11T13:53:39Z</time></trkpt><trkpt lat="45.20208849634896" lon="8.899982412817431"><ele>95.0</ele><time>2026-04-11T13:53:40Z</time></trkpt><trkpt lat="45.20212232301629" lon="8.899870207951002"><ele>95.0</ele><time>2026-04-11T13:53:41Z</time></trkpt><trkpt lat="45.2021377644386" lon="8.899763365310326"><ele>95.0</ele><time>2026-04-11T13:53:42Z</time></trkpt><trkpt lat="45.20216959498406" lon="8.899681768500143"><ele>95.0</ele><time>2026-04-11T13:53:43Z</time></trkpt><trkpt lat="45.20222790476966" lon="8.899544051866242"><ele>95.25</ele><time>2026-04-11T13:53:45Z</time></trkpt><trkpt lat="45.202296956332134" lon="8.899439262087157"><ele>95.5</ele><time>2026-04-11T13:53:47Z</time></trkpt><trkpt lat="45.2023406585598" lon="8.899353783739475"><ele>95.75</ele><time>2026-04-11T13:53:49Z</time></trkpt><trkpt lat="45.20238959300711" lon="8.899279763276558"><ele>96.0</ele><time>2026-04-11T13:53:52Z</time></trkpt><trkpt lat="45.20259365136699" lon="8.899382418422023"><ele>95.66666666666667</ele><time>2026-04-11T13:53:53Z</time></trkpt><trkpt lat="45.202680128401624" lon="8.899388744053638"><ele>95.33333333333333</ele><time>2026-04-11T13:53:55Z</time></trkpt><trkpt lat="45.202751722473366" lon="8.899375634298966"><ele>95.0</ele><time>2026-04-11T13:53:57Z</time></trkpt><trkpt lat="45.202839220039024" lon="8.899377200264926"><ele>94.66666666666666</ele><time>2026-04-11T13:54:11Z</time></trkpt><trkpt lat="45.20294924823847" lon="8.899386561860567"><ele>94.33333333333333</ele><time>2026-04-11T13:54:13Z</time></trkpt><trkpt lat="45.20301870403454" lon="8.899392725167992"><ele>94.0</ele><time>2026-04-11T13:54:14Z</time></trkpt><trkpt lat="45.20309162056289" lon="8.899396834702328"><ele>94.0</ele><time>2026-04-11T13:54:15Z</time></trkpt><trkpt lat="45.203160974163026" lon="8.899398977448994"><ele>94.0</ele><time>2026-04-11T13:54:16Z</time></trkpt><trkpt lat="45.203226354141925" lon="8.899395844258946"><ele>94.0</ele><time>2026-04-11T13:54:17Z</time></trkpt><trkpt lat="45.20329351444464" lon="8.899391711024002"><ele>94.0</ele><time>2026-04-11T13:54:18.001Z</time></trkpt><trkpt lat="45.20336982289136" lon="8.899388385617232"><ele>94.0</ele><time>2026-04-11T13:54:19.001Z</time></trkpt><trkpt lat="45.20344969627377" lon="8.899386026288296"><ele>94.0</ele><time>2026-04-11T13:54:20.001Z</time></trkpt><trkpt lat="45.203527682434135" lon="8.899384783038926"><ele>94.0</ele><time>2026-04-11T13:54:21.001Z</time></trkpt><trkpt lat="45.203604969221864" lon="8.899384150293724"><ele>94.0</ele><time>2026-04-11T13:54:22.001Z</time></trkpt><trkpt lat="45.2036862227666" lon="8.899383157090494"><ele>94.0</ele><time>2026-04-11T13:54:23.001Z</time></trkpt><trkpt lat="45.20376874674501" lon="8.899382293832819"><ele>94.0</ele><time>2026-04-11T13:54:24.001Z</time></trkpt><trkpt lat="45.20385190839113" lon="8.899384503298258"><ele>94.0</ele><time>2026-04-11T13:54:25.001Z</time></trkpt><trkpt lat="45.2039259614033" lon="8.899384717257897"><ele>94.0</ele><time>2026-04-11T13:54:26.001Z</time></trkpt><trkpt lat="45.203998409842896" lon="8.899385477182484"><ele>94.0</ele><time>2026-04-11T13:54:27.001Z</time></trkpt><trkpt lat="45.20406342686365" lon="8.899382290714673"><ele>94.6</ele><time>2026-04-11T13:54:28.001Z</time></trkpt><trkpt lat="45.20419625670693" lon="8.899383955946607"><ele>95.2</ele><time>2026-04-11T13:54:30.001Z</time></trkpt><trkpt lat="45.20426592558356" lon="8.899379391549973"><ele>95.8</ele><time>2026-04-11T13:54:31.001Z</time></trkpt><trkpt lat="45.20434941177184" lon="8.89938366518763"><ele>96.39999999999999</ele><time>2026-04-11T13:54:32.001Z</time></trkpt><trkpt lat="45.2044331559559" lon="8.899380485089747"><ele>97.0</ele><time>2026-04-11T13:54:33.001Z</time></trkpt><trkpt lat="45.204521349893376" lon="8.899379427127835"><ele>97.00000000000001</ele><time>2026-04-11T13:54:34.001Z</time></trkpt><trkpt lat="45.204605496826886" lon="8.899379232383986"><ele>97.0</ele><time>2026-04-11T13:54:35.001Z</time></trkpt><trkpt lat="45.2046840638019" lon="8.89937896486895"><ele>97.0</ele><time>2026-04-11T13:54:36.001Z</time></trkpt><trkpt lat="45.20475962337343" lon="8.899375352847892"><ele>97.0</ele><time>2026-04-11T13:54:37.001Z</time></trkpt><trkpt lat="45.204837492902115" lon="8.899373907670363"><ele>97.00000000000001</ele><time>2026-04-11T13:54:38.001Z</time></trkpt><trkpt lat="45.204920392702945" lon="8.89937148930199"><ele>97.0</ele><time>2026-04-11T13:54:39.001Z</time></trkpt><trkpt lat="45.20500100791382" lon="8.89936561994669"><ele>97.16666666666667</ele><time>2026-04-11T13:54:40.001Z</time></trkpt><trkpt lat="45.20506529711842" lon="8.89935985482662"><ele>97.33333333333334</ele><time>2026-04-11T13:54:41.001Z</time></trkpt><trkpt lat="45.20516952879132" lon="8.899354074072031"><ele>97.5</ele><time>2026-04-11T13:54:43.001Z</time></trkpt><trkpt lat="45.20526061259029" lon="8.899346540501394"><ele>97.66666666666666</ele><time>2026-04-11T13:54:45.001Z</time></trkpt><trkpt lat="45.20533396516914" lon="8.899379650224912"><ele>97.83333333333333</ele><time>2026-04-11T13:54:47.001Z</time></trkpt><trkpt lat="45.20539264371709" lon="8.899435599831447"><ele>98.0</ele><time>2026-04-11T13:54:49Z</time></trkpt><trkpt lat="45.205448006475876" lon="8.899527037932911"><ele>97.99999999999999</ele><time>2026-04-11T13:54:51Z</time></trkpt><trkpt lat="45.20549305837832" lon="8.89963628772905"><ele>98.0</ele><time>2026-04-11T13:54:53Z</time></trkpt><trkpt lat="45.20552064356194" lon="8.899748052326537"><ele>98.0</ele><time>2026-04-11T13:54:55Z</time></trkpt><trkpt lat="45.2055790483309" lon="8.899800822600731"><ele>98.0</ele><time>2026-04-11T13:54:57Z</time></trkpt><trkpt lat="45.20565299915591" lon="8.899818752028807"><ele>97.99999999999999</ele><time>2026-04-11T13:54:59Z</time></trkpt><trkpt lat="45.20575610100988" lon="8.899822538197972"><ele>98.0</ele><time>2026-04-11T13:55:01Z</time></trkpt><trkpt lat="45.20586611313575" lon="8.899857130038578"><ele>98.80000000000001</ele><time>2026-04-11T13:55:03Z</time></trkpt><trkpt lat="45.20592897012789" lon="8.899827013141532"><ele>99.6</ele><time>2026-04-11T13:55:04Z</time></trkpt><trkpt lat="45.206029085681415" lon="8.89981853590214"><ele>100.4</ele><time>2026-04-11T13:55:06Z</time></trkpt><trkpt lat="45.206144104335955" lon="8.899828675949811"><ele>101.19999999999999</ele><time>2026-04-11T13:55:08Z</time></trkpt><trkpt lat="45.20624831404525" lon="8.899824909076623"><ele>102.0</ele><time>2026-04-11T13:55:10Z</time></trkpt><trkpt lat="45.20636379188134" lon="8.899829203872079"><ele>102.0</ele><time>2026-04-11T13:55:12Z</time></trkpt><trkpt lat="45.20647728293097" lon="8.899826754160117"><ele>102.0</ele><time>2026-04-11T13:55:14Z</time></trkpt><trkpt lat="45.20658095421988" lon="8.89980593088051"><ele>102.0</ele><time>2026-04-11T13:55:16Z</time></trkpt><trkpt lat="45.20668021906728" lon="8.899782912521124"><ele>102.0</ele><time>2026-04-11T13:55:18Z</time></trkpt><trkpt lat="45.20675834421677" lon="8.899827439208142"><ele>102.0</ele><time>2026-04-11T13:55:20Z</time></trkpt><trkpt lat="45.20681359040553" lon="8.899902626827778"><ele>101.8</ele><time>2026-04-11T13:55:22Z</time></trkpt><trkpt lat="45.20688249221145" lon="8.899986854876891"><ele>101.6</ele><time>2026-04-11T13:55:24Z</time></trkpt><trkpt lat="45.20697752995096" lon="8.900013465386687"><ele>101.39999999999999</ele><time>2026-04-11T13:55:26Z</time></trkpt><trkpt lat="45.207097278034574" lon="8.900028504701611"><ele>101.19999999999999</ele><time>2026-04-11T13:55:28Z</time></trkpt><trkpt lat="45.20716138929901" lon="8.900018277552501"><ele>101.0</ele><time>2026-04-11T13:55:29Z</time></trkpt><trkpt lat="45.207263100961434" lon="8.900018440304251"><ele>100.8</ele><time>2026-04-11T13:55:31Z</time></trkpt><trkpt lat="45.20737823790405" lon="8.900014465946205"><ele>100.6</ele><time>2026-04-11T13:55:33Z</time></trkpt><trkpt lat="45.20748232116462" lon="8.900021197207428"><ele>100.4</ele><time>2026-04-11T13:55:35Z</time></trkpt><trkpt lat="45.20759042234397" lon="8.90002615717113"><ele>100.2</ele><time>2026-04-11T13:55:37Z</time></trkpt><trkpt lat="45.207704413091584" lon="8.9000226033634"><ele>100.0</ele><time>2026-04-11T13:55:39Z</time></trkpt><trkpt lat="45.20781451443475" lon="8.900034752602961"><ele>100.0</ele><time>2026-04-11T13:55:41Z</time></trkpt><trkpt lat="45.20793590211792" lon="8.900039368696556"><ele>100.0</ele><time>2026-04-11T13:55:43Z</time></trkpt><trkpt lat="45.20805709537331" lon="8.900034445269721"><ele>100.0</ele><time>2026-04-11T13:55:45Z</time></trkpt><trkpt lat="45.208165129454514" lon="8.900018399596227"><ele>100.0</ele><time>2026-04-11T13:55:47Z</time></trkpt><trkpt lat="45.20825318185055" lon="8.90002215279441"><ele>100.0</ele><time>2026-04-11T13:55:49Z</time></trkpt><trkpt lat="45.20831743001871" lon="8.900066381949873"><ele>99.66666666666667</ele><time>2026-04-11T13:55:52Z</time></trkpt><trkpt lat="45.208325420292205" lon="8.900176628326466"><ele>99.33333333333334</ele><time>2026-04-11T13:55:55Z</time></trkpt><trkpt lat="45.208291279946295" lon="8.900262457560249"><ele>99.0</ele><time>2026-04-11T13:55:57Z</time></trkpt><trkpt lat="45.20824008955175" lon="8.900384712962188"><ele>98.66666666666666</ele><time>2026-04-11T13:56:14Z</time></trkpt><trkpt lat="45.20820887992641" lon="8.900557084779205"><ele>98.33333333333333</ele><time>2026-04-11T13:56:16Z</time></trkpt><trkpt lat="45.20818972069095" lon="8.900658891240626"><ele>98.0</ele><time>2026-04-11T13:56:17Z</time></trkpt><trkpt lat="45.20817121662672" lon="8.900763689195456"><ele>97.49999999999999</ele><time>2026-04-11T13:56:18.001Z</time></trkpt><trkpt lat="45.208157575424096" lon="8.90087255798271"><ele>97.0</ele><time>2026-04-11T13:56:19.001Z</time></trkpt><trkpt lat="45.208147427468816" lon="8.900982155931166"><ele>96.5</ele><time>2026-04-11T13:56:20.001Z</time></trkpt><trkpt lat="45.208137165028425" lon="8.901086723245404"><ele>96.0</ele><time>2026-04-11T13:56:21.001Z</time></trkpt><trkpt lat="45.20812578926278" lon="8.901177185591385"><ele>95.5</ele><time>2026-04-11T13:56:22.001Z</time></trkpt><trkpt lat="45.20809805577967" lon="8.901337355991917"><ele>95.0</ele><time>2026-04-11T13:56:24.001Z</time></trkpt><trkpt lat="45.208066344770224" lon="8.901509040032257"><ele>95.0</ele><time>2026-04-11T13:56:26.001Z</time></trkpt><trkpt lat="45.20804161025544" lon="8.901660819011324"><ele>95.0</ele><time>2026-04-11T13:56:28.001Z</time></trkpt><trkpt lat="45.20801727819618" lon="8.901809071042608"><ele>95.0</ele><time>2026-04-11T13:56:30.001Z</time></trkpt><trkpt lat="45.20799072313041" lon="8.901961739808746"><ele>95.0</ele><time>2026-04-11T13:56:32.001Z</time></trkpt><trkpt lat="45.2079729935287" lon="8.902124162488057"><ele>95.0</ele><time>2026-04-11T13:56:34.001Z</time></trkpt><trkpt lat="45.20795232969487" lon="8.90229016504676"><ele>95.0</ele><time>2026-04-11T13:56:36.001Z</time></trkpt><trkpt lat="45.20793311072472" lon="8.902446892173185"><ele>95.0</ele><time>2026-04-11T13:56:38.001Z</time></trkpt><trkpt lat="45.20792624040285" lon="8.90261150122323"><ele>95.0</ele><time>2026-04-11T13:56:40.001Z</time></trkpt><trkpt lat="45.20792496596722" lon="8.90278068402239"><ele>95.0</ele><time>2026-04-11T13:56:42.001Z</time></trkpt><trkpt lat="45.20791717029346" lon="8.902952807749738"><ele>95.33333333333334</ele><time>2026-04-11T13:56:44.001Z</time></trkpt><trkpt lat="45.20791797602373" lon="8.903043142576685"><ele>95.66666666666667</ele><time>2026-04-11T13:56:45.001Z</time></trkpt><trkpt lat="45.20790476427078" lon="8.903221675695947"><ele>96.0</ele><time>2026-04-11T13:56:47.001Z</time></trkpt><trkpt lat="45.20789439997115" lon="8.903316157705971"><ele>96.33333333333334</ele><time>2026-04-11T13:56:48.001Z</time></trkpt><trkpt lat="45.2078816141781" lon="8.903405556185296"><ele>96.66666666666667</ele><time>2026-04-11T13:56:49.001Z</time></trkpt><trkpt lat="45.207856864354476" lon="8.903572546255702"><ele>97.0</ele><time>2026-04-11T13:56:51.001Z</time></trkpt><trkpt lat="45.207837038763735" lon="8.90366010369047"><ele>97.14285714285714</ele><time>2026-04-11T13:56:52.001Z</time></trkpt><trkpt lat="45.207817284868966" lon="8.903748180089458"><ele>97.28571428571429</ele><time>2026-04-11T13:56:53.001Z</time></trkpt><trkpt lat="45.20780075446108" lon="8.903838076511928"><ele>97.42857142857143</ele><time>2026-04-11T13:56:53.999Z</time></trkpt><trkpt lat="45.207785416857476" lon="8.903934360772409"><ele>97.57142857142857</ele><time>2026-04-11T13:56:54.999Z</time></trkpt><trkpt lat="45.207771837019145" lon="8.904035996444911"><ele>97.71428571428572</ele><time>2026-04-11T13:56:55.999Z</time></trkpt><trkpt lat="45.207761645887686" lon="8.904144171847078"><ele>97.85714285714286</ele><time>2026-04-11T13:56:56.999Z</time></trkpt><trkpt lat="45.20775433335315" lon="8.904250683778931"><ele>98.0</ele><time>2026-04-11T13:56:57.999Z</time></trkpt><trkpt lat="45.207745577750586" lon="8.90435333587112"><ele>97.99999999999999</ele><time>2026-04-11T13:56:58.999Z</time></trkpt><trkpt lat="45.20773829737407" lon="8.904470160807259"><ele>98.0</ele><time>2026-04-11T13:56:59.999Z</time></trkpt><trkpt lat="45.20772844839535" lon="8.904584433920824"><ele>98.0</ele><time>2026-04-11T13:57:00.999Z</time></trkpt><trkpt lat="45.207716999105855" lon="8.904710894410718"><ele>98.0</ele><time>2026-04-11T13:57:01.999Z</time></trkpt><trkpt lat="45.207705836842166" lon="8.904826651377535"><ele>97.99999999999999</ele><time>2026-04-11T13:57:02.999Z</time></trkpt><trkpt lat="45.2076945794423" lon="8.904938554941566"><ele>98.0</ele><time>2026-04-11T13:57:03.999Z</time></trkpt><trkpt lat="45.20768122213048" lon="8.90505449100597"><ele>97.57142857142857</ele><time>2026-04-11T13:57:04.999Z</time></trkpt><trkpt lat="45.20767178985673" lon="8.90516248410534"><ele>97.14285714285714</ele><time>2026-04-11T13:57:05.999Z</time></trkpt><trkpt lat="45.20765942527067" lon="8.905269331912708"><ele>96.71428571428572</ele><time>2026-04-11T13:57:06.999Z</time></trkpt><trkpt lat="45.20764359909268" lon="8.905376444409331"><ele>96.28571428571428</ele><time>2026-04-11T13:57:08Z</time></trkpt><trkpt lat="45.20762054688519" lon="8.905486697437382"><ele>95.85714285714286</ele><time>2026-04-11T13:57:09Z</time></trkpt><trkpt lat="45.207597935164685" lon="8.905585498478363"><ele>95.42857142857143</ele><time>2026-04-11T13:57:10Z</time></trkpt><trkpt lat="45.207575936981705" lon="8.90567245707932"><ele>95.0</ele><time>2026-04-11T13:57:11Z</time></trkpt><trkpt lat="45.20755008919435" lon="8.905765054291697"><ele>95.0</ele><time>2026-04-11T13:57:12Z</time></trkpt><trkpt lat="45.20752847683766" lon="8.90585357774531"><ele>95.0</ele><time>2026-04-11T13:57:13Z</time></trkpt><trkpt lat="45.20750180066998" lon="8.90595087184974"><ele>95.0</ele><time>2026-04-11T13:57:14Z</time></trkpt><trkpt lat="45.207475078585006" lon="8.906047615131671"><ele>95.0</ele><time>2026-04-11T13:57:15Z</time></trkpt><trkpt lat="45.20744982818181" lon="8.906132085728235"><ele>95.0</ele><time>2026-04-11T13:57:16Z</time></trkpt><trkpt lat="45.20739285603177" lon="8.906281892483833"><ele>95.0</ele><time>2026-04-11T13:57:18Z</time></trkpt><trkpt lat="45.20732083138845" lon="8.906419703110867"><ele>95.0</ele><time>2026-04-11T13:57:20Z</time></trkpt><trkpt lat="45.20727989538325" lon="8.906491620003578"><ele>95.0</ele><time>2026-04-11T13:57:21Z</time></trkpt><trkpt lat="45.207234592637434" lon="8.906569645229347"><ele>95.0</ele><time>2026-04-11T13:57:22Z</time></trkpt><trkpt lat="45.20719241115383" lon="8.906638631808214"><ele>95.0</ele><time>2026-04-11T13:57:23Z</time></trkpt><trkpt lat="45.207110072026175" lon="8.906775709445476"><ele>95.0</ele><time>2026-04-11T13:57:25Z</time></trkpt><trkpt lat="45.20706335432727" lon="8.906848370052009"><ele>95.0</ele><time>2026-04-11T13:57:26Z</time></trkpt><trkpt lat="45.207021395791415" lon="8.906917425656818"><ele>95.0</ele><time>2026-04-11T13:57:27Z</time></trkpt><trkpt lat="45.20697886194127" lon="8.906992456788164"><ele>95.0</ele><time>2026-04-11T13:57:28Z</time></trkpt><trkpt lat="45.20693652238101" lon="8.90707497262534"><ele>95.0</ele><time>2026-04-11T13:57:29Z</time></trkpt><trkpt lat="45.206891406965354" lon="8.907165957477163"><ele>95.0</ele><time>2026-04-11T13:57:30Z</time></trkpt><trkpt lat="45.20684534626819" lon="8.907265483548537"><ele>95.0</ele><time>2026-04-11T13:57:31Z</time></trkpt><trkpt lat="45.206809059556726" lon="8.907353207687512"><ele>95.0</ele><time>2026-04-11T13:57:32Z</time></trkpt><trkpt lat="45.20677597407404" lon="8.907436481299767"><ele>95.0</ele><time>2026-04-11T13:57:33Z</time></trkpt><trkpt lat="45.20672302241295" lon="8.907578321830353"><ele>94.83333333333334</ele><time>2026-04-11T13:57:35Z</time></trkpt><trkpt lat="45.20668309498482" lon="8.907695901833955"><ele>94.66666666666667</ele><time>2026-04-11T13:57:37Z</time></trkpt><trkpt lat="45.20664827823623" lon="8.907793957465326"><ele>94.5</ele><time>2026-04-11T13:57:39Z</time></trkpt><trkpt lat="45.20667352976301" lon="8.907893130785256"><ele>94.33333333333333</ele><time>2026-04-11T13:57:43Z</time></trkpt><trkpt lat="45.206769962913945" lon="8.907891844187095"><ele>94.16666666666666</ele><time>2026-04-11T13:57:47Z</time></trkpt><trkpt lat="45.206870115988515" lon="8.907857671562187"><ele>94.0</ele><time>2026-04-11T13:57:49Z</time></trkpt><trkpt lat="45.20699229579669" lon="8.907848810007495"><ele>94.0</ele><time>2026-04-11T13:57:51Z</time></trkpt><trkpt lat="45.20709447418912" lon="8.907845124192711"><ele>94.0</ele><time>2026-04-11T13:57:53Z</time></trkpt><trkpt lat="45.20719691081963" lon="8.9078329580856"><ele>94.0</ele><time>2026-04-11T13:57:55Z</time></trkpt><trkpt lat="45.20730239035343" lon="8.907813852204697"><ele>94.0</ele><time>2026-04-11T13:57:57Z</time></trkpt><trkpt lat="45.207410430152926" lon="8.907795337561476"><ele>94.0</ele><time>2026-04-11T13:57:59Z</time></trkpt><trkpt lat="45.20752806740951" lon="8.907763127840047"><ele>94.66666666666666</ele><time>2026-04-11T13:58:01Z</time></trkpt><trkpt lat="45.207646294534" lon="8.907703523101038"><ele>95.33333333333333</ele><time>2026-04-11T13:58:03Z</time></trkpt><trkpt lat="45.20772125278919" lon="8.907716271598526"><ele>96.0</ele><time>2026-04-11T13:58:04Z</time></trkpt><trkpt lat="45.20779007058764" lon="8.90768371351145"><ele>96.66666666666666</ele><time>2026-04-11T13:58:05Z</time></trkpt><trkpt lat="45.20786467374846" lon="8.907651861758644"><ele>97.33333333333333</ele><time>2026-04-11T13:58:06Z</time></trkpt><trkpt lat="45.20793776852659" lon="8.907620769394828"><ele>98.0</ele><time>2026-04-11T13:58:07Z</time></trkpt><trkpt lat="45.208011851359885" lon="8.907589256732827"><ele>98.16666666666666</ele><time>2026-04-11T13:58:08Z</time></trkpt><trkpt lat="45.20808653977716" lon="8.90755742196411"><ele>98.33333333333333</ele><time>2026-04-11T13:58:09Z</time></trkpt><trkpt lat="45.20816671734746" lon="8.907522044305514"><ele>98.5</ele><time>2026-04-11T13:58:10Z</time></trkpt><trkpt lat="45.20824530292322" lon="8.907487369097426"><ele>98.66666666666666</ele><time>2026-04-11T13:58:11Z</time></trkpt><trkpt lat="45.208316007297896" lon="8.907456171411605"><ele>98.83333333333333</ele><time>2026-04-11T13:58:12Z</time></trkpt><trkpt lat="45.20838854048962" lon="8.907424166791877"><ele>99.0</ele><time>2026-04-11T13:58:13Z</time></trkpt><trkpt lat="45.2084574959476" lon="8.907393740793607"><ele>99.0</ele><time>2026-04-11T13:58:14Z</time></trkpt><trkpt lat="45.208534646959095" lon="8.907359698568538"><ele>99.0</ele><time>2026-04-11T13:58:15Z</time></trkpt><trkpt lat="45.20860790030584" lon="8.907327376151525"><ele>99.0</ele><time>2026-04-11T13:58:16Z</time></trkpt><trkpt lat="45.2086863655313" lon="8.907293053534834"><ele>99.0</ele><time>2026-04-11T13:58:17Z</time></trkpt><trkpt lat="45.208757864387835" lon="8.90726301142586"><ele>99.0</ele><time>2026-04-11T13:58:18Z</time></trkpt><trkpt lat="45.20883041383996" lon="8.907234174103806"><ele>99.0</ele><time>2026-04-11T13:58:19Z</time></trkpt><trkpt lat="45.208905842723304" lon="8.907204681312216"><ele>99.0</ele><time>2026-04-11T13:58:20Z</time></trkpt><trkpt lat="45.20897427473708" lon="8.907179439938943"><ele>99.0</ele><time>2026-04-11T13:58:21Z</time></trkpt><trkpt lat="45.20908932947762" lon="8.907140657256138"><ele>99.0</ele><time>2026-04-11T13:58:23Z</time></trkpt><trkpt lat="45.20918674461135" lon="8.907127023397976"><ele>99.0</ele><time>2026-04-11T13:58:25Z</time></trkpt><trkpt lat="45.209298796108605" lon="8.907113370974773"><ele>99.0</ele><time>2026-04-11T13:58:27Z</time></trkpt><trkpt lat="45.20940355599794" lon="8.907100606950022"><ele>98.6</ele><time>2026-04-11T13:58:29Z</time></trkpt><trkpt lat="45.20951074785222" lon="8.906855238207818"><ele>98.2</ele><time>2026-04-11T13:58:31Z</time></trkpt><trkpt lat="45.209571490909035" lon="8.906804059019661"><ele>97.8</ele><time>2026-04-11T13:58:32Z</time></trkpt><trkpt lat="45.20963244902695" lon="8.906751648359537"><ele>97.39999999999999</ele><time>2026-04-11T13:58:33Z</time></trkpt><trkpt lat="45.20969545242792" lon="8.906698084698876"><ele>97.0</ele><time>2026-04-11T13:58:34Z</time></trkpt><trkpt lat="45.20975869955108" lon="8.90664091470774"><ele>97.00000000000001</ele><time>2026-04-11T13:58:35Z</time></trkpt><trkpt lat="45.209821791226176" lon="8.906584340323167"><ele>97.0</ele><time>2026-04-11T13:58:36Z</time></trkpt><trkpt lat="45.20988442744068" lon="8.906525334784401"><ele>97.0</ele><time>2026-04-11T13:58:37Z</time></trkpt><trkpt lat="45.20995658578761" lon="8.906464255105057"><ele>97.0</ele><time>2026-04-11T13:58:38Z</time></trkpt><trkpt lat="45.21003263299691" lon="8.90640277042921"><ele>97.00000000000001</ele><time>2026-04-11T13:58:39.001Z</time></trkpt><trkpt lat="45.21010252534459" lon="8.906340689586825"><ele>97.0</ele><time>2026-04-11T13:58:40.001Z</time></trkpt><trkpt lat="45.21016984448756" lon="8.906281334730943"><ele>97.14285714285714</ele><time>2026-04-11T13:58:41.001Z</time></trkpt><trkpt lat="45.21023249497149" lon="8.906222645616927"><ele>97.28571428571429</ele><time>2026-04-11T13:58:42.001Z</time></trkpt><trkpt lat="45.210286972838446" lon="8.90617493137068"><ele>97.42857142857143</ele><time>2026-04-11T13:58:43.001Z</time></trkpt><trkpt lat="45.21034682139911" lon="8.906124652635436"><ele>97.57142857142857</ele><time>2026-04-11T13:58:44.001Z</time></trkpt><trkpt lat="45.21041426605837" lon="8.90607850526136"><ele>97.71428571428572</ele><time>2026-04-11T13:58:45.001Z</time></trkpt><trkpt lat="45.210492108133266" lon="8.90602913511196"><ele>97.85714285714286</ele><time>2026-04-11T13:58:46.001Z</time></trkpt><trkpt lat="45.2105544121378" lon="8.905983614422235"><ele>98.0</ele><time>2026-04-11T13:58:47.001Z</time></trkpt><trkpt lat="45.210665527856904" lon="8.90589806526328"><ele>97.99999999999999</ele><time>2026-04-11T13:58:49.001Z</time></trkpt><trkpt lat="45.21072310345807" lon="8.905855494899235"><ele>98.0</ele><time>2026-04-11T13:58:50.001Z</time></trkpt><trkpt lat="45.210833781164425" lon="8.905780417887188"><ele>98.0</ele><time>2026-04-11T13:58:52.001Z</time></trkpt><trkpt lat="45.210891548244426" lon="8.905739756393283"><ele>98.0</ele><time>2026-04-11T13:58:53.001Z</time></trkpt><trkpt lat="45.21094811801174" lon="8.905695094929065"><ele>97.99999999999999</ele><time>2026-04-11T13:58:54.001Z</time></trkpt><trkpt lat="45.21100866349968" lon="8.905652264251392"><ele>98.0</ele><time>2026-04-11T13:58:55.001Z</time></trkpt><trkpt lat="45.21106967295285" lon="8.905611906620361"><ele>97.99999999999999</ele><time>2026-04-11T13:58:56.001Z</time></trkpt><trkpt lat="45.21112552742021" lon="8.905569051311485"><ele>98.0</ele><time>2026-04-11T13:58:57.001Z</time></trkpt><trkpt lat="45.21123216590756" lon="8.905489321193063"><ele>98.0</ele><time>2026-04-11T13:58:59.001Z</time></trkpt><trkpt lat="45.21129236616823" lon="8.905449862389274"><ele>98.0</ele><time>2026-04-11T13:58:59.999Z</time></trkpt><trkpt lat="45.211350835161056" lon="8.90541217543605"><ele>97.99999999999999</ele><time>2026-04-11T13:59:00.999Z</time></trkpt><trkpt lat="45.211461201783294" lon="8.905332269096151"><ele>98.0</ele><time>2026-04-11T13:59:02.999Z</time></trkpt><trkpt lat="45.211566931893294" lon="8.905251233456966"><ele>97.49999999999999</ele><time>2026-04-11T13:59:04.999Z</time></trkpt><trkpt lat="45.2116809067678" lon="8.9051707226034"><ele>97.0</ele><time>2026-04-11T13:59:06.999Z</time></trkpt><trkpt lat="45.211744599593445" lon="8.905122994721548"><ele>96.5</ele><time>2026-04-11T13:59:07.999Z</time></trkpt><trkpt lat="45.211810588861404" lon="8.90507640064547"><ele>96.0</ele><time>2026-04-11T13:59:08.999Z</time></trkpt><trkpt lat="45.21187883875476" lon="8.905032640501815"><ele>95.5</ele><time>2026-04-11T13:59:09.999Z</time></trkpt><trkpt lat="45.21194298136299" lon="8.904990383051226"><ele>95.0</ele><time>2026-04-11T13:59:10.999Z</time></trkpt><trkpt lat="45.21201377559512" lon="8.904942974656054"><ele>94.83333333333334</ele><time>2026-04-11T13:59:11.999Z</time></trkpt><trkpt lat="45.21208337285449" lon="8.904896319375972"><ele>94.66666666666667</ele><time>2026-04-11T13:59:12.999Z</time></trkpt><trkpt lat="45.212161533311075" lon="8.904842951889856"><ele>94.5</ele><time>2026-04-11T13:59:13.999Z</time></trkpt><trkpt lat="45.21223924208041" lon="8.904795159820575"><ele>94.33333333333333</ele><time>2026-04-11T13:59:14.999Z</time></trkpt><trkpt lat="45.21230425526617" lon="8.90475324106565"><ele>94.16666666666666</ele><time>2026-04-11T13:59:15.999Z</time></trkpt><trkpt lat="45.212363540806834" lon="8.904711429337002"><ele>94.0</ele><time>2026-04-11T13:59:16.999Z</time></trkpt><trkpt lat="45.21246825691643" lon="8.904635054556442"><ele>94.4</ele><time>2026-04-11T13:59:19Z</time></trkpt><trkpt lat="45.21255613802192" lon="8.904556652979538"><ele>94.80000000000001</ele><time>2026-04-11T13:59:21Z</time></trkpt><trkpt lat="45.212604865851766" lon="8.90444755776781"><ele>95.19999999999999</ele><time>2026-04-11T13:59:23Z</time></trkpt><trkpt lat="45.21258824200802" lon="8.904286529530202"><ele>95.6</ele><time>2026-04-11T13:59:25Z</time></trkpt><trkpt lat="45.212570192236626" lon="8.904102582227793"><ele>96.0</ele><time>2026-04-11T13:59:27Z</time></trkpt><trkpt lat="45.212561191297205" lon="8.903997282495503"><ele>96.0</ele><time>2026-04-11T13:59:28Z</time></trkpt><trkpt lat="45.212553797177875" lon="8.903885858910117"><ele>96.0</ele><time>2026-04-11T13:59:29Z</time></trkpt><trkpt lat="45.21254764439647" lon="8.903770910075593"><ele>96.0</ele><time>2026-04-11T13:59:30Z</time></trkpt><trkpt lat="45.21253708318431" lon="8.90364359325511"><ele>96.0</ele><time>2026-04-11T13:59:31Z</time></trkpt><trkpt lat="45.2125314357838" lon="8.903517329396688"><ele>96.0</ele><time>2026-04-11T13:59:32Z</time></trkpt><trkpt lat="45.21252476888308" lon="8.903401083105226"><ele>96.0</ele><time>2026-04-11T13:59:33Z</time></trkpt><trkpt lat="45.21251496120869" lon="8.903281831309886"><ele>96.14285714285714</ele><time>2026-04-11T13:59:34Z</time></trkpt><trkpt lat="45.21250653039745" lon="8.903182773438193"><ele>96.28571428571428</ele><time>2026-04-11T13:59:35Z</time></trkpt><trkpt lat="45.21249817184187" lon="8.9030856716933"><ele>96.42857142857142</ele><time>2026-04-11T13:59:36Z</time></trkpt><trkpt lat="45.212492944686694" lon="8.90298785842991"><ele>96.57142857142857</ele><time>2026-04-11T13:59:37Z</time></trkpt><trkpt lat="45.21248583356293" lon="8.902891979429649"><ele>96.71428571428572</ele><time>2026-04-11T13:59:38Z</time></trkpt><trkpt lat="45.212480525143725" lon="8.902800475189673"><ele>96.85714285714285</ele><time>2026-04-11T13:59:39Z</time></trkpt><trkpt lat="45.21247642523905" lon="8.902703420119467"><ele>97.0</ele><time>2026-04-11T13:59:40Z</time></trkpt><trkpt lat="45.212482230227025" lon="8.902546047008464"><ele>96.66666666666667</ele><time>2026-04-11T13:59:42Z</time></trkpt><trkpt lat="45.212494615064976" lon="8.902389488873853"><ele>96.33333333333334</ele><time>2026-04-11T13:59:44Z</time></trkpt><trkpt lat="45.21249882725985" lon="8.902297824622627"><ele>96.0</ele><time>2026-04-11T13:59:45Z</time></trkpt><trkpt lat="45.212501447322964" lon="8.90219106469427"><ele>95.66666666666667</ele><time>2026-04-11T13:59:46Z</time></trkpt><trkpt lat="45.212499778694266" lon="8.902069601428204"><ele>95.33333333333334</ele><time>2026-04-11T13:59:47Z</time></trkpt><trkpt lat="45.21249627243778" lon="8.901949638879978"><ele>95.0</ele><time>2026-04-11T13:59:48Z</time></trkpt><trkpt lat="45.21248971227298" lon="8.90182202916458"><ele>95.0</ele><time>2026-04-11T13:59:49Z</time></trkpt><trkpt lat="45.21247536139913" lon="8.90169516668136"><ele>95.0</ele><time>2026-04-11T13:59:50Z</time></trkpt><trkpt lat="45.21245722258256" lon="8.901563661996187"><ele>95.0</ele><time>2026-04-11T13:59:51Z</time></trkpt><trkpt lat="45.21243744535648" lon="8.90142675731766"><ele>95.0</ele><time>2026-04-11T13:59:52Z</time></trkpt><trkpt lat="45.212419393931114" lon="8.901302597686268"><ele>95.0</ele><time>2026-04-11T13:59:53Z</time></trkpt><trkpt lat="45.212402199770125" lon="8.901180412919254"><ele>95.0</ele><time>2026-04-11T13:59:54Z</time></trkpt><trkpt lat="45.21238315902271" lon="8.901054470329004"><ele>95.0</ele><time>2026-04-11T13:59:55Z</time></trkpt><trkpt lat="45.21236332470193" lon="8.900934338364356"><ele>95.0</ele><time>2026-04-11T13:59:56Z</time></trkpt><trkpt lat="45.21234422597647" lon="8.900807192050921"><ele>95.0</ele><time>2026-04-11T13:59:57Z</time></trkpt><trkpt lat="45.212326943207934" lon="8.900688264417598"><ele>95.0</ele><time>2026-04-11T13:59:58Z</time></trkpt><trkpt lat="45.21231068836328" lon="8.90057586132928"><ele>95.0</ele><time>2026-04-11T13:59:59Z</time></trkpt><trkpt lat="45.21229372692257" lon="8.900456818840182"><ele>95.5</ele><time>2026-04-11T14:00:00Z</time></trkpt><trkpt lat="45.21227970350458" lon="8.900342432021183"><ele>96.0</ele><time>2026-04-11T14:00:01Z</time></trkpt><trkpt lat="45.21226760933561" lon="8.900218047749203"><ele>96.5</ele><time>2026-04-11T14:00:02Z</time></trkpt><trkpt lat="45.21225962022691" lon="8.90009206418638"><ele>97.0</ele><time>2026-04-11T14:00:03Z</time></trkpt><trkpt lat="45.212251593671304" lon="8.899970582316351"><ele>97.49999999999999</ele><time>2026-04-11T14:00:04Z</time></trkpt><trkpt lat="45.21224459895034" lon="8.899879821746318"><ele>98.0</ele><time>2026-04-11T14:00:05Z</time></trkpt><trkpt lat="45.212239812267356" lon="8.899789441114416"><ele>98.49999999999999</ele><time>2026-04-11T14:00:06Z</time></trkpt><trkpt lat="45.212235801083466" lon="8.899694675272778"><ele>99.0</ele><time>2026-04-11T14:00:07Z</time></trkpt><trkpt lat="45.212228884994545" lon="8.899594830238154"><ele>99.5</ele><time>2026-04-11T14:00:08Z</time></trkpt><trkpt lat="45.2122229181335" lon="8.89948953726304"><ele>100.0</ele><time>2026-04-11T14:00:09Z</time></trkpt><trkpt lat="45.21221766008131" lon="8.899391115648823"><ele>100.49999999999999</ele><time>2026-04-11T14:00:10Z</time></trkpt><trkpt lat="45.212200376813286" lon="8.899258573682992"><ele>101.0</ele><time>2026-04-11T14:00:12Z</time></trkpt><trkpt lat="45.21219422771525" lon="8.899145211524838"><ele>100.99999999999999</ele><time>2026-04-11T14:00:14Z</time></trkpt><trkpt lat="45.21226005560635" lon="8.899093717526062"><ele>101.0</ele><time>2026-04-11T14:00:17Z</time></trkpt><trkpt lat="45.21233398738743" lon="8.899092115928191"><ele>101.0</ele><time>2026-04-11T14:00:20.001Z</time></trkpt><trkpt lat="45.21241564850525" lon="8.899075267745696"><ele>101.0</ele><time>2026-04-11T14:00:23.001Z</time></trkpt><trkpt lat="45.21250322885343" lon="8.899058213880185"><ele>100.99999999999999</ele><time>2026-04-11T14:00:25.001Z</time></trkpt><trkpt lat="45.21259570551258" lon="8.899039855612513"><ele>101.0</ele><time>2026-04-11T14:00:27.001Z</time></trkpt><trkpt lat="45.21268016706438" lon="8.899020682939994"><ele>100.4</ele><time>2026-04-11T14:00:29.001Z</time></trkpt><trkpt lat="45.21277200330332" lon="8.899003617222702"><ele>99.8</ele><time>2026-04-11T14:00:31.001Z</time></trkpt><trkpt lat="45.212867489748945" lon="8.89898386756402"><ele>99.2</ele><time>2026-04-11T14:00:33.001Z</time></trkpt><trkpt lat="45.21296562658036" lon="8.89897606730524"><ele>98.60000000000001</ele><time>2026-04-11T14:00:35.001Z</time></trkpt><trkpt lat="45.213060167486745" lon="8.89896074759363"><ele>98.0</ele><time>2026-04-11T14:00:37.001Z</time></trkpt><trkpt lat="45.21316636167574" lon="8.898948328934953"><ele>97.4</ele><time>2026-04-11T14:00:39.001Z</time></trkpt><trkpt lat="45.21327342879215" lon="8.898921343637726"><ele>96.80000000000001</ele><time>2026-04-11T14:00:41.001Z</time></trkpt><trkpt lat="45.21337681064674" lon="8.89889860500929"><ele>96.2</ele><time>2026-04-11T14:00:43.001Z</time></trkpt><trkpt lat="45.21348394671922" lon="8.898873256196211"><ele>95.6</ele><time>2026-04-11T14:00:45.001Z</time></trkpt><trkpt lat="45.21359051635694" lon="8.89885153029669"><ele>95.0</ele><time>2026-04-11T14:00:47.001Z</time></trkpt><trkpt lat="45.21368544618565" lon="8.89883449331311"><ele>95.0</ele><time>2026-04-11T14:00:49.001Z</time></trkpt><trkpt lat="45.21378907319449" lon="8.898821455077332"><ele>95.0</ele><time>2026-04-11T14:00:51.001Z</time></trkpt><trkpt lat="45.213877400318935" lon="8.898799001379071"><ele>95.0</ele><time>2026-04-11T14:00:53.001Z</time></trkpt><trkpt lat="45.21396818993705" lon="8.898781096344107"><ele>95.0</ele><time>2026-04-11T14:00:55.001Z</time></trkpt><trkpt lat="45.2140507450613" lon="8.898764533666922"><ele>95.0</ele><time>2026-04-11T14:00:57.001Z</time></trkpt><trkpt lat="45.214139275225314" lon="8.89874778089074"><ele>95.0</ele><time>2026-04-11T14:00:59.001Z</time></trkpt><trkpt lat="45.214233187212066" lon="8.898724897981463"><ele>95.0</ele><time>2026-04-11T14:01:01.001Z</time></trkpt><trkpt lat="45.21433010196723" lon="8.898702002614815"><ele>95.0</ele><time>2026-04-11T14:01:03.001Z</time></trkpt><trkpt lat="45.21441829655398" lon="8.898685747820648"><ele>95.0</ele><time>2026-04-11T14:01:05.001Z</time></trkpt><trkpt lat="45.21450491038876" lon="8.89866412169235"><ele>95.0</ele><time>2026-04-11T14:01:06.999Z</time></trkpt><trkpt lat="45.21457815202404" lon="8.898640163176596"><ele>95.0</ele><time>2026-04-11T14:01:08.999Z</time></trkpt><trkpt lat="45.214638173036185" lon="8.898598843308328"><ele>95.0</ele><time>2026-04-11T14:01:10.999Z</time></trkpt><trkpt lat="45.21471570095672" lon="8.898529812774614"><ele>95.0</ele><time>2026-04-11T14:01:14Z</time></trkpt><trkpt lat="45.214782908839666" lon="8.89855778982891"><ele>95.0</ele><time>2026-04-11T14:01:16Z</time></trkpt><trkpt lat="45.2148530127932" lon="8.89859161599412"><ele>95.0</ele><time>2026-04-11T14:01:18Z</time></trkpt><trkpt lat="45.214926779824395" lon="8.898571700561561"><ele>95.0</ele><time>2026-04-11T14:01:20Z</time></trkpt><trkpt lat="45.21499616475929" lon="8.898540617409084"><ele>95.0</ele><time>2026-04-11T14:01:22Z</time></trkpt><trkpt lat="45.21505630800383" lon="8.898587495132631"><ele>95.0</ele><time>2026-04-11T14:01:24Z</time></trkpt><trkpt lat="45.2150809457018" lon="8.898683113284092"><ele>95.0</ele><time>2026-04-11T14:01:26Z</time></trkpt><trkpt lat="45.215090222505225" lon="8.898836854338875"><ele>95.0</ele><time>2026-04-11T14:01:28Z</time></trkpt><trkpt lat="45.215089997296396" lon="8.898994790285439"><ele>95.0</ele><time>2026-04-11T14:01:30Z</time></trkpt><trkpt lat="45.2150987060885" lon="8.899156966917445"><ele>95.0</ele><time>2026-04-11T14:01:32Z</time></trkpt><trkpt lat="45.21510634106674" lon="8.899324928721628"><ele>95.0</ele><time>2026-04-11T14:01:34Z</time></trkpt><trkpt lat="45.21511212321211" lon="8.899494547282705"><ele>95.0</ele><time>2026-04-11T14:01:36Z</time></trkpt><trkpt lat="45.215115312197234" lon="8.899667800133173"><ele>95.0</ele><time>2026-04-11T14:01:38Z</time></trkpt><trkpt lat="45.21511811184384" lon="8.89975830706769"><ele>95.0</ele><time>2026-04-11T14:01:39Z</time></trkpt><trkpt lat="45.21512059973731" lon="8.899850211436766"><ele>95.0</ele><time>2026-04-11T14:01:40Z</time></trkpt><trkpt lat="45.21512610998364" lon="8.899945329800445"><ele>95.0</ele><time>2026-04-11T14:01:41Z</time></trkpt><trkpt lat="45.21513028602411" lon="8.900047337978226"><ele>95.14285714285714</ele><time>2026-04-11T14:01:42Z</time></trkpt><trkpt lat="45.21513232272406" lon="8.90014925300858"><ele>95.28571428571429</ele><time>2026-04-11T14:01:43Z</time></trkpt><trkpt lat="45.21513424497936" lon="8.900253524615465"><ele>95.42857142857142</ele><time>2026-04-11T14:01:44Z</time></trkpt><trkpt lat="45.21513632775475" lon="8.900364919413288"><ele>95.57142857142857</ele><time>2026-04-11T14:01:45Z</time></trkpt><trkpt lat="45.215136515194594" lon="8.900480619457987"><ele>95.71428571428571</ele><time>2026-04-11T14:01:46Z</time></trkpt><trkpt lat="45.21514027286223" lon="8.900581927535699"><ele>95.85714285714285</ele><time>2026-04-11T14:01:47Z</time></trkpt><trkpt lat="45.215146353787226" lon="8.90067931009249"><ele>96.0</ele><time>2026-04-11T14:01:48Z</time></trkpt><trkpt lat="45.21514937443895" lon="8.900770026985576"><ele>96.0</ele><time>2026-04-11T14:01:49Z</time></trkpt><trkpt lat="45.215153956583315" lon="8.900865156826022"><ele>96.0</ele><time>2026-04-11T14:01:50Z</time></trkpt><trkpt lat="45.215154798181054" lon="8.90097733017218"><ele>96.0</ele><time>2026-04-11T14:01:51Z</time></trkpt><trkpt lat="45.21515990774528" lon="8.90109156234404"><ele>96.0</ele><time>2026-04-11T14:01:52Z</time></trkpt><trkpt lat="45.215168621472" lon="8.90120936453783"><ele>96.0</ele><time>2026-04-11T14:01:53Z</time></trkpt><trkpt lat="45.215175707888825" lon="8.901322834144766"><ele>96.0</ele><time>2026-04-11T14:01:54Z</time></trkpt><trkpt lat="45.21518087109601" lon="8.901435363106977"><ele>96.0</ele><time>2026-04-11T14:01:55Z</time></trkpt><trkpt lat="45.215186219644075" lon="8.901547557725157"><ele>96.0</ele><time>2026-04-11T14:01:56Z</time></trkpt><trkpt lat="45.21518774487653" lon="8.90166951501203"><ele>96.0</ele><time>2026-04-11T14:01:57Z</time></trkpt><trkpt lat="45.21518944285808" lon="8.901789877888733"><ele>96.0</ele><time>2026-04-11T14:01:58Z</time></trkpt><trkpt lat="45.21519180432793" lon="8.90190888857769"><ele>96.0</ele><time>2026-04-11T14:01:59Z</time></trkpt><trkpt lat="45.21519625221411" lon="8.90202817180368"><ele>96.0</ele><time>2026-04-11T14:02:00Z</time></trkpt><trkpt lat="45.215202576263074" lon="8.9021436907506"><ele>96.0</ele><time>2026-04-11T14:02:01Z</time></trkpt><trkpt lat="45.215209177426395" lon="8.90226344386637"><ele>96.0</ele><time>2026-04-11T14:02:02Z</time></trkpt><trkpt lat="45.2152143544319" lon="8.902389442402503"><ele>96.0</ele><time>2026-04-11T14:02:03Z</time></trkpt><trkpt lat="45.215213674977974" lon="8.902514912103896"><ele>96.0</ele><time>2026-04-11T14:02:04Z</time></trkpt><trkpt lat="45.2152159155615" lon="8.902643093122526"><ele>96.0</ele><time>2026-04-11T14:02:05Z</time></trkpt><trkpt lat="45.215219853382784" lon="8.902772381147793"><ele>96.0</ele><time>2026-04-11T14:02:06Z</time></trkpt><trkpt lat="45.21522256058036" lon="8.902903873231262"><ele>95.8</ele><time>2026-04-11T14:02:07Z</time></trkpt><trkpt lat="45.215226861448656" lon="8.903028407524419"><ele>95.6</ele><time>2026-04-11T14:02:08Z</time></trkpt><trkpt lat="45.21522990483526" lon="8.9031676790596"><ele>95.4</ele><time>2026-04-11T14:02:09Z</time></trkpt><trkpt lat="45.21523423713739" lon="8.903297245875091"><ele>95.2</ele><time>2026-04-11T14:02:10Z</time></trkpt><trkpt lat="45.215239073475466" lon="8.903434187639473"><ele>95.0</ele><time>2026-04-11T14:02:11Z</time></trkpt><trkpt lat="45.215243465009145" lon="8.903562672515143"><ele>95.0</ele><time>2026-04-11T14:02:12Z</time></trkpt><trkpt lat="45.215247818011285" lon="8.903672721403838"><ele>95.0</ele><time>2026-04-11T14:02:13.001Z</time></trkpt><trkpt lat="45.215251168267955" lon="8.903773736619456"><ele>95.0</ele><time>2026-04-11T14:02:14.001Z</time></trkpt><trkpt lat="45.21525421635341" lon="8.903885929491619"><ele>95.0</ele><time>2026-04-11T14:02:15.001Z</time></trkpt><trkpt lat="45.21525841030069" lon="8.90400476655724"><ele>95.0</ele><time>2026-04-11T14:02:16.001Z</time></trkpt><trkpt lat="45.215261435745504" lon="8.904121905757098"><ele>95.0</ele><time>2026-04-11T14:02:17.001Z</time></trkpt><trkpt lat="45.215266253443986" lon="8.904243036095957"><ele>95.0</ele><time>2026-04-11T14:02:18.001Z</time></trkpt><trkpt lat="45.215272265167656" lon="8.904351725939117"><ele>95.0</ele><time>2026-04-11T14:02:19.001Z</time></trkpt><trkpt lat="45.21527465935795" lon="8.904441626194291"><ele>95.0</ele><time>2026-04-11T14:02:20.001Z</time></trkpt><trkpt lat="45.21528303398977" lon="8.9046202446909"><ele>95.0</ele><time>2026-04-11T14:02:22.001Z</time></trkpt><trkpt lat="45.21528862908045" lon="8.90473461462479"><ele>95.0</ele><time>2026-04-11T14:02:23.001Z</time></trkpt><trkpt lat="45.215292966408505" lon="8.904844910373669"><ele>95.0</ele><time>2026-04-11T14:02:24.001Z</time></trkpt><trkpt lat="45.21529570506401" lon="8.904964018425922"><ele>95.4</ele><time>2026-04-11T14:02:25.001Z</time></trkpt><trkpt lat="45.21530053866479" lon="8.905095413310088"><ele>95.8</ele><time>2026-04-11T14:02:26.001Z</time></trkpt><trkpt lat="45.21530739834115" lon="8.905217077327249"><ele>96.19999999999999</ele><time>2026-04-11T14:02:27.001Z</time></trkpt><trkpt lat="45.21531456135412" lon="8.905346909546324"><ele>96.6</ele><time>2026-04-11T14:02:28.001Z</time></trkpt><trkpt lat="45.21531913314014" lon="8.90547674055318"><ele>97.0</ele><time>2026-04-11T14:02:29.001Z</time></trkpt><trkpt lat="45.21532418213626" lon="8.905614446884695"><ele>97.0</ele><time>2026-04-11T14:02:30.001Z</time></trkpt><trkpt lat="45.21533351327404" lon="8.905740402065794"><ele>97.0</ele><time>2026-04-11T14:02:31.001Z</time></trkpt><trkpt lat="45.215339109029465" lon="8.905872257061267"><ele>97.0</ele><time>2026-04-11T14:02:32.001Z</time></trkpt><trkpt lat="45.21534782904665" lon="8.906001786058837"><ele>97.0</ele><time>2026-04-11T14:02:33.001Z</time></trkpt><trkpt lat="45.215352649864116" lon="8.90614351768888"><ele>97.0</ele><time>2026-04-11T14:02:34.001Z</time></trkpt><trkpt lat="45.215357644350995" lon="8.90629124140506"><ele>97.19999999999999</ele><time>2026-04-11T14:02:35.001Z</time></trkpt><trkpt lat="45.215362121727885" lon="8.906425135458559"><ele>97.4</ele><time>2026-04-11T14:02:36.001Z</time></trkpt><trkpt lat="45.21536585086084" lon="8.90653993670039"><ele>97.6</ele><time>2026-04-11T14:02:37.001Z</time></trkpt><trkpt lat="45.215372947727715" lon="8.906668793280678"><ele>97.80000000000001</ele><time>2026-04-11T14:02:38.001Z</time></trkpt><trkpt lat="45.215376866513935" lon="8.906810407250113"><ele>98.0</ele><time>2026-04-11T14:02:39.001Z</time></trkpt><trkpt lat="45.2153818582265" lon="8.906951671634587"><ele>97.4</ele><time>2026-04-11T14:02:40.001Z</time></trkpt><trkpt lat="45.21538753217069" lon="8.907092191431756"><ele>96.80000000000001</ele><time>2026-04-11T14:02:41.001Z</time></trkpt><trkpt lat="45.21539314231164" lon="8.907229419398952"><ele>96.2</ele><time>2026-04-11T14:02:42.001Z</time></trkpt><trkpt lat="45.2153988783042" lon="8.907356120541522"><ele>95.6</ele><time>2026-04-11T14:02:43.001Z</time></trkpt><trkpt lat="45.215405134899136" lon="8.90749419964573"><ele>95.0</ele><time>2026-04-11T14:02:44.001Z</time></trkpt><trkpt lat="45.21540622126484" lon="8.907644633475027"><ele>94.6</ele><time>2026-04-11T14:02:45.001Z</time></trkpt><trkpt lat="45.21540777113659" lon="8.90778617778431"><ele>94.2</ele><time>2026-04-11T14:02:46.001Z</time></trkpt><trkpt lat="45.215412312569484" lon="8.907932619754925"><ele>93.80000000000001</ele><time>2026-04-11T14:02:47.001Z</time></trkpt><trkpt lat="45.21541611284584" lon="8.908074292329832"><ele>93.4</ele><time>2026-04-11T14:02:48.001Z</time></trkpt><trkpt lat="45.21541741717666" lon="8.908193170540319"><ele>93.0</ele><time>2026-04-11T14:02:49.001Z</time></trkpt><trkpt lat="45.21541432110938" lon="8.90830438816611"><ele>93.2</ele><time>2026-04-11T14:02:50.001Z</time></trkpt><trkpt lat="45.215413709824894" lon="8.908434182902909"><ele>93.4</ele><time>2026-04-11T14:02:51.001Z</time></trkpt><trkpt lat="45.215420305848305" lon="8.908577510778931"><ele>93.60000000000001</ele><time>2026-04-11T14:02:52.001Z</time></trkpt><trkpt lat="45.21543338140711" lon="8.90873441708187"><ele>93.80000000000001</ele><time>2026-04-11T14:02:53.001Z</time></trkpt><trkpt lat="45.21543788825025" lon="8.908928218822254"><ele>94.0</ele><time>2026-04-11T14:02:54.001Z</time></trkpt><trkpt lat="45.2154464506257" lon="8.909187719646967"><ele>94.5</ele><time>2026-04-11T14:02:55.001Z</time></trkpt><trkpt lat="45.215450196498146" lon="8.909416674838457"><ele>95.0</ele><time>2026-04-11T14:02:56.001Z</time></trkpt><trkpt lat="45.21545209229356" lon="8.909611084420384"><ele>95.5</ele><time>2026-04-11T14:02:57.001Z</time></trkpt><trkpt lat="45.215454867398854" lon="8.909777592035722"><ele>96.0</ele><time>2026-04-11T14:02:58.001Z</time></trkpt><trkpt lat="45.21545759658408" lon="8.909934310316604"><ele>95.8</ele><time>2026-04-11T14:02:59.001Z</time></trkpt><trkpt lat="45.215463378814086" lon="8.910089016556665"><ele>95.6</ele><time>2026-04-11T14:03:00.001Z</time></trkpt><trkpt lat="45.21546625050218" lon="8.910227628107648"><ele>95.4</ele><time>2026-04-11T14:03:01.001Z</time></trkpt><trkpt lat="45.21546570658182" lon="8.910349834598618"><ele>95.2</ele><time>2026-04-11T14:03:02.001Z</time></trkpt><trkpt lat="45.21546872919637" lon="8.91047761920942"><ele>95.0</ele><time>2026-04-11T14:03:03.001Z</time></trkpt><trkpt lat="45.21546815726017" lon="8.91058241649257"><ele>95.0</ele><time>2026-04-11T14:03:04.001Z</time></trkpt><trkpt lat="45.2154730461774" lon="8.910676091046001"><ele>95.0</ele><time>2026-04-11T14:03:05.001Z</time></trkpt><trkpt lat="45.2155105138604" lon="8.910777733558724"><ele>95.0</ele><time>2026-04-11T14:03:07.001Z</time></trkpt><trkpt lat="45.21559048274733" lon="8.910883793106354"><ele>95.0</ele><time>2026-04-11T14:03:09.001Z</time></trkpt><trkpt lat="45.215680765693214" lon="8.910989853004226"><ele>95.0</ele><time>2026-04-11T14:03:11.001Z</time></trkpt><trkpt lat="45.215802755203676" lon="8.911001688836091"><ele>95.0</ele><time>2026-04-11T14:03:13Z</time></trkpt><trkpt lat="45.21591491431611" lon="8.910990209679978"><ele>95.0</ele><time>2026-04-11T14:03:15Z</time></trkpt><trkpt lat="45.2160084050761" lon="8.911046869011045"><ele>95.0</ele><time>2026-04-11T14:03:17Z</time></trkpt><trkpt lat="45.21606874333341" lon="8.911165449177446"><ele>95.0</ele><time>2026-04-11T14:03:19Z</time></trkpt><trkpt lat="45.21610889099938" lon="8.9112869831572"><ele>95.0</ele><time>2026-04-11T14:03:21Z</time></trkpt><trkpt lat="45.21614971637501" lon="8.911440811225644"><ele>95.0</ele><time>2026-04-11T14:03:23Z</time></trkpt><trkpt lat="45.21619016983765" lon="8.911589055798897"><ele>95.0</ele><time>2026-04-11T14:03:25Z</time></trkpt><trkpt lat="45.21625297443914" lon="8.911640807418689"><ele>95.0</ele><time>2026-04-11T14:03:26Z</time></trkpt><trkpt lat="45.21629169745164" lon="8.911812766066571"><ele>95.0</ele><time>2026-04-11T14:03:28Z</time></trkpt><trkpt lat="45.216343396464076" lon="8.911875899287628"><ele>95.0</ele><time>2026-04-11T14:03:29Z</time></trkpt><trkpt lat="45.21643485153443" lon="8.911961639633715"><ele>94.83333333333334</ele><time>2026-04-11T14:03:31Z</time></trkpt><trkpt lat="45.21650753615858" lon="8.912057616013822"><ele>94.66666666666667</ele><time>2026-04-11T14:03:33Z</time></trkpt><trkpt lat="45.21657103333524" lon="8.91219873269797"><ele>94.5</ele><time>2026-04-11T14:03:35Z</time></trkpt><trkpt lat="45.216588322831605" lon="8.91229084981353"><ele>94.33333333333333</ele><time>2026-04-11T14:03:36Z</time></trkpt><trkpt lat="45.21659448233643" lon="8.912389535150341"><ele>94.16666666666666</ele><time>2026-04-11T14:03:37Z</time></trkpt><trkpt lat="45.21659902832659" lon="8.91248750047227"><ele>94.0</ele><time>2026-04-11T14:03:38Z</time></trkpt><trkpt lat="45.216601501772665" lon="8.912601515161642"><ele>94.0</ele><time>2026-04-11T14:03:39Z</time></trkpt><trkpt lat="45.21661234758237" lon="8.912722214393334"><ele>94.0</ele><time>2026-04-11T14:03:40Z</time></trkpt><trkpt lat="45.216628432354696" lon="8.912840011050433"><ele>94.0</ele><time>2026-04-11T14:03:41Z</time></trkpt><trkpt lat="45.216638564344954" lon="8.912954101549994"><ele>94.0</ele><time>2026-04-11T14:03:42Z</time></trkpt><trkpt lat="45.21662928645913" lon="8.913070112339296"><ele>94.0</ele><time>2026-04-11T14:03:43Z</time></trkpt><trkpt lat="45.21663627672301" lon="8.913180002294794"><ele>94.0</ele><time>2026-04-11T14:03:44Z</time></trkpt><trkpt lat="45.216661331694596" lon="8.913313202907773"><ele>94.0</ele><time>2026-04-11T14:03:45Z</time></trkpt><trkpt lat="45.216665445202366" lon="8.913443259651336"><ele>94.0</ele><time>2026-04-11T14:03:46Z</time></trkpt><trkpt lat="45.21667697476787" lon="8.913567189767862"><ele>94.0</ele><time>2026-04-11T14:03:47Z</time></trkpt><trkpt lat="45.21668447373579" lon="8.913690868379602"><ele>94.0</ele><time>2026-04-11T14:03:48Z</time></trkpt><trkpt lat="45.21669305254086" lon="8.913822203917292"><ele>94.0</ele><time>2026-04-11T14:03:49Z</time></trkpt><trkpt lat="45.21668579160283" lon="8.913958397505324"><ele>94.0</ele><time>2026-04-11T14:03:50Z</time></trkpt><trkpt lat="45.21669328949879" lon="8.914076267646243"><ele>94.0</ele><time>2026-04-11T14:03:51Z</time></trkpt><trkpt lat="45.216700969331356" lon="8.914196997927545"><ele>94.0</ele><time>2026-04-11T14:03:52Z</time></trkpt><trkpt lat="45.21672379528401" lon="8.91431037662166"><ele>94.0</ele><time>2026-04-11T14:03:53Z</time></trkpt><trkpt lat="45.21672981944391" lon="8.914410210961643"><ele>94.0</ele><time>2026-04-11T14:03:54Z</time></trkpt><trkpt lat="45.21672201289096" lon="8.914527811750386"><ele>94.0</ele><time>2026-04-11T14:03:55Z</time></trkpt><trkpt lat="45.21672878189417" lon="8.914634223403702"><ele>94.0</ele><time>2026-04-11T14:03:56Z</time></trkpt><trkpt lat="45.21675219780736" lon="8.91479722640254"><ele>94.0</ele><time>2026-04-11T14:03:58Z</time></trkpt><trkpt lat="45.216753234026534" lon="8.914902755170429"><ele>94.0</ele><time>2026-04-11T14:03:59Z</time></trkpt><trkpt lat="45.216754493579074" lon="8.915010396042787"><ele>94.0</ele><time>2026-04-11T14:04:00Z</time></trkpt><trkpt lat="45.2167549163293" lon="8.915104399206378"><ele>94.0</ele><time>2026-04-11T14:04:01Z</time></trkpt><trkpt lat="45.216754957210114" lon="8.915198901003533"><ele>94.0</ele><time>2026-04-11T14:04:02Z</time></trkpt><trkpt lat="45.216757652444315" lon="8.915308871166959"><ele>94.0</ele><time>2026-04-11T14:04:03Z</time></trkpt><trkpt lat="45.21676260633013" lon="8.915423353886315"><ele>94.0</ele><time>2026-04-11T14:04:04Z</time></trkpt><trkpt lat="45.21677297161186" lon="8.915560588654708"><ele>94.0</ele><time>2026-04-11T14:04:05Z</time></trkpt><trkpt lat="45.216777128378624" lon="8.915694130813554"><ele>94.0</ele><time>2026-04-11T14:04:06Z</time></trkpt><trkpt lat="45.21678463162071" lon="8.91583579549223"><ele>94.0</ele><time>2026-04-11T14:04:07Z</time></trkpt><trkpt lat="45.21677912422894" lon="8.915963292714178"><ele>94.0</ele><time>2026-04-11T14:04:08Z</time></trkpt><trkpt lat="45.21678465408323" lon="8.916073855445546"><ele>94.0</ele><time>2026-04-11T14:04:09Z</time></trkpt><trkpt lat="45.216789299191745" lon="8.916166728758432"><ele>94.0</ele><time>2026-04-11T14:04:10Z</time></trkpt><trkpt lat="45.21679396453719" lon="8.916260006669608"><ele>94.0</ele><time>2026-04-11T14:04:11Z</time></trkpt><trkpt lat="45.21679878357044" lon="8.916356357399833"><ele>94.0</ele><time>2026-04-11T14:04:12Z</time></trkpt><trkpt lat="45.216818025800436" lon="8.916494837276336"><ele>94.0</ele><time>2026-04-11T14:04:14.001Z</time></trkpt><trkpt lat="45.216800228432746" lon="8.916594044197593"><ele>94.0</ele><time>2026-04-11T14:04:29.001Z</time></trkpt><trkpt lat="45.21696761993643" lon="8.916644820436304"><ele>94.0</ele><time>2026-04-11T14:04:31.001Z</time></trkpt><trkpt lat="45.21708697371707" lon="8.916663899730443"><ele>94.0</ele><time>2026-04-11T14:04:32.001Z</time></trkpt><trkpt lat="45.2172295514183" lon="8.916666221137154"><ele>94.0</ele><time>2026-04-11T14:04:33.001Z</time></trkpt><trkpt lat="45.217402105680726" lon="8.91666892574799"><ele>94.0</ele><time>2026-04-11T14:04:34.001Z</time></trkpt><trkpt lat="45.217596474124015" lon="8.916651568329401"><ele>94.33333333333333</ele><time>2026-04-11T14:04:35.001Z</time></trkpt><trkpt lat="45.21780950941767" lon="8.91666182945125"><ele>94.66666666666667</ele><time>2026-04-11T14:04:36.001Z</time></trkpt><trkpt lat="45.218036075203926" lon="8.91667086186998"><ele>95.0</ele><time>2026-04-11T14:04:37.001Z</time></trkpt><trkpt lat="45.21828006357728" lon="8.916673365197068"><ele>94.0</ele><time>2026-04-11T14:04:38.001Z</time></trkpt><trkpt lat="45.218529021942665" lon="8.916672806711583"><ele>93.0</ele><time>2026-04-11T14:04:39.001Z</time></trkpt><trkpt lat="45.21877351268528" lon="8.916672161939124"><ele>93.0</ele><time>2026-04-11T14:04:40.001Z</time></trkpt><trkpt lat="45.219015409842854" lon="8.91667278310908"><ele>93.0</ele><time>2026-04-11T14:04:41.001Z</time></trkpt><trkpt lat="45.21925833900297" lon="8.916675229150671"><ele>93.0</ele><time>2026-04-11T14:04:42.001Z</time></trkpt><trkpt lat="45.219500102469645" lon="8.916679461894862"><ele>93.0</ele><time>2026-04-11T14:04:43.001Z</time></trkpt><trkpt lat="45.219743691381595" lon="8.916682906896504"><ele>94.5</ele><time>2026-04-11T14:04:44.001Z</time></trkpt><trkpt lat="45.21998384096971" lon="8.916684165739305"><ele>96.0</ele><time>2026-04-11T14:04:45.001Z</time></trkpt><trkpt lat="45.22022831712064" lon="8.916708250407414"><ele>96.0</ele><time>2026-04-11T14:04:46.001Z</time></trkpt><trkpt lat="45.220469241909754" lon="8.916711156029958"><ele>96.0</ele><time>2026-04-11T14:04:47.001Z</time></trkpt><trkpt lat="45.220710998480286" lon="8.91671407168949"><ele>95.0</ele><time>2026-04-11T14:04:48.001Z</time></trkpt><trkpt lat="45.22095365675809" lon="8.91671676249709"><ele>94.0</ele><time>2026-04-11T14:04:49.001Z</time></trkpt><trkpt lat="45.22119893911379" lon="8.916719446902537"><ele>94.0</ele><time>2026-04-11T14:04:50.001Z</time></trkpt><trkpt lat="45.22144041656691" lon="8.916722081292098"><ele>94.0</ele><time>2026-04-11T14:04:51.001Z</time></trkpt><trkpt lat="45.22168292884919" lon="8.916702525155094"><ele>94.0</ele><time>2026-04-11T14:04:52.001Z</time></trkpt><trkpt lat="45.22192306871302" lon="8.91671017395364"><ele>94.0</ele><time>2026-04-11T14:04:53.001Z</time></trkpt><trkpt lat="45.22216469226222" lon="8.916716969564433"><ele>94.0</ele><time>2026-04-11T14:04:54.001Z</time></trkpt><trkpt lat="45.22240431164121" lon="8.916718857671745"><ele>94.0</ele><time>2026-04-11T14:04:55.001Z</time></trkpt><trkpt lat="45.22265034550511" lon="8.916721238121685"><ele>94.0</ele><time>2026-04-11T14:04:56.001Z</time></trkpt><trkpt lat="45.222892359285204" lon="8.916722144517166"><ele>94.0</ele><time>2026-04-11T14:04:57.001Z</time></trkpt><trkpt lat="45.22313343350809" lon="8.916724469474993"><ele>94.0</ele><time>2026-04-11T14:04:58.001Z</time></trkpt><trkpt lat="45.22337449578183" lon="8.916726267715788"><ele>94.0</ele><time>2026-04-11T14:04:59.001Z</time></trkpt><trkpt lat="45.22361723083764" lon="8.916726995652056"><ele>94.0</ele><time>2026-04-11T14:05:00.001Z</time></trkpt><trkpt lat="45.22386141195238" lon="8.916728538971917"><ele>94.0</ele><time>2026-04-11T14:05:01.001Z</time></trkpt><trkpt lat="45.22410312341833" lon="8.916732213254337"><ele>95.0</ele><time>2026-04-11T14:05:02.001Z</time></trkpt><trkpt lat="45.22434469988481" lon="8.916736890634652"><ele>96.0</ele><time>2026-04-11T14:05:03.001Z</time></trkpt><trkpt lat="45.224587926400446" lon="8.916740302840974"><ele>96.0</ele><time>2026-04-11T14:05:04.001Z</time></trkpt><trkpt lat="45.224832620688645" lon="8.916741974589492"><ele>96.0</ele><time>2026-04-11T14:05:05.001Z</time></trkpt><trkpt lat="45.22507448338947" lon="8.916743254392713"><ele>96.0</ele><time>2026-04-11T14:05:06.001Z</time></trkpt><trkpt lat="45.225315714066696" lon="8.916746712739851"><ele>96.0</ele><time>2026-04-11T14:05:07.001Z</time></trkpt><trkpt lat="45.22555956597302" lon="8.91675060775843"><ele>95.5</ele><time>2026-04-11T14:05:08.001Z</time></trkpt><trkpt lat="45.22580142977415" lon="8.916754254466188"><ele>95.0</ele><time>2026-04-11T14:05:09.001Z</time></trkpt><trkpt lat="45.226043857402686" lon="8.916755998777548"><ele>95.0</ele><time>2026-04-11T14:05:10.001Z</time></trkpt><trkpt lat="45.22628677186802" lon="8.916757618740196"><ele>95.0</ele><time>2026-04-11T14:05:11.001Z</time></trkpt><trkpt lat="45.22652695302779" lon="8.916761678366933"><ele>95.0</ele><time>2026-04-11T14:05:12.001Z</time></trkpt><trkpt lat="45.2267708458791" lon="8.916767671836531"><ele>95.0</ele><time>2026-04-11T14:05:13.001Z</time></trkpt><trkpt lat="45.22701368185698" lon="8.916772647970237"><ele>95.0</ele><time>2026-04-11T14:05:14.001Z</time></trkpt><trkpt lat="45.22725469625581" lon="8.916774730095607"><ele>95.0</ele><time>2026-04-11T14:05:15.001Z</time></trkpt><trkpt lat="45.22749817585166" lon="8.916777453388935"><ele>95.0</ele><time>2026-04-11T14:05:16.001Z</time></trkpt><trkpt lat="45.22774434428476" lon="8.91677990824544"><ele>95.0</ele><time>2026-04-11T14:05:17.002Z</time></trkpt><trkpt lat="45.227987792171426" lon="8.916781544380356"><ele>95.5</ele><time>2026-04-11T14:05:18Z</time></trkpt><trkpt lat="45.228227341051806" lon="8.91678240218492"><ele>96.0</ele><time>2026-04-11T14:05:19Z</time></trkpt><trkpt lat="45.22847138222692" lon="8.916785883526272"><ele>96.0</ele><time>2026-04-11T14:05:20Z</time></trkpt><trkpt lat="45.22871213245521" lon="8.91678992558017"><ele>96.0</ele><time>2026-04-11T14:05:21Z</time></trkpt><trkpt lat="45.22895556320967" lon="8.916793131144182"><ele>96.5</ele><time>2026-04-11T14:05:22Z</time></trkpt><trkpt lat="45.229198381768605" lon="8.916795321716409"><ele>97.0</ele><time>2026-04-11T14:05:23Z</time></trkpt><trkpt lat="45.229440984179156" lon="8.916799784954728"><ele>97.0</ele><time>2026-04-11T14:05:24Z</time></trkpt><trkpt lat="45.229673168432626" lon="8.916805122632978"><ele>97.0</ele><time>2026-04-11T14:05:25Z</time></trkpt><trkpt lat="45.22988616591614" lon="8.916808277250064"><ele>97.0</ele><time>2026-04-11T14:05:26Z</time></trkpt><trkpt lat="45.230081069445" lon="8.916807595288406"><ele>97.0</ele><time>2026-04-11T14:05:27Z</time></trkpt><trkpt lat="45.23026445203398" lon="8.916808522825063"><ele>97.0</ele><time>2026-04-11T14:05:28Z</time></trkpt><trkpt lat="45.23043426785772" lon="8.916808381836905"><ele>97.0</ele><time>2026-04-11T14:05:29Z</time></trkpt><trkpt lat="45.230592724877454" lon="8.916812918342128"><ele>97.25</ele><time>2026-04-11T14:05:30Z</time></trkpt><trkpt lat="45.23073810383732" lon="8.9168251664023"><ele>97.5</ele><time>2026-04-11T14:05:31Z</time></trkpt><trkpt lat="45.23087483177927" lon="8.916859931141559"><ele>97.75</ele><time>2026-04-11T14:05:32Z</time></trkpt><trkpt lat="45.231012845004" lon="8.91692043811002"><ele>98.0</ele><time>2026-04-11T14:05:33Z</time></trkpt><trkpt lat="45.23114862976724" lon="8.916988363867999"><ele>98.0</ele><time>2026-04-11T14:05:34Z</time></trkpt><trkpt lat="45.23128386041776" lon="8.917065474531034"><ele>98.0</ele><time>2026-04-11T14:05:35Z</time></trkpt><trkpt lat="45.23141885631543" lon="8.917174321977337"><ele>98.0</ele><time>2026-04-11T14:05:36Z</time></trkpt><trkpt lat="45.231550051158756" lon="8.917304346462114"><ele>98.0</ele><time>2026-04-11T14:05:37Z</time></trkpt><trkpt lat="45.231680672854296" lon="8.917456446882444"><ele>98.0</ele><time>2026-04-11T14:05:38Z</time></trkpt><trkpt lat="45.23180816182337" lon="8.917633902444793"><ele>98.0</ele><time>2026-04-11T14:05:39Z</time></trkpt><trkpt lat="45.23192871085332" lon="8.917825614671978"><ele>98.0</ele><time>2026-04-11T14:05:40Z</time></trkpt><trkpt lat="45.23203576279266" lon="8.918016011043415"><ele>98.0</ele><time>2026-04-11T14:05:41Z</time></trkpt><trkpt lat="45.23212513146681" lon="8.918188197495313"><ele>98.0</ele><time>2026-04-11T14:05:42Z</time></trkpt><trkpt lat="45.232201389425555" lon="8.918338549193956"><ele>98.0</ele><time>2026-04-11T14:05:43Z</time></trkpt><trkpt lat="45.23226296274981" lon="8.918470531469886"><ele>98.0</ele><time>2026-04-11T14:05:44Z</time></trkpt><trkpt lat="45.232319119260765" lon="8.918583779194078"><ele>98.0</ele><time>2026-04-11T14:05:45Z</time></trkpt><trkpt lat="45.23236232517205" lon="8.918674580986627"><ele>98.0</ele><time>2026-04-11T14:05:46Z</time></trkpt><trkpt lat="45.23241487859847" lon="8.918752834122516"><ele>98.0</ele><time>2026-04-11T14:05:48Z</time></trkpt><trkpt lat="45.2325061971354" lon="8.918819524572365"><ele>97.60000000000001</ele><time>2026-04-11T14:05:52Z</time></trkpt><trkpt lat="45.232570225794554" lon="8.918794977855443"><ele>97.2</ele><time>2026-04-11T14:05:53Z</time></trkpt><trkpt lat="45.23264567183628" lon="8.918746530745379"><ele>96.8</ele><time>2026-04-11T14:05:54Z</time></trkpt><trkpt lat="45.23273871338913" lon="8.918688277660916"><ele>96.4</ele><time>2026-04-11T14:05:55Z</time></trkpt><trkpt lat="45.23284871157007" lon="8.91862111328672"><ele>96.0</ele><time>2026-04-11T14:05:56Z</time></trkpt><trkpt lat="45.23293640135822" lon="8.918549799570503"><ele>96.0</ele><time>2026-04-11T14:05:57Z</time></trkpt><trkpt lat="45.233025323763854" lon="8.918491084605696"><ele>96.0</ele><time>2026-04-11T14:05:58Z</time></trkpt><trkpt lat="45.233105204223456" lon="8.918431952579239"><ele>96.0</ele><time>2026-04-11T14:05:59Z</time></trkpt><trkpt lat="45.23318494988272" lon="8.918380391790965"><ele>96.0</ele><time>2026-04-11T14:06:00Z</time></trkpt><trkpt lat="45.23326020512124" lon="8.91832806041372"><ele>96.0</ele><time>2026-04-11T14:06:01Z</time></trkpt><trkpt lat="45.233325270755294" lon="8.918280013177478"><ele>96.0</ele><time>2026-04-11T14:06:02Z</time></trkpt><trkpt lat="45.23338444476686" lon="8.91823443507284"><ele>96.16666666666667</ele><time>2026-04-11T14:06:03Z</time></trkpt><trkpt lat="45.233478403506126" lon="8.918193634761598"><ele>96.33333333333334</ele><time>2026-04-11T14:06:05Z</time></trkpt><trkpt lat="45.233551318068685" lon="8.918267342002219"><ele>96.5</ele><time>2026-04-11T14:06:07Z</time></trkpt><trkpt lat="45.23358676746581" lon="8.91834159517256"><ele>96.66666666666667</ele><time>2026-04-11T14:06:08Z</time></trkpt><trkpt lat="45.23362504729231" lon="8.918429176341446"><ele>96.83333333333334</ele><time>2026-04-11T14:06:09Z</time></trkpt><trkpt lat="45.2336643048961" lon="8.918519689446049"><ele>97.0</ele><time>2026-04-11T14:06:10Z</time></trkpt><trkpt lat="45.23370526836433" lon="8.918608766540386"><ele>97.19999999999999</ele><time>2026-04-11T14:06:11.001Z</time></trkpt><trkpt lat="45.23375262462349" lon="8.918705793449723"><ele>97.4</ele><time>2026-04-11T14:06:12.001Z</time></trkpt><trkpt lat="45.23380717195197" lon="8.918814556785746"><ele>97.6</ele><time>2026-04-11T14:06:13.001Z</time></trkpt><trkpt lat="45.23386000697216" lon="8.91892397684429"><ele>97.80000000000001</ele><time>2026-04-11T14:06:14.001Z</time></trkpt><trkpt lat="45.23391434805714" lon="8.919045932344739"><ele>98.0</ele><time>2026-04-11T14:06:15.001Z</time></trkpt><trkpt lat="45.233970832844825" lon="8.919162179642235"><ele>97.80000000000001</ele><time>2026-04-11T14:06:16.001Z</time></trkpt><trkpt lat="45.234023713273764" lon="8.919267017114663"><ele>97.6</ele><time>2026-04-11T14:06:17.001Z</time></trkpt><trkpt lat="45.2340647843983" lon="8.919366104140387"><ele>97.4</ele><time>2026-04-11T14:06:18.001Z</time></trkpt><trkpt lat="45.234119261895025" lon="8.919471891772426"><ele>97.19999999999999</ele><time>2026-04-11T14:06:19.001Z</time></trkpt><trkpt lat="45.234177245687704" lon="8.919584938808791"><ele>97.0</ele><time>2026-04-11T14:06:20.001Z</time></trkpt><trkpt lat="45.23423648068484" lon="8.919695333054792"><ele>97.0</ele><time>2026-04-11T14:06:21.001Z</time></trkpt><trkpt lat="45.234298481300456" lon="8.919808095727303"><ele>97.0</ele><time>2026-04-11T14:06:22.001Z</time></trkpt><trkpt lat="45.23435991647392" lon="8.919925221936618"><ele>97.0</ele><time>2026-04-11T14:06:23.001Z</time></trkpt><trkpt lat="45.23442744448147" lon="8.9200479456728"><ele>97.0</ele><time>2026-04-11T14:06:24.001Z</time></trkpt><trkpt lat="45.23449575517206" lon="8.920181425392453"><ele>97.0</ele><time>2026-04-11T14:06:25.001Z</time></trkpt><trkpt lat="45.23456530611242" lon="8.920309258350313"><ele>97.0</ele><time>2026-04-11T14:06:26.001Z</time></trkpt><trkpt lat="45.23462956663924" lon="8.920434679646945"><ele>97.0</ele><time>2026-04-11T14:06:27.001Z</time></trkpt><trkpt lat="45.234695019148006" lon="8.920564427113119"><ele>97.0</ele><time>2026-04-11T14:06:28.001Z</time></trkpt><trkpt lat="45.234759223968915" lon="8.920692514282162"><ele>97.0</ele><time>2026-04-11T14:06:29.001Z</time></trkpt><trkpt lat="45.23482961016133" lon="8.920822157083698"><ele>97.0</ele><time>2026-04-11T14:06:30.001Z</time></trkpt><trkpt lat="45.234898433076104" lon="8.920953233763889"><ele>96.5</ele><time>2026-04-11T14:06:31.001Z</time></trkpt><trkpt lat="45.234970236307205" lon="8.921081513717517"><ele>96.0</ele><time>2026-04-11T14:06:32.001Z</time></trkpt><trkpt lat="45.23503217936393" lon="8.921202982853064"><ele>95.5</ele><time>2026-04-11T14:06:33.001Z</time></trkpt><trkpt lat="45.23508453020126" lon="8.921342934365937"><ele>95.0</ele><time>2026-04-11T14:06:34.001Z</time></trkpt><trkpt lat="45.23513375758322" lon="8.921493531127577"><ele>95.0</ele><time>2026-04-11T14:06:35.001Z</time></trkpt><trkpt lat="45.235181061906836" lon="8.921643432879"><ele>95.0</ele><time>2026-04-11T14:06:36.001Z</time></trkpt><trkpt lat="45.235236017226626" lon="8.9217981104529"><ele>95.0</ele><time>2026-04-11T14:06:37.001Z</time></trkpt><trkpt lat="45.23528899886689" lon="8.921951117601962"><ele>95.0</ele><time>2026-04-11T14:06:38.001Z</time></trkpt><trkpt lat="45.23534297688489" lon="8.922103925060926"><ele>95.0</ele><time>2026-04-11T14:06:39.001Z</time></trkpt><trkpt lat="45.235397249983485" lon="8.9222529703725"><ele>95.0</ele><time>2026-04-11T14:06:40.001Z</time></trkpt><trkpt lat="45.2354518497151" lon="8.92240587124773"><ele>95.0</ele><time>2026-04-11T14:06:41.001Z</time></trkpt><trkpt lat="45.23550381511677" lon="8.922562501141304"><ele>95.0</ele><time>2026-04-11T14:06:42.001Z</time></trkpt><trkpt lat="45.23555933646173" lon="8.922717371874636"><ele>95.0</ele><time>2026-04-11T14:06:43.001Z</time></trkpt><trkpt lat="45.23561288537237" lon="8.922872853797989"><ele>95.0</ele><time>2026-04-11T14:06:44.001Z</time></trkpt><trkpt lat="45.23566877389322" lon="8.92302743370014"><ele>95.0</ele><time>2026-04-11T14:06:45.001Z</time></trkpt><trkpt lat="45.235721855351294" lon="8.92318960728535"><ele>95.0</ele><time>2026-04-11T14:06:46.001Z</time></trkpt><trkpt lat="45.235775459029846" lon="8.92335545784816"><ele>95.25</ele><time>2026-04-11T14:06:47.001Z</time></trkpt><trkpt lat="45.23583456207938" lon="8.923520275416768"><ele>95.5</ele><time>2026-04-11T14:06:48.001Z</time></trkpt><trkpt lat="45.23589847418255" lon="8.923686285061173"><ele>95.75</ele><time>2026-04-11T14:06:49.001Z</time></trkpt><trkpt lat="45.23596467104701" lon="8.92385077244101"><ele>96.0</ele><time>2026-04-11T14:06:50.001Z</time></trkpt><trkpt lat="45.23603184517686" lon="8.92400579606784"><ele>96.0</ele><time>2026-04-11T14:06:51.001Z</time></trkpt><trkpt lat="45.23610195230379" lon="8.924155630836138"><ele>96.0</ele><time>2026-04-11T14:06:52.001Z</time></trkpt><trkpt lat="45.236167365284196" lon="8.924304640068742"><ele>96.0</ele><time>2026-04-11T14:06:53.001Z</time></trkpt><trkpt lat="45.23623321712131" lon="8.924455305015167"><ele>96.0</ele><time>2026-04-11T14:06:54.001Z</time></trkpt><trkpt lat="45.236297567689356" lon="8.924595087588266"><ele>95.8</ele><time>2026-04-11T14:06:55.001Z</time></trkpt><trkpt lat="45.236359645233854" lon="8.92473143024312"><ele>95.6</ele><time>2026-04-11T14:06:56.001Z</time></trkpt><trkpt lat="45.23642300090703" lon="8.924850972239144"><ele>95.4</ele><time>2026-04-11T14:06:57.001Z</time></trkpt><trkpt lat="45.23648695168881" lon="8.924969615345322"><ele>95.2</ele><time>2026-04-11T14:06:58.001Z</time></trkpt><trkpt lat="45.23655036907323" lon="8.925080976483132"><ele>95.0</ele><time>2026-04-11T14:06:59.001Z</time></trkpt><trkpt lat="45.23661506233777" lon="8.925201520814978"><ele>95.0</ele><time>2026-04-11T14:07:00.001Z</time></trkpt><trkpt lat="45.236683284238474" lon="8.925321986143937"><ele>95.0</ele><time>2026-04-11T14:07:01.001Z</time></trkpt><trkpt lat="45.23675477956456" lon="8.925439536945344"><ele>95.0</ele><time>2026-04-11T14:07:02.001Z</time></trkpt><trkpt lat="45.236826009484496" lon="8.925550500949031"><ele>95.0</ele><time>2026-04-11T14:07:03.001Z</time></trkpt><trkpt lat="45.236897124635355" lon="8.925661199758794"><ele>95.0</ele><time>2026-04-11T14:07:04.001Z</time></trkpt><trkpt lat="45.23696726397657" lon="8.925770356222271"><ele>95.0</ele><time>2026-04-11T14:07:05.001Z</time></trkpt><trkpt lat="45.23703287568841" lon="8.925880587092236"><ele>95.0</ele><time>2026-04-11T14:07:06.001Z</time></trkpt><trkpt lat="45.23710594619436" lon="8.926000231430699"><ele>95.0</ele><time>2026-04-11T14:07:07.001Z</time></trkpt><trkpt lat="45.23717704831632" lon="8.92611390196957"><ele>95.0</ele><time>2026-04-11T14:07:08.001Z</time></trkpt><trkpt lat="45.237245676293654" lon="8.92622507020992"><ele>95.0</ele><time>2026-04-11T14:07:09.001Z</time></trkpt><trkpt lat="45.237311246615526" lon="8.926333479707301"><ele>95.0</ele><time>2026-04-11T14:07:10.001Z</time></trkpt><trkpt lat="45.23736881883588" lon="8.926433996033785"><ele>95.0</ele><time>2026-04-11T14:07:11.001Z</time></trkpt><trkpt lat="45.23743264792851" lon="8.926540451084024"><ele>95.0</ele><time>2026-04-11T14:07:12.001Z</time></trkpt><trkpt lat="45.2375002072472" lon="8.926646966973754"><ele>95.0</ele><time>2026-04-11T14:07:13.001Z</time></trkpt><trkpt lat="45.23756627828666" lon="8.926754635384787"><ele>95.0</ele><time>2026-04-11T14:07:14.001Z</time></trkpt><trkpt lat="45.23762995384222" lon="8.92686022253752"><ele>94.8</ele><time>2026-04-11T14:07:15.001Z</time></trkpt><trkpt lat="45.23769679592561" lon="8.926969582262222"><ele>94.6</ele><time>2026-04-11T14:07:16.001Z</time></trkpt><trkpt lat="45.237758388225316" lon="8.927075666233609"><ele>94.4</ele><time>2026-04-11T14:07:17.001Z</time></trkpt><trkpt lat="45.23781519188889" lon="8.927175890398612"><ele>94.2</ele><time>2026-04-11T14:07:18.001Z</time></trkpt><trkpt lat="45.23786452888984" lon="8.927250429372064"><ele>94.0</ele><time>2026-04-11T14:07:19.002Z</time></trkpt><trkpt lat="45.2379453259908" lon="8.92733191752917"><ele>94.0</ele><time>2026-04-11T14:07:21.002Z</time></trkpt><trkpt lat="45.23803862574089" lon="8.927334130921135"><ele>94.0</ele><time>2026-04-11T14:07:23.002Z</time></trkpt><trkpt lat="45.23812779736223" lon="8.92736335542469"><ele>94.0</ele><time>2026-04-11T14:07:25Z</time></trkpt><trkpt lat="45.23821832033315" lon="8.927474101646487"><ele>94.0</ele><time>2026-04-11T14:07:27Z</time></trkpt><trkpt lat="45.238272636390214" lon="8.927541603430154"><ele>94.0</ele><time>2026-04-11T14:07:28Z</time></trkpt><trkpt lat="45.238330736010596" lon="8.927616400855634"><ele>94.83333333333333</ele><time>2026-04-11T14:07:29Z</time></trkpt><trkpt lat="45.23838318399375" lon="8.927688617383664"><ele>95.66666666666666</ele><time>2026-04-11T14:07:30Z</time></trkpt><trkpt lat="45.23842972270352" lon="8.927749490560629"><ele>96.5</ele><time>2026-04-11T14:07:31Z</time></trkpt><trkpt lat="45.238473212787795" lon="8.92782023141759"><ele>97.33333333333333</ele><time>2026-04-11T14:07:32Z</time></trkpt><trkpt lat="45.23854185098046" lon="8.927924205149457"><ele>98.16666666666667</ele><time>2026-04-11T14:07:34Z</time></trkpt><trkpt lat="45.23859231708511" lon="8.928018835164663"><ele>99.0</ele><time>2026-04-11T14:07:36Z</time></trkpt><trkpt lat="45.23863819935216" lon="8.928091460532805"><ele>99.0</ele><time>2026-04-11T14:07:38Z</time></trkpt><trkpt lat="45.23868951639052" lon="8.92820578995099"><ele>99.0</ele><time>2026-04-11T14:07:41Z</time></trkpt><trkpt lat="45.23874125531279" lon="8.928296671245642"><ele>99.0</ele><time>2026-04-11T14:07:43Z</time></trkpt><trkpt lat="45.238789309267645" lon="8.928403300231592"><ele>99.0</ele><time>2026-04-11T14:08:25.001Z</time></trkpt><trkpt lat="45.23883575346477" lon="8.92850114789854"><ele>99.0</ele><time>2026-04-11T14:08:27.001Z</time></trkpt><trkpt lat="45.23888728071795" lon="8.928598909436078"><ele>99.0</ele><time>2026-04-11T14:08:29.001Z</time></trkpt><trkpt lat="45.238932531583025" lon="8.928675410250623"><ele>98.66666666666667</ele><time>2026-04-11T14:08:31.001Z</time></trkpt><trkpt lat="45.23900971463447" lon="8.928749935596791"><ele>98.33333333333334</ele><time>2026-04-11T14:08:34.001Z</time></trkpt><trkpt lat="45.23907070620023" lon="8.928830145877775"><ele>98.0</ele><time>2026-04-11T14:09:00.001Z</time></trkpt><trkpt lat="45.23914001511499" lon="8.928878666029677"><ele>97.66666666666667</ele><time>2026-04-11T14:09:03.001Z</time></trkpt><trkpt lat="45.239193650506586" lon="8.928927510679737"><ele>97.33333333333334</ele><time>2026-04-11T14:09:05.001Z</time></trkpt><trkpt lat="45.23924735969589" lon="8.928979120395017"><ele>97.0</ele><time>2026-04-11T14:09:07.001Z</time></trkpt><trkpt lat="45.23932231917595" lon="8.929033279816167"><ele>97.00000000000001</ele><time>2026-04-11T14:09:10.001Z</time></trkpt><trkpt lat="45.239399143682" lon="8.92909331933703"><ele>97.0</ele><time>2026-04-11T14:09:14.001Z</time></trkpt><trkpt lat="45.23945335725514" lon="8.929150776158377"><ele>97.0</ele><time>2026-04-11T14:09:17.002Z</time></trkpt><trkpt lat="45.23950903057819" lon="8.929237187671685"><ele>97.0</ele><time>2026-04-11T14:09:26.002Z</time></trkpt><trkpt lat="45.23955389084399" lon="8.92931057135347"><ele>97.00000000000001</ele><time>2026-04-11T14:09:29.002Z</time></trkpt><trkpt lat="45.23961044655469" lon="8.929389375887546"><ele>97.0</ele><time>2026-04-11T14:09:32.001Z</time></trkpt><trkpt lat="45.23965783566165" lon="8.929456062535468"><ele>97.0</ele><time>2026-04-11T14:09:35.001Z</time></trkpt><trkpt lat="45.2397073265725" lon="8.92951364745652"><ele>97.0</ele><time>2026-04-11T14:09:42.001Z</time></trkpt><trkpt lat="45.239754604531036" lon="8.929592599304232"><ele>97.0</ele><time>2026-04-11T14:09:44.001Z</time></trkpt><trkpt lat="45.239807564103955" lon="8.929655984972811"><ele>97.0</ele><time>2026-04-11T14:09:46.001Z</time></trkpt><trkpt lat="45.23987024839625" lon="8.929714603460127"><ele>97.0</ele><time>2026-04-11T14:09:49.001Z</time></trkpt><trkpt lat="45.2399549343206" lon="8.929772948828406"><ele>97.0</ele><time>2026-04-11T14:09:52.001Z</time></trkpt><trkpt lat="45.24001532458955" lon="8.929803501960903"><ele>97.0</ele><time>2026-04-11T14:09:54.001Z</time></trkpt><trkpt lat="45.240077715517955" lon="8.92982433877131"><ele>95.28571428571428</ele><time>2026-04-11T14:09:56.001Z</time></trkpt><trkpt lat="45.24013938518101" lon="8.929884671910141"><ele>93.57142857142858</ele><time>2026-04-11T14:09:58.001Z</time></trkpt><trkpt lat="45.24019903688802" lon="8.92994427055939"><ele>91.85714285714286</ele><time>2026-04-11T14:10:00.001Z</time></trkpt><trkpt lat="45.24025362417887" lon="8.930010223806265"><ele>90.14285714285714</ele><time>2026-04-11T14:10:02.001Z</time></trkpt><trkpt lat="45.240313267345556" lon="8.930078387266303"><ele>88.42857142857142</ele><time>2026-04-11T14:10:04.001Z</time></trkpt><trkpt lat="45.24037532605314" lon="8.930141471869032"><ele>86.71428571428572</ele><time>2026-04-11T14:10:06.001Z</time></trkpt><trkpt lat="45.24042845860043" lon="8.930219788353579"><ele>85.0</ele><time>2026-04-11T14:10:08.001Z</time></trkpt><trkpt lat="45.240492035409446" lon="8.930301249145096"><ele>84.16666666666666</ele><time>2026-04-11T14:10:10.001Z</time></trkpt><trkpt lat="45.24055901089876" lon="8.930380010935865"><ele>83.33333333333333</ele><time>2026-04-11T14:10:12.001Z</time></trkpt><trkpt lat="45.24062453167647" lon="8.930469575575206"><ele>82.5</ele><time>2026-04-11T14:10:15.001Z</time></trkpt><trkpt lat="45.24067476798019" lon="8.930529053917624"><ele>81.66666666666667</ele><time>2026-04-11T14:10:17.001Z</time></trkpt><trkpt lat="45.24072563083762" lon="8.93061170067115"><ele>80.83333333333334</ele><time>2026-04-11T14:10:19.001Z</time></trkpt><trkpt lat="45.24077906390495" lon="8.930689207193886"><ele>80.0</ele><time>2026-04-11T14:10:21.001Z</time></trkpt><trkpt lat="45.2408343844692" lon="8.930760919237978"><ele>80.0</ele><time>2026-04-11T14:10:23.001Z</time></trkpt><trkpt lat="45.24089266120105" lon="8.930843780740934"><ele>80.0</ele><time>2026-04-11T14:10:25.001Z</time></trkpt><trkpt lat="45.24095840032455" lon="8.930924904663858"><ele>80.0</ele><time>2026-04-11T14:10:27.001Z</time></trkpt><trkpt lat="45.241033566995306" lon="8.931012262055395"><ele>80.0</ele><time>2026-04-11T14:10:29.001Z</time></trkpt><trkpt lat="45.24110424846859" lon="8.931088854751787"><ele>80.0</ele><time>2026-04-11T14:10:31.001Z</time></trkpt><trkpt lat="45.241169356670696" lon="8.931175490839827"><ele>80.0</ele><time>2026-04-11T14:10:33.001Z</time></trkpt><trkpt lat="45.24123689029723" lon="8.931276954553267"><ele>79.8</ele><time>2026-04-11T14:10:35.001Z</time></trkpt><trkpt lat="45.24132047072198" lon="8.93137658716328"><ele>79.6</ele><time>2026-04-11T14:10:37.001Z</time></trkpt><trkpt lat="45.24140621560702" lon="8.931498122111437"><ele>79.4</ele><time>2026-04-11T14:10:39.001Z</time></trkpt><trkpt lat="45.24147463660954" lon="8.931590169090827"><ele>79.2</ele><time>2026-04-11T14:10:41.001Z</time></trkpt><trkpt lat="45.241547662724585" lon="8.931679374637767"><ele>79.0</ele><time>2026-04-11T14:10:43.001Z</time></trkpt><trkpt lat="45.24162297042407" lon="8.931769764563622"><ele>78.4</ele><time>2026-04-11T14:10:45.001Z</time></trkpt><trkpt lat="45.2416800984386" lon="8.931859972406254"><ele>77.80000000000001</ele><time>2026-04-11T14:10:48.001Z</time></trkpt><trkpt lat="45.24175654934834" lon="8.931960487297749"><ele>77.19999999999999</ele><time>2026-04-11T14:12:07Z</time></trkpt><trkpt lat="45.24183966859548" lon="8.932089620094011"><ele>76.6</ele><time>2026-04-11T14:12:09Z</time></trkpt><trkpt lat="45.24191348217975" lon="8.932224256462776"><ele>76.0</ele><time>2026-04-11T14:12:11Z</time></trkpt><trkpt lat="45.241958497923285" lon="8.932293356344164"><ele>76.0</ele><time>2026-04-11T14:12:12Z</time></trkpt><trkpt lat="45.24200592485468" lon="8.932372374604553"><ele>76.0</ele><time>2026-04-11T14:12:13Z</time></trkpt><trkpt lat="45.24206734446767" lon="8.932460640971007"><ele>76.0</ele><time>2026-04-11T14:12:14Z</time></trkpt><trkpt lat="45.24212005088908" lon="8.932543718290672"><ele>76.0</ele><time>2026-04-11T14:12:15Z</time></trkpt><trkpt lat="45.24217730172695" lon="8.932634441521799"><ele>76.0</ele><time>2026-04-11T14:12:16Z</time></trkpt><trkpt lat="45.24225152294146" lon="8.932751966743375"><ele>76.0</ele><time>2026-04-11T14:12:18Z</time></trkpt><trkpt lat="45.242296033671224" lon="8.932825959208802"><ele>76.0</ele><time>2026-04-11T14:12:19Z</time></trkpt><trkpt lat="45.24235113345201" lon="8.932902751641572"><ele>76.0</ele><time>2026-04-11T14:12:20Z</time></trkpt><trkpt lat="45.242402142309686" lon="8.932974342108393"><ele>76.0</ele><time>2026-04-11T14:12:21Z</time></trkpt><trkpt lat="45.24245210201701" lon="8.933051003332226"><ele>76.0</ele><time>2026-04-11T14:12:22Z</time></trkpt><trkpt lat="45.24249653043057" lon="8.93313520085304"><ele>76.0</ele><time>2026-04-11T14:12:23Z</time></trkpt><trkpt lat="45.24253785652277" lon="8.933212398885262"><ele>76.0</ele><time>2026-04-11T14:12:24Z</time></trkpt><trkpt lat="45.24258197376615" lon="8.933288543920616"><ele>76.0</ele><time>2026-04-11T14:12:25Z</time></trkpt><trkpt lat="45.242636492861266" lon="8.933361501968578"><ele>76.0</ele><time>2026-04-11T14:12:26Z</time></trkpt><trkpt lat="45.24268534327242" lon="8.933433110343389"><ele>76.0</ele><time>2026-04-11T14:12:27Z</time></trkpt><trkpt lat="45.24272706033963" lon="8.933507339170594"><ele>76.0</ele><time>2026-04-11T14:12:28Z</time></trkpt><trkpt lat="45.24276526401069" lon="8.933580343885748"><ele>76.0</ele><time>2026-04-11T14:12:29.001Z</time></trkpt><trkpt lat="45.24280191146634" lon="8.933655531793415"><ele>76.0</ele><time>2026-04-11T14:12:30.001Z</time></trkpt><trkpt lat="45.24286219376027" lon="8.933764991606965"><ele>76.0</ele><time>2026-04-11T14:12:32.001Z</time></trkpt><trkpt lat="45.24291350744078" lon="8.933858921722894"><ele>76.0</ele><time>2026-04-11T14:12:34.001Z</time></trkpt><trkpt lat="45.2429818009616" lon="8.933916706709008"><ele>76.0</ele><time>2026-04-11T14:12:41.001Z</time></trkpt><trkpt lat="45.2430893570928" lon="8.93386042366028"><ele>76.0</ele><time>2026-04-11T14:12:43.001Z</time></trkpt><trkpt lat="45.24316821049945" lon="8.933799991065385"><ele>76.0</ele><time>2026-04-11T14:12:44.001Z</time></trkpt><trkpt lat="45.243254401792065" lon="8.933726256898105"><ele>76.0</ele><time>2026-04-11T14:12:45.001Z</time></trkpt><trkpt lat="45.24334699492518" lon="8.93364945411246"><ele>76.0</ele><time>2026-04-11T14:12:46.001Z</time></trkpt><trkpt lat="45.24345024503727" lon="8.93356619339118"><ele>76.0</ele><time>2026-04-11T14:12:47.001Z</time></trkpt><trkpt lat="45.243557934900814" lon="8.933477374164712"><ele>76.0</ele><time>2026-04-11T14:12:48.001Z</time></trkpt><trkpt lat="45.243666226360276" lon="8.933389052673578"><ele>76.0</ele><time>2026-04-11T14:12:49.001Z</time></trkpt><trkpt lat="45.24376800519079" lon="8.933312288239202"><ele>76.0</ele><time>2026-04-11T14:12:50.001Z</time></trkpt><trkpt lat="45.24387623310864" lon="8.933238094369504"><ele>76.5</ele><time>2026-04-11T14:12:51.001Z</time></trkpt><trkpt lat="45.24398336150392" lon="8.933167988200257"><ele>77.0</ele><time>2026-04-11T14:12:52.001Z</time></trkpt><trkpt lat="45.24409116572621" lon="8.933099915347846"><ele>77.5</ele><time>2026-04-11T14:12:53.001Z</time></trkpt><trkpt lat="45.24420133012801" lon="8.933047656533427"><ele>78.0</ele><time>2026-04-11T14:12:54.001Z</time></trkpt><trkpt lat="45.24431172774311" lon="8.932997118106876"><ele>78.0</ele><time>2026-04-11T14:12:55.001Z</time></trkpt><trkpt lat="45.24441811894754" lon="8.932925849656376"><ele>78.0</ele><time>2026-04-11T14:12:56.001Z</time></trkpt><trkpt lat="45.24452534691896" lon="8.932852062981825"><ele>78.0</ele><time>2026-04-11T14:12:57.001Z</time></trkpt><trkpt lat="45.24461784231646" lon="8.932787096649399"><ele>78.0</ele><time>2026-04-11T14:12:58.001Z</time></trkpt><trkpt lat="45.24470211409447" lon="8.932725301425283"><ele>78.0</ele><time>2026-04-11T14:12:59.001Z</time></trkpt><trkpt lat="45.24477549379903" lon="8.932642707357568"><ele>77.83333333333333</ele><time>2026-04-11T14:13:00.001Z</time></trkpt><trkpt lat="45.24485074926615" lon="8.932597096841546"><ele>77.66666666666667</ele><time>2026-04-11T14:13:01.001Z</time></trkpt><trkpt lat="45.244916144751265" lon="8.932550745905683"><ele>77.5</ele><time>2026-04-11T14:13:02.001Z</time></trkpt><trkpt lat="45.244986482410084" lon="8.93250110032202"><ele>77.33333333333334</ele><time>2026-04-11T14:13:04.001Z</time></trkpt><trkpt lat="45.24506187089829" lon="8.932519419162972"><ele>77.16666666666667</ele><time>2026-04-11T14:13:07.001Z</time></trkpt><trkpt lat="45.24511421467454" lon="8.932627225493983"><ele>77.0</ele><time>2026-04-11T14:13:08.001Z</time></trkpt><trkpt lat="45.24516743290509" lon="8.932706432748928"><ele>77.0</ele><time>2026-04-11T14:13:09.001Z</time></trkpt><trkpt lat="45.245228722950465" lon="8.93280305836738"><ele>77.0</ele><time>2026-04-11T14:13:10.001Z</time></trkpt><trkpt lat="45.24529595409076" lon="8.932895174014599"><ele>77.0</ele><time>2026-04-11T14:13:11.001Z</time></trkpt><trkpt lat="45.245384759412644" lon="8.93300620913328"><ele>77.0</ele><time>2026-04-11T14:13:12.001Z</time></trkpt><trkpt lat="45.245477131972166" lon="8.93312152328893"><ele>77.0</ele><time>2026-04-11T14:13:13.001Z</time></trkpt><trkpt lat="45.24557005422346" lon="8.933266758139094"><ele>76.0</ele><time>2026-04-11T14:13:14.001Z</time></trkpt><trkpt lat="45.24565362953455" lon="8.933408054513198"><ele>75.0</ele><time>2026-04-11T14:13:15.001Z</time></trkpt><trkpt lat="45.245723151478856" lon="8.933535047914395"><ele>74.0</ele><time>2026-04-11T14:13:16.001Z</time></trkpt><trkpt lat="45.24577978603507" lon="8.93367548534347"><ele>73.0</ele><time>2026-04-11T14:13:17.001Z</time></trkpt><trkpt lat="45.24582870206534" lon="8.933825114078687"><ele>73.0</ele><time>2026-04-11T14:13:18.001Z</time></trkpt><trkpt lat="45.24586643981631" lon="8.933994986748614"><ele>73.0</ele><time>2026-04-11T14:13:19.001Z</time></trkpt><trkpt lat="45.245899233453486" lon="8.934167184033457"><ele>73.0</ele><time>2026-04-11T14:13:20.001Z</time></trkpt><trkpt lat="45.245935407732865" lon="8.934342824976863"><ele>73.0</ele><time>2026-04-11T14:13:21.001Z</time></trkpt><trkpt lat="45.24596943243165" lon="8.934519797360995"><ele>73.0</ele><time>2026-04-11T14:13:22.001Z</time></trkpt><trkpt lat="45.2460061201045" lon="8.934691841065773"><ele>73.0</ele><time>2026-04-11T14:13:23.001Z</time></trkpt><trkpt lat="45.24604068919367" lon="8.934853061922194"><ele>73.0</ele><time>2026-04-11T14:13:24.001Z</time></trkpt><trkpt lat="45.24606701792379" lon="8.934987789782129"><ele>73.0</ele><time>2026-04-11T14:13:25.001Z</time></trkpt><trkpt lat="45.24609538253908" lon="8.935109683272998"><ele>73.0</ele><time>2026-04-11T14:13:26.001Z</time></trkpt><trkpt lat="45.24612455211108" lon="8.935210765730169"><ele>73.0</ele><time>2026-04-11T14:13:27.001Z</time></trkpt><trkpt lat="45.24616282613295" lon="8.93530620434127"><ele>73.0</ele><time>2026-04-11T14:13:28.001Z</time></trkpt><trkpt lat="45.246183767577485" lon="8.93539561985366"><ele>73.0</ele><time>2026-04-11T14:13:29.001Z</time></trkpt><trkpt lat="45.24624205085799" lon="8.93547109672733"><ele>73.0</ele><time>2026-04-11T14:13:30.001Z</time></trkpt><trkpt lat="45.24631360373731" lon="8.935512957631088"><ele>73.0</ele><time>2026-04-11T14:13:31.001Z</time></trkpt><trkpt lat="45.24640649467281" lon="8.935535980836487"><ele>73.0</ele><time>2026-04-11T14:13:32.001Z</time></trkpt><trkpt lat="45.24649594357258" lon="8.935562946856885"><ele>73.0</ele><time>2026-04-11T14:13:33.001Z</time></trkpt><trkpt lat="45.24658916086054" lon="8.935593077702332"><ele>73.0</ele><time>2026-04-11T14:13:34.001Z</time></trkpt><trkpt lat="45.246690523766425" lon="8.9356258414638"><ele>73.0</ele><time>2026-04-11T14:13:35.001Z</time></trkpt><trkpt lat="45.24680276103345" lon="8.935662392167671"><ele>73.0</ele><time>2026-04-11T14:13:36.001Z</time></trkpt><trkpt lat="45.246915093524585" lon="8.935676323839813"><ele>73.0</ele><time>2026-04-11T14:13:37.001Z</time></trkpt><trkpt lat="45.2470304911167" lon="8.935734858754033"><ele>73.0</ele><time>2026-04-11T14:13:38.001Z</time></trkpt><trkpt lat="45.24714707636503" lon="8.935772037888821"><ele>73.0</ele><time>2026-04-11T14:13:39.001Z</time></trkpt><trkpt lat="45.24727068983805" lon="8.935803306059755"><ele>73.0</ele><time>2026-04-11T14:13:40.001Z</time></trkpt><trkpt lat="45.24738912023214" lon="8.935859552214588"><ele>73.0</ele><time>2026-04-11T14:13:41.001Z</time></trkpt><trkpt lat="45.24749798950349" lon="8.935891365774722"><ele>72.5</ele><time>2026-04-11T14:13:41.999Z</time></trkpt><trkpt lat="45.247624424683885" lon="8.935933341878703"><ele>72.0</ele><time>2026-04-11T14:13:42.999Z</time></trkpt><trkpt lat="45.24774470122808" lon="8.935974276120225"><ele>71.5</ele><time>2026-04-11T14:13:43.999Z</time></trkpt><trkpt lat="45.247872110051674" lon="8.936015895444667"><ele>71.0</ele><time>2026-04-11T14:13:44.999Z</time></trkpt><trkpt lat="45.247999585166795" lon="8.936053327148217"><ele>71.0</ele><time>2026-04-11T14:13:45.999Z</time></trkpt><trkpt lat="45.248122661757506" lon="8.936089846792072"><ele>71.0</ele><time>2026-04-11T14:13:46.999Z</time></trkpt><trkpt lat="45.24822700332303" lon="8.936130651228916"><ele>71.0</ele><time>2026-04-11T14:13:47.999Z</time></trkpt><trkpt lat="45.24833002182396" lon="8.93616199961725"><ele>71.0</ele><time>2026-04-11T14:13:48.999Z</time></trkpt><trkpt lat="45.24843250492001" lon="8.93620127747372"><ele>71.0</ele><time>2026-04-11T14:13:49.999Z</time></trkpt><trkpt lat="45.24852585025616" lon="8.93623646085533"><ele>71.2</ele><time>2026-04-11T14:13:50.999Z</time></trkpt><trkpt lat="45.248624175316664" lon="8.936278893725445"><ele>71.39999999999999</ele><time>2026-04-11T14:13:51.999Z</time></trkpt><trkpt lat="45.248722963856714" lon="8.93633018827398"><ele>71.6</ele><time>2026-04-11T14:13:52.999Z</time></trkpt><trkpt lat="45.248826616634595" lon="8.936420684854124"><ele>71.8</ele><time>2026-04-11T14:13:53.999Z</time></trkpt><trkpt lat="45.24894021660895" lon="8.936462393965414"><ele>72.0</ele><time>2026-04-11T14:13:54.999Z</time></trkpt><trkpt lat="45.24906277232888" lon="8.936498604812702"><ele>72.25</ele><time>2026-04-11T14:13:55.999Z</time></trkpt><trkpt lat="45.24919900007488" lon="8.936553816535218"><ele>72.5</ele><time>2026-04-11T14:13:56.999Z</time></trkpt><trkpt lat="45.249337578608994" lon="8.936602538831412"><ele>72.75</ele><time>2026-04-11T14:13:58Z</time></trkpt><trkpt lat="45.2494795801468" lon="8.936644013292995"><ele>73.0</ele><time>2026-04-11T14:13:59Z</time></trkpt><trkpt lat="45.249619740531124" lon="8.936684125271123"><ele>72.75</ele><time>2026-04-11T14:14:00Z</time></trkpt><trkpt lat="45.24976151712025" lon="8.936725066582513"><ele>72.5</ele><time>2026-04-11T14:14:01Z</time></trkpt><trkpt lat="45.24990836041015" lon="8.936772844501723"><ele>72.25</ele><time>2026-04-11T14:14:02Z</time></trkpt><trkpt lat="45.250055541578746" lon="8.936824548844044"><ele>72.0</ele><time>2026-04-11T14:14:03Z</time></trkpt><trkpt lat="45.25020482969888" lon="8.936874431044501"><ele>72.0</ele><time>2026-04-11T14:14:04Z</time></trkpt><trkpt lat="45.25035453759173" lon="8.93693219397089"><ele>72.0</ele><time>2026-04-11T14:14:05Z</time></trkpt><trkpt lat="45.250504077548314" lon="8.936993027160144"><ele>72.0</ele><time>2026-04-11T14:14:06Z</time></trkpt><trkpt lat="45.25065597056115" lon="8.937048255841926"><ele>71.75</ele><time>2026-04-11T14:14:07Z</time></trkpt><trkpt lat="45.25079615533518" lon="8.937084408704342"><ele>71.5</ele><time>2026-04-11T14:14:08Z</time></trkpt><trkpt lat="45.25090881723421" lon="8.937113966184778"><ele>71.25</ele><time>2026-04-11T14:14:09Z</time></trkpt><trkpt lat="45.25101626210155" lon="8.937165589256102"><ele>71.0</ele><time>2026-04-11T14:14:10Z</time></trkpt><trkpt lat="45.25111394824561" lon="8.937197371391175"><ele>71.0</ele><time>2026-04-11T14:14:11Z</time></trkpt><trkpt lat="45.251195380551316" lon="8.937231702406331"><ele>71.0</ele><time>2026-04-11T14:14:12Z</time></trkpt><trkpt lat="45.251261693126196" lon="8.93725066794432"><ele>71.0</ele><time>2026-04-11T14:14:13Z</time></trkpt><trkpt lat="45.25138220812182" lon="8.937327788860285"><ele>71.0</ele><time>2026-04-11T14:14:15Z</time></trkpt><trkpt lat="45.251427288436076" lon="8.937417676829174"><ele>71.0</ele><time>2026-04-11T14:14:17Z</time></trkpt><trkpt lat="45.25139942301864" lon="8.937549592780615"><ele>70.83333333333334</ele><time>2026-04-11T14:14:19Z</time></trkpt><trkpt lat="45.25135349262243" lon="8.937621002079917"><ele>70.66666666666667</ele><time>2026-04-11T14:14:20Z</time></trkpt><trkpt lat="45.25130374824094" lon="8.937703433830427"><ele>70.5</ele><time>2026-04-11T14:14:21Z</time></trkpt><trkpt lat="45.25125377353198" lon="8.937809788168881"><ele>70.33333333333333</ele><time>2026-04-11T14:14:22Z</time></trkpt><trkpt lat="45.25122128270036" lon="8.937911726179134"><ele>70.16666666666666</ele><time>2026-04-11T14:14:23Z</time></trkpt><trkpt lat="45.251198146776275" lon="8.938025232379788"><ele>70.0</ele><time>2026-04-11T14:14:24Z</time></trkpt><trkpt lat="45.251198736519584" lon="8.938145829387192"><ele>70.0</ele><time>2026-04-11T14:14:25Z</time></trkpt><trkpt lat="45.25122116468734" lon="8.938272943319179"><ele>70.0</ele><time>2026-04-11T14:14:26Z</time></trkpt><trkpt lat="45.25125138974054" lon="8.938411713832146"><ele>70.0</ele><time>2026-04-11T14:14:27Z</time></trkpt><trkpt lat="45.25128700094546" lon="8.93854318951282"><ele>70.0</ele><time>2026-04-11T14:14:28Z</time></trkpt><trkpt lat="45.251311278450814" lon="8.938678129635607"><ele>70.0</ele><time>2026-04-11T14:14:29Z</time></trkpt><trkpt lat="45.2513263234021" lon="8.938826097919543"><ele>70.5</ele><time>2026-04-11T14:14:30Z</time></trkpt><trkpt lat="45.25133524299356" lon="8.938979107958003"><ele>71.0</ele><time>2026-04-11T14:14:31Z</time></trkpt><trkpt lat="45.25134222617764" lon="8.939139736453004"><ele>71.5</ele><time>2026-04-11T14:14:32Z</time></trkpt><trkpt lat="45.25135354957278" lon="8.939308219149126"><ele>72.0</ele><time>2026-04-11T14:14:33Z</time></trkpt><trkpt lat="45.251373371881485" lon="8.939479532841665"><ele>72.0</ele><time>2026-04-11T14:14:34Z</time></trkpt><trkpt lat="45.25139648986364" lon="8.939640452849826"><ele>72.0</ele><time>2026-04-11T14:14:35Z</time></trkpt><trkpt lat="45.25141380902034" lon="8.939780226366155"><ele>72.0</ele><time>2026-04-11T14:14:36Z</time></trkpt><trkpt lat="45.251426269515996" lon="8.939911839269852"><ele>72.0</ele><time>2026-04-11T14:14:37Z</time></trkpt><trkpt lat="45.25142867744705" lon="8.940046847442085"><ele>72.0</ele><time>2026-04-11T14:14:38Z</time></trkpt><trkpt lat="45.25141203075184" lon="8.940161259781933"><ele>72.0</ele><time>2026-04-11T14:14:39Z</time></trkpt><trkpt lat="45.2513799059477" lon="8.940287251590863"><ele>72.0</ele><time>2026-04-11T14:14:40Z</time></trkpt><trkpt lat="45.25132873239089" lon="8.94041998838727"><ele>72.0</ele><time>2026-04-11T14:14:41Z</time></trkpt><trkpt lat="45.25127445630531" lon="8.940554238026232"><ele>72.0</ele><time>2026-04-11T14:14:42Z</time></trkpt><trkpt lat="45.25122794292227" lon="8.94069745984775"><ele>72.0</ele><time>2026-04-11T14:14:43Z</time></trkpt><trkpt lat="45.25118419501706" lon="8.940832194533469"><ele>72.0</ele><time>2026-04-11T14:14:44Z</time></trkpt><trkpt lat="45.25113990985216" lon="8.940962101907777"><ele>72.0</ele><time>2026-04-11T14:14:45Z</time></trkpt><trkpt lat="45.25109735227202" lon="8.941089323358078"><ele>72.0</ele><time>2026-04-11T14:14:46Z</time></trkpt><trkpt lat="45.25106002302912" lon="8.941212311089934"><ele>72.0</ele><time>2026-04-11T14:14:47Z</time></trkpt><trkpt lat="45.251028059452075" lon="8.941332755306947"><ele>72.0</ele><time>2026-04-11T14:14:48Z</time></trkpt><trkpt lat="45.2509969053646" lon="8.941453997114612"><ele>72.0</ele><time>2026-04-11T14:14:49Z</time></trkpt><trkpt lat="45.250965509035545" lon="8.941573271683206"><ele>72.0</ele><time>2026-04-11T14:14:50Z</time></trkpt><trkpt lat="45.25093051094254" lon="8.941692095632039"><ele>72.0</ele><time>2026-04-11T14:14:51Z</time></trkpt><trkpt lat="45.25089025794518" lon="8.941821485694534"><ele>72.0</ele><time>2026-04-11T14:14:52.001Z</time></trkpt><trkpt lat="45.25085027548835" lon="8.9419588338889"><ele>72.0</ele><time>2026-04-11T14:14:53.001Z</time></trkpt><trkpt lat="45.250809074101355" lon="8.942081178699045"><ele>72.0</ele><time>2026-04-11T14:14:54.001Z</time></trkpt><trkpt lat="45.25077067421301" lon="8.942216982791134"><ele>72.0</ele><time>2026-04-11T14:14:55.001Z</time></trkpt><trkpt lat="45.2507257642737" lon="8.942353423854465"><ele>72.0</ele><time>2026-04-11T14:14:56.001Z</time></trkpt><trkpt lat="45.25068261881332" lon="8.942488775451888"><ele>72.0</ele><time>2026-04-11T14:14:57.001Z</time></trkpt><trkpt lat="45.2506409718776" lon="8.94260283066678"><ele>72.0</ele><time>2026-04-11T14:14:58.001Z</time></trkpt><trkpt lat="45.25061157316331" lon="8.942701137386168"><ele>72.0</ele><time>2026-04-11T14:14:59.001Z</time></trkpt><trkpt lat="45.25059525341016" lon="8.942797475923419"><ele>72.0</ele><time>2026-04-11T14:15:00.001Z</time></trkpt><trkpt lat="45.25058512152794" lon="8.942895136256748"><ele>72.0</ele><time>2026-04-11T14:15:01.001Z</time></trkpt><trkpt lat="45.25056048954159" lon="8.943000691810447"><ele>72.0</ele><time>2026-04-11T14:15:02.001Z</time></trkpt><trkpt lat="45.250523770351535" lon="8.943119391804712"><ele>72.0</ele><time>2026-04-11T14:15:03.001Z</time></trkpt><trkpt lat="45.25048412600906" lon="8.943257513041386"><ele>72.0</ele><time>2026-04-11T14:15:04.001Z</time></trkpt><trkpt lat="45.250446993706" lon="8.943407954429887"><ele>72.0</ele><time>2026-04-11T14:15:05.001Z</time></trkpt><trkpt lat="45.25040604704616" lon="8.943557446386043"><ele>72.0</ele><time>2026-04-11T14:15:06.001Z</time></trkpt><trkpt lat="45.25036256985656" lon="8.943719195769136"><ele>72.0</ele><time>2026-04-11T14:15:07.001Z</time></trkpt><trkpt lat="45.25032655360833" lon="8.94386254317915"><ele>72.0</ele><time>2026-04-11T14:15:08.001Z</time></trkpt><trkpt lat="45.25030055304612" lon="8.94399685578057"><ele>72.0</ele><time>2026-04-11T14:15:09.001Z</time></trkpt><trkpt lat="45.25028568746845" lon="8.944129944886852"><ele>71.75</ele><time>2026-04-11T14:15:10.001Z</time></trkpt><trkpt lat="45.25029239884133" lon="8.94427198999985"><ele>71.5</ele><time>2026-04-11T14:15:11.001Z</time></trkpt><trkpt lat="45.25033706690044" lon="8.944443602293237"><ele>71.25</ele><time>2026-04-11T14:15:12.001Z</time></trkpt><trkpt lat="45.250371950005864" lon="8.94459637073217"><ele>71.0</ele><time>2026-04-11T14:15:13.001Z</time></trkpt><trkpt lat="45.25043364759095" lon="8.944759807224655"><ele>71.0</ele><time>2026-04-11T14:15:14.001Z</time></trkpt><trkpt lat="45.250506442201356" lon="8.94493420038342"><ele>71.0</ele><time>2026-04-11T14:15:15.001Z</time></trkpt><trkpt lat="45.25058818617374" lon="8.945100792851616"><ele>71.0</ele><time>2026-04-11T14:15:16.001Z</time></trkpt><trkpt lat="45.25066182682673" lon="8.94524571722291"><ele>71.0</ele><time>2026-04-11T14:15:17.001Z</time></trkpt><trkpt lat="45.25072399487844" lon="8.945359916602293"><ele>71.16666666666667</ele><time>2026-04-11T14:15:18.001Z</time></trkpt><trkpt lat="45.25077852636609" lon="8.945471657122384"><ele>71.33333333333334</ele><time>2026-04-11T14:15:19.001Z</time></trkpt><trkpt lat="45.2508255547443" lon="8.945569160205006"><ele>71.5</ele><time>2026-04-11T14:15:20.001Z</time></trkpt><trkpt lat="45.250852474440876" lon="8.945679155471439"><ele>71.66666666666667</ele><time>2026-04-11T14:15:21.001Z</time></trkpt><trkpt lat="45.25092138961315" lon="8.94576392272424"><ele>71.83333333333333</ele><time>2026-04-11T14:15:22.001Z</time></trkpt><trkpt lat="45.250949413168435" lon="8.945884634203416"><ele>72.0</ele><time>2026-04-11T14:15:23.001Z</time></trkpt><trkpt lat="45.251018940745354" lon="8.945975489516782"><ele>71.6</ele><time>2026-04-11T14:15:24.001Z</time></trkpt><trkpt lat="45.25107894336335" lon="8.946084217536738"><ele>71.2</ele><time>2026-04-11T14:15:25.001Z</time></trkpt><trkpt lat="45.25114243938784" lon="8.946212013279458"><ele>70.8</ele><time>2026-04-11T14:15:26.001Z</time></trkpt><trkpt lat="45.251205087211495" lon="8.946344052948428"><ele>70.4</ele><time>2026-04-11T14:15:27.001Z</time></trkpt><trkpt lat="45.251263985601426" lon="8.946464096033266"><ele>70.0</ele><time>2026-04-11T14:15:28.001Z</time></trkpt><trkpt lat="45.251317236554364" lon="8.94656628163098"><ele>70.0</ele><time>2026-04-11T14:15:29.001Z</time></trkpt><trkpt lat="45.251369847841566" lon="8.946690807349254"><ele>70.0</ele><time>2026-04-11T14:15:30.001Z</time></trkpt><trkpt lat="45.25142900378126" lon="8.94679459160842"><ele>70.0</ele><time>2026-04-11T14:15:31.001Z</time></trkpt><trkpt lat="45.25148135010312" lon="8.946903270421643"><ele>70.0</ele><time>2026-04-11T14:15:32.001Z</time></trkpt><trkpt lat="45.251538346108966" lon="8.947021976751723"><ele>70.0</ele><time>2026-04-11T14:15:33.001Z</time></trkpt><trkpt lat="45.25159566039644" lon="8.947122825520246"><ele>70.4</ele><time>2026-04-11T14:15:34.001Z</time></trkpt><trkpt lat="45.25165060572323" lon="8.947232037634288"><ele>70.8</ele><time>2026-04-11T14:15:35.001Z</time></trkpt><trkpt lat="45.251704461884735" lon="8.947343963528002"><ele>71.2</ele><time>2026-04-11T14:15:36.001Z</time></trkpt><trkpt lat="45.25176549958973" lon="8.947464728635907"><ele>71.6</ele><time>2026-04-11T14:15:37.001Z</time></trkpt><trkpt lat="45.251830121221" lon="8.947586686108401"><ele>72.0</ele><time>2026-04-11T14:15:38.001Z</time></trkpt><trkpt lat="45.25188710185817" lon="8.947706338006764"><ele>72.0</ele><time>2026-04-11T14:15:39.001Z</time></trkpt><trkpt lat="45.25194003555211" lon="8.94781867654932"><ele>72.0</ele><time>2026-04-11T14:15:40.001Z</time></trkpt><trkpt lat="45.25200519670783" lon="8.947938112000909"><ele>72.0</ele><time>2026-04-11T14:15:41.001Z</time></trkpt><trkpt lat="45.25206231855035" lon="8.948072918002508"><ele>72.0</ele><time>2026-04-11T14:15:42.001Z</time></trkpt><trkpt lat="45.25212155323867" lon="8.948200940514091"><ele>72.0</ele><time>2026-04-11T14:15:43.001Z</time></trkpt><trkpt lat="45.252178260950714" lon="8.948317609553083"><ele>71.8</ele><time>2026-04-11T14:15:44.001Z</time></trkpt><trkpt lat="45.252238285799194" lon="8.948429721662658"><ele>71.6</ele><time>2026-04-11T14:15:45.001Z</time></trkpt><trkpt lat="45.25229120669258" lon="8.948552190539163"><ele>71.39999999999999</ele><time>2026-04-11T14:15:46.001Z</time></trkpt><trkpt lat="45.252350568044776" lon="8.948668039519507"><ele>71.2</ele><time>2026-04-11T14:15:47.001Z</time></trkpt><trkpt lat="45.25240590989695" lon="8.948793167603505"><ele>71.0</ele><time>2026-04-11T14:15:47.999Z</time></trkpt><trkpt lat="45.25246209841074" lon="8.948921130953371"><ele>71.0</ele><time>2026-04-11T14:15:48.999Z</time></trkpt><trkpt lat="45.2525137066839" lon="8.949047406611733"><ele>71.0</ele><time>2026-04-11T14:15:49.999Z</time></trkpt><trkpt lat="45.25256388258742" lon="8.949191250847617"><ele>71.0</ele><time>2026-04-11T14:15:50.999Z</time></trkpt><trkpt lat="45.2526279377077" lon="8.949319407049746"><ele>71.0</ele><time>2026-04-11T14:15:51.999Z</time></trkpt><trkpt lat="45.252691361599815" lon="8.949439222060475"><ele>71.0</ele><time>2026-04-11T14:15:52.999Z</time></trkpt><trkpt lat="45.25275209649646" lon="8.949546046482345"><ele>71.2</ele><time>2026-04-11T14:15:53.999Z</time></trkpt><trkpt lat="45.25281578558093" lon="8.949665406931844"><ele>71.39999999999999</ele><time>2026-04-11T14:15:54.999Z</time></trkpt><trkpt lat="45.25288228617739" lon="8.949777652601645"><ele>71.6</ele><time>2026-04-11T14:15:55.999Z</time></trkpt><trkpt lat="45.25295294369945" lon="8.949868377329059"><ele>71.8</ele><time>2026-04-11T14:15:56.999Z</time></trkpt><trkpt lat="45.25304079142663" lon="8.949943776004488"><ele>72.0</ele><time>2026-04-11T14:15:58Z</time></trkpt><trkpt lat="45.253122754973425" lon="8.950042530384756"><ele>71.6</ele><time>2026-04-11T14:15:59Z</time></trkpt><trkpt lat="45.25321782876465" lon="8.95011185372605"><ele>71.2</ele><time>2026-04-11T14:16:00Z</time></trkpt><trkpt lat="45.25332394919928" lon="8.950182541431648"><ele>70.8</ele><time>2026-04-11T14:16:01Z</time></trkpt><trkpt lat="45.25342721980513" lon="8.950243243085062"><ele>70.4</ele><time>2026-04-11T14:16:02Z</time></trkpt><trkpt lat="45.25352676902133" lon="8.950307506848954"><ele>70.0</ele><time>2026-04-11T14:16:03Z</time></trkpt><trkpt lat="45.253622074659745" lon="8.95037079299947"><ele>70.0</ele><time>2026-04-11T14:16:04Z</time></trkpt><trkpt lat="45.25371567003301" lon="8.95043064535057"><ele>70.0</ele><time>2026-04-11T14:16:05Z</time></trkpt><trkpt lat="45.25380480382599" lon="8.950489047387578"><ele>70.0</ele><time>2026-04-11T14:16:06Z</time></trkpt><trkpt lat="45.25388627600002" lon="8.950536670774072"><ele>70.0</ele><time>2026-04-11T14:16:07Z</time></trkpt><trkpt lat="45.25397534987928" lon="8.950589711203822"><ele>70.0</ele><time>2026-04-11T14:16:08Z</time></trkpt><trkpt lat="45.25406182755614" lon="8.950639398330877"><ele>70.16666666666666</ele><time>2026-04-11T14:16:09Z</time></trkpt><trkpt lat="45.25413595504045" lon="8.950712862596923"><ele>70.33333333333333</ele><time>2026-04-11T14:16:10Z</time></trkpt><trkpt lat="45.25421861235276" lon="8.95076963178252"><ele>70.5</ele><time>2026-04-11T14:16:11Z</time></trkpt><trkpt lat="45.25428871955505" lon="8.950804398514064"><ele>70.66666666666667</ele><time>2026-04-11T14:16:12Z</time></trkpt><trkpt lat="45.254353337566705" lon="8.950859230934086"><ele>70.83333333333334</ele><time>2026-04-11T14:16:13Z</time></trkpt><trkpt lat="45.254415825614316" lon="8.95090498459064"><ele>71.0</ele><time>2026-04-11T14:16:14Z</time></trkpt><trkpt lat="45.254509005513604" lon="8.950936325112625"><ele>71.0</ele><time>2026-04-11T14:16:15Z</time></trkpt><trkpt lat="45.25459816259233" lon="8.95097980223549"><ele>71.0</ele><time>2026-04-11T14:16:16Z</time></trkpt><trkpt lat="45.25467345402158" lon="8.951025899767933"><ele>71.0</ele><time>2026-04-11T14:16:17Z</time></trkpt><trkpt lat="45.25473839150708" lon="8.951071977073145"><ele>71.0</ele><time>2026-04-11T14:16:18Z</time></trkpt><trkpt lat="45.254798036903686" lon="8.951143468222321"><ele>71.0</ele><time>2026-04-11T14:16:19Z</time></trkpt><trkpt lat="45.254860180904096" lon="8.95120770451357"><ele>71.0</ele><time>2026-04-11T14:16:20Z</time></trkpt><trkpt lat="45.25493464069611" lon="8.95128458673854"><ele>71.5</ele><time>2026-04-11T14:16:21Z</time></trkpt><trkpt lat="45.25498185130361" lon="8.951388129272749"><ele>72.0</ele><time>2026-04-11T14:16:22Z</time></trkpt><trkpt lat="45.25501806904871" lon="8.951495662578257"><ele>72.5</ele><time>2026-04-11T14:16:23Z</time></trkpt><trkpt lat="45.255062762389976" lon="8.951605640098167"><ele>73.0</ele><time>2026-04-11T14:16:24Z</time></trkpt><trkpt lat="45.25511038545583" lon="8.951718198966228"><ele>73.5</ele><time>2026-04-11T14:16:25Z</time></trkpt><trkpt lat="45.25514452443867" lon="8.951797984049074"><ele>74.0</ele><time>2026-04-11T14:16:26Z</time></trkpt><trkpt lat="45.255196979592" lon="8.951901442031426"><ele>74.0</ele><time>2026-04-11T14:16:27Z</time></trkpt><trkpt lat="45.25522352615807" lon="8.952005852438983"><ele>74.0</ele><time>2026-04-11T14:16:28Z</time></trkpt><trkpt lat="45.25527596523578" lon="8.95214187995974"><ele>74.0</ele><time>2026-04-11T14:16:30Z</time></trkpt><trkpt lat="45.2553248090785" lon="8.952268581439936"><ele>74.0</ele><time>2026-04-11T14:16:32Z</time></trkpt><trkpt lat="45.255364169081645" lon="8.95237811286711"><ele>74.0</ele><time>2026-04-11T14:16:34Z</time></trkpt><trkpt lat="45.255537059804105" lon="8.95245386929789"><ele>74.0</ele><time>2026-04-11T14:16:49.001Z</time></trkpt><trkpt lat="45.25560329376763" lon="8.952437321359705"><ele>74.0</ele><time>2026-04-11T14:16:50.001Z</time></trkpt><trkpt lat="45.25566836839249" lon="8.952416740146191"><ele>74.0</ele><time>2026-04-11T14:16:51.001Z</time></trkpt><trkpt lat="45.25579982494931" lon="8.952365372619292"><ele>74.0</ele><time>2026-04-11T14:16:53.001Z</time></trkpt><trkpt lat="45.25586274753717" lon="8.95233392415905"><ele>74.0</ele><time>2026-04-11T14:16:54.001Z</time></trkpt><trkpt lat="45.25597021878657" lon="8.952268896273825"><ele>74.8</ele><time>2026-04-11T14:16:56.001Z</time></trkpt><trkpt lat="45.25603820735332" lon="8.95222493213255"><ele>75.60000000000001</ele><time>2026-04-11T14:16:57.001Z</time></trkpt><trkpt lat="45.25615419454264" lon="8.95214596553116"><ele>76.4</ele><time>2026-04-11T14:16:59.001Z</time></trkpt><trkpt lat="45.25621450204527" lon="8.952103928656777"><ele>77.2</ele><time>2026-04-11T14:17:00.001Z</time></trkpt><trkpt lat="45.25630988742157" lon="8.952037441021398"><ele>78.0</ele><time>2026-04-11T14:17:02.001Z</time></trkpt><trkpt lat="45.256413562976185" lon="8.951975764300233"><ele>78.2</ele><time>2026-04-11T14:17:04.001Z</time></trkpt><trkpt lat="45.25650922719719" lon="8.95194105774054"><ele>78.4</ele><time>2026-04-11T14:17:06.001Z</time></trkpt><trkpt lat="45.25659803212281" lon="8.951875741692923"><ele>78.60000000000001</ele><time>2026-04-11T14:17:08.001Z</time></trkpt><trkpt lat="45.256697993862986" lon="8.951786373593343"><ele>78.8</ele><time>2026-04-11T14:17:10.001Z</time></trkpt><trkpt lat="45.25675708813102" lon="8.951747682568119"><ele>79.0</ele><time>2026-04-11T14:17:11.001Z</time></trkpt><trkpt lat="45.256829870777565" lon="8.951683546920126"><ele>79.0</ele><time>2026-04-11T14:17:13.001Z</time></trkpt><trkpt lat="45.256909699682794" lon="8.951650134992395"><ele>79.0</ele><time>2026-04-11T14:17:15.001Z</time></trkpt><trkpt lat="45.256993339381445" lon="8.951646964294685"><ele>79.0</ele><time>2026-04-11T14:17:17.001Z</time></trkpt><trkpt lat="45.2570811366364" lon="8.951777196967752"><ele>79.0</ele><time>2026-04-11T14:17:19.001Z</time></trkpt><trkpt lat="45.257125775761736" lon="8.951864991202985"><ele>79.0</ele><time>2026-04-11T14:17:20.001Z</time></trkpt><trkpt lat="45.25716050294905" lon="8.951962772810079"><ele>79.0</ele><time>2026-04-11T14:17:21.001Z</time></trkpt><trkpt lat="45.257190688678605" lon="8.952068220313894"><ele>79.0</ele><time>2026-04-11T14:17:22.001Z</time></trkpt><trkpt lat="45.257222300662434" lon="8.952185199280018"><ele>79.0</ele><time>2026-04-11T14:17:23.001Z</time></trkpt><trkpt lat="45.257256304794524" lon="8.952297226447882"><ele>79.0</ele><time>2026-04-11T14:17:24.001Z</time></trkpt><trkpt lat="45.25729421674852" lon="8.952383162736869"><ele>79.0</ele><time>2026-04-11T14:17:25.001Z</time></trkpt><trkpt lat="45.257364735893844" lon="8.952497992541709"><ele>79.0</ele><time>2026-04-11T14:17:27.001Z</time></trkpt><trkpt lat="45.257434941588926" lon="8.95250848802566"><ele>79.0</ele><time>2026-04-11T14:17:28.001Z</time></trkpt><trkpt lat="45.25750016733303" lon="8.952496732498195"><ele>77.75</ele><time>2026-04-11T14:17:29.001Z</time></trkpt><trkpt lat="45.25758830362877" lon="8.95241385243836"><ele>76.5</ele><time>2026-04-11T14:17:30.001Z</time></trkpt><trkpt lat="45.257681368455174" lon="8.95231880554569"><ele>75.25</ele><time>2026-04-11T14:17:31.001Z</time></trkpt><trkpt lat="45.257783497753266" lon="8.952211576849633"><ele>74.0</ele><time>2026-04-11T14:17:32.001Z</time></trkpt><trkpt lat="45.25788814192475" lon="8.95210458306104"><ele>74.0</ele><time>2026-04-11T14:17:33.001Z</time></trkpt><trkpt lat="45.25799407762151" lon="8.951998104517052"><ele>74.0</ele><time>2026-04-11T14:17:34.001Z</time></trkpt><trkpt lat="45.258102693993244" lon="8.951888931890991"><ele>74.0</ele><time>2026-04-11T14:17:35.001Z</time></trkpt><trkpt lat="45.25819912349322" lon="8.951791827057228"><ele>74.0</ele><time>2026-04-11T14:17:36.001Z</time></trkpt><trkpt lat="45.25829631285859" lon="8.951687473368041"><ele>72.75</ele><time>2026-04-11T14:17:37.001Z</time></trkpt><trkpt lat="45.25840012070326" lon="8.951567391434818"><ele>71.5</ele><time>2026-04-11T14:17:38.001Z</time></trkpt><trkpt lat="45.258501684069614" lon="8.95143481496521"><ele>70.25</ele><time>2026-04-11T14:17:39.001Z</time></trkpt><trkpt lat="45.258617220606624" lon="8.951281615695512"><ele>69.0</ele><time>2026-04-11T14:17:40.001Z</time></trkpt><trkpt lat="45.258727977132295" lon="8.95113475476943"><ele>69.0</ele><time>2026-04-11T14:17:41.001Z</time></trkpt><trkpt lat="45.25883410994991" lon="8.950993360946606"><ele>69.0</ele><time>2026-04-11T14:17:42.001Z</time></trkpt><trkpt lat="45.258908228259315" lon="8.950889519129158"><ele>69.0</ele><time>2026-04-11T14:17:43.001Z</time></trkpt><trkpt lat="45.258957177880504" lon="8.950825721233908"><ele>69.0</ele><time>2026-04-11T14:17:44.001Z</time></trkpt><trkpt lat="45.259037201048635" lon="8.950750467794542"><ele>69.0</ele><time>2026-04-11T14:17:46.001Z</time></trkpt><trkpt lat="45.25910662786371" lon="8.950732984879195"><ele>69.25</ele><time>2026-04-11T14:17:48.001Z</time></trkpt><trkpt lat="45.25916870034228" lon="8.950871357120603"><ele>69.5</ele><time>2026-04-11T14:17:50.002Z</time></trkpt><trkpt lat="45.25923003868657" lon="8.950947752680895"><ele>69.75</ele><time>2026-04-11T14:17:51.002Z</time></trkpt><trkpt lat="45.25931052021298" lon="8.951077215181716"><ele>70.0</ele><time>2026-04-11T14:17:52.002Z</time></trkpt><trkpt lat="45.25940224159181" lon="8.951214482800275"><ele>70.0</ele><time>2026-04-11T14:17:53.002Z</time></trkpt><trkpt lat="45.25946909988314" lon="8.951319281945839"><ele>70.0</ele><time>2026-04-11T14:17:54Z</time></trkpt><trkpt lat="45.25954288305956" lon="8.9514198996868"><ele>70.0</ele><time>2026-04-11T14:17:55Z</time></trkpt><trkpt lat="45.259609245454925" lon="8.95151192150981"><ele>70.0</ele><time>2026-04-11T14:17:56Z</time></trkpt><trkpt lat="45.25967975014003" lon="8.95162096683776"><ele>70.0</ele><time>2026-04-11T14:17:57Z</time></trkpt><trkpt lat="45.259750803786986" lon="8.951717941183102"><ele>69.8</ele><time>2026-04-11T14:17:58Z</time></trkpt><trkpt lat="45.25982035077851" lon="8.951826858844308"><ele>69.6</ele><time>2026-04-11T14:17:59Z</time></trkpt><trkpt lat="45.259889782589326" lon="8.951919586038652"><ele>69.4</ele><time>2026-04-11T14:18:00Z</time></trkpt><trkpt lat="45.259951172983776" lon="8.952001189717965"><ele>69.2</ele><time>2026-04-11T14:18:01Z</time></trkpt><trkpt lat="45.26004790910352" lon="8.952105288288557"><ele>69.0</ele><time>2026-04-11T14:18:03Z</time></trkpt><trkpt lat="45.26015708947569" lon="8.95219553801321"><ele>69.0</ele><time>2026-04-11T14:18:05Z</time></trkpt><trkpt lat="45.260220800025465" lon="8.952202061582385"><ele>69.0</ele><time>2026-04-11T14:18:06Z</time></trkpt><trkpt lat="45.26029009893995" lon="8.952166038555816"><ele>69.0</ele><time>2026-04-11T14:18:07Z</time></trkpt><trkpt lat="45.26037845511478" lon="8.952071549772892"><ele>69.0</ele><time>2026-04-11T14:18:08Z</time></trkpt><trkpt lat="45.26046884653092" lon="8.951957554410473"><ele>69.0</ele><time>2026-04-11T14:18:09Z</time></trkpt><trkpt lat="45.260560265458395" lon="8.95184823901966"><ele>69.0</ele><time>2026-04-11T14:18:10Z</time></trkpt><trkpt lat="45.2606362253149" lon="8.95176534057033"><ele>69.0</ele><time>2026-04-11T14:18:11Z</time></trkpt><trkpt lat="45.260713302536146" lon="8.951697623226242"><ele>69.0</ele><time>2026-04-11T14:18:12Z</time></trkpt><trkpt lat="45.260785022508074" lon="8.951645090364025"><ele>69.0</ele><time>2026-04-11T14:18:13Z</time></trkpt><trkpt lat="45.26084851797355" lon="8.951595739099318"><ele>69.0</ele><time>2026-04-11T14:18:14Z</time></trkpt><trkpt lat="45.26091524846387" lon="8.951542780862393"><ele>69.0</ele><time>2026-04-11T14:18:15Z</time></trkpt><trkpt lat="45.26098909828671" lon="8.951483382556377"><ele>69.0</ele><time>2026-04-11T14:18:16Z</time></trkpt><trkpt lat="45.26105764031218" lon="8.951427907890077"><ele>69.0</ele><time>2026-04-11T14:18:17Z</time></trkpt><trkpt lat="45.261119806318305" lon="8.951377593708362"><ele>69.0</ele><time>2026-04-11T14:18:18Z</time></trkpt><trkpt lat="45.261176298302416" lon="8.951331871784136"><ele>69.0</ele><time>2026-04-11T14:18:19Z</time></trkpt><trkpt lat="45.26127097348418" lon="8.951257622658423"><ele>69.0</ele><time>2026-04-11T14:18:21Z</time></trkpt><trkpt lat="45.2613490103857" lon="8.95120006834939"><ele>69.0</ele><time>2026-04-11T14:18:23Z</time></trkpt><trkpt lat="45.26141286027567" lon="8.951153248736022"><ele>69.2</ele><time>2026-04-11T14:18:25Z</time></trkpt><trkpt lat="45.26148203375579" lon="8.951099359026557"><ele>69.4</ele><time>2026-04-11T14:18:27Z</time></trkpt><trkpt lat="45.26153889928338" lon="8.951054956211896"><ele>69.6</ele><time>2026-04-11T14:18:29.001Z</time></trkpt><trkpt lat="45.26161628457774" lon="8.950973471033375"><ele>69.8</ele><time>2026-04-11T14:18:31.001Z</time></trkpt><trkpt lat="45.26171230057407" lon="8.950908947514796"><ele>70.0</ele><time>2026-04-11T14:18:33.001Z</time></trkpt><trkpt lat="45.26180815578676" lon="8.950834668497299"><ele>70.16666666666666</ele><time>2026-04-11T14:18:35.001Z</time></trkpt><trkpt lat="45.26189287795219" lon="8.950762262005604"><ele>70.33333333333333</ele><time>2026-04-11T14:18:37.001Z</time></trkpt><trkpt lat="45.261968129388514" lon="8.950699654878893"><ele>70.5</ele><time>2026-04-11T14:18:39.001Z</time></trkpt><trkpt lat="45.26204344272443" lon="8.950646033063835"><ele>70.66666666666667</ele><time>2026-04-11T14:18:41.001Z</time></trkpt><trkpt lat="45.262115989008485" lon="8.950585578870683"><ele>70.83333333333334</ele><time>2026-04-11T14:18:43.001Z</time></trkpt><trkpt lat="45.26217946392657" lon="8.95053389732154"><ele>71.0</ele><time>2026-04-11T14:18:45.001Z</time></trkpt><trkpt lat="45.26224744787526" lon="8.950475762565024"><ele>70.8</ele><time>2026-04-11T14:18:47.001Z</time></trkpt><trkpt lat="45.26236573676343" lon="8.950387063329751"><ele>70.6</ele><time>2026-04-11T14:18:49.001Z</time></trkpt><trkpt lat="45.26244225118067" lon="8.950327322543162"><ele>70.4</ele><time>2026-04-11T14:18:50.001Z</time></trkpt><trkpt lat="45.26252280431714" lon="8.950257859982997"><ele>70.2</ele><time>2026-04-11T14:18:51.001Z</time></trkpt><trkpt lat="45.26260515977109" lon="8.950200280930439"><ele>70.0</ele><time>2026-04-11T14:18:52.001Z</time></trkpt><trkpt lat="45.26268962353796" lon="8.950124118669448"><ele>70.0</ele><time>2026-04-11T14:18:53.001Z</time></trkpt><trkpt lat="45.26279216048456" lon="8.95004928441298"><ele>70.0</ele><time>2026-04-11T14:18:54.001Z</time></trkpt><trkpt lat="45.26289641363033" lon="8.949956328482745"><ele>70.0</ele><time>2026-04-11T14:18:55.001Z</time></trkpt><trkpt lat="45.26301446033323" lon="8.949866582703656"><ele>70.0</ele><time>2026-04-11T14:18:56.001Z</time></trkpt><trkpt lat="45.263130564645216" lon="8.949782928295662"><ele>69.75</ele><time>2026-04-11T14:18:57.001Z</time></trkpt><trkpt lat="45.26323727053592" lon="8.949695175966848"><ele>69.5</ele><time>2026-04-11T14:18:58.001Z</time></trkpt><trkpt lat="45.26334166710118" lon="8.949612567127563"><ele>69.25</ele><time>2026-04-11T14:18:59.001Z</time></trkpt><trkpt lat="45.26345403122116" lon="8.949533714547474"><ele>69.0</ele><time>2026-04-11T14:19:00.001Z</time></trkpt><trkpt lat="45.2635617202631" lon="8.949444057672189"><ele>69.0</ele><time>2026-04-11T14:19:01.001Z</time></trkpt><trkpt lat="45.263679462904435" lon="8.94936029062237"><ele>69.0</ele><time>2026-04-11T14:19:02.001Z</time></trkpt><trkpt lat="45.26379587055022" lon="8.949261702454315"><ele>69.0</ele><time>2026-04-11T14:19:03.001Z</time></trkpt><trkpt lat="45.26391384930434" lon="8.949165665835553"><ele>69.0</ele><time>2026-04-11T14:19:04.001Z</time></trkpt><trkpt lat="45.26403052908771" lon="8.949077620354188"><ele>68.75</ele><time>2026-04-11T14:19:05.001Z</time></trkpt><trkpt lat="45.26414787651537" lon="8.948982589740712"><ele>68.5</ele><time>2026-04-11T14:19:06.001Z</time></trkpt><trkpt lat="45.26426932140515" lon="8.948897976503433"><ele>68.25</ele><time>2026-04-11T14:19:07.001Z</time></trkpt><trkpt lat="45.264386995182626" lon="8.94880039103808"><ele>68.0</ele><time>2026-04-11T14:19:08.001Z</time></trkpt><trkpt lat="45.26451499773159" lon="8.948700414742106"><ele>68.0</ele><time>2026-04-11T14:19:09.001Z</time></trkpt><trkpt lat="45.26462813844458" lon="8.948611291994315"><ele>68.0</ele><time>2026-04-11T14:19:10.001Z</time></trkpt><trkpt lat="45.264730141022554" lon="8.948535372493978"><ele>68.0</ele><time>2026-04-11T14:19:11.001Z</time></trkpt><trkpt lat="45.26483153485848" lon="8.948453638296304"><ele>68.0</ele><time>2026-04-11T14:19:12.001Z</time></trkpt><trkpt lat="45.26491989130531" lon="8.9483783875067"><ele>68.33333333333334</ele><time>2026-04-11T14:19:13.001Z</time></trkpt><trkpt lat="45.264987573716404" lon="8.948321054000056"><ele>68.66666666666667</ele><time>2026-04-11T14:19:14.001Z</time></trkpt><trkpt lat="45.265050734031824" lon="8.948277544441222"><ele>69.0</ele><time>2026-04-11T14:19:15.001Z</time></trkpt><trkpt lat="45.265124725622826" lon="8.948229879833526"><ele>69.33333333333333</ele><time>2026-04-11T14:19:16.001Z</time></trkpt><trkpt lat="45.265202687234535" lon="8.948142202632889"><ele>69.66666666666666</ele><time>2026-04-11T14:19:17.001Z</time></trkpt><trkpt lat="45.265277305713845" lon="8.948072434219679"><ele>70.0</ele><time>2026-04-11T14:19:18.001Z</time></trkpt><trkpt lat="45.26534297286843" lon="8.948013137219457"><ele>70.0</ele><time>2026-04-11T14:19:19.001Z</time></trkpt><trkpt lat="45.265398583759854" lon="8.947963433959735"><ele>70.0</ele><time>2026-04-11T14:19:20.001Z</time></trkpt><trkpt lat="45.26545689118005" lon="8.94792146412583"><ele>70.0</ele><time>2026-04-11T14:19:21.001Z</time></trkpt><trkpt lat="45.26555714993653" lon="8.947885420501027"><ele>70.0</ele><time>2026-04-11T14:19:23.001Z</time></trkpt><trkpt lat="45.26564277434196" lon="8.947876112515948"><ele>70.0</ele><time>2026-04-11T14:19:25.001Z</time></trkpt><trkpt lat="45.26575853062843" lon="8.94779476353022"><ele>70.0</ele><time>2026-04-11T14:19:27.001Z</time></trkpt><trkpt lat="45.265793532656744" lon="8.947699056741905"><ele>70.33333333333333</ele><time>2026-04-11T14:19:28.001Z</time></trkpt><trkpt lat="45.265806544491745" lon="8.947607162220308"><ele>70.66666666666666</ele><time>2026-04-11T14:19:29.001Z</time></trkpt><trkpt lat="45.26577760622852" lon="8.94750008207857"><ele>71.0</ele><time>2026-04-11T14:19:30.001Z</time></trkpt><trkpt lat="45.26577496556466" lon="8.947392611437879"><ele>71.33333333333333</ele><time>2026-04-11T14:19:32.001Z</time></trkpt><trkpt lat="45.265817855255065" lon="8.947301770459632"><ele>71.66666666666667</ele><time>2026-04-11T14:19:34.001Z</time></trkpt><trkpt lat="45.26592398308012" lon="8.947264247498996"><ele>72.0</ele><time>2026-04-11T14:19:36.001Z</time></trkpt><trkpt lat="45.265988111893755" lon="8.947250975621824"><ele>72.0</ele><time>2026-04-11T14:19:37.001Z</time></trkpt><trkpt lat="45.26605037495782" lon="8.94723353477303"><ele>72.0</ele><time>2026-04-11T14:19:38.002Z</time></trkpt><trkpt lat="45.26615507043597" lon="8.947217749589496"><ele>72.0</ele><time>2026-04-11T14:19:40.002Z</time></trkpt><trkpt lat="45.26623846047585" lon="8.947308698044612"><ele>72.0</ele><time>2026-04-11T14:19:42.002Z</time></trkpt><trkpt lat="45.266253095923055" lon="8.947413072637"><ele>72.0</ele><time>2026-04-11T14:19:43.002Z</time></trkpt><trkpt lat="45.26629913414905" lon="8.947500687515278"><ele>72.0</ele><time>2026-04-11T14:19:44.002Z</time></trkpt><trkpt lat="45.26633953628011" lon="8.94760848309846"><ele>72.0</ele><time>2026-04-11T14:19:45.002Z</time></trkpt><trkpt lat="45.26637445784071" lon="8.94770038551027"><ele>72.0</ele><time>2026-04-11T14:19:46.002Z</time></trkpt><trkpt lat="45.26641723593354" lon="8.947848213246276"><ele>72.0</ele><time>2026-04-11T14:19:48.002Z</time></trkpt><trkpt lat="45.26642820522279" lon="8.94794235180657"><ele>72.0</ele><time>2026-04-11T14:19:49.002Z</time></trkpt><trkpt lat="45.26643669066213" lon="8.948049957990973"><ele>72.0</ele><time>2026-04-11T14:19:50.002Z</time></trkpt><trkpt lat="45.26643987286882" lon="8.948166586288608"><ele>72.0</ele><time>2026-04-11T14:19:51.002Z</time></trkpt><trkpt lat="45.26644390545594" lon="8.948265494511801"><ele>71.83333333333333</ele><time>2026-04-11T14:19:52.002Z</time></trkpt><trkpt lat="45.26645635238275" lon="8.948357059046584"><ele>71.66666666666667</ele><time>2026-04-11T14:19:53.002Z</time></trkpt><trkpt lat="45.26645124488856" lon="8.948519546920604"><ele>71.5</ele><time>2026-04-11T14:19:55.002Z</time></trkpt><trkpt lat="45.26641434433282" lon="8.94863410975284"><ele>71.33333333333334</ele><time>2026-04-11T14:19:57.002Z</time></trkpt><trkpt lat="45.266349169120346" lon="8.948691684591859"><ele>71.16666666666667</ele><time>2026-04-11T14:20:00.001Z</time></trkpt><trkpt lat="45.26629420113947" lon="8.948739492117582"><ele>71.0</ele><time>2026-04-11T14:20:03.001Z</time></trkpt><trkpt lat="45.26630549924038" lon="8.9488361837246"><ele>70.83333333333334</ele><time>2026-04-11T14:20:06.001Z</time></trkpt><trkpt lat="45.266366629145075" lon="8.9489183338435"><ele>70.66666666666667</ele><time>2026-04-11T14:20:09.001Z</time></trkpt><trkpt lat="45.266458844658054" lon="8.948871543415864"><ele>70.5</ele><time>2026-04-11T14:20:11.001Z</time></trkpt><trkpt lat="45.26649947674226" lon="8.948771159700618"><ele>70.33333333333333</ele><time>2026-04-11T14:20:12.001Z</time></trkpt><trkpt lat="45.26654826873731" lon="8.948701650637272"><ele>70.16666666666666</ele><time>2026-04-11T14:20:13.001Z</time></trkpt><trkpt lat="45.266602274825956" lon="8.948624713896526"><ele>70.0</ele><time>2026-04-11T14:20:14.001Z</time></trkpt><trkpt lat="45.26666293276996" lon="8.948538300870142"><ele>70.0</ele><time>2026-04-11T14:20:15.001Z</time></trkpt><trkpt lat="45.266724860334094" lon="8.948450079264639"><ele>70.0</ele><time>2026-04-11T14:20:16.001Z</time></trkpt><trkpt lat="45.26678775842315" lon="8.948360474572404"><ele>70.0</ele><time>2026-04-11T14:20:17.001Z</time></trkpt><trkpt lat="45.26686042272869" lon="8.948265169477388"><ele>70.0</ele><time>2026-04-11T14:20:18.001Z</time></trkpt><trkpt lat="45.26692325587853" lon="8.948182328785132"><ele>70.0</ele><time>2026-04-11T14:20:19.001Z</time></trkpt><trkpt lat="45.26697552182838" lon="8.948112099124154"><ele>70.0</ele><time>2026-04-11T14:20:20.001Z</time></trkpt><trkpt lat="45.26702313991288" lon="8.948046540476648"><ele>70.16666666666666</ele><time>2026-04-11T14:20:21.001Z</time></trkpt><trkpt lat="45.26705866371972" lon="8.947966495279317"><ele>70.33333333333333</ele><time>2026-04-11T14:20:22.001Z</time></trkpt><trkpt lat="45.26710908315595" lon="8.947901954620459"><ele>70.5</ele><time>2026-04-11T14:20:23.001Z</time></trkpt><trkpt lat="45.267165250393134" lon="8.947851083200622"><ele>70.66666666666667</ele><time>2026-04-11T14:20:24.001Z</time></trkpt><trkpt lat="45.26721370081017" lon="8.947767258570908"><ele>70.83333333333334</ele><time>2026-04-11T14:20:25.001Z</time></trkpt><trkpt lat="45.26730077479386" lon="8.947625041978611"><ele>71.0</ele><time>2026-04-11T14:20:27.001Z</time></trkpt><trkpt lat="45.26734825510751" lon="8.947545226289698"><ele>70.85714285714286</ele><time>2026-04-11T14:20:28.001Z</time></trkpt><trkpt lat="45.26739246954209" lon="8.947466098840568"><ele>70.71428571428571</ele><time>2026-04-11T14:20:29.001Z</time></trkpt><trkpt lat="45.267434329127326" lon="8.94738421177038"><ele>70.57142857142857</ele><time>2026-04-11T14:20:30.001Z</time></trkpt><trkpt lat="45.267476653071746" lon="8.947301837949292"><ele>70.42857142857143</ele><time>2026-04-11T14:20:31.001Z</time></trkpt><trkpt lat="45.26751637687525" lon="8.947224294759684"><ele>70.28571428571428</ele><time>2026-04-11T14:20:32.001Z</time></trkpt><trkpt lat="45.267555478312474" lon="8.947149768426605"><ele>70.14285714285714</ele><time>2026-04-11T14:20:33.001Z</time></trkpt><trkpt lat="45.26759329929798" lon="8.947073068027157"><ele>70.0</ele><time>2026-04-11T14:20:34.001Z</time></trkpt><trkpt lat="45.26763176501311" lon="8.946994065949085"><ele>70.0</ele><time>2026-04-11T14:20:35.001Z</time></trkpt><trkpt lat="45.26768108079807" lon="8.946906952117981"><ele>70.0</ele><time>2026-04-11T14:20:36.001Z</time></trkpt><trkpt lat="45.26773202507994" lon="8.946821440794448"><ele>70.0</ele><time>2026-04-11T14:20:37.001Z</time></trkpt><trkpt lat="45.26777639709826" lon="8.946732553325939"><ele>70.0</ele><time>2026-04-11T14:20:38.001Z</time></trkpt><trkpt lat="45.26783582711954" lon="8.946636097152416"><ele>70.0</ele><time>2026-04-11T14:20:39.001Z</time></trkpt><trkpt lat="45.26789449252968" lon="8.946521601452304"><ele>70.0</ele><time>2026-04-11T14:20:40.001Z</time></trkpt><trkpt lat="45.26796622028938" lon="8.946404142446083"><ele>70.0</ele><time>2026-04-11T14:20:41.001Z</time></trkpt><trkpt lat="45.26803296162552" lon="8.94628506190695"><ele>70.0</ele><time>2026-04-11T14:20:42.001Z</time></trkpt><trkpt lat="45.268093616296454" lon="8.946168912009002"><ele>70.0</ele><time>2026-04-11T14:20:43.001Z</time></trkpt><trkpt lat="45.26815658583558" lon="8.946053341000908"><ele>70.0</ele><time>2026-04-11T14:20:44.001Z</time></trkpt><trkpt lat="45.26822293676565" lon="8.945925628503954"><ele>70.0</ele><time>2026-04-11T14:20:45.001Z</time></trkpt><trkpt lat="45.26829078234296" lon="8.945790859678935"><ele>70.0</ele><time>2026-04-11T14:20:46.001Z</time></trkpt><trkpt lat="45.26835863147172" lon="8.94565389247626"><ele>70.0</ele><time>2026-04-11T14:20:47.001Z</time></trkpt><trkpt lat="45.26842922290556" lon="8.945527207385059"><ele>70.0</ele><time>2026-04-11T14:20:48.001Z</time></trkpt><trkpt lat="45.26850427401633" lon="8.945389864790632"><ele>70.0</ele><time>2026-04-11T14:20:49.001Z</time></trkpt><trkpt lat="45.268581581787394" lon="8.945265580710009"><ele>70.0</ele><time>2026-04-11T14:20:50.001Z</time></trkpt><trkpt lat="45.26864254224657" lon="8.945138034833025"><ele>70.0</ele><time>2026-04-11T14:20:51.001Z</time></trkpt><trkpt lat="45.268703800974" lon="8.94502777899892"><ele>70.0</ele><time>2026-04-11T14:20:52.001Z</time></trkpt><trkpt lat="45.2687735434712" lon="8.94491272145921"><ele>70.0</ele><time>2026-04-11T14:20:53.001Z</time></trkpt><trkpt lat="45.26883492339171" lon="8.944799717459274"><ele>70.0</ele><time>2026-04-11T14:20:54.001Z</time></trkpt><trkpt lat="45.268890571214314" lon="8.944697274805826"><ele>70.16666666666666</ele><time>2026-04-11T14:20:55.001Z</time></trkpt><trkpt lat="45.26892551399906" lon="8.944605716683256"><ele>70.33333333333333</ele><time>2026-04-11T14:20:56.001Z</time></trkpt><trkpt lat="45.268959632649114" lon="8.944513590258543"><ele>70.5</ele><time>2026-04-11T14:20:57.001Z</time></trkpt><trkpt lat="45.268962377109375" lon="8.944407586470108"><ele>70.66666666666667</ele><time>2026-04-11T14:20:58.001Z</time></trkpt><trkpt lat="45.26893208843494" lon="8.944297506703341"><ele>70.83333333333334</ele><time>2026-04-11T14:20:59.001Z</time></trkpt><trkpt lat="45.26893269456956" lon="8.944173289157225"><ele>71.0</ele><time>2026-04-11T14:21:00.001Z</time></trkpt><trkpt lat="45.268915141586604" lon="8.944052548759807"><ele>71.6</ele><time>2026-04-11T14:21:01.001Z</time></trkpt><trkpt lat="45.2688814663339" lon="8.943933437893355"><ele>72.19999999999999</ele><time>2026-04-11T14:21:02.001Z</time></trkpt><trkpt lat="45.26886878033707" lon="8.943798388225966"><ele>72.80000000000001</ele><time>2026-04-11T14:21:03.001Z</time></trkpt><trkpt lat="45.26886048888719" lon="8.943656910095559"><ele>73.4</ele><time>2026-04-11T14:21:04.001Z</time></trkpt><trkpt lat="45.26883034248662" lon="8.943521519815771"><ele>74.0</ele><time>2026-04-11T14:21:05.001Z</time></trkpt><trkpt lat="45.268818162098135" lon="8.94336860017205"><ele>74.25</ele><time>2026-04-11T14:21:06.001Z</time></trkpt><trkpt lat="45.26882216056084" lon="8.943212931408825"><ele>74.5</ele><time>2026-04-11T14:21:07.001Z</time></trkpt><trkpt lat="45.26883864649105" lon="8.943051067144584"><ele>74.75</ele><time>2026-04-11T14:21:08.001Z</time></trkpt><trkpt lat="45.26887693508456" lon="8.942889165534408"><ele>75.0</ele><time>2026-04-11T14:21:09.001Z</time></trkpt><trkpt lat="45.268891573382476" lon="8.942714074990892"><ele>74.25</ele><time>2026-04-11T14:21:10.001Z</time></trkpt><trkpt lat="45.268929043450086" lon="8.94253349442714"><ele>73.5</ele><time>2026-04-11T14:21:11.001Z</time></trkpt><trkpt lat="45.26896579558667" lon="8.942346200436289"><ele>72.75</ele><time>2026-04-11T14:21:12.001Z</time></trkpt><trkpt lat="45.26900089180616" lon="8.942149400830735"><ele>72.0</ele><time>2026-04-11T14:21:13.001Z</time></trkpt><trkpt lat="45.269033690896606" lon="8.941943708264015"><ele>72.0</ele><time>2026-04-11T14:21:14.001Z</time></trkpt><trkpt lat="45.2690686903895" lon="8.941732647862002"><ele>72.0</ele><time>2026-04-11T14:21:15.001Z</time></trkpt><trkpt lat="45.269118020420095" lon="8.941546770034318"><ele>72.0</ele><time>2026-04-11T14:21:16.001Z</time></trkpt><trkpt lat="45.26914344732169" lon="8.941366257093506"><ele>72.0</ele><time>2026-04-11T14:21:17.001Z</time></trkpt><trkpt lat="45.26916758428502" lon="8.941189321431668"><ele>72.0</ele><time>2026-04-11T14:21:18.001Z</time></trkpt><trkpt lat="45.269185478410705" lon="8.941003438551371"><ele>72.0</ele><time>2026-04-11T14:21:19.001Z</time></trkpt><trkpt lat="45.26920220374498" lon="8.940815186262757"><ele>72.0</ele><time>2026-04-11T14:21:20.001Z</time></trkpt><trkpt lat="45.269230715061326" lon="8.940627967567382"><ele>72.0</ele><time>2026-04-11T14:21:21.001Z</time></trkpt><trkpt lat="45.26928340591209" lon="8.94044771894896"><ele>71.75</ele><time>2026-04-11T14:21:22.001Z</time></trkpt><trkpt lat="45.26931482954398" lon="8.940250897106948"><ele>71.5</ele><time>2026-04-11T14:21:23.001Z</time></trkpt><trkpt lat="45.26935172110336" lon="8.940061159458967"><ele>71.25</ele><time>2026-04-11T14:21:24.001Z</time></trkpt><trkpt lat="45.26936917609265" lon="8.939881517930377"><ele>71.0</ele><time>2026-04-11T14:21:25.001Z</time></trkpt><trkpt lat="45.26938864230764" lon="8.939718484195678"><ele>71.0</ele><time>2026-04-11T14:21:26.001Z</time></trkpt><trkpt lat="45.26940423832461" lon="8.939568687564618"><ele>71.0</ele><time>2026-04-11T14:21:27.001Z</time></trkpt><trkpt lat="45.269450470964564" lon="8.939437843624011"><ele>71.0</ele><time>2026-04-11T14:21:28.001Z</time></trkpt><trkpt lat="45.269494085635934" lon="8.93930706327557"><ele>71.0</ele><time>2026-04-11T14:21:29.001Z</time></trkpt><trkpt lat="45.26953162082014" lon="8.93916377313945"><ele>71.0</ele><time>2026-04-11T14:21:30.001Z</time></trkpt><trkpt lat="45.26959823087048" lon="8.93904126520935"><ele>71.0</ele><time>2026-04-11T14:21:31.001Z</time></trkpt><trkpt lat="45.26964736578801" lon="8.93890509100757"><ele>71.0</ele><time>2026-04-11T14:21:32.001Z</time></trkpt><trkpt lat="45.269706374408045" lon="8.93877110924077"><ele>71.0</ele><time>2026-04-11T14:21:33.001Z</time></trkpt><trkpt lat="45.269769578772724" lon="8.93864325547284"><ele>71.0</ele><time>2026-04-11T14:21:34.001Z</time></trkpt><trkpt lat="45.26982986176481" lon="8.93851359862681"><ele>71.0</ele><time>2026-04-11T14:21:35.001Z</time></trkpt><trkpt lat="45.2698902513353" lon="8.938385225304332"><ele>71.39999999999999</ele><time>2026-04-11T14:21:36.001Z</time></trkpt><trkpt lat="45.26994452720254" lon="8.938262149079268"><ele>71.8</ele><time>2026-04-11T14:21:37.001Z</time></trkpt><trkpt lat="45.269995893218116" lon="8.938135347875507"><ele>72.19999999999999</ele><time>2026-04-11T14:21:38.001Z</time></trkpt><trkpt lat="45.27004830896477" lon="8.938004274448891"><ele>72.6</ele><time>2026-04-11T14:21:39.001Z</time></trkpt><trkpt lat="45.270116271802166" lon="8.93788739595843"><ele>73.0</ele><time>2026-04-11T14:21:40.001Z</time></trkpt><trkpt lat="45.27016358498308" lon="8.937749295795594"><ele>73.0</ele><time>2026-04-11T14:21:41.001Z</time></trkpt><trkpt lat="45.27023063096494" lon="8.93763267281093"><ele>73.0</ele><time>2026-04-11T14:21:42.002Z</time></trkpt><trkpt lat="45.27027961415016" lon="8.937497769951834"><ele>73.0</ele><time>2026-04-11T14:21:43.001Z</time></trkpt><trkpt lat="45.270324023356245" lon="8.937376320297796"><ele>73.0</ele><time>2026-04-11T14:21:44.002Z</time></trkpt><trkpt lat="45.2703759625815" lon="8.937255036746292"><ele>73.0</ele><time>2026-04-11T14:21:45.002Z</time></trkpt><trkpt lat="45.27042118140497" lon="8.937126386399553"><ele>73.6</ele><time>2026-04-11T14:21:46.002Z</time></trkpt><trkpt lat="45.27045956464317" lon="8.936989569748455"><ele>74.19999999999999</ele><time>2026-04-11T14:21:47.002Z</time></trkpt><trkpt lat="45.27049225294255" lon="8.936841780922334"><ele>74.8</ele><time>2026-04-11T14:21:48.002Z</time></trkpt><trkpt lat="45.270518125082894" lon="8.936696137576256"><ele>75.39999999999999</ele><time>2026-04-11T14:21:49.002Z</time></trkpt><trkpt lat="45.27054025200259" lon="8.936573026735298"><ele>76.0</ele><time>2026-04-11T14:21:50.002Z</time></trkpt><trkpt lat="45.27056193199194" lon="8.93646135853461"><ele>75.8</ele><time>2026-04-11T14:21:51.002Z</time></trkpt><trkpt lat="45.27060212593518" lon="8.936350376649074"><ele>75.6</ele><time>2026-04-11T14:21:52.002Z</time></trkpt><trkpt lat="45.270623839046465" lon="8.936218649726234"><ele>75.4</ele><time>2026-04-11T14:21:53.002Z</time></trkpt><trkpt lat="45.270648973187825" lon="8.936085069473041"><ele>75.2</ele><time>2026-04-11T14:21:54.002Z</time></trkpt><trkpt lat="45.27067231551042" lon="8.93594723890219"><ele>75.0</ele><time>2026-04-11T14:21:55.002Z</time></trkpt><trkpt lat="45.27069866538931" lon="8.935803570305524"><ele>75.0</ele><time>2026-04-11T14:21:56.002Z</time></trkpt><trkpt lat="45.27072363129852" lon="8.935654992424183"><ele>75.0</ele><time>2026-04-11T14:21:57.002Z</time></trkpt><trkpt lat="45.270743336013595" lon="8.93550172721385"><ele>75.0</ele><time>2026-04-11T14:21:58.002Z</time></trkpt><trkpt lat="45.27077847733202" lon="8.935349305061902"><ele>75.0</ele><time>2026-04-11T14:21:59.002Z</time></trkpt><trkpt lat="45.27079387245793" lon="8.935179612246875"><ele>74.75</ele><time>2026-04-11T14:22:00.002Z</time></trkpt><trkpt lat="45.27080649471179" lon="8.93501061941734"><ele>74.5</ele><time>2026-04-11T14:22:01.002Z</time></trkpt><trkpt lat="45.27081499013662" lon="8.934834035731091"><ele>74.25</ele><time>2026-04-11T14:22:02.002Z</time></trkpt><trkpt lat="45.27082018313971" lon="8.93464973926199"><ele>74.0</ele><time>2026-04-11T14:22:03.002Z</time></trkpt><trkpt lat="45.27082394691771" lon="8.934467908962644"><ele>74.0</ele><time>2026-04-11T14:22:04.002Z</time></trkpt><trkpt lat="45.27083884506839" lon="8.934276974462403"><ele>74.0</ele><time>2026-04-11T14:22:05.002Z</time></trkpt><trkpt lat="45.270840877401426" lon="8.934086201059223"><ele>74.0</ele><time>2026-04-11T14:22:06.001Z</time></trkpt><trkpt lat="45.27084641291684" lon="8.93391168489442"><ele>74.0</ele><time>2026-04-11T14:22:07.001Z</time></trkpt><trkpt lat="45.27086412633713" lon="8.933752351678127"><ele>73.75</ele><time>2026-04-11T14:22:08.001Z</time></trkpt><trkpt lat="45.27086162829356" lon="8.933581983177335"><ele>73.5</ele><time>2026-04-11T14:22:09.001Z</time></trkpt><trkpt lat="45.27087139330216" lon="8.933409775764916"><ele>73.25</ele><time>2026-04-11T14:22:10.001Z</time></trkpt><trkpt lat="45.27089517076102" lon="8.933250224778886"><ele>73.0</ele><time>2026-04-11T14:22:11.001Z</time></trkpt><trkpt lat="45.27090808647986" lon="8.93310413548698"><ele>73.0</ele><time>2026-04-11T14:22:12.001Z</time></trkpt><trkpt lat="45.27090757692855" lon="8.932961764985496"><ele>73.0</ele><time>2026-04-11T14:22:13.001Z</time></trkpt><trkpt lat="45.27093995968472" lon="8.932824239333266"><ele>73.0</ele><time>2026-04-11T14:22:14.001Z</time></trkpt><trkpt lat="45.270980209174354" lon="8.932672611395898"><ele>73.0</ele><time>2026-04-11T14:22:15.001Z</time></trkpt><trkpt lat="45.2710233745886" lon="8.932521847913241"><ele>73.0</ele><time>2026-04-11T14:22:16.001Z</time></trkpt><trkpt lat="45.27106516323198" lon="8.93235687076761"><ele>73.75</ele><time>2026-04-11T14:22:17.001Z</time></trkpt><trkpt lat="45.27111194684104" lon="8.932196119740238"><ele>74.5</ele><time>2026-04-11T14:22:18.001Z</time></trkpt><trkpt lat="45.27115810374852" lon="8.932031159494938"><ele>75.25</ele><time>2026-04-11T14:22:19.001Z</time></trkpt><trkpt lat="45.27120707135976" lon="8.93186140978595"><ele>76.0</ele><time>2026-04-11T14:22:20.001Z</time></trkpt><trkpt lat="45.27123921588987" lon="8.931675522801383"><ele>76.25</ele><time>2026-04-11T14:22:21.001Z</time></trkpt><trkpt lat="45.27128712469955" lon="8.931494052419062"><ele>76.5</ele><time>2026-04-11T14:22:22.001Z</time></trkpt><trkpt lat="45.27132037496585" lon="8.931322597922211"><ele>76.75</ele><time>2026-04-11T14:22:23.001Z</time></trkpt><trkpt lat="45.27135038045557" lon="8.931173938342774"><ele>77.0</ele><time>2026-04-11T14:22:24.001Z</time></trkpt><trkpt lat="45.27137385823884" lon="8.931047881795067"><ele>77.0</ele><time>2026-04-11T14:22:25.001Z</time></trkpt><trkpt lat="45.27139158894033" lon="8.930918428821922"><ele>77.0</ele><time>2026-04-11T14:22:26.001Z</time></trkpt><trkpt lat="45.27139567106884" lon="8.930802800596604"><ele>77.0</ele><time>2026-04-11T14:22:27.001Z</time></trkpt><trkpt lat="45.27139248338633" lon="8.930685626298267"><ele>77.0</ele><time>2026-04-11T14:22:28.001Z</time></trkpt><trkpt lat="45.271368592989276" lon="8.930585442152374"><ele>77.0</ele><time>2026-04-11T14:22:29.001Z</time></trkpt><trkpt lat="45.27131893772407" lon="8.930502639746582"><ele>77.0</ele><time>2026-04-11T14:22:30.001Z</time></trkpt><trkpt lat="45.27124762976586" lon="8.930428583263058"><ele>76.8</ele><time>2026-04-11T14:22:31.001Z</time></trkpt><trkpt lat="45.27117933222485" lon="8.930328204547637"><ele>76.6</ele><time>2026-04-11T14:22:32.001Z</time></trkpt><trkpt lat="45.27109659469468" lon="8.930244710115813"><ele>76.39999999999999</ele><time>2026-04-11T14:22:33.001Z</time></trkpt><trkpt lat="45.27100359225634" lon="8.930164828808586"><ele>76.2</ele><time>2026-04-11T14:22:34.001Z</time></trkpt><trkpt lat="45.270926009449" lon="8.930096983994533"><ele>76.0</ele><time>2026-04-11T14:22:35.001Z</time></trkpt><trkpt lat="45.27085702743515" lon="8.9300151546809"><ele>75.8</ele><time>2026-04-11T14:22:36.001Z</time></trkpt><trkpt lat="45.27079817320427" lon="8.929905113088285"><ele>75.6</ele><time>2026-04-11T14:22:37.001Z</time></trkpt><trkpt lat="45.2707332170954" lon="8.92977909199771"><ele>75.4</ele><time>2026-04-11T14:22:38.001Z</time></trkpt><trkpt lat="45.2706685133909" lon="8.929650427064994"><ele>75.2</ele><time>2026-04-11T14:22:39.001Z</time></trkpt><trkpt lat="45.270598905134094" lon="8.929510759697438"><ele>75.0</ele><time>2026-04-11T14:22:40.001Z</time></trkpt><trkpt lat="45.27052662617953" lon="8.929365733154778"><ele>75.0</ele><time>2026-04-11T14:22:41.001Z</time></trkpt><trkpt lat="45.270461179877586" lon="8.929234416764888"><ele>75.0</ele><time>2026-04-11T14:22:42.001Z</time></trkpt><trkpt lat="45.2703995026545" lon="8.929110662588501"><ele>75.0</ele><time>2026-04-11T14:22:43.001Z</time></trkpt><trkpt lat="45.270337155756096" lon="8.92898556267058"><ele>75.0</ele><time>2026-04-11T14:22:44.001Z</time></trkpt><trkpt lat="45.270256124376054" lon="8.928868908789664"><ele>75.0</ele><time>2026-04-11T14:22:45.001Z</time></trkpt><trkpt lat="45.27019177070777" lon="8.928736365231437"><ele>75.0</ele><time>2026-04-11T14:22:46.001Z</time></trkpt><trkpt lat="45.27012576885721" lon="8.928597442467995"><ele>75.0</ele><time>2026-04-11T14:22:47.001Z</time></trkpt><trkpt lat="45.27005716207853" lon="8.928456217835112"><ele>75.0</ele><time>2026-04-11T14:22:48.001Z</time></trkpt><trkpt lat="45.2699819049256" lon="8.928319631258208"><ele>75.0</ele><time>2026-04-11T14:22:49.001Z</time></trkpt><trkpt lat="45.26991880895601" lon="8.928175772857628"><ele>75.25</ele><time>2026-04-11T14:22:50.001Z</time></trkpt><trkpt lat="45.26984307841968" lon="8.928037334501257"><ele>75.5</ele><time>2026-04-11T14:22:51.001Z</time></trkpt><trkpt lat="45.26979030549619" lon="8.927899887530279"><ele>75.75</ele><time>2026-04-11T14:22:52.001Z</time></trkpt><trkpt lat="45.26971956921057" lon="8.927777600028847"><ele>76.0</ele><time>2026-04-11T14:22:53.001Z</time></trkpt><trkpt lat="45.269645519183086" lon="8.927657995862171"><ele>76.0</ele><time>2026-04-11T14:22:54.001Z</time></trkpt><trkpt lat="45.26954552387645" lon="8.927557482846039"><ele>76.0</ele><time>2026-04-11T14:22:55.001Z</time></trkpt><trkpt lat="45.26943290788935" lon="8.927474873888032"><ele>76.0</ele><time>2026-04-11T14:22:56.001Z</time></trkpt><trkpt lat="45.269315184270134" lon="8.927389247729197"><ele>76.0</ele><time>2026-04-11T14:22:57.001Z</time></trkpt><trkpt lat="45.26919820456897" lon="8.927297104686804"><ele>76.0</ele><time>2026-04-11T14:22:58.001Z</time></trkpt><trkpt lat="45.26908208164066" lon="8.92719063631179"><ele>76.0</ele><time>2026-04-11T14:22:59.001Z</time></trkpt><trkpt lat="45.268959182386254" lon="8.927085233076749"><ele>76.0</ele><time>2026-04-11T14:23:00.001Z</time></trkpt><trkpt lat="45.26883689389577" lon="8.926986544509445"><ele>76.0</ele><time>2026-04-11T14:23:01.001Z</time></trkpt><trkpt lat="45.26867817630688" lon="8.926908416622851"><ele>76.0</ele><time>2026-04-11T14:23:02.001Z</time></trkpt><trkpt lat="45.26847998007485" lon="8.926823171145347"><ele>76.0</ele><time>2026-04-11T14:23:03.001Z</time></trkpt><trkpt lat="45.26826960901179" lon="8.926753211667164"><ele>76.0</ele><time>2026-04-11T14:23:04.001Z</time></trkpt><trkpt lat="45.26808611352166" lon="8.926706215057715"><ele>76.25</ele><time>2026-04-11T14:23:05.001Z</time></trkpt><trkpt lat="45.267926344257155" lon="8.926657394242014"><ele>76.5</ele><time>2026-04-11T14:23:06.001Z</time></trkpt><trkpt lat="45.267785000832646" lon="8.9266191186268"><ele>76.75</ele><time>2026-04-11T14:23:07.001Z</time></trkpt><trkpt lat="45.2676522487231" lon="8.92658371281072"><ele>77.0</ele><time>2026-04-11T14:23:08.001Z</time></trkpt><trkpt lat="45.26751587343496" lon="8.926552505576115"><ele>77.0</ele><time>2026-04-11T14:23:09.001Z</time></trkpt><trkpt lat="45.26738866031543" lon="8.926555273601945"><ele>77.0</ele><time>2026-04-11T14:23:10.001Z</time></trkpt><trkpt lat="45.267264992215416" lon="8.926567615292338"><ele>77.0</ele><time>2026-04-11T14:23:11.001Z</time></trkpt><trkpt lat="45.26714624289451" lon="8.926594003822032"><ele>77.0</ele><time>2026-04-11T14:23:12.001Z</time></trkpt><trkpt lat="45.26702781434254" lon="8.926626555143196"><ele>76.75</ele><time>2026-04-11T14:23:13.001Z</time></trkpt><trkpt lat="45.26691098714179" lon="8.926670085551878"><ele>76.5</ele><time>2026-04-11T14:23:14.001Z</time></trkpt><trkpt lat="45.26679784745986" lon="8.926720353389452"><ele>76.25</ele><time>2026-04-11T14:23:15.001Z</time></trkpt><trkpt lat="45.266693085206015" lon="8.92676318383057"><ele>76.0</ele><time>2026-04-11T14:23:16.001Z</time></trkpt><trkpt lat="45.266570437927236" lon="8.926832927938909"><ele>76.0</ele><time>2026-04-11T14:23:17.001Z</time></trkpt><trkpt lat="45.26646981230962" lon="8.926908300121548"><ele>76.0</ele><time>2026-04-11T14:23:18.001Z</time></trkpt><trkpt lat="45.266351592085755" lon="8.927024428144447"><ele>76.0</ele><time>2026-04-11T14:23:19.001Z</time></trkpt><trkpt lat="45.26624453030149" lon="8.92713962170881"><ele>76.0</ele><time>2026-04-11T14:23:20.001Z</time></trkpt><trkpt lat="45.266138614024065" lon="8.92725340864906"><ele>76.0</ele><time>2026-04-11T14:23:21.001Z</time></trkpt><trkpt lat="45.266030183459335" lon="8.927355557669266"><ele>76.0</ele><time>2026-04-11T14:23:22.001Z</time></trkpt><trkpt lat="45.26591165823187" lon="8.927447768203349"><ele>76.0</ele><time>2026-04-11T14:23:23.001Z</time></trkpt><trkpt lat="45.265786231925816" lon="8.927489549385593"><ele>76.0</ele><time>2026-04-11T14:23:24.001Z</time></trkpt><trkpt lat="45.26566839773639" lon="8.92752569612171"><ele>76.0</ele><time>2026-04-11T14:23:25.001Z</time></trkpt><trkpt lat="45.26556601320952" lon="8.9275710258891"><ele>76.0</ele><time>2026-04-11T14:23:26.001Z</time></trkpt><trkpt lat="45.26547665643529" lon="8.927581518443676"><ele>76.0</ele><time>2026-04-11T14:23:27.001Z</time></trkpt><trkpt lat="45.26539969525622" lon="8.927563033324644"><ele>76.0</ele><time>2026-04-11T14:23:28.001Z</time></trkpt><trkpt lat="45.26533089148155" lon="8.927563850165695"><ele>76.0</ele><time>2026-04-11T14:23:29.001Z</time></trkpt><trkpt lat="45.265267062604735" lon="8.927557292773388"><ele>76.0</ele><time>2026-04-11T14:23:30.001Z</time></trkpt><trkpt lat="45.26518713353863" lon="8.927524504243907"><ele>75.8</ele><time>2026-04-11T14:23:32.001Z</time></trkpt><trkpt lat="45.26518233908189" lon="8.927384106469313"><ele>75.6</ele><time>2026-04-11T14:23:34.001Z</time></trkpt><trkpt lat="45.26522585788908" lon="8.927191239268643"><ele>75.4</ele><time>2026-04-11T14:23:36.001Z</time></trkpt><trkpt lat="45.265241542565654" lon="8.927055370799854"><ele>75.2</ele><time>2026-04-11T14:23:37.001Z</time></trkpt><trkpt lat="45.2652571682084" lon="8.926909708424883"><ele>75.0</ele><time>2026-04-11T14:23:38.001Z</time></trkpt><trkpt lat="45.26526332721997" lon="8.926795381771008"><ele>75.33333333333333</ele><time>2026-04-11T14:23:39.001Z</time></trkpt><trkpt lat="45.265265959178734" lon="8.926702569263739"><ele>75.66666666666667</ele><time>2026-04-11T14:23:40.001Z</time></trkpt><trkpt lat="45.26523029200654" lon="8.926598388681938"><ele>76.0</ele><time>2026-04-11T14:23:41.001Z</time></trkpt><trkpt lat="45.26520093942046" lon="8.926488083241937"><ele>76.33333333333334</ele><time>2026-04-11T14:23:42.001Z</time></trkpt><trkpt lat="45.26515981300082" lon="8.926361165766536"><ele>76.66666666666667</ele><time>2026-04-11T14:23:43.001Z</time></trkpt><trkpt lat="45.265136878151594" lon="8.926215522426887"><ele>77.0</ele><time>2026-04-11T14:23:44.001Z</time></trkpt><trkpt lat="45.265100462031235" lon="8.926071577201945"><ele>77.0</ele><time>2026-04-11T14:23:45.001Z</time></trkpt><trkpt lat="45.2650687783558" lon="8.925942413293347"><ele>77.0</ele><time>2026-04-11T14:23:46.001Z</time></trkpt><trkpt lat="45.26502958833501" lon="8.92582965531242"><ele>77.0</ele><time>2026-04-11T14:23:47.001Z</time></trkpt><trkpt lat="45.265027360794775" lon="8.925687117155784"><ele>77.0</ele><time>2026-04-11T14:23:48.001Z</time></trkpt><trkpt lat="45.26503446030825" lon="8.925536496507386"><ele>77.0</ele><time>2026-04-11T14:23:49.001Z</time></trkpt><trkpt lat="45.26505103666672" lon="8.925370127881038"><ele>77.0</ele><time>2026-04-11T14:23:50.001Z</time></trkpt><trkpt lat="45.26507878638896" lon="8.925197688160745"><ele>77.0</ele><time>2026-04-11T14:23:51.001Z</time></trkpt><trkpt lat="45.265099148693146" lon="8.925017313273319"><ele>77.0</ele><time>2026-04-11T14:23:52.001Z</time></trkpt><trkpt lat="45.265098191225654" lon="8.924829438989445"><ele>77.0</ele><time>2026-04-11T14:23:53.001Z</time></trkpt><trkpt lat="45.26508635793807" lon="8.924669287931597"><ele>77.0</ele><time>2026-04-11T14:23:54.001Z</time></trkpt><trkpt lat="45.265084809759394" lon="8.924548977516237"><ele>77.0</ele><time>2026-04-11T14:23:55.001Z</time></trkpt><trkpt lat="45.26508140754624" lon="8.924437272997492"><ele>77.0</ele><time>2026-04-11T14:23:56.001Z</time></trkpt><trkpt lat="45.26507733888141" lon="8.924329126874285"><ele>77.0</ele><time>2026-04-11T14:23:57.001Z</time></trkpt><trkpt lat="45.26507576904739" lon="8.924209577374393"><ele>77.0</ele><time>2026-04-11T14:23:58.001Z</time></trkpt><trkpt lat="45.26506931785962" lon="8.924079220792178"><ele>77.0</ele><time>2026-04-11T14:23:59.001Z</time></trkpt><trkpt lat="45.26506307015912" lon="8.923945033077704"><ele>77.0</ele><time>2026-04-11T14:24:00.001Z</time></trkpt><trkpt lat="45.26505862541289" lon="8.923795936100756"><ele>77.0</ele><time>2026-04-11T14:24:01.001Z</time></trkpt><trkpt lat="45.265051311187186" lon="8.923631714411599"><ele>77.0</ele><time>2026-04-11T14:24:02.001Z</time></trkpt><trkpt lat="45.26504474073662" lon="8.923436661965537"><ele>77.0</ele><time>2026-04-11T14:24:03.001Z</time></trkpt><trkpt lat="45.265035225836755" lon="8.923218157302616"><ele>76.33333333333334</ele><time>2026-04-11T14:24:04.001Z</time></trkpt><trkpt lat="45.265014849875996" lon="8.92298502318105"><ele>75.66666666666667</ele><time>2026-04-11T14:24:05.002Z</time></trkpt><trkpt lat="45.26498904744232" lon="8.92271209390734"><ele>75.0</ele><time>2026-04-11T14:24:06.002Z</time></trkpt><trkpt lat="45.26493732919215" lon="8.922394596007734"><ele>74.5</ele><time>2026-04-11T14:24:07.002Z</time></trkpt><trkpt lat="45.26488759612067" lon="8.92206595872879"><ele>74.0</ele><time>2026-04-11T14:24:08.002Z</time></trkpt><trkpt lat="45.264837875669215" lon="8.921731149072672"><ele>73.66666666666667</ele><time>2026-04-11T14:24:09.002Z</time></trkpt><trkpt lat="45.26478882141864" lon="8.92141929293808"><ele>73.33333333333333</ele><time>2026-04-11T14:24:10.002Z</time></trkpt><trkpt lat="45.2647389882405" lon="8.921137193502208"><ele>73.0</ele><time>2026-04-11T14:24:11.002Z</time></trkpt><trkpt lat="45.26468775792397" lon="8.920860797299984"><ele>73.0</ele><time>2026-04-11T14:24:12Z</time></trkpt><trkpt lat="45.26463478887804" lon="8.920599605958115"><ele>73.0</ele><time>2026-04-11T14:24:13Z</time></trkpt><trkpt lat="45.264583160426284" lon="8.920327520699434"><ele>73.0</ele><time>2026-04-11T14:24:14Z</time></trkpt><trkpt lat="45.26453465638192" lon="8.920061405671744"><ele>73.0</ele><time>2026-04-11T14:24:15Z</time></trkpt><trkpt lat="45.264480694348094" lon="8.919793341376305"><ele>73.0</ele><time>2026-04-11T14:24:16Z</time></trkpt><trkpt lat="45.26442587030539" lon="8.919521728659108"><ele>73.0</ele><time>2026-04-11T14:24:17Z</time></trkpt><trkpt lat="45.26438469037294" lon="8.919244924167689"><ele>73.0</ele><time>2026-04-11T14:24:18Z</time></trkpt><trkpt lat="45.26433006381317" lon="8.918976141690925"><ele>73.0</ele><time>2026-04-11T14:24:19Z</time></trkpt><trkpt lat="45.264270494944114" lon="8.918697128644846"><ele>73.0</ele><time>2026-04-11T14:24:20Z</time></trkpt><trkpt lat="45.26421189919907" lon="8.918410294451254"><ele>73.33333333333333</ele><time>2026-04-11T14:24:21Z</time></trkpt><trkpt lat="45.26416562916123" lon="8.91814364967556"><ele>73.66666666666667</ele><time>2026-04-11T14:24:22Z</time></trkpt><trkpt lat="45.26414630489899" lon="8.917893695530246"><ele>74.0</ele><time>2026-04-11T14:24:23Z</time></trkpt><trkpt lat="45.26414859968417" lon="8.917628318439307"><ele>73.5</ele><time>2026-04-11T14:24:24Z</time></trkpt><trkpt lat="45.26417099465669" lon="8.917322391170483"><ele>73.0</ele><time>2026-04-11T14:24:25Z</time></trkpt><trkpt lat="45.26420264285652" lon="8.916987741518366"><ele>73.5</ele><time>2026-04-11T14:24:26Z</time></trkpt><trkpt lat="45.26423887518811" lon="8.916627384395229"><ele>74.0</ele><time>2026-04-11T14:24:27Z</time></trkpt><trkpt lat="45.264265403296676" lon="8.916213728564962"><ele>75.0</ele><time>2026-04-11T14:24:28Z</time></trkpt><trkpt lat="45.26428736414248" lon="8.915769954119618"><ele>76.0</ele><time>2026-04-11T14:24:29Z</time></trkpt><trkpt lat="45.26430661820185" lon="8.915377024740101"><ele>76.5</ele><time>2026-04-11T14:24:30Z</time></trkpt><trkpt lat="45.26432217345654" lon="8.915044093620264"><ele>77.0</ele><time>2026-04-11T14:24:31Z</time></trkpt><trkpt lat="45.264346027572074" lon="8.914722815758022"><ele>77.0</ele><time>2026-04-11T14:24:32Z</time></trkpt><trkpt lat="45.26437723092356" lon="8.91440634000398"><ele>77.0</ele><time>2026-04-11T14:24:33Z</time></trkpt><trkpt lat="45.2644076207941" lon="8.914112901029549"><ele>77.0</ele><time>2026-04-11T14:24:34Z</time></trkpt><trkpt lat="45.26443765603014" lon="8.913822887276295"><ele>77.33333333333334</ele><time>2026-04-11T14:24:35Z</time></trkpt><trkpt lat="45.264466603687765" lon="8.913537224613654"><ele>77.66666666666667</ele><time>2026-04-11T14:24:36Z</time></trkpt><trkpt lat="45.26449326824413" lon="8.913257952498096"><ele>78.0</ele><time>2026-04-11T14:24:37Z</time></trkpt><trkpt lat="45.2645197841676" lon="8.91298023721419"><ele>78.0</ele><time>2026-04-11T14:24:38Z</time></trkpt><trkpt lat="45.26454555392655" lon="8.912714660502449"><ele>78.0</ele><time>2026-04-11T14:24:39Z</time></trkpt><trkpt lat="45.2645692101555" lon="8.912472436309297"><ele>78.0</ele><time>2026-04-11T14:24:40Z</time></trkpt><trkpt lat="45.26459035748066" lon="8.9122559012478"><ele>77.75</ele><time>2026-04-11T14:24:41Z</time></trkpt><trkpt lat="45.264610727896994" lon="8.912038404452353"><ele>77.5</ele><time>2026-04-11T14:24:42Z</time></trkpt><trkpt lat="45.26462832969625" lon="8.911843808755995"><ele>77.25</ele><time>2026-04-11T14:24:43Z</time></trkpt><trkpt lat="45.264646337865926" lon="8.911644717894719"><ele>77.0</ele><time>2026-04-11T14:24:44Z</time></trkpt><trkpt lat="45.26467539616037" lon="8.911429716983154"><ele>77.0</ele><time>2026-04-11T14:24:45Z</time></trkpt><trkpt lat="45.2647037530647" lon="8.91121937671511"><ele>77.0</ele><time>2026-04-11T14:24:46Z</time></trkpt><trkpt lat="45.26471126866359" lon="8.911009354238715"><ele>77.0</ele><time>2026-04-11T14:24:47Z</time></trkpt><trkpt lat="45.26473321794056" lon="8.910805554835196"><ele>77.0</ele><time>2026-04-11T14:24:48Z</time></trkpt><trkpt lat="45.264737735735544" lon="8.910601068613978"><ele>77.25</ele><time>2026-04-11T14:24:49Z</time></trkpt><trkpt lat="45.264716814386475" lon="8.910399926700448"><ele>77.5</ele><time>2026-04-11T14:24:50Z</time></trkpt><trkpt lat="45.264684525518156" lon="8.910210447841465"><ele>77.75</ele><time>2026-04-11T14:24:51Z</time></trkpt><trkpt lat="45.264629553960255" lon="8.910057657287794"><ele>78.0</ele><time>2026-04-11T14:24:52.001Z</time></trkpt><trkpt lat="45.264572604865016" lon="8.909863769078756"><ele>79.33333333333333</ele><time>2026-04-11T14:24:53.001Z</time></trkpt><trkpt lat="45.26446853863598" lon="8.909636512503893"><ele>80.66666666666666</ele><time>2026-04-11T14:24:54.001Z</time></trkpt><trkpt lat="45.264357057175026" lon="8.909337955600723"><ele>82.0</ele><time>2026-04-11T14:24:55.001Z</time></trkpt><trkpt lat="45.264234330604594" lon="8.909028820644705"><ele>84.0</ele><time>2026-04-11T14:24:56.001Z</time></trkpt><trkpt lat="45.264096202054795" lon="8.908795720750842"><ele>86.0</ele><time>2026-04-11T14:24:57.001Z</time></trkpt><trkpt lat="45.26399656524738" lon="8.90857570004616"><ele>88.0</ele><time>2026-04-11T14:24:58.001Z</time></trkpt><trkpt lat="45.263902747076564" lon="8.908378098944047"><ele>88.66666666666666</ele><time>2026-04-11T14:24:59.001Z</time></trkpt><trkpt lat="45.263822581086124" lon="8.908193324251958"><ele>89.33333333333333</ele><time>2026-04-11T14:25:00.001Z</time></trkpt><trkpt lat="45.263746401778356" lon="8.908007494437319"><ele>90.0</ele><time>2026-04-11T14:25:01.001Z</time></trkpt><trkpt lat="45.2636645002223" lon="8.907820520858959"><ele>90.0</ele><time>2026-04-11T14:25:02.001Z</time></trkpt><trkpt lat="45.26358394983892" lon="8.907629572827187"><ele>90.0</ele><time>2026-04-11T14:25:03.001Z</time></trkpt><trkpt lat="45.26350683494488" lon="8.907433812134736"><ele>90.0</ele><time>2026-04-11T14:25:04.001Z</time></trkpt><trkpt lat="45.263444485685525" lon="8.907263397513507"><ele>90.4</ele><time>2026-04-11T14:25:05.001Z</time></trkpt><trkpt lat="45.26339516838176" lon="8.907109410614407"><ele>90.8</ele><time>2026-04-11T14:25:06.001Z</time></trkpt><trkpt lat="45.26335171334016" lon="8.906958210421088"><ele>91.19999999999999</ele><time>2026-04-11T14:25:07.001Z</time></trkpt><trkpt lat="45.263336538215256" lon="8.906800005574501"><ele>91.6</ele><time>2026-04-11T14:25:08.001Z</time></trkpt><trkpt lat="45.26332783653412" lon="8.906663015487673"><ele>92.0</ele><time>2026-04-11T14:25:09.001Z</time></trkpt><trkpt lat="45.26334484467371" lon="8.906553635395872"><ele>92.19999999999999</ele><time>2026-04-11T14:25:10.001Z</time></trkpt><trkpt lat="45.26337844592559" lon="8.906432174285005"><ele>92.4</ele><time>2026-04-11T14:25:11.001Z</time></trkpt><trkpt lat="45.26343080419899" lon="8.906306907650977"><ele>92.6</ele><time>2026-04-11T14:25:12.001Z</time></trkpt><trkpt lat="45.263483365392894" lon="8.906174703379238"><ele>92.80000000000001</ele><time>2026-04-11T14:25:13.001Z</time></trkpt><trkpt lat="45.26353971230327" lon="8.906032505333277"><ele>93.0</ele><time>2026-04-11T14:25:14.001Z</time></trkpt><trkpt lat="45.26359442574554" lon="8.905882727589736"><ele>94.5</ele><time>2026-04-11T14:25:15.001Z</time></trkpt><trkpt lat="45.26365738985158" lon="8.90572656589028"><ele>96.0</ele><time>2026-04-11T14:25:16.001Z</time></trkpt><trkpt lat="45.263717188189204" lon="8.905558199716939"><ele>97.5</ele><time>2026-04-11T14:25:17.001Z</time></trkpt><trkpt lat="45.2637814652484" lon="8.905386000997838"><ele>99.0</ele><time>2026-04-11T14:25:18.001Z</time></trkpt><trkpt lat="45.263842695398154" lon="8.905211147493192"><ele>99.4</ele><time>2026-04-11T14:25:19.001Z</time></trkpt><trkpt lat="45.26389402605537" lon="8.90505751265712"><ele>99.80000000000001</ele><time>2026-04-11T14:25:20.001Z</time></trkpt><trkpt lat="45.26394487575836" lon="8.904907942221408"><ele>100.19999999999999</ele><time>2026-04-11T14:25:21.001Z</time></trkpt><trkpt lat="45.263990336988186" lon="8.904772449094526"><ele>100.6</ele><time>2026-04-11T14:25:22.001Z</time></trkpt><trkpt lat="45.26402502750589" lon="8.904656020203511"><ele>101.0</ele><time>2026-04-11T14:25:23.001Z</time></trkpt><trkpt lat="45.264048427826395" lon="8.904553328001118"><ele>101.0</ele><time>2026-04-11T14:25:24.001Z</time></trkpt><trkpt lat="45.264071458477446" lon="8.904458356863016"><ele>101.0</ele><time>2026-04-11T14:25:25.001Z</time></trkpt><trkpt lat="45.26409436448282" lon="8.90437265331992"><ele>101.0</ele><time>2026-04-11T14:25:26.001Z</time></trkpt><trkpt lat="45.26411734422047" lon="8.904289116682126"><ele>101.0</ele><time>2026-04-11T14:25:27.001Z</time></trkpt><trkpt lat="45.2641370968964" lon="8.904198444381993"><ele>101.0</ele><time>2026-04-11T14:25:28.001Z</time></trkpt><trkpt lat="45.264148300040816" lon="8.904107072714753"><ele>101.0</ele><time>2026-04-11T14:25:29.001Z</time></trkpt><trkpt lat="45.264163300535586" lon="8.90398861176366"><ele>101.0</ele><time>2026-04-11T14:25:31.001Z</time></trkpt><trkpt lat="45.26417823312355" lon="8.903896783645935"><ele>101.19999999999999</ele><time>2026-04-11T14:25:34.001Z</time></trkpt><trkpt lat="45.26416959308574" lon="8.903803617135724"><ele>101.39999999999999</ele><time>2026-04-11T14:25:36.001Z</time></trkpt><trkpt lat="45.264158254228704" lon="8.903663312563085"><ele>101.6</ele><time>2026-04-11T14:25:38.001Z</time></trkpt><trkpt lat="45.264179723222405" lon="8.90347026233796"><ele>101.8</ele><time>2026-04-11T14:25:40.001Z</time></trkpt><trkpt lat="45.26418862142059" lon="8.903350463009863"><ele>102.0</ele><time>2026-04-11T14:25:41.001Z</time></trkpt><trkpt lat="45.26419733688397" lon="8.903236317267616"><ele>102.16666666666667</ele><time>2026-04-11T14:25:42.001Z</time></trkpt><trkpt lat="45.264202547305054" lon="8.903136816286024"><ele>102.33333333333334</ele><time>2026-04-11T14:25:43.001Z</time></trkpt><trkpt lat="45.26420813400238" lon="8.903032294088126"><ele>102.5</ele><time>2026-04-11T14:25:44.001Z</time></trkpt><trkpt lat="45.26421874492167" lon="8.902920401399284"><ele>102.66666666666667</ele><time>2026-04-11T14:25:45.001Z</time></trkpt><trkpt lat="45.26422729019548" lon="8.902809673663517"><ele>102.83333333333334</ele><time>2026-04-11T14:25:46.001Z</time></trkpt><trkpt lat="45.264232768893535" lon="8.90271719397349"><ele>103.0</ele><time>2026-04-11T14:25:47.001Z</time></trkpt><trkpt lat="45.264241190682164" lon="8.902563246837275"><ele>103.0</ele><time>2026-04-11T14:25:49.001Z</time></trkpt><trkpt lat="45.26425382505696" lon="8.902422245790108"><ele>103.0</ele><time>2026-04-11T14:25:51.001Z</time></trkpt><trkpt lat="45.2642491414368" lon="8.902307186974754"><ele>103.0</ele><time>2026-04-11T14:25:53.001Z</time></trkpt><trkpt lat="45.26426915168148" lon="8.90221802225922"><ele>103.0</ele><time>2026-04-11T14:25:56.001Z</time></trkpt></trkseg></trk></gpx>